<?xml version="1.0" encoding="UTF-8" standalone="no" ?>
<gpx xmlns="http://www.topografix.com/GPX/1/1" xmlns:xsi="http://www.w3.org/2001/XMLSchema-instance" xsi:schemaLocation="http://www.topografix.com/GPX/1/1 http://www.topografix.com/GPX/1/1/gpx.xsd" version="1.1" creator="VisuGPX - https://www.visugpx.com">
  <metadata>
    <name>014SG73-8107762</name>
    <desc><![CDATA[
02]]></desc>
  </metadata>
  <trk>
    <name><![CDATA[014SG73-8107762]]></name>
    <trkseg>
      <trkpt lat="46.69859" lon="-1.93398">
        <ele>5</ele>
        <time>2018-03-14T21:48:10Z</time>
      </trkpt>
      <trkpt lat="46.69892" lon="-1.93385">
        <ele>5</ele>
        <time>2018-03-14T21:49:10Z</time>
      </trkpt>
      <trkpt lat="46.69898" lon="-1.93383">
        <ele>5</ele>
        <time>2018-03-14T21:50:10Z</time>
      </trkpt>
      <trkpt lat="46.69901" lon="-1.93383">
        <ele>5</ele>
        <time>2018-03-14T21:51:10Z</time>
      </trkpt>
      <trkpt lat="46.69908" lon="-1.93383">
        <ele>4</ele>
        <time>2018-03-14T21:52:10Z</time>
      </trkpt>
      <trkpt lat="46.69907" lon="-1.93379">
        <ele>5</ele>
        <time>2018-03-14T21:53:10Z</time>
      </trkpt>
      <trkpt lat="46.69908" lon="-1.93377">
        <ele>5</ele>
        <time>2018-03-14T21:54:10Z</time>
      </trkpt>
      <trkpt lat="46.69908" lon="-1.93376">
        <ele>5</ele>
        <time>2018-03-14T21:55:10Z</time>
      </trkpt>
      <trkpt lat="46.69909" lon="-1.93375">
        <ele>5</ele>
        <time>2018-03-14T21:56:10Z</time>
      </trkpt>
      <trkpt lat="46.69911" lon="-1.93375">
        <ele>5</ele>
        <time>2018-03-14T21:57:10Z</time>
      </trkpt>
      <trkpt lat="46.69912" lon="-1.93375">
        <ele>5</ele>
        <time>2018-03-14T21:58:10Z</time>
      </trkpt>
      <trkpt lat="46.69914" lon="-1.93375">
        <ele>5</ele>
        <time>2018-03-14T21:59:10Z</time>
      </trkpt>
      <trkpt lat="46.69915" lon="-1.93376">
        <ele>5</ele>
        <time>2018-03-14T22:00:10Z</time>
      </trkpt>
      <trkpt lat="46.69915" lon="-1.93377">
        <ele>4</ele>
        <time>2018-03-14T22:01:10Z</time>
      </trkpt>
      <trkpt lat="46.69916" lon="-1.93379">
        <ele>4</ele>
        <time>2018-03-14T22:02:10Z</time>
      </trkpt>
      <trkpt lat="46.69916" lon="-1.93382">
        <ele>4</ele>
        <time>2018-03-14T22:03:10Z</time>
      </trkpt>
      <trkpt lat="46.69915" lon="-1.93383">
        <ele>4</ele>
        <time>2018-03-14T22:04:10Z</time>
      </trkpt>
      <trkpt lat="46.69922" lon="-1.93383">
        <ele>4</ele>
        <time>2018-03-14T22:05:10Z</time>
      </trkpt>
      <trkpt lat="46.69925" lon="-1.93383">
        <ele>4</ele>
        <time>2018-03-14T22:06:10Z</time>
      </trkpt>
      <trkpt lat="46.69935" lon="-1.93382">
        <ele>4</ele>
        <time>2018-03-14T22:07:10Z</time>
      </trkpt>
      <trkpt lat="46.69944" lon="-1.93381">
        <ele>4</ele>
        <time>2018-03-14T22:08:10Z</time>
      </trkpt>
      <trkpt lat="46.69949" lon="-1.93379">
        <ele>4</ele>
        <time>2018-03-14T22:09:10Z</time>
      </trkpt>
      <trkpt lat="46.69953" lon="-1.93377">
        <ele>4</ele>
        <time>2018-03-14T22:10:10Z</time>
      </trkpt>
      <trkpt lat="46.69958" lon="-1.93375">
        <ele>4</ele>
        <time>2018-03-14T22:11:10Z</time>
      </trkpt>
      <trkpt lat="46.69963" lon="-1.93373">
        <ele>4</ele>
        <time>2018-03-14T22:12:10Z</time>
      </trkpt>
      <trkpt lat="46.69969" lon="-1.9337">
        <ele>4</ele>
        <time>2018-03-14T22:13:10Z</time>
      </trkpt>
      <trkpt lat="46.69973" lon="-1.93367">
        <ele>4</ele>
        <time>2018-03-14T22:14:10Z</time>
      </trkpt>
      <trkpt lat="46.69976" lon="-1.93367">
        <ele>4</ele>
        <time>2018-03-14T22:15:10Z</time>
      </trkpt>
      <trkpt lat="46.69978" lon="-1.93366">
        <ele>3</ele>
        <time>2018-03-14T22:16:10Z</time>
      </trkpt>
      <trkpt lat="46.69979" lon="-1.93366">
        <ele>3</ele>
        <time>2018-03-14T22:17:10Z</time>
      </trkpt>
      <trkpt lat="46.69982" lon="-1.93367">
        <ele>3</ele>
        <time>2018-03-14T22:18:10Z</time>
      </trkpt>
      <trkpt lat="46.69987" lon="-1.93369">
        <ele>3</ele>
        <time>2018-03-14T22:19:10Z</time>
      </trkpt>
      <trkpt lat="46.70002" lon="-1.93375">
        <ele>3</ele>
        <time>2018-03-14T22:20:10Z</time>
      </trkpt>
      <trkpt lat="46.70015" lon="-1.9338">
        <ele>3</ele>
        <time>2018-03-14T22:21:10Z</time>
      </trkpt>
      <trkpt lat="46.7002" lon="-1.93382">
        <ele>3</ele>
        <time>2018-03-14T22:22:10Z</time>
      </trkpt>
      <trkpt lat="46.70023" lon="-1.93384">
        <ele>3</ele>
        <time>2018-03-14T22:23:10Z</time>
      </trkpt>
      <trkpt lat="46.70025" lon="-1.93386">
        <ele>3</ele>
        <time>2018-03-14T22:24:10Z</time>
      </trkpt>
      <trkpt lat="46.70028" lon="-1.93388">
        <ele>3</ele>
        <time>2018-03-14T22:25:10Z</time>
      </trkpt>
      <trkpt lat="46.7003" lon="-1.93391">
        <ele>3</ele>
        <time>2018-03-14T22:26:10Z</time>
      </trkpt>
      <trkpt lat="46.70033" lon="-1.93394">
        <ele>2</ele>
        <time>2018-03-14T22:27:10Z</time>
      </trkpt>
      <trkpt lat="46.70036" lon="-1.93397">
        <ele>2</ele>
        <time>2018-03-14T22:28:10Z</time>
      </trkpt>
      <trkpt lat="46.70038" lon="-1.93398">
        <ele>2</ele>
        <time>2018-03-14T22:29:10Z</time>
      </trkpt>
      <trkpt lat="46.70041" lon="-1.934">
        <ele>2</ele>
        <time>2018-03-14T22:30:10Z</time>
      </trkpt>
      <trkpt lat="46.70043" lon="-1.93401">
        <ele>2</ele>
        <time>2018-03-14T22:31:10Z</time>
      </trkpt>
      <trkpt lat="46.70046" lon="-1.93402">
        <ele>2</ele>
        <time>2018-03-14T22:32:10Z</time>
      </trkpt>
      <trkpt lat="46.70052" lon="-1.93405">
        <ele>2</ele>
        <time>2018-03-14T22:33:10Z</time>
      </trkpt>
      <trkpt lat="46.70052" lon="-1.93404">
        <ele>2</ele>
        <time>2018-03-14T22:34:10Z</time>
      </trkpt>
      <trkpt lat="46.70052" lon="-1.93403">
        <ele>2</ele>
        <time>2018-03-14T22:35:10Z</time>
      </trkpt>
      <trkpt lat="46.70052" lon="-1.93402">
        <ele>2</ele>
        <time>2018-03-14T22:36:10Z</time>
      </trkpt>
      <trkpt lat="46.70052" lon="-1.93401">
        <ele>2</ele>
        <time>2018-03-14T22:37:10Z</time>
      </trkpt>
      <trkpt lat="46.70053" lon="-1.93401">
        <ele>2</ele>
        <time>2018-03-14T22:38:10Z</time>
      </trkpt>
      <trkpt lat="46.70053" lon="-1.934">
        <ele>2</ele>
        <time>2018-03-14T22:39:10Z</time>
      </trkpt>
      <trkpt lat="46.70053" lon="-1.93399">
        <ele>2</ele>
        <time>2018-03-14T22:40:10Z</time>
      </trkpt>
      <trkpt lat="46.70054" lon="-1.93399">
        <ele>2</ele>
        <time>2018-03-14T22:41:10Z</time>
      </trkpt>
      <trkpt lat="46.70054" lon="-1.93398">
        <ele>2</ele>
        <time>2018-03-14T22:42:10Z</time>
      </trkpt>
      <trkpt lat="46.70055" lon="-1.93398">
        <ele>2</ele>
        <time>2018-03-14T22:43:10Z</time>
      </trkpt>
      <trkpt lat="46.70056" lon="-1.93398">
        <ele>2</ele>
        <time>2018-03-14T22:44:10Z</time>
      </trkpt>
      <trkpt lat="46.70056" lon="-1.93397">
        <ele>2</ele>
        <time>2018-03-14T22:45:10Z</time>
      </trkpt>
      <trkpt lat="46.70057" lon="-1.93397">
        <ele>2</ele>
        <time>2018-03-14T22:46:10Z</time>
      </trkpt>
      <trkpt lat="46.70058" lon="-1.93397">
        <ele>2</ele>
        <time>2018-03-14T22:47:10Z</time>
      </trkpt>
      <trkpt lat="46.70059" lon="-1.93398">
        <ele>2</ele>
        <time>2018-03-14T22:48:10Z</time>
      </trkpt>
      <trkpt lat="46.7006" lon="-1.93398">
        <ele>2</ele>
        <time>2018-03-14T22:49:10Z</time>
      </trkpt>
      <trkpt lat="46.7006" lon="-1.93399">
        <ele>2</ele>
        <time>2018-03-14T22:50:10Z</time>
      </trkpt>
      <trkpt lat="46.70061" lon="-1.93399">
        <ele>2</ele>
        <time>2018-03-14T22:51:10Z</time>
      </trkpt>
      <trkpt lat="46.70061" lon="-1.934">
        <ele>2</ele>
        <time>2018-03-14T22:52:10Z</time>
      </trkpt>
      <trkpt lat="46.70061" lon="-1.93401">
        <ele>2</ele>
        <time>2018-03-14T22:53:10Z</time>
      </trkpt>
      <trkpt lat="46.70062" lon="-1.93401">
        <ele>2</ele>
        <time>2018-03-14T22:54:10Z</time>
      </trkpt>
      <trkpt lat="46.70062" lon="-1.93402">
        <ele>2</ele>
        <time>2018-03-14T22:55:10Z</time>
      </trkpt>
      <trkpt lat="46.70062" lon="-1.93403">
        <ele>2</ele>
        <time>2018-03-14T22:56:10Z</time>
      </trkpt>
      <trkpt lat="46.70062" lon="-1.93404">
        <ele>2</ele>
        <time>2018-03-14T22:57:10Z</time>
      </trkpt>
      <trkpt lat="46.70062" lon="-1.93405">
        <ele>2</ele>
        <time>2018-03-14T22:58:10Z</time>
      </trkpt>
      <trkpt lat="46.70083" lon="-1.93405">
        <ele>2</ele>
        <time>2018-03-14T22:59:10Z</time>
      </trkpt>
      <trkpt lat="46.70093" lon="-1.934">
        <ele>2</ele>
        <time>2018-03-14T23:00:10Z</time>
      </trkpt>
      <trkpt lat="46.70098" lon="-1.93397">
        <ele>2</ele>
        <time>2018-03-14T23:01:10Z</time>
      </trkpt>
      <trkpt lat="46.70102" lon="-1.93395">
        <ele>2</ele>
        <time>2018-03-14T23:02:10Z</time>
      </trkpt>
      <trkpt lat="46.70107" lon="-1.93391">
        <ele>2</ele>
        <time>2018-03-14T23:03:10Z</time>
      </trkpt>
      <trkpt lat="46.70111" lon="-1.93388">
        <ele>2</ele>
        <time>2018-03-14T23:04:10Z</time>
      </trkpt>
      <trkpt lat="46.70114" lon="-1.93384">
        <ele>2</ele>
        <time>2018-03-14T23:05:10Z</time>
      </trkpt>
      <trkpt lat="46.70114" lon="-1.93384">
        <ele>2</ele>
        <time>2018-03-14T23:06:10Z</time>
      </trkpt>
      <trkpt lat="46.70115" lon="-1.93383">
        <ele>2</ele>
        <time>2018-03-14T23:07:10Z</time>
      </trkpt>
      <trkpt lat="46.70115" lon="-1.93382">
        <ele>2</ele>
        <time>2018-03-14T23:08:10Z</time>
      </trkpt>
      <trkpt lat="46.70115" lon="-1.93381">
        <ele>2</ele>
        <time>2018-03-14T23:09:10Z</time>
      </trkpt>
      <trkpt lat="46.70116" lon="-1.9338">
        <ele>2</ele>
        <time>2018-03-14T23:10:10Z</time>
      </trkpt>
      <trkpt lat="46.70116" lon="-1.93378">
        <ele>2</ele>
        <time>2018-03-14T23:11:10Z</time>
      </trkpt>
      <trkpt lat="46.70116" lon="-1.93377">
        <ele>2</ele>
        <time>2018-03-14T23:12:10Z</time>
      </trkpt>
      <trkpt lat="46.70117" lon="-1.93376">
        <ele>2</ele>
        <time>2018-03-14T23:13:10Z</time>
      </trkpt>
      <trkpt lat="46.70117" lon="-1.93375">
        <ele>2</ele>
        <time>2018-03-14T23:14:10Z</time>
      </trkpt>
      <trkpt lat="46.70118" lon="-1.93374">
        <ele>1</ele>
        <time>2018-03-14T23:15:10Z</time>
      </trkpt>
      <trkpt lat="46.70119" lon="-1.93373">
        <ele>1</ele>
        <time>2018-03-14T23:16:10Z</time>
      </trkpt>
      <trkpt lat="46.70119" lon="-1.93372">
        <ele>1</ele>
        <time>2018-03-14T23:17:10Z</time>
      </trkpt>
      <trkpt lat="46.7012" lon="-1.93372">
        <ele>1</ele>
        <time>2018-03-14T23:18:10Z</time>
      </trkpt>
      <trkpt lat="46.70121" lon="-1.93371">
        <ele>1</ele>
        <time>2018-03-14T23:19:10Z</time>
      </trkpt>
      <trkpt lat="46.70122" lon="-1.9337">
        <ele>1</ele>
        <time>2018-03-14T23:20:10Z</time>
      </trkpt>
      <trkpt lat="46.70123" lon="-1.93369">
        <ele>1</ele>
        <time>2018-03-14T23:21:10Z</time>
      </trkpt>
      <trkpt lat="46.70124" lon="-1.93369">
        <ele>1</ele>
        <time>2018-03-14T23:22:10Z</time>
      </trkpt>
      <trkpt lat="46.70125" lon="-1.93368">
        <ele>2</ele>
        <time>2018-03-14T23:23:10Z</time>
      </trkpt>
      <trkpt lat="46.70126" lon="-1.93368">
        <ele>2</ele>
        <time>2018-03-14T23:24:10Z</time>
      </trkpt>
      <trkpt lat="46.70127" lon="-1.93368">
        <ele>2</ele>
        <time>2018-03-14T23:25:10Z</time>
      </trkpt>
      <trkpt lat="46.70128" lon="-1.93368">
        <ele>2</ele>
        <time>2018-03-14T23:26:10Z</time>
      </trkpt>
      <trkpt lat="46.70129" lon="-1.93368">
        <ele>2</ele>
        <time>2018-03-14T23:27:10Z</time>
      </trkpt>
      <trkpt lat="46.7013" lon="-1.93368">
        <ele>2</ele>
        <time>2018-03-14T23:28:10Z</time>
      </trkpt>
      <trkpt lat="46.70131" lon="-1.93369">
        <ele>2</ele>
        <time>2018-03-14T23:29:10Z</time>
      </trkpt>
      <trkpt lat="46.70132" lon="-1.93369">
        <ele>2</ele>
        <time>2018-03-14T23:30:10Z</time>
      </trkpt>
      <trkpt lat="46.70132" lon="-1.9337">
        <ele>2</ele>
        <time>2018-03-14T23:31:10Z</time>
      </trkpt>
      <trkpt lat="46.70133" lon="-1.9337">
        <ele>2</ele>
        <time>2018-03-14T23:32:10Z</time>
      </trkpt>
      <trkpt lat="46.70134" lon="-1.93371">
        <ele>2</ele>
        <time>2018-03-14T23:33:10Z</time>
      </trkpt>
      <trkpt lat="46.70135" lon="-1.93372">
        <ele>2</ele>
        <time>2018-03-14T23:34:10Z</time>
      </trkpt>
      <trkpt lat="46.70136" lon="-1.93373">
        <ele>2</ele>
        <time>2018-03-14T23:35:10Z</time>
      </trkpt>
      <trkpt lat="46.70136" lon="-1.93374">
        <ele>2</ele>
        <time>2018-03-14T23:36:10Z</time>
      </trkpt>
      <trkpt lat="46.70137" lon="-1.93374">
        <ele>2</ele>
        <time>2018-03-14T23:37:10Z</time>
      </trkpt>
      <trkpt lat="46.70137" lon="-1.93375">
        <ele>1</ele>
        <time>2018-03-14T23:38:10Z</time>
      </trkpt>
      <trkpt lat="46.70138" lon="-1.93376">
        <ele>1</ele>
        <time>2018-03-14T23:39:10Z</time>
      </trkpt>
      <trkpt lat="46.70138" lon="-1.93377">
        <ele>1</ele>
        <time>2018-03-14T23:40:10Z</time>
      </trkpt>
      <trkpt lat="46.70138" lon="-1.93378">
        <ele>1</ele>
        <time>2018-03-14T23:41:10Z</time>
      </trkpt>
      <trkpt lat="46.70165" lon="-1.93375">
        <ele>1</ele>
        <time>2018-03-14T23:42:10Z</time>
      </trkpt>
      <trkpt lat="46.7017" lon="-1.93374">
        <ele>1</ele>
        <time>2018-03-14T23:43:10Z</time>
      </trkpt>
      <trkpt lat="46.70173" lon="-1.93372">
        <ele>1</ele>
        <time>2018-03-14T23:44:10Z</time>
      </trkpt>
      <trkpt lat="46.70181" lon="-1.93366">
        <ele>2</ele>
        <time>2018-03-14T23:45:10Z</time>
      </trkpt>
      <trkpt lat="46.70194" lon="-1.93356">
        <ele>1</ele>
        <time>2018-03-14T23:46:10Z</time>
      </trkpt>
      <trkpt lat="46.70205" lon="-1.93347">
        <ele>1</ele>
        <time>2018-03-14T23:47:10Z</time>
      </trkpt>
      <trkpt lat="46.70211" lon="-1.9334">
        <ele>1</ele>
        <time>2018-03-14T23:48:10Z</time>
      </trkpt>
      <trkpt lat="46.70216" lon="-1.93332">
        <ele>1</ele>
        <time>2018-03-14T23:49:10Z</time>
      </trkpt>
      <trkpt lat="46.70224" lon="-1.9332">
        <ele>1</ele>
        <time>2018-03-14T23:50:10Z</time>
      </trkpt>
      <trkpt lat="46.70239" lon="-1.93295">
        <ele>2</ele>
        <time>2018-03-14T23:51:10Z</time>
      </trkpt>
      <trkpt lat="46.70251" lon="-1.9328">
        <ele>2</ele>
        <time>2018-03-14T23:52:10Z</time>
      </trkpt>
      <trkpt lat="46.70263" lon="-1.93271">
        <ele>2</ele>
        <time>2018-03-14T23:53:10Z</time>
      </trkpt>
      <trkpt lat="46.70276" lon="-1.93263">
        <ele>2</ele>
        <time>2018-03-14T23:54:10Z</time>
      </trkpt>
      <trkpt lat="46.7028" lon="-1.9326">
        <ele>2</ele>
        <time>2018-03-14T23:55:10Z</time>
      </trkpt>
      <trkpt lat="46.70288" lon="-1.93253">
        <ele>2</ele>
        <time>2018-03-14T23:56:10Z</time>
      </trkpt>
      <trkpt lat="46.70295" lon="-1.93245">
        <ele>2</ele>
        <time>2018-03-14T23:57:10Z</time>
      </trkpt>
      <trkpt lat="46.70304" lon="-1.9323">
        <ele>2</ele>
        <time>2018-03-14T23:58:10Z</time>
      </trkpt>
      <trkpt lat="46.70304" lon="-1.9323">
        <ele>2</ele>
        <time>2018-03-14T23:59:10Z</time>
      </trkpt>
      <trkpt lat="46.70328" lon="-1.93232">
        <ele>2</ele>
        <time>2018-03-15T00:00:10Z</time>
      </trkpt>
      <trkpt lat="46.70362" lon="-1.9324">
        <ele>2</ele>
        <time>2018-03-15T00:01:10Z</time>
      </trkpt>
      <trkpt lat="46.70398" lon="-1.93249">
        <ele>3</ele>
        <time>2018-03-15T00:02:10Z</time>
      </trkpt>
      <trkpt lat="46.70419" lon="-1.93258">
        <ele>3</ele>
        <time>2018-03-15T00:03:10Z</time>
      </trkpt>
      <trkpt lat="46.70429" lon="-1.93262">
        <ele>3</ele>
        <time>2018-03-15T00:04:10Z</time>
      </trkpt>
      <trkpt lat="46.70439" lon="-1.93265">
        <ele>3</ele>
        <time>2018-03-15T00:05:10Z</time>
      </trkpt>
      <trkpt lat="46.70449" lon="-1.93267">
        <ele>3</ele>
        <time>2018-03-15T00:06:10Z</time>
      </trkpt>
      <trkpt lat="46.70458" lon="-1.93268">
        <ele>3</ele>
        <time>2018-03-15T00:07:10Z</time>
      </trkpt>
      <trkpt lat="46.70465" lon="-1.93267">
        <ele>3</ele>
        <time>2018-03-15T00:08:10Z</time>
      </trkpt>
      <trkpt lat="46.70472" lon="-1.93265">
        <ele>3</ele>
        <time>2018-03-15T00:09:10Z</time>
      </trkpt>
      <trkpt lat="46.7048" lon="-1.9326">
        <ele>4</ele>
        <time>2018-03-15T00:10:10Z</time>
      </trkpt>
      <trkpt lat="46.70489" lon="-1.93253">
        <ele>4</ele>
        <time>2018-03-15T00:11:10Z</time>
      </trkpt>
      <trkpt lat="46.70503" lon="-1.93244">
        <ele>4</ele>
        <time>2018-03-15T00:12:10Z</time>
      </trkpt>
      <trkpt lat="46.7052" lon="-1.93232">
        <ele>5</ele>
        <time>2018-03-15T00:13:10Z</time>
      </trkpt>
      <trkpt lat="46.70533" lon="-1.93223">
        <ele>5</ele>
        <time>2018-03-15T00:14:10Z</time>
      </trkpt>
      <trkpt lat="46.70548" lon="-1.93216">
        <ele>5</ele>
        <time>2018-03-15T00:15:10Z</time>
      </trkpt>
      <trkpt lat="46.70566" lon="-1.93211">
        <ele>6</ele>
        <time>2018-03-15T00:16:10Z</time>
      </trkpt>
      <trkpt lat="46.70588" lon="-1.93206">
        <ele>6</ele>
        <time>2018-03-15T00:17:10Z</time>
      </trkpt>
      <trkpt lat="46.7061" lon="-1.93202">
        <ele>7</ele>
        <time>2018-03-15T00:18:10Z</time>
      </trkpt>
      <trkpt lat="46.7063" lon="-1.93198">
        <ele>7</ele>
        <time>2018-03-15T00:19:10Z</time>
      </trkpt>
      <trkpt lat="46.70648" lon="-1.93197">
        <ele>8</ele>
        <time>2018-03-15T00:20:10Z</time>
      </trkpt>
      <trkpt lat="46.70659" lon="-1.93197">
        <ele>8</ele>
        <time>2018-03-15T00:21:10Z</time>
      </trkpt>
      <trkpt lat="46.70671" lon="-1.932">
        <ele>8</ele>
        <time>2018-03-15T00:22:10Z</time>
      </trkpt>
      <trkpt lat="46.70691" lon="-1.93205">
        <ele>8</ele>
        <time>2018-03-15T00:23:10Z</time>
      </trkpt>
      <trkpt lat="46.7071" lon="-1.93211">
        <ele>8</ele>
        <time>2018-03-15T00:24:10Z</time>
      </trkpt>
      <trkpt lat="46.70712" lon="-1.93212">
        <ele>8</ele>
        <time>2018-03-15T00:25:10Z</time>
      </trkpt>
      <trkpt lat="46.70729" lon="-1.93213">
        <ele>8</ele>
        <time>2018-03-15T00:26:10Z</time>
      </trkpt>
      <trkpt lat="46.70745" lon="-1.93212">
        <ele>8</ele>
        <time>2018-03-15T00:27:10Z</time>
      </trkpt>
      <trkpt lat="46.70752" lon="-1.9321">
        <ele>8</ele>
        <time>2018-03-15T00:28:10Z</time>
      </trkpt>
      <trkpt lat="46.70758" lon="-1.93207">
        <ele>8</ele>
        <time>2018-03-15T00:29:10Z</time>
      </trkpt>
      <trkpt lat="46.70766" lon="-1.93202">
        <ele>8</ele>
        <time>2018-03-15T00:30:10Z</time>
      </trkpt>
      <trkpt lat="46.70772" lon="-1.93197">
        <ele>8</ele>
        <time>2018-03-15T00:31:10Z</time>
      </trkpt>
      <trkpt lat="46.70785" lon="-1.93186">
        <ele>9</ele>
        <time>2018-03-15T00:32:10Z</time>
      </trkpt>
      <trkpt lat="46.70795" lon="-1.93179">
        <ele>9</ele>
        <time>2018-03-15T00:33:10Z</time>
      </trkpt>
      <trkpt lat="46.70804" lon="-1.93173">
        <ele>9</ele>
        <time>2018-03-15T00:34:10Z</time>
      </trkpt>
      <trkpt lat="46.70813" lon="-1.9317">
        <ele>9</ele>
        <time>2018-03-15T00:35:10Z</time>
      </trkpt>
      <trkpt lat="46.70821" lon="-1.93168">
        <ele>9</ele>
        <time>2018-03-15T00:36:10Z</time>
      </trkpt>
      <trkpt lat="46.70829" lon="-1.93167">
        <ele>9</ele>
        <time>2018-03-15T00:37:10Z</time>
      </trkpt>
      <trkpt lat="46.70835" lon="-1.93168">
        <ele>9</ele>
        <time>2018-03-15T00:38:10Z</time>
      </trkpt>
      <trkpt lat="46.70844" lon="-1.93169">
        <ele>9</ele>
        <time>2018-03-15T00:39:10Z</time>
      </trkpt>
      <trkpt lat="46.70877" lon="-1.93174">
        <ele>8</ele>
        <time>2018-03-15T00:40:10Z</time>
      </trkpt>
      <trkpt lat="46.70916" lon="-1.93179">
        <ele>7</ele>
        <time>2018-03-15T00:41:10Z</time>
      </trkpt>
      <trkpt lat="46.70936" lon="-1.93181">
        <ele>7</ele>
        <time>2018-03-15T00:42:10Z</time>
      </trkpt>
      <trkpt lat="46.70956" lon="-1.93184">
        <ele>7</ele>
        <time>2018-03-15T00:43:10Z</time>
      </trkpt>
      <trkpt lat="46.70974" lon="-1.93184">
        <ele>7</ele>
        <time>2018-03-15T00:44:10Z</time>
      </trkpt>
      <trkpt lat="46.71007" lon="-1.9318">
        <ele>7</ele>
        <time>2018-03-15T00:45:10Z</time>
      </trkpt>
      <trkpt lat="46.71025" lon="-1.93175">
        <ele>7</ele>
        <time>2018-03-15T00:46:10Z</time>
      </trkpt>
      <trkpt lat="46.71038" lon="-1.93168">
        <ele>7</ele>
        <time>2018-03-15T00:47:10Z</time>
      </trkpt>
      <trkpt lat="46.71048" lon="-1.93158">
        <ele>7</ele>
        <time>2018-03-15T00:48:10Z</time>
      </trkpt>
      <trkpt lat="46.71062" lon="-1.93143">
        <ele>7</ele>
        <time>2018-03-15T00:49:10Z</time>
      </trkpt>
      <trkpt lat="46.7109" lon="-1.93111">
        <ele>7</ele>
        <time>2018-03-15T00:50:10Z</time>
      </trkpt>
      <trkpt lat="46.71123" lon="-1.93073">
        <ele>7</ele>
        <time>2018-03-15T00:51:10Z</time>
      </trkpt>
      <trkpt lat="46.71124" lon="-1.93072">
        <ele>7</ele>
        <time>2018-03-15T00:52:10Z</time>
      </trkpt>
      <trkpt lat="46.71141" lon="-1.93051">
        <ele>7</ele>
        <time>2018-03-15T00:53:10Z</time>
      </trkpt>
      <trkpt lat="46.7115" lon="-1.93042">
        <ele>7</ele>
        <time>2018-03-15T00:54:10Z</time>
      </trkpt>
      <trkpt lat="46.71159" lon="-1.93035">
        <ele>8</ele>
        <time>2018-03-15T00:55:10Z</time>
      </trkpt>
      <trkpt lat="46.71167" lon="-1.93032">
        <ele>8</ele>
        <time>2018-03-15T00:56:10Z</time>
      </trkpt>
      <trkpt lat="46.71178" lon="-1.9303">
        <ele>7</ele>
        <time>2018-03-15T00:57:10Z</time>
      </trkpt>
      <trkpt lat="46.71195" lon="-1.93028">
        <ele>7</ele>
        <time>2018-03-15T00:58:10Z</time>
      </trkpt>
      <trkpt lat="46.71215" lon="-1.93028">
        <ele>6</ele>
        <time>2018-03-15T00:59:10Z</time>
      </trkpt>
      <trkpt lat="46.71225" lon="-1.93026">
        <ele>6</ele>
        <time>2018-03-15T01:00:10Z</time>
      </trkpt>
      <trkpt lat="46.71236" lon="-1.93024">
        <ele>5</ele>
        <time>2018-03-15T01:01:10Z</time>
      </trkpt>
      <trkpt lat="46.71243" lon="-1.93018">
        <ele>5</ele>
        <time>2018-03-15T01:02:10Z</time>
      </trkpt>
      <trkpt lat="46.71246" lon="-1.93012">
        <ele>5</ele>
        <time>2018-03-15T01:03:10Z</time>
      </trkpt>
      <trkpt lat="46.71249" lon="-1.93002">
        <ele>5</ele>
        <time>2018-03-15T01:04:10Z</time>
      </trkpt>
      <trkpt lat="46.71252" lon="-1.92988">
        <ele>5</ele>
        <time>2018-03-15T01:05:10Z</time>
      </trkpt>
      <trkpt lat="46.71256" lon="-1.92969">
        <ele>5</ele>
        <time>2018-03-15T01:06:10Z</time>
      </trkpt>
      <trkpt lat="46.71259" lon="-1.92949">
        <ele>5</ele>
        <time>2018-03-15T01:07:10Z</time>
      </trkpt>
      <trkpt lat="46.71259" lon="-1.92949">
        <ele>5</ele>
        <time>2018-03-15T01:08:10Z</time>
      </trkpt>
      <trkpt lat="46.71261" lon="-1.92937">
        <ele>4</ele>
        <time>2018-03-15T01:09:10Z</time>
      </trkpt>
      <trkpt lat="46.71265" lon="-1.92901">
        <ele>3</ele>
        <time>2018-03-15T01:10:10Z</time>
      </trkpt>
      <trkpt lat="46.71269" lon="-1.9287">
        <ele>3</ele>
        <time>2018-03-15T01:11:10Z</time>
      </trkpt>
      <trkpt lat="46.71269" lon="-1.92869">
        <ele>3</ele>
        <time>2018-03-15T01:12:10Z</time>
      </trkpt>
      <trkpt lat="46.71274" lon="-1.92841">
        <ele>3</ele>
        <time>2018-03-15T01:13:10Z</time>
      </trkpt>
      <trkpt lat="46.71281" lon="-1.92808">
        <ele>4</ele>
        <time>2018-03-15T01:14:10Z</time>
      </trkpt>
      <trkpt lat="46.71289" lon="-1.92771">
        <ele>4</ele>
        <time>2018-03-15T01:15:10Z</time>
      </trkpt>
      <trkpt lat="46.71299" lon="-1.92726">
        <ele>5</ele>
        <time>2018-03-15T01:16:10Z</time>
      </trkpt>
      <trkpt lat="46.71299" lon="-1.92723">
        <ele>5</ele>
        <time>2018-03-15T01:17:10Z</time>
      </trkpt>
      <trkpt lat="46.71306" lon="-1.927">
        <ele>6</ele>
        <time>2018-03-15T01:18:10Z</time>
      </trkpt>
      <trkpt lat="46.71306" lon="-1.92696">
        <ele>6</ele>
        <time>2018-03-15T01:19:10Z</time>
      </trkpt>
      <trkpt lat="46.71307" lon="-1.92691">
        <ele>6</ele>
        <time>2018-03-15T01:20:10Z</time>
      </trkpt>
      <trkpt lat="46.71308" lon="-1.92684">
        <ele>6</ele>
        <time>2018-03-15T01:21:10Z</time>
      </trkpt>
      <trkpt lat="46.71308" lon="-1.92681">
        <ele>7</ele>
        <time>2018-03-15T01:22:10Z</time>
      </trkpt>
      <trkpt lat="46.71307" lon="-1.92661">
        <ele>7</ele>
        <time>2018-03-15T01:23:10Z</time>
      </trkpt>
      <trkpt lat="46.71305" lon="-1.92644">
        <ele>8</ele>
        <time>2018-03-15T01:24:10Z</time>
      </trkpt>
      <trkpt lat="46.71305" lon="-1.9264">
        <ele>8</ele>
        <time>2018-03-15T01:25:10Z</time>
      </trkpt>
      <trkpt lat="46.71305" lon="-1.92636">
        <ele>8</ele>
        <time>2018-03-15T01:26:10Z</time>
      </trkpt>
      <trkpt lat="46.71305" lon="-1.92629">
        <ele>8</ele>
        <time>2018-03-15T01:27:10Z</time>
      </trkpt>
      <trkpt lat="46.71306" lon="-1.92623">
        <ele>8</ele>
        <time>2018-03-15T01:28:10Z</time>
      </trkpt>
      <trkpt lat="46.71307" lon="-1.92618">
        <ele>8</ele>
        <time>2018-03-15T01:29:10Z</time>
      </trkpt>
      <trkpt lat="46.71311" lon="-1.92597">
        <ele>8</ele>
        <time>2018-03-15T01:30:10Z</time>
      </trkpt>
      <trkpt lat="46.71325" lon="-1.92544">
        <ele>8</ele>
        <time>2018-03-15T01:31:10Z</time>
      </trkpt>
      <trkpt lat="46.7133" lon="-1.92521">
        <ele>8</ele>
        <time>2018-03-15T01:32:10Z</time>
      </trkpt>
      <trkpt lat="46.71331" lon="-1.92518">
        <ele>8</ele>
        <time>2018-03-15T01:33:10Z</time>
      </trkpt>
      <trkpt lat="46.71332" lon="-1.92515">
        <ele>8</ele>
        <time>2018-03-15T01:34:10Z</time>
      </trkpt>
      <trkpt lat="46.71333" lon="-1.92509">
        <ele>8</ele>
        <time>2018-03-15T01:35:10Z</time>
      </trkpt>
      <trkpt lat="46.71333" lon="-1.92502">
        <ele>8</ele>
        <time>2018-03-15T01:36:10Z</time>
      </trkpt>
      <trkpt lat="46.71332" lon="-1.92476">
        <ele>8</ele>
        <time>2018-03-15T01:37:10Z</time>
      </trkpt>
      <trkpt lat="46.7133" lon="-1.92445">
        <ele>9</ele>
        <time>2018-03-15T01:38:10Z</time>
      </trkpt>
      <trkpt lat="46.71327" lon="-1.92413">
        <ele>9</ele>
        <time>2018-03-15T01:39:10Z</time>
      </trkpt>
      <trkpt lat="46.71326" lon="-1.92402">
        <ele>9</ele>
        <time>2018-03-15T01:40:10Z</time>
      </trkpt>
      <trkpt lat="46.71323" lon="-1.92389">
        <ele>9</ele>
        <time>2018-03-15T01:41:10Z</time>
      </trkpt>
      <trkpt lat="46.71322" lon="-1.92385">
        <ele>9</ele>
        <time>2018-03-15T01:42:10Z</time>
      </trkpt>
      <trkpt lat="46.71321" lon="-1.9238">
        <ele>9</ele>
        <time>2018-03-15T01:43:10Z</time>
      </trkpt>
      <trkpt lat="46.71318" lon="-1.9237">
        <ele>9</ele>
        <time>2018-03-15T01:44:10Z</time>
      </trkpt>
      <trkpt lat="46.71315" lon="-1.92363">
        <ele>9</ele>
        <time>2018-03-15T01:45:10Z</time>
      </trkpt>
      <trkpt lat="46.71311" lon="-1.92355">
        <ele>9</ele>
        <time>2018-03-15T01:46:10Z</time>
      </trkpt>
      <trkpt lat="46.71306" lon="-1.92347">
        <ele>9</ele>
        <time>2018-03-15T01:47:10Z</time>
      </trkpt>
      <trkpt lat="46.71306" lon="-1.92347">
        <ele>9</ele>
        <time>2018-03-15T01:48:10Z</time>
      </trkpt>
      <trkpt lat="46.71322" lon="-1.92344">
        <ele>8</ele>
        <time>2018-03-15T01:49:10Z</time>
      </trkpt>
      <trkpt lat="46.71334" lon="-1.9234">
        <ele>8</ele>
        <time>2018-03-15T01:50:10Z</time>
      </trkpt>
      <trkpt lat="46.71352" lon="-1.92336">
        <ele>7</ele>
        <time>2018-03-15T01:51:10Z</time>
      </trkpt>
      <trkpt lat="46.71383" lon="-1.92327">
        <ele>6</ele>
        <time>2018-03-15T01:52:10Z</time>
      </trkpt>
      <trkpt lat="46.71414" lon="-1.92316">
        <ele>5</ele>
        <time>2018-03-15T01:53:10Z</time>
      </trkpt>
      <trkpt lat="46.71418" lon="-1.92313">
        <ele>5</ele>
        <time>2018-03-15T01:54:10Z</time>
      </trkpt>
      <trkpt lat="46.71421" lon="-1.92311">
        <ele>5</ele>
        <time>2018-03-15T01:55:10Z</time>
      </trkpt>
      <trkpt lat="46.71423" lon="-1.92308">
        <ele>5</ele>
        <time>2018-03-15T01:56:10Z</time>
      </trkpt>
      <trkpt lat="46.71426" lon="-1.92303">
        <ele>5</ele>
        <time>2018-03-15T01:57:10Z</time>
      </trkpt>
      <trkpt lat="46.71429" lon="-1.92297">
        <ele>5</ele>
        <time>2018-03-15T01:58:10Z</time>
      </trkpt>
      <trkpt lat="46.71432" lon="-1.92285">
        <ele>5</ele>
        <time>2018-03-15T01:59:10Z</time>
      </trkpt>
      <trkpt lat="46.71432" lon="-1.92282">
        <ele>5</ele>
        <time>2018-03-15T02:00:10Z</time>
      </trkpt>
      <trkpt lat="46.7144" lon="-1.92252">
        <ele>6</ele>
        <time>2018-03-15T02:01:10Z</time>
      </trkpt>
      <trkpt lat="46.71448" lon="-1.92225">
        <ele>6</ele>
        <time>2018-03-15T02:02:10Z</time>
      </trkpt>
      <trkpt lat="46.71456" lon="-1.92198">
        <ele>6</ele>
        <time>2018-03-15T02:03:10Z</time>
      </trkpt>
      <trkpt lat="46.71459" lon="-1.92185">
        <ele>6</ele>
        <time>2018-03-15T02:04:10Z</time>
      </trkpt>
      <trkpt lat="46.7146" lon="-1.92183">
        <ele>6</ele>
        <time>2018-03-15T02:05:10Z</time>
      </trkpt>
      <trkpt lat="46.71466" lon="-1.92164">
        <ele>6</ele>
        <time>2018-03-15T02:06:10Z</time>
      </trkpt>
      <trkpt lat="46.71469" lon="-1.9215">
        <ele>6</ele>
        <time>2018-03-15T02:07:10Z</time>
      </trkpt>
      <trkpt lat="46.71474" lon="-1.92129">
        <ele>6</ele>
        <time>2018-03-15T02:08:10Z</time>
      </trkpt>
      <trkpt lat="46.7148" lon="-1.92105">
        <ele>6</ele>
        <time>2018-03-15T02:09:10Z</time>
      </trkpt>
      <trkpt lat="46.71484" lon="-1.92081">
        <ele>5</ele>
        <time>2018-03-15T02:10:10Z</time>
      </trkpt>
      <trkpt lat="46.71491" lon="-1.9204">
        <ele>6</ele>
        <time>2018-03-15T02:11:10Z</time>
      </trkpt>
      <trkpt lat="46.71492" lon="-1.92037">
        <ele>6</ele>
        <time>2018-03-15T02:12:10Z</time>
      </trkpt>
      <trkpt lat="46.715" lon="-1.91985">
        <ele>7</ele>
        <time>2018-03-15T02:13:10Z</time>
      </trkpt>
      <trkpt lat="46.71504" lon="-1.91966">
        <ele>7</ele>
        <time>2018-03-15T02:14:10Z</time>
      </trkpt>
      <trkpt lat="46.71508" lon="-1.9194">
        <ele>7</ele>
        <time>2018-03-15T02:15:10Z</time>
      </trkpt>
      <trkpt lat="46.71511" lon="-1.91921">
        <ele>7</ele>
        <time>2018-03-15T02:16:10Z</time>
      </trkpt>
      <trkpt lat="46.71515" lon="-1.91902">
        <ele>7</ele>
        <time>2018-03-15T02:17:10Z</time>
      </trkpt>
      <trkpt lat="46.71518" lon="-1.91883">
        <ele>8</ele>
        <time>2018-03-15T02:18:10Z</time>
      </trkpt>
      <trkpt lat="46.71523" lon="-1.91865">
        <ele>8</ele>
        <time>2018-03-15T02:19:10Z</time>
      </trkpt>
      <trkpt lat="46.71528" lon="-1.91847">
        <ele>8</ele>
        <time>2018-03-15T02:20:10Z</time>
      </trkpt>
      <trkpt lat="46.71534" lon="-1.91828">
        <ele>8</ele>
        <time>2018-03-15T02:21:10Z</time>
      </trkpt>
      <trkpt lat="46.71548" lon="-1.91786">
        <ele>7</ele>
        <time>2018-03-15T02:22:10Z</time>
      </trkpt>
      <trkpt lat="46.71559" lon="-1.91759">
        <ele>7</ele>
        <time>2018-03-15T02:23:10Z</time>
      </trkpt>
      <trkpt lat="46.71565" lon="-1.91742">
        <ele>7</ele>
        <time>2018-03-15T02:24:10Z</time>
      </trkpt>
      <trkpt lat="46.71573" lon="-1.91722">
        <ele>7</ele>
        <time>2018-03-15T02:25:10Z</time>
      </trkpt>
      <trkpt lat="46.71589" lon="-1.91683">
        <ele>7</ele>
        <time>2018-03-15T02:26:10Z</time>
      </trkpt>
      <trkpt lat="46.71614" lon="-1.91622">
        <ele>5</ele>
        <time>2018-03-15T02:27:10Z</time>
      </trkpt>
      <trkpt lat="46.71624" lon="-1.91596">
        <ele>5</ele>
        <time>2018-03-15T02:28:10Z</time>
      </trkpt>
      <trkpt lat="46.71632" lon="-1.9158">
        <ele>4</ele>
        <time>2018-03-15T02:29:10Z</time>
      </trkpt>
      <trkpt lat="46.71641" lon="-1.9157">
        <ele>4</ele>
        <time>2018-03-15T02:30:10Z</time>
      </trkpt>
      <trkpt lat="46.71648" lon="-1.91565">
        <ele>4</ele>
        <time>2018-03-15T02:31:10Z</time>
      </trkpt>
      <trkpt lat="46.71664" lon="-1.91556">
        <ele>3</ele>
        <time>2018-03-15T02:32:10Z</time>
      </trkpt>
      <trkpt lat="46.71674" lon="-1.91552">
        <ele>3</ele>
        <time>2018-03-15T02:33:10Z</time>
      </trkpt>
      <trkpt lat="46.71699" lon="-1.9154">
        <ele>2</ele>
        <time>2018-03-15T02:34:10Z</time>
      </trkpt>
      <trkpt lat="46.71723" lon="-1.91529">
        <ele>2</ele>
        <time>2018-03-15T02:35:10Z</time>
      </trkpt>
      <trkpt lat="46.7174" lon="-1.91519">
        <ele>2</ele>
        <time>2018-03-15T02:36:10Z</time>
      </trkpt>
      <trkpt lat="46.7175" lon="-1.91512">
        <ele>2</ele>
        <time>2018-03-15T02:37:10Z</time>
      </trkpt>
      <trkpt lat="46.7176" lon="-1.91502">
        <ele>2</ele>
        <time>2018-03-15T02:38:10Z</time>
      </trkpt>
      <trkpt lat="46.71765" lon="-1.91492">
        <ele>2</ele>
        <time>2018-03-15T02:39:10Z</time>
      </trkpt>
      <trkpt lat="46.71768" lon="-1.91484">
        <ele>2</ele>
        <time>2018-03-15T02:40:10Z</time>
      </trkpt>
      <trkpt lat="46.7177" lon="-1.91473">
        <ele>2</ele>
        <time>2018-03-15T02:41:10Z</time>
      </trkpt>
      <trkpt lat="46.71777" lon="-1.91414">
        <ele>1</ele>
        <time>2018-03-15T02:42:10Z</time>
      </trkpt>
      <trkpt lat="46.7178" lon="-1.91384">
        <ele>1</ele>
        <time>2018-03-15T02:43:10Z</time>
      </trkpt>
      <trkpt lat="46.71785" lon="-1.91362">
        <ele>1</ele>
        <time>2018-03-15T02:44:10Z</time>
      </trkpt>
      <trkpt lat="46.71792" lon="-1.91336">
        <ele>1</ele>
        <time>2018-03-15T02:45:10Z</time>
      </trkpt>
      <trkpt lat="46.71809" lon="-1.91278">
        <ele>2</ele>
        <time>2018-03-15T02:46:10Z</time>
      </trkpt>
      <trkpt lat="46.71822" lon="-1.91229">
        <ele>3</ele>
        <time>2018-03-15T02:47:10Z</time>
      </trkpt>
      <trkpt lat="46.71834" lon="-1.91176">
        <ele>3</ele>
        <time>2018-03-15T02:48:10Z</time>
      </trkpt>
      <trkpt lat="46.71839" lon="-1.91152">
        <ele>3</ele>
        <time>2018-03-15T02:49:10Z</time>
      </trkpt>
      <trkpt lat="46.71847" lon="-1.91107">
        <ele>2</ele>
        <time>2018-03-15T02:50:10Z</time>
      </trkpt>
      <trkpt lat="46.71851" lon="-1.91083">
        <ele>2</ele>
        <time>2018-03-15T02:51:10Z</time>
      </trkpt>
      <trkpt lat="46.71852" lon="-1.91064">
        <ele>2</ele>
        <time>2018-03-15T02:52:10Z</time>
      </trkpt>
      <trkpt lat="46.71852" lon="-1.91047">
        <ele>2</ele>
        <time>2018-03-15T02:53:10Z</time>
      </trkpt>
      <trkpt lat="46.71851" lon="-1.9102">
        <ele>3</ele>
        <time>2018-03-15T02:54:10Z</time>
      </trkpt>
      <trkpt lat="46.71846" lon="-1.90978">
        <ele>3</ele>
        <time>2018-03-15T02:55:10Z</time>
      </trkpt>
      <trkpt lat="46.71837" lon="-1.90885">
        <ele>5</ele>
        <time>2018-03-15T02:56:10Z</time>
      </trkpt>
      <trkpt lat="46.71832" lon="-1.90833">
        <ele>6</ele>
        <time>2018-03-15T02:57:10Z</time>
      </trkpt>
      <trkpt lat="46.71827" lon="-1.90802">
        <ele>6</ele>
        <time>2018-03-15T02:58:10Z</time>
      </trkpt>
      <trkpt lat="46.71821" lon="-1.90766">
        <ele>6</ele>
        <time>2018-03-15T02:59:10Z</time>
      </trkpt>
      <trkpt lat="46.7182" lon="-1.90764">
        <ele>6</ele>
        <time>2018-03-15T03:00:10Z</time>
      </trkpt>
      <trkpt lat="46.71811" lon="-1.90722">
        <ele>6</ele>
        <time>2018-03-15T03:01:10Z</time>
      </trkpt>
      <trkpt lat="46.71801" lon="-1.90668">
        <ele>5</ele>
        <time>2018-03-15T03:02:10Z</time>
      </trkpt>
      <trkpt lat="46.71797" lon="-1.90646">
        <ele>5</ele>
        <time>2018-03-15T03:03:10Z</time>
      </trkpt>
      <trkpt lat="46.71795" lon="-1.90616">
        <ele>6</ele>
        <time>2018-03-15T03:04:10Z</time>
      </trkpt>
      <trkpt lat="46.71795" lon="-1.90597">
        <ele>7</ele>
        <time>2018-03-15T03:05:10Z</time>
      </trkpt>
      <trkpt lat="46.71795" lon="-1.90578">
        <ele>7</ele>
        <time>2018-03-15T03:06:10Z</time>
      </trkpt>
      <trkpt lat="46.71798" lon="-1.90553">
        <ele>7</ele>
        <time>2018-03-15T03:07:10Z</time>
      </trkpt>
      <trkpt lat="46.71806" lon="-1.90529">
        <ele>7</ele>
        <time>2018-03-15T03:08:10Z</time>
      </trkpt>
      <trkpt lat="46.71818" lon="-1.90502">
        <ele>6</ele>
        <time>2018-03-15T03:09:10Z</time>
      </trkpt>
      <trkpt lat="46.71819" lon="-1.90499">
        <ele>6</ele>
        <time>2018-03-15T03:10:10Z</time>
      </trkpt>
      <trkpt lat="46.7183" lon="-1.90473">
        <ele>5</ele>
        <time>2018-03-15T03:11:10Z</time>
      </trkpt>
      <trkpt lat="46.71842" lon="-1.90449">
        <ele>5</ele>
        <time>2018-03-15T03:12:10Z</time>
      </trkpt>
      <trkpt lat="46.71845" lon="-1.90439">
        <ele>4</ele>
        <time>2018-03-15T03:13:10Z</time>
      </trkpt>
      <trkpt lat="46.71846" lon="-1.90435">
        <ele>4</ele>
        <time>2018-03-15T03:14:10Z</time>
      </trkpt>
      <trkpt lat="46.71847" lon="-1.90431">
        <ele>4</ele>
        <time>2018-03-15T03:15:10Z</time>
      </trkpt>
      <trkpt lat="46.71848" lon="-1.90421">
        <ele>4</ele>
        <time>2018-03-15T03:16:10Z</time>
      </trkpt>
      <trkpt lat="46.71851" lon="-1.90389">
        <ele>5</ele>
        <time>2018-03-15T03:17:10Z</time>
      </trkpt>
      <trkpt lat="46.71852" lon="-1.90384">
        <ele>5</ele>
        <time>2018-03-15T03:18:10Z</time>
      </trkpt>
      <trkpt lat="46.71852" lon="-1.9038">
        <ele>5</ele>
        <time>2018-03-15T03:19:10Z</time>
      </trkpt>
      <trkpt lat="46.71851" lon="-1.90377">
        <ele>5</ele>
        <time>2018-03-15T03:20:10Z</time>
      </trkpt>
      <trkpt lat="46.71851" lon="-1.90375">
        <ele>5</ele>
        <time>2018-03-15T03:21:10Z</time>
      </trkpt>
      <trkpt lat="46.7185" lon="-1.90372">
        <ele>5</ele>
        <time>2018-03-15T03:22:10Z</time>
      </trkpt>
      <trkpt lat="46.7185" lon="-1.9037">
        <ele>5</ele>
        <time>2018-03-15T03:23:10Z</time>
      </trkpt>
      <trkpt lat="46.71848" lon="-1.90366">
        <ele>5</ele>
        <time>2018-03-15T03:24:10Z</time>
      </trkpt>
      <trkpt lat="46.71844" lon="-1.90358">
        <ele>6</ele>
        <time>2018-03-15T03:25:10Z</time>
      </trkpt>
      <trkpt lat="46.71839" lon="-1.90349">
        <ele>6</ele>
        <time>2018-03-15T03:26:10Z</time>
      </trkpt>
      <trkpt lat="46.71839" lon="-1.90349">
        <ele>6</ele>
        <time>2018-03-15T03:27:10Z</time>
      </trkpt>
      <trkpt lat="46.71865" lon="-1.90316">
        <ele>6</ele>
        <time>2018-03-15T03:28:10Z</time>
      </trkpt>
      <trkpt lat="46.71869" lon="-1.90308">
        <ele>6</ele>
        <time>2018-03-15T03:29:10Z</time>
      </trkpt>
      <trkpt lat="46.71872" lon="-1.90301">
        <ele>6</ele>
        <time>2018-03-15T03:30:10Z</time>
      </trkpt>
      <trkpt lat="46.71876" lon="-1.90283">
        <ele>7</ele>
        <time>2018-03-15T03:31:10Z</time>
      </trkpt>
      <trkpt lat="46.71879" lon="-1.90274">
        <ele>7</ele>
        <time>2018-03-15T03:32:10Z</time>
      </trkpt>
      <trkpt lat="46.71883" lon="-1.90267">
        <ele>7</ele>
        <time>2018-03-15T03:33:10Z</time>
      </trkpt>
      <trkpt lat="46.71886" lon="-1.90263">
        <ele>7</ele>
        <time>2018-03-15T03:34:10Z</time>
      </trkpt>
      <trkpt lat="46.7189" lon="-1.9026">
        <ele>7</ele>
        <time>2018-03-15T03:35:10Z</time>
      </trkpt>
      <trkpt lat="46.71896" lon="-1.90256">
        <ele>7</ele>
        <time>2018-03-15T03:36:10Z</time>
      </trkpt>
      <trkpt lat="46.719" lon="-1.90254">
        <ele>7</ele>
        <time>2018-03-15T03:37:10Z</time>
      </trkpt>
      <trkpt lat="46.71914" lon="-1.90248">
        <ele>6</ele>
        <time>2018-03-15T03:38:10Z</time>
      </trkpt>
      <trkpt lat="46.71927" lon="-1.9024">
        <ele>6</ele>
        <time>2018-03-15T03:39:10Z</time>
      </trkpt>
      <trkpt lat="46.71934" lon="-1.90235">
        <ele>6</ele>
        <time>2018-03-15T03:40:10Z</time>
      </trkpt>
      <trkpt lat="46.71941" lon="-1.90227">
        <ele>6</ele>
        <time>2018-03-15T03:41:10Z</time>
      </trkpt>
      <trkpt lat="46.71946" lon="-1.90218">
        <ele>6</ele>
        <time>2018-03-15T03:42:10Z</time>
      </trkpt>
      <trkpt lat="46.71949" lon="-1.90211">
        <ele>6</ele>
        <time>2018-03-15T03:43:10Z</time>
      </trkpt>
      <trkpt lat="46.71953" lon="-1.90203">
        <ele>6</ele>
        <time>2018-03-15T03:44:10Z</time>
      </trkpt>
      <trkpt lat="46.71953" lon="-1.90201">
        <ele>6</ele>
        <time>2018-03-15T03:45:10Z</time>
      </trkpt>
      <trkpt lat="46.71956" lon="-1.90191">
        <ele>6</ele>
        <time>2018-03-15T03:46:10Z</time>
      </trkpt>
      <trkpt lat="46.71958" lon="-1.90176">
        <ele>6</ele>
        <time>2018-03-15T03:47:10Z</time>
      </trkpt>
      <trkpt lat="46.71959" lon="-1.90153">
        <ele>6</ele>
        <time>2018-03-15T03:48:10Z</time>
      </trkpt>
      <trkpt lat="46.71962" lon="-1.90125">
        <ele>6</ele>
        <time>2018-03-15T03:49:10Z</time>
      </trkpt>
      <trkpt lat="46.71965" lon="-1.90106">
        <ele>6</ele>
        <time>2018-03-15T03:50:10Z</time>
      </trkpt>
      <trkpt lat="46.71968" lon="-1.9008">
        <ele>6</ele>
        <time>2018-03-15T03:51:10Z</time>
      </trkpt>
      <trkpt lat="46.71973" lon="-1.90062">
        <ele>6</ele>
        <time>2018-03-15T03:52:10Z</time>
      </trkpt>
      <trkpt lat="46.71979" lon="-1.9005">
        <ele>6</ele>
        <time>2018-03-15T03:53:10Z</time>
      </trkpt>
      <trkpt lat="46.7199" lon="-1.90031">
        <ele>6</ele>
        <time>2018-03-15T03:54:10Z</time>
      </trkpt>
      <trkpt lat="46.72002" lon="-1.90007">
        <ele>6</ele>
        <time>2018-03-15T03:55:10Z</time>
      </trkpt>
      <trkpt lat="46.72013" lon="-1.89987">
        <ele>6</ele>
        <time>2018-03-15T03:56:10Z</time>
      </trkpt>
      <trkpt lat="46.7202" lon="-1.89975">
        <ele>7</ele>
        <time>2018-03-15T03:57:10Z</time>
      </trkpt>
      <trkpt lat="46.72029" lon="-1.8996">
        <ele>7</ele>
        <time>2018-03-15T03:58:10Z</time>
      </trkpt>
      <trkpt lat="46.72037" lon="-1.89948">
        <ele>7</ele>
        <time>2018-03-15T03:59:10Z</time>
      </trkpt>
      <trkpt lat="46.72042" lon="-1.89942">
        <ele>7</ele>
        <time>2018-03-15T04:00:10Z</time>
      </trkpt>
      <trkpt lat="46.72056" lon="-1.8993">
        <ele>7</ele>
        <time>2018-03-15T04:01:10Z</time>
      </trkpt>
      <trkpt lat="46.72084" lon="-1.89908">
        <ele>7</ele>
        <time>2018-03-15T04:02:10Z</time>
      </trkpt>
      <trkpt lat="46.72119" lon="-1.89878">
        <ele>8</ele>
        <time>2018-03-15T04:03:10Z</time>
      </trkpt>
      <trkpt lat="46.72143" lon="-1.89859">
        <ele>9</ele>
        <time>2018-03-15T04:04:10Z</time>
      </trkpt>
      <trkpt lat="46.72178" lon="-1.8983">
        <ele>9</ele>
        <time>2018-03-15T04:05:10Z</time>
      </trkpt>
      <trkpt lat="46.72203" lon="-1.89809">
        <ele>8</ele>
        <time>2018-03-15T04:06:10Z</time>
      </trkpt>
      <trkpt lat="46.72225" lon="-1.89792">
        <ele>7</ele>
        <time>2018-03-15T04:07:10Z</time>
      </trkpt>
      <trkpt lat="46.72253" lon="-1.8977">
        <ele>7</ele>
        <time>2018-03-15T04:08:10Z</time>
      </trkpt>
      <trkpt lat="46.72253" lon="-1.8977">
        <ele>7</ele>
        <time>2018-03-15T04:09:10Z</time>
      </trkpt>
      <trkpt lat="46.72261" lon="-1.89791">
        <ele>7</ele>
        <time>2018-03-15T04:10:10Z</time>
      </trkpt>
      <trkpt lat="46.72271" lon="-1.89821">
        <ele>6</ele>
        <time>2018-03-15T04:11:10Z</time>
      </trkpt>
      <trkpt lat="46.72283" lon="-1.89855">
        <ele>6</ele>
        <time>2018-03-15T04:12:10Z</time>
      </trkpt>
      <trkpt lat="46.72292" lon="-1.8988">
        <ele>6</ele>
        <time>2018-03-15T04:13:10Z</time>
      </trkpt>
      <trkpt lat="46.723" lon="-1.89904">
        <ele>6</ele>
        <time>2018-03-15T04:14:10Z</time>
      </trkpt>
      <trkpt lat="46.72307" lon="-1.89925">
        <ele>6</ele>
        <time>2018-03-15T04:15:10Z</time>
      </trkpt>
      <trkpt lat="46.72315" lon="-1.89944">
        <ele>6</ele>
        <time>2018-03-15T04:16:10Z</time>
      </trkpt>
      <trkpt lat="46.72323" lon="-1.8996">
        <ele>6</ele>
        <time>2018-03-15T04:17:10Z</time>
      </trkpt>
      <trkpt lat="46.72329" lon="-1.89969">
        <ele>6</ele>
        <time>2018-03-15T04:18:10Z</time>
      </trkpt>
      <trkpt lat="46.72336" lon="-1.89977">
        <ele>6</ele>
        <time>2018-03-15T04:19:10Z</time>
      </trkpt>
      <trkpt lat="46.72348" lon="-1.89995">
        <ele>5</ele>
        <time>2018-03-15T04:20:10Z</time>
      </trkpt>
      <trkpt lat="46.72358" lon="-1.90013">
        <ele>5</ele>
        <time>2018-03-15T04:21:10Z</time>
      </trkpt>
      <trkpt lat="46.72372" lon="-1.90041">
        <ele>4</ele>
        <time>2018-03-15T04:22:10Z</time>
      </trkpt>
      <trkpt lat="46.72388" lon="-1.90076">
        <ele>3</ele>
        <time>2018-03-15T04:23:10Z</time>
      </trkpt>
      <trkpt lat="46.72403" lon="-1.90108">
        <ele>3</ele>
        <time>2018-03-15T04:24:10Z</time>
      </trkpt>
      <trkpt lat="46.72412" lon="-1.90128">
        <ele>2</ele>
        <time>2018-03-15T04:25:10Z</time>
      </trkpt>
      <trkpt lat="46.7243" lon="-1.90169">
        <ele>2</ele>
        <time>2018-03-15T04:26:10Z</time>
      </trkpt>
      <trkpt lat="46.7244" lon="-1.9019">
        <ele>2</ele>
        <time>2018-03-15T04:27:10Z</time>
      </trkpt>
      <trkpt lat="46.7245" lon="-1.90213">
        <ele>2</ele>
        <time>2018-03-15T04:28:10Z</time>
      </trkpt>
      <trkpt lat="46.72458" lon="-1.90226">
        <ele>2</ele>
        <time>2018-03-15T04:29:10Z</time>
      </trkpt>
      <trkpt lat="46.72468" lon="-1.90239">
        <ele>2</ele>
        <time>2018-03-15T04:30:10Z</time>
      </trkpt>
      <trkpt lat="46.72485" lon="-1.90257">
        <ele>2</ele>
        <time>2018-03-15T04:31:10Z</time>
      </trkpt>
      <trkpt lat="46.72506" lon="-1.90278">
        <ele>2</ele>
        <time>2018-03-15T04:32:10Z</time>
      </trkpt>
      <trkpt lat="46.7254" lon="-1.90311">
        <ele>1</ele>
        <time>2018-03-15T04:33:10Z</time>
      </trkpt>
      <trkpt lat="46.72573" lon="-1.90343">
        <ele>1</ele>
        <time>2018-03-15T04:34:10Z</time>
      </trkpt>
      <trkpt lat="46.72603" lon="-1.90372">
        <ele>3.5</ele>
        <time>2018-03-15T04:35:10Z</time>
      </trkpt>
      <trkpt lat="46.72643" lon="-1.90413">
        <ele>3.7</ele>
        <time>2018-03-15T04:36:10Z</time>
      </trkpt>
      <trkpt lat="46.72671" lon="-1.9044">
        <ele>3.8</ele>
        <time>2018-03-15T04:37:10Z</time>
      </trkpt>
      <trkpt lat="46.72682" lon="-1.90451">
        <ele>3.5</ele>
        <time>2018-03-15T04:38:10Z</time>
      </trkpt>
      <trkpt lat="46.72693" lon="-1.90461">
        <ele>2.3</ele>
        <time>2018-03-15T04:39:10Z</time>
      </trkpt>
      <trkpt lat="46.72699" lon="-1.90466">
        <ele>1.7</ele>
        <time>2018-03-15T04:40:10Z</time>
      </trkpt>
      <trkpt lat="46.72704" lon="-1.90472">
        <ele>1.4</ele>
        <time>2018-03-15T04:41:10Z</time>
      </trkpt>
      <trkpt lat="46.72704" lon="-1.90472">
        <ele>1.4</ele>
        <time>2018-03-15T04:42:10Z</time>
      </trkpt>
      <trkpt lat="46.72712" lon="-1.9048">
        <ele>2.3</ele>
        <time>2018-03-15T04:43:10Z</time>
      </trkpt>
      <trkpt lat="46.7272" lon="-1.90488">
        <ele>3.1</ele>
        <time>2018-03-15T04:44:10Z</time>
      </trkpt>
      <trkpt lat="46.72728" lon="-1.90494">
        <ele>3.2</ele>
        <time>2018-03-15T04:45:10Z</time>
      </trkpt>
      <trkpt lat="46.72749" lon="-1.90513">
        <ele>3</ele>
        <time>2018-03-15T04:46:10Z</time>
      </trkpt>
      <trkpt lat="46.7276" lon="-1.90525">
        <ele>3.2</ele>
        <time>2018-03-15T04:47:10Z</time>
      </trkpt>
      <trkpt lat="46.72781" lon="-1.90543">
        <ele>1</ele>
        <time>2018-03-15T04:48:10Z</time>
      </trkpt>
      <trkpt lat="46.72794" lon="-1.90558">
        <ele>2.5</ele>
        <time>2018-03-15T04:49:10Z</time>
      </trkpt>
      <trkpt lat="46.72812" lon="-1.9058">
        <ele>3.4</ele>
        <time>2018-03-15T04:50:10Z</time>
      </trkpt>
      <trkpt lat="46.72831" lon="-1.90608">
        <ele>2.9</ele>
        <time>2018-03-15T04:51:10Z</time>
      </trkpt>
      <trkpt lat="46.72851" lon="-1.9064">
        <ele>3</ele>
        <time>2018-03-15T04:52:10Z</time>
      </trkpt>
      <trkpt lat="46.7288" lon="-1.90681">
        <ele>1</ele>
        <time>2018-03-15T04:53:10Z</time>
      </trkpt>
      <trkpt lat="46.72909" lon="-1.90728">
        <ele>2.6</ele>
        <time>2018-03-15T04:54:10Z</time>
      </trkpt>
      <trkpt lat="46.72951" lon="-1.90792">
        <ele>3.2</ele>
        <time>2018-03-15T04:55:10Z</time>
      </trkpt>
      <trkpt lat="46.72986" lon="-1.90845">
        <ele>1</ele>
        <time>2018-03-15T04:56:10Z</time>
      </trkpt>
      <trkpt lat="46.73019" lon="-1.90898">
        <ele>2.8</ele>
        <time>2018-03-15T04:57:10Z</time>
      </trkpt>
      <trkpt lat="46.73057" lon="-1.90954">
        <ele>1</ele>
        <time>2018-03-15T04:58:10Z</time>
      </trkpt>
      <trkpt lat="46.73098" lon="-1.91017">
        <ele>2</ele>
        <time>2018-03-15T04:59:10Z</time>
      </trkpt>
      <trkpt lat="46.7313" lon="-1.91067">
        <ele>4</ele>
        <time>2018-03-15T05:00:10Z</time>
      </trkpt>
      <trkpt lat="46.73137" lon="-1.91077">
        <ele>4</ele>
        <time>2018-03-15T05:01:10Z</time>
      </trkpt>
      <trkpt lat="46.73148" lon="-1.91095">
        <ele>4</ele>
        <time>2018-03-15T05:02:10Z</time>
      </trkpt>
      <trkpt lat="46.73151" lon="-1.91102">
        <ele>4</ele>
        <time>2018-03-15T05:03:10Z</time>
      </trkpt>
      <trkpt lat="46.73163" lon="-1.91117">
        <ele>5</ele>
        <time>2018-03-15T05:04:10Z</time>
      </trkpt>
      <trkpt lat="46.73169" lon="-1.91126">
        <ele>5</ele>
        <time>2018-03-15T05:05:10Z</time>
      </trkpt>
      <trkpt lat="46.73174" lon="-1.91134">
        <ele>6</ele>
        <time>2018-03-15T05:06:10Z</time>
      </trkpt>
      <trkpt lat="46.73184" lon="-1.91155">
        <ele>7</ele>
        <time>2018-03-15T05:07:10Z</time>
      </trkpt>
      <trkpt lat="46.73197" lon="-1.91182">
        <ele>8</ele>
        <time>2018-03-15T05:08:10Z</time>
      </trkpt>
      <trkpt lat="46.73208" lon="-1.91204">
        <ele>8</ele>
        <time>2018-03-15T05:09:10Z</time>
      </trkpt>
      <trkpt lat="46.73223" lon="-1.91238">
        <ele>9</ele>
        <time>2018-03-15T05:10:10Z</time>
      </trkpt>
      <trkpt lat="46.73227" lon="-1.91249">
        <ele>9</ele>
        <time>2018-03-15T05:11:10Z</time>
      </trkpt>
      <trkpt lat="46.73239" lon="-1.91274">
        <ele>10</ele>
        <time>2018-03-15T05:12:10Z</time>
      </trkpt>
      <trkpt lat="46.7325" lon="-1.91296">
        <ele>12</ele>
        <time>2018-03-15T05:13:10Z</time>
      </trkpt>
      <trkpt lat="46.73264" lon="-1.91328">
        <ele>13</ele>
        <time>2018-03-15T05:14:10Z</time>
      </trkpt>
      <trkpt lat="46.7328" lon="-1.91361">
        <ele>13</ele>
        <time>2018-03-15T05:15:10Z</time>
      </trkpt>
      <trkpt lat="46.73298" lon="-1.91401">
        <ele>13</ele>
        <time>2018-03-15T05:16:10Z</time>
      </trkpt>
      <trkpt lat="46.73304" lon="-1.91414">
        <ele>13</ele>
        <time>2018-03-15T05:17:10Z</time>
      </trkpt>
      <trkpt lat="46.73312" lon="-1.91432">
        <ele>13</ele>
        <time>2018-03-15T05:18:10Z</time>
      </trkpt>
      <trkpt lat="46.73321" lon="-1.91454">
        <ele>14</ele>
        <time>2018-03-15T05:19:10Z</time>
      </trkpt>
      <trkpt lat="46.73327" lon="-1.91472">
        <ele>14</ele>
        <time>2018-03-15T05:20:10Z</time>
      </trkpt>
      <trkpt lat="46.73331" lon="-1.9149">
        <ele>14</ele>
        <time>2018-03-15T05:21:10Z</time>
      </trkpt>
      <trkpt lat="46.73331" lon="-1.9149">
        <ele>14</ele>
        <time>2018-03-15T05:22:10Z</time>
      </trkpt>
      <trkpt lat="46.73335" lon="-1.91484">
        <ele>14</ele>
        <time>2018-03-15T05:23:10Z</time>
      </trkpt>
      <trkpt lat="46.73337" lon="-1.9148">
        <ele>14</ele>
        <time>2018-03-15T05:24:10Z</time>
      </trkpt>
      <trkpt lat="46.73339" lon="-1.91474">
        <ele>14</ele>
        <time>2018-03-15T05:25:10Z</time>
      </trkpt>
      <trkpt lat="46.7334" lon="-1.91469">
        <ele>13</ele>
        <time>2018-03-15T05:26:10Z</time>
      </trkpt>
      <trkpt lat="46.73344" lon="-1.91455">
        <ele>13</ele>
        <time>2018-03-15T05:27:10Z</time>
      </trkpt>
      <trkpt lat="46.73349" lon="-1.91432">
        <ele>13</ele>
        <time>2018-03-15T05:28:10Z</time>
      </trkpt>
      <trkpt lat="46.73355" lon="-1.91413">
        <ele>13</ele>
        <time>2018-03-15T05:29:10Z</time>
      </trkpt>
      <trkpt lat="46.73357" lon="-1.91405">
        <ele>13</ele>
        <time>2018-03-15T05:30:10Z</time>
      </trkpt>
      <trkpt lat="46.7336" lon="-1.91399">
        <ele>12</ele>
        <time>2018-03-15T05:31:10Z</time>
      </trkpt>
      <trkpt lat="46.73368" lon="-1.91384">
        <ele>12</ele>
        <time>2018-03-15T05:32:10Z</time>
      </trkpt>
      <trkpt lat="46.73392" lon="-1.91347">
        <ele>11</ele>
        <time>2018-03-15T05:33:10Z</time>
      </trkpt>
      <trkpt lat="46.73421" lon="-1.91295">
        <ele>11</ele>
        <time>2018-03-15T05:34:10Z</time>
      </trkpt>
      <trkpt lat="46.73442" lon="-1.91257">
        <ele>11</ele>
        <time>2018-03-15T05:35:10Z</time>
      </trkpt>
      <trkpt lat="46.73456" lon="-1.91235">
        <ele>10</ele>
        <time>2018-03-15T05:36:10Z</time>
      </trkpt>
      <trkpt lat="46.73456" lon="-1.91235">
        <ele>10</ele>
        <time>2018-03-15T05:37:10Z</time>
      </trkpt>
      <trkpt lat="46.73481" lon="-1.91256">
        <ele>9</ele>
        <time>2018-03-15T05:38:10Z</time>
      </trkpt>
      <trkpt lat="46.73522" lon="-1.91298">
        <ele>8</ele>
        <time>2018-03-15T05:39:10Z</time>
      </trkpt>
      <trkpt lat="46.73546" lon="-1.91323">
        <ele>8</ele>
        <time>2018-03-15T05:40:10Z</time>
      </trkpt>
      <trkpt lat="46.73558" lon="-1.91337">
        <ele>8</ele>
        <time>2018-03-15T05:41:10Z</time>
      </trkpt>
      <trkpt lat="46.73569" lon="-1.91351">
        <ele>7</ele>
        <time>2018-03-15T05:42:10Z</time>
      </trkpt>
      <trkpt lat="46.73578" lon="-1.91364">
        <ele>7</ele>
        <time>2018-03-15T05:43:10Z</time>
      </trkpt>
      <trkpt lat="46.73615" lon="-1.91424">
        <ele>6</ele>
        <time>2018-03-15T05:44:10Z</time>
      </trkpt>
      <trkpt lat="46.73651" lon="-1.91488">
        <ele>5</ele>
        <time>2018-03-15T05:45:10Z</time>
      </trkpt>
      <trkpt lat="46.73685" lon="-1.91548">
        <ele>6</ele>
        <time>2018-03-15T05:46:10Z</time>
      </trkpt>
      <trkpt lat="46.73728" lon="-1.91632">
        <ele>7</ele>
        <time>2018-03-15T05:47:10Z</time>
      </trkpt>
      <trkpt lat="46.73752" lon="-1.91678">
        <ele>5</ele>
        <time>2018-03-15T05:48:10Z</time>
      </trkpt>
      <trkpt lat="46.73761" lon="-1.91698">
        <ele>5</ele>
        <time>2018-03-15T05:49:10Z</time>
      </trkpt>
      <trkpt lat="46.73767" lon="-1.91714">
        <ele>5</ele>
        <time>2018-03-15T05:50:10Z</time>
      </trkpt>
      <trkpt lat="46.73771" lon="-1.91727">
        <ele>5</ele>
        <time>2018-03-15T05:51:10Z</time>
      </trkpt>
      <trkpt lat="46.73775" lon="-1.9174">
        <ele>5</ele>
        <time>2018-03-15T05:52:10Z</time>
      </trkpt>
      <trkpt lat="46.73777" lon="-1.9175">
        <ele>5</ele>
        <time>2018-03-15T05:53:10Z</time>
      </trkpt>
      <trkpt lat="46.73779" lon="-1.91762">
        <ele>5</ele>
        <time>2018-03-15T05:54:10Z</time>
      </trkpt>
      <trkpt lat="46.7378" lon="-1.91777">
        <ele>5</ele>
        <time>2018-03-15T05:55:10Z</time>
      </trkpt>
      <trkpt lat="46.73781" lon="-1.91794">
        <ele>5</ele>
        <time>2018-03-15T05:56:10Z</time>
      </trkpt>
      <trkpt lat="46.73781" lon="-1.91846">
        <ele>5</ele>
        <time>2018-03-15T05:57:10Z</time>
      </trkpt>
      <trkpt lat="46.73781" lon="-1.91858">
        <ele>5</ele>
        <time>2018-03-15T05:58:10Z</time>
      </trkpt>
      <trkpt lat="46.73781" lon="-1.91872">
        <ele>5</ele>
        <time>2018-03-15T05:59:10Z</time>
      </trkpt>
      <trkpt lat="46.73782" lon="-1.91884">
        <ele>5</ele>
        <time>2018-03-15T06:00:10Z</time>
      </trkpt>
      <trkpt lat="46.73784" lon="-1.91895">
        <ele>5</ele>
        <time>2018-03-15T06:01:10Z</time>
      </trkpt>
      <trkpt lat="46.73787" lon="-1.91904">
        <ele>5</ele>
        <time>2018-03-15T06:02:10Z</time>
      </trkpt>
      <trkpt lat="46.73787" lon="-1.91904">
        <ele>5</ele>
        <time>2018-03-15T06:03:10Z</time>
      </trkpt>
      <trkpt lat="46.73793" lon="-1.91895">
        <ele>5</ele>
        <time>2018-03-15T06:04:10Z</time>
      </trkpt>
      <trkpt lat="46.738" lon="-1.91886">
        <ele>5</ele>
        <time>2018-03-15T06:05:10Z</time>
      </trkpt>
      <trkpt lat="46.73813" lon="-1.91873">
        <ele>5</ele>
        <time>2018-03-15T06:06:10Z</time>
      </trkpt>
      <trkpt lat="46.73863" lon="-1.91828">
        <ele>4</ele>
        <time>2018-03-15T06:07:10Z</time>
      </trkpt>
      <trkpt lat="46.73918" lon="-1.91773">
        <ele>4</ele>
        <time>2018-03-15T06:08:10Z</time>
      </trkpt>
      <trkpt lat="46.73929" lon="-1.91762">
        <ele>4</ele>
        <time>2018-03-15T06:09:10Z</time>
      </trkpt>
      <trkpt lat="46.73946" lon="-1.91744">
        <ele>4</ele>
        <time>2018-03-15T06:10:10Z</time>
      </trkpt>
      <trkpt lat="46.73954" lon="-1.91736">
        <ele>5</ele>
        <time>2018-03-15T06:11:10Z</time>
      </trkpt>
      <trkpt lat="46.73966" lon="-1.91725">
        <ele>5</ele>
        <time>2018-03-15T06:12:10Z</time>
      </trkpt>
      <trkpt lat="46.73966" lon="-1.91725">
        <ele>5</ele>
        <time>2018-03-15T06:13:10Z</time>
      </trkpt>
      <trkpt lat="46.73994" lon="-1.91701">
        <ele>5</ele>
        <time>2018-03-15T06:14:10Z</time>
      </trkpt>
      <trkpt lat="46.74036" lon="-1.91667">
        <ele>6</ele>
        <time>2018-03-15T06:15:10Z</time>
      </trkpt>
      <trkpt lat="46.74089" lon="-1.91626">
        <ele>5</ele>
        <time>2018-03-15T06:16:10Z</time>
      </trkpt>
      <trkpt lat="46.74117" lon="-1.91604">
        <ele>5</ele>
        <time>2018-03-15T06:17:10Z</time>
      </trkpt>
      <trkpt lat="46.74143" lon="-1.91582">
        <ele>5</ele>
        <time>2018-03-15T06:18:10Z</time>
      </trkpt>
      <trkpt lat="46.74156" lon="-1.9157">
        <ele>5</ele>
        <time>2018-03-15T06:19:10Z</time>
      </trkpt>
      <trkpt lat="46.74172" lon="-1.91555">
        <ele>5</ele>
        <time>2018-03-15T06:20:10Z</time>
      </trkpt>
      <trkpt lat="46.74174" lon="-1.91553">
        <ele>5</ele>
        <time>2018-03-15T06:21:10Z</time>
      </trkpt>
      <trkpt lat="46.74192" lon="-1.91535">
        <ele>5</ele>
        <time>2018-03-15T06:22:10Z</time>
      </trkpt>
      <trkpt lat="46.74235" lon="-1.91492">
        <ele>5</ele>
        <time>2018-03-15T06:23:10Z</time>
      </trkpt>
      <trkpt lat="46.74245" lon="-1.91482">
        <ele>5</ele>
        <time>2018-03-15T06:24:10Z</time>
      </trkpt>
      <trkpt lat="46.74283" lon="-1.91443">
        <ele>4</ele>
        <time>2018-03-15T06:25:10Z</time>
      </trkpt>
      <trkpt lat="46.74292" lon="-1.91432">
        <ele>4</ele>
        <time>2018-03-15T06:26:10Z</time>
      </trkpt>
      <trkpt lat="46.74294" lon="-1.91432">
        <ele>4</ele>
        <time>2018-03-15T06:27:10Z</time>
      </trkpt>
      <trkpt lat="46.74297" lon="-1.91431">
        <ele>4</ele>
        <time>2018-03-15T06:28:10Z</time>
      </trkpt>
      <trkpt lat="46.74311" lon="-1.91431">
        <ele>4</ele>
        <time>2018-03-15T06:29:10Z</time>
      </trkpt>
      <trkpt lat="46.74311" lon="-1.91431">
        <ele>4</ele>
        <time>2018-03-15T06:30:10Z</time>
      </trkpt>
      <trkpt lat="46.74317" lon="-1.91418">
        <ele>4</ele>
        <time>2018-03-15T06:31:10Z</time>
      </trkpt>
      <trkpt lat="46.74324" lon="-1.91402">
        <ele>4</ele>
        <time>2018-03-15T06:32:10Z</time>
      </trkpt>
      <trkpt lat="46.74333" lon="-1.91384">
        <ele>4</ele>
        <time>2018-03-15T06:33:10Z</time>
      </trkpt>
      <trkpt lat="46.74344" lon="-1.9136">
        <ele>4</ele>
        <time>2018-03-15T06:34:10Z</time>
      </trkpt>
      <trkpt lat="46.74351" lon="-1.91346">
        <ele>4</ele>
        <time>2018-03-15T06:35:10Z</time>
      </trkpt>
      <trkpt lat="46.74358" lon="-1.91334">
        <ele>4</ele>
        <time>2018-03-15T06:36:10Z</time>
      </trkpt>
      <trkpt lat="46.74367" lon="-1.91321">
        <ele>4</ele>
        <time>2018-03-15T06:37:10Z</time>
      </trkpt>
      <trkpt lat="46.74375" lon="-1.91309">
        <ele>3</ele>
        <time>2018-03-15T06:38:10Z</time>
      </trkpt>
      <trkpt lat="46.74385" lon="-1.91297">
        <ele>3</ele>
        <time>2018-03-15T06:39:10Z</time>
      </trkpt>
      <trkpt lat="46.74388" lon="-1.91293">
        <ele>3</ele>
        <time>2018-03-15T06:40:10Z</time>
      </trkpt>
      <trkpt lat="46.74418" lon="-1.91257">
        <ele>3</ele>
        <time>2018-03-15T06:41:10Z</time>
      </trkpt>
      <trkpt lat="46.74469" lon="-1.91194">
        <ele>4</ele>
        <time>2018-03-15T06:42:10Z</time>
      </trkpt>
      <trkpt lat="46.74477" lon="-1.91184">
        <ele>4</ele>
        <time>2018-03-15T06:43:10Z</time>
      </trkpt>
      <trkpt lat="46.74534" lon="-1.91117">
        <ele>3</ele>
        <time>2018-03-15T06:44:10Z</time>
      </trkpt>
      <trkpt lat="46.74563" lon="-1.91079">
        <ele>3</ele>
        <time>2018-03-15T06:45:10Z</time>
      </trkpt>
      <trkpt lat="46.74569" lon="-1.91072">
        <ele>2</ele>
        <time>2018-03-15T06:46:10Z</time>
      </trkpt>
      <trkpt lat="46.74573" lon="-1.91066">
        <ele>2</ele>
        <time>2018-03-15T06:47:10Z</time>
      </trkpt>
      <trkpt lat="46.74576" lon="-1.9106">
        <ele>2</ele>
        <time>2018-03-15T06:48:10Z</time>
      </trkpt>
      <trkpt lat="46.74584" lon="-1.91045">
        <ele>2</ele>
        <time>2018-03-15T06:49:10Z</time>
      </trkpt>
      <trkpt lat="46.74581" lon="-1.91042">
        <ele>3</ele>
        <time>2018-03-15T06:50:10Z</time>
      </trkpt>
      <trkpt lat="46.7458" lon="-1.91039">
        <ele>3</ele>
        <time>2018-03-15T06:51:10Z</time>
      </trkpt>
      <trkpt lat="46.74579" lon="-1.91036">
        <ele>3</ele>
        <time>2018-03-15T06:52:10Z</time>
      </trkpt>
      <trkpt lat="46.74579" lon="-1.91033">
        <ele>3</ele>
        <time>2018-03-15T06:53:10Z</time>
      </trkpt>
      <trkpt lat="46.7458" lon="-1.9103">
        <ele>3</ele>
        <time>2018-03-15T06:54:10Z</time>
      </trkpt>
      <trkpt lat="46.74583" lon="-1.91026">
        <ele>3</ele>
        <time>2018-03-15T06:55:10Z</time>
      </trkpt>
      <trkpt lat="46.74586" lon="-1.91024">
        <ele>3</ele>
        <time>2018-03-15T06:56:10Z</time>
      </trkpt>
      <trkpt lat="46.74589" lon="-1.91025">
        <ele>3</ele>
        <time>2018-03-15T06:57:10Z</time>
      </trkpt>
      <trkpt lat="46.74591" lon="-1.91026">
        <ele>3</ele>
        <time>2018-03-15T06:58:10Z</time>
      </trkpt>
      <trkpt lat="46.74596" lon="-1.91019">
        <ele>3</ele>
        <time>2018-03-15T06:59:10Z</time>
      </trkpt>
      <trkpt lat="46.74597" lon="-1.91017">
        <ele>3</ele>
        <time>2018-03-15T07:00:10Z</time>
      </trkpt>
      <trkpt lat="46.74598" lon="-1.91015">
        <ele>3</ele>
        <time>2018-03-15T07:01:10Z</time>
      </trkpt>
      <trkpt lat="46.746" lon="-1.91009">
        <ele>3</ele>
        <time>2018-03-15T07:02:10Z</time>
      </trkpt>
      <trkpt lat="46.74602" lon="-1.91001">
        <ele>3</ele>
        <time>2018-03-15T07:03:10Z</time>
      </trkpt>
      <trkpt lat="46.74603" lon="-1.9099">
        <ele>3</ele>
        <time>2018-03-15T07:04:10Z</time>
      </trkpt>
      <trkpt lat="46.74603" lon="-1.9098">
        <ele>3</ele>
        <time>2018-03-15T07:05:10Z</time>
      </trkpt>
      <trkpt lat="46.74602" lon="-1.9097">
        <ele>3</ele>
        <time>2018-03-15T07:06:10Z</time>
      </trkpt>
      <trkpt lat="46.74599" lon="-1.9096">
        <ele>3</ele>
        <time>2018-03-15T07:07:10Z</time>
      </trkpt>
      <trkpt lat="46.74594" lon="-1.90947">
        <ele>3</ele>
        <time>2018-03-15T07:08:10Z</time>
      </trkpt>
      <trkpt lat="46.74591" lon="-1.9094">
        <ele>3</ele>
        <time>2018-03-15T07:09:10Z</time>
      </trkpt>
      <trkpt lat="46.74581" lon="-1.90912">
        <ele>3</ele>
        <time>2018-03-15T07:10:10Z</time>
      </trkpt>
      <trkpt lat="46.7458" lon="-1.90911">
        <ele>3</ele>
        <time>2018-03-15T07:11:10Z</time>
      </trkpt>
      <trkpt lat="46.74576" lon="-1.90901">
        <ele>3</ele>
        <time>2018-03-15T07:12:10Z</time>
      </trkpt>
      <trkpt lat="46.74572" lon="-1.90893">
        <ele>4</ele>
        <time>2018-03-15T07:13:10Z</time>
      </trkpt>
      <trkpt lat="46.74566" lon="-1.9088">
        <ele>4</ele>
        <time>2018-03-15T07:14:10Z</time>
      </trkpt>
      <trkpt lat="46.74566" lon="-1.9088">
        <ele>4</ele>
        <time>2018-03-15T07:15:10Z</time>
      </trkpt>
      <trkpt lat="46.74564" lon="-1.90876">
        <ele>4</ele>
        <time>2018-03-15T07:16:10Z</time>
      </trkpt>
      <trkpt lat="46.74554" lon="-1.90862">
        <ele>4</ele>
        <time>2018-03-15T07:17:10Z</time>
      </trkpt>
      <trkpt lat="46.74534" lon="-1.90836">
        <ele>5</ele>
        <time>2018-03-15T07:18:10Z</time>
      </trkpt>
      <trkpt lat="46.74528" lon="-1.90828">
        <ele>5</ele>
        <time>2018-03-15T07:19:10Z</time>
      </trkpt>
      <trkpt lat="46.74523" lon="-1.90822">
        <ele>5</ele>
        <time>2018-03-15T07:20:10Z</time>
      </trkpt>
      <trkpt lat="46.74511" lon="-1.90805">
        <ele>5</ele>
        <time>2018-03-15T07:21:10Z</time>
      </trkpt>
      <trkpt lat="46.74508" lon="-1.90798">
        <ele>5</ele>
        <time>2018-03-15T07:22:10Z</time>
      </trkpt>
      <trkpt lat="46.74503" lon="-1.90787">
        <ele>5</ele>
        <time>2018-03-15T07:23:10Z</time>
      </trkpt>
      <trkpt lat="46.74496" lon="-1.90771">
        <ele>5</ele>
        <time>2018-03-15T07:24:10Z</time>
      </trkpt>
      <trkpt lat="46.74491" lon="-1.90757">
        <ele>5</ele>
        <time>2018-03-15T07:25:10Z</time>
      </trkpt>
      <trkpt lat="46.74487" lon="-1.90744">
        <ele>5</ele>
        <time>2018-03-15T07:26:10Z</time>
      </trkpt>
      <trkpt lat="46.74486" lon="-1.90734">
        <ele>5</ele>
        <time>2018-03-15T07:27:10Z</time>
      </trkpt>
      <trkpt lat="46.74485" lon="-1.90722">
        <ele>5</ele>
        <time>2018-03-15T07:28:10Z</time>
      </trkpt>
      <trkpt lat="46.74486" lon="-1.90716">
        <ele>5</ele>
        <time>2018-03-15T07:29:10Z</time>
      </trkpt>
      <trkpt lat="46.74487" lon="-1.90711">
        <ele>5</ele>
        <time>2018-03-15T07:30:10Z</time>
      </trkpt>
      <trkpt lat="46.74489" lon="-1.90704">
        <ele>5</ele>
        <time>2018-03-15T07:31:10Z</time>
      </trkpt>
      <trkpt lat="46.74493" lon="-1.90698">
        <ele>4</ele>
        <time>2018-03-15T07:32:10Z</time>
      </trkpt>
      <trkpt lat="46.74497" lon="-1.9069">
        <ele>4</ele>
        <time>2018-03-15T07:33:10Z</time>
      </trkpt>
      <trkpt lat="46.74502" lon="-1.90684">
        <ele>4</ele>
        <time>2018-03-15T07:34:10Z</time>
      </trkpt>
      <trkpt lat="46.74506" lon="-1.90678">
        <ele>4</ele>
        <time>2018-03-15T07:35:10Z</time>
      </trkpt>
      <trkpt lat="46.74512" lon="-1.90668">
        <ele>4</ele>
        <time>2018-03-15T07:36:10Z</time>
      </trkpt>
      <trkpt lat="46.74519" lon="-1.90656">
        <ele>4</ele>
        <time>2018-03-15T07:37:10Z</time>
      </trkpt>
      <trkpt lat="46.74519" lon="-1.90656">
        <ele>4</ele>
        <time>2018-03-15T07:38:10Z</time>
      </trkpt>
      <trkpt lat="46.74523" lon="-1.90646">
        <ele>4</ele>
        <time>2018-03-15T07:39:10Z</time>
      </trkpt>
      <trkpt lat="46.74529" lon="-1.90639">
        <ele>4</ele>
        <time>2018-03-15T07:40:10Z</time>
      </trkpt>
      <trkpt lat="46.74538" lon="-1.90629">
        <ele>4</ele>
        <time>2018-03-15T07:41:10Z</time>
      </trkpt>
      <trkpt lat="46.74549" lon="-1.90627">
        <ele>3</ele>
        <time>2018-03-15T07:42:10Z</time>
      </trkpt>
      <trkpt lat="46.74552" lon="-1.90625">
        <ele>3</ele>
        <time>2018-03-15T07:43:10Z</time>
      </trkpt>
      <trkpt lat="46.74567" lon="-1.90615">
        <ele>3</ele>
        <time>2018-03-15T07:44:10Z</time>
      </trkpt>
      <trkpt lat="46.74573" lon="-1.9061">
        <ele>3</ele>
        <time>2018-03-15T07:45:10Z</time>
      </trkpt>
      <trkpt lat="46.74591" lon="-1.90595">
        <ele>2</ele>
        <time>2018-03-15T07:46:10Z</time>
      </trkpt>
      <trkpt lat="46.74603" lon="-1.90586">
        <ele>2</ele>
        <time>2018-03-15T07:47:10Z</time>
      </trkpt>
      <trkpt lat="46.74612" lon="-1.90578">
        <ele>2</ele>
        <time>2018-03-15T07:48:10Z</time>
      </trkpt>
      <trkpt lat="46.74618" lon="-1.90573">
        <ele>2</ele>
        <time>2018-03-15T07:49:10Z</time>
      </trkpt>
      <trkpt lat="46.74672" lon="-1.90525">
        <ele>3</ele>
        <time>2018-03-15T07:50:10Z</time>
      </trkpt>
      <trkpt lat="46.74727" lon="-1.90479">
        <ele>4</ele>
        <time>2018-03-15T07:51:10Z</time>
      </trkpt>
      <trkpt lat="46.7473" lon="-1.90477">
        <ele>4</ele>
        <time>2018-03-15T07:52:10Z</time>
      </trkpt>
      <trkpt lat="46.74758" lon="-1.90455">
        <ele>4</ele>
        <time>2018-03-15T07:53:10Z</time>
      </trkpt>
      <trkpt lat="46.74812" lon="-1.90415">
        <ele>4</ele>
        <time>2018-03-15T07:54:10Z</time>
      </trkpt>
      <trkpt lat="46.74824" lon="-1.90396">
        <ele>4</ele>
        <time>2018-03-15T07:55:10Z</time>
      </trkpt>
      <trkpt lat="46.74824" lon="-1.90396">
        <ele>4</ele>
        <time>2018-03-15T07:56:10Z</time>
      </trkpt>
      <trkpt lat="46.74826" lon="-1.90393">
        <ele>4</ele>
        <time>2018-03-15T07:57:10Z</time>
      </trkpt>
      <trkpt lat="46.74827" lon="-1.9039">
        <ele>4</ele>
        <time>2018-03-15T07:58:10Z</time>
      </trkpt>
      <trkpt lat="46.74828" lon="-1.90387">
        <ele>4</ele>
        <time>2018-03-15T07:59:10Z</time>
      </trkpt>
      <trkpt lat="46.74833" lon="-1.90389">
        <ele>4</ele>
        <time>2018-03-15T08:00:10Z</time>
      </trkpt>
      <trkpt lat="46.74849" lon="-1.90399">
        <ele>4</ele>
        <time>2018-03-15T08:01:10Z</time>
      </trkpt>
      <trkpt lat="46.74857" lon="-1.90405">
        <ele>4</ele>
        <time>2018-03-15T08:02:10Z</time>
      </trkpt>
      <trkpt lat="46.7487" lon="-1.90405">
        <ele>4</ele>
        <time>2018-03-15T08:03:10Z</time>
      </trkpt>
      <trkpt lat="46.74894" lon="-1.90404">
        <ele>4</ele>
        <time>2018-03-15T08:04:10Z</time>
      </trkpt>
      <trkpt lat="46.7493" lon="-1.90404">
        <ele>4</ele>
        <time>2018-03-15T08:05:10Z</time>
      </trkpt>
      <trkpt lat="46.74972" lon="-1.90405">
        <ele>4</ele>
        <time>2018-03-15T08:06:10Z</time>
      </trkpt>
      <trkpt lat="46.74977" lon="-1.90405">
        <ele>4</ele>
        <time>2018-03-15T08:07:10Z</time>
      </trkpt>
      <trkpt lat="46.74986" lon="-1.90406">
        <ele>4</ele>
        <time>2018-03-15T08:08:10Z</time>
      </trkpt>
      <trkpt lat="46.7499" lon="-1.90406">
        <ele>4</ele>
        <time>2018-03-15T08:09:10Z</time>
      </trkpt>
      <trkpt lat="46.75003" lon="-1.90407">
        <ele>4</ele>
        <time>2018-03-15T08:10:10Z</time>
      </trkpt>
      <trkpt lat="46.75012" lon="-1.90407">
        <ele>4</ele>
        <time>2018-03-15T08:11:10Z</time>
      </trkpt>
      <trkpt lat="46.75027" lon="-1.90405">
        <ele>4</ele>
        <time>2018-03-15T08:12:10Z</time>
      </trkpt>
      <trkpt lat="46.75037" lon="-1.90403">
        <ele>3</ele>
        <time>2018-03-15T08:13:10Z</time>
      </trkpt>
      <trkpt lat="46.75056" lon="-1.90401">
        <ele>3</ele>
        <time>2018-03-15T08:14:10Z</time>
      </trkpt>
      <trkpt lat="46.75082" lon="-1.90398">
        <ele>3</ele>
        <time>2018-03-15T08:15:10Z</time>
      </trkpt>
      <trkpt lat="46.75102" lon="-1.90394">
        <ele>3</ele>
        <time>2018-03-15T08:16:10Z</time>
      </trkpt>
      <trkpt lat="46.7512" lon="-1.90389">
        <ele>3</ele>
        <time>2018-03-15T08:17:10Z</time>
      </trkpt>
      <trkpt lat="46.7514" lon="-1.90382">
        <ele>2</ele>
        <time>2018-03-15T08:18:10Z</time>
      </trkpt>
      <trkpt lat="46.75154" lon="-1.90376">
        <ele>2</ele>
        <time>2018-03-15T08:19:10Z</time>
      </trkpt>
      <trkpt lat="46.75209" lon="-1.90356">
        <ele>3</ele>
        <time>2018-03-15T08:20:10Z</time>
      </trkpt>
      <trkpt lat="46.75253" lon="-1.90344">
        <ele>3</ele>
        <time>2018-03-15T08:21:10Z</time>
      </trkpt>
      <trkpt lat="46.75275" lon="-1.90336">
        <ele>3</ele>
        <time>2018-03-15T08:22:10Z</time>
      </trkpt>
      <trkpt lat="46.75304" lon="-1.90326">
        <ele>3</ele>
        <time>2018-03-15T08:23:10Z</time>
      </trkpt>
      <trkpt lat="46.75324" lon="-1.90317">
        <ele>3</ele>
        <time>2018-03-15T08:24:10Z</time>
      </trkpt>
      <trkpt lat="46.75342" lon="-1.90309">
        <ele>3</ele>
        <time>2018-03-15T08:25:10Z</time>
      </trkpt>
      <trkpt lat="46.75351" lon="-1.90304">
        <ele>3</ele>
        <time>2018-03-15T08:26:10Z</time>
      </trkpt>
      <trkpt lat="46.75364" lon="-1.90296">
        <ele>2</ele>
        <time>2018-03-15T08:27:10Z</time>
      </trkpt>
      <trkpt lat="46.7537" lon="-1.90291">
        <ele>2</ele>
        <time>2018-03-15T08:28:10Z</time>
      </trkpt>
      <trkpt lat="46.75376" lon="-1.90285">
        <ele>2</ele>
        <time>2018-03-15T08:29:10Z</time>
      </trkpt>
      <trkpt lat="46.75381" lon="-1.90281">
        <ele>2</ele>
        <time>2018-03-15T08:30:10Z</time>
      </trkpt>
      <trkpt lat="46.75385" lon="-1.90276">
        <ele>2</ele>
        <time>2018-03-15T08:31:10Z</time>
      </trkpt>
      <trkpt lat="46.75391" lon="-1.90269">
        <ele>2</ele>
        <time>2018-03-15T08:32:10Z</time>
      </trkpt>
      <trkpt lat="46.75399" lon="-1.90259">
        <ele>2</ele>
        <time>2018-03-15T08:33:10Z</time>
      </trkpt>
      <trkpt lat="46.75415" lon="-1.9024">
        <ele>2</ele>
        <time>2018-03-15T08:34:10Z</time>
      </trkpt>
      <trkpt lat="46.75449" lon="-1.90196">
        <ele>3</ele>
        <time>2018-03-15T08:35:10Z</time>
      </trkpt>
      <trkpt lat="46.75474" lon="-1.90165">
        <ele>3</ele>
        <time>2018-03-15T08:36:10Z</time>
      </trkpt>
      <trkpt lat="46.75507" lon="-1.90119">
        <ele>3</ele>
        <time>2018-03-15T08:37:10Z</time>
      </trkpt>
      <trkpt lat="46.75536" lon="-1.90077">
        <ele>3</ele>
        <time>2018-03-15T08:38:10Z</time>
      </trkpt>
      <trkpt lat="46.75546" lon="-1.90063">
        <ele>3</ele>
        <time>2018-03-15T08:39:10Z</time>
      </trkpt>
      <trkpt lat="46.75576" lon="-1.90019">
        <ele>3</ele>
        <time>2018-03-15T08:40:10Z</time>
      </trkpt>
      <trkpt lat="46.75612" lon="-1.89968">
        <ele>3</ele>
        <time>2018-03-15T08:41:10Z</time>
      </trkpt>
      <trkpt lat="46.75657" lon="-1.89906">
        <ele>2</ele>
        <time>2018-03-15T08:42:10Z</time>
      </trkpt>
      <trkpt lat="46.75693" lon="-1.89855">
        <ele>3</ele>
        <time>2018-03-15T08:43:10Z</time>
      </trkpt>
      <trkpt lat="46.75721" lon="-1.89813">
        <ele>4</ele>
        <time>2018-03-15T08:44:10Z</time>
      </trkpt>
      <trkpt lat="46.75744" lon="-1.8978">
        <ele>4</ele>
        <time>2018-03-15T08:45:10Z</time>
      </trkpt>
      <trkpt lat="46.75768" lon="-1.89746">
        <ele>4</ele>
        <time>2018-03-15T08:46:10Z</time>
      </trkpt>
      <trkpt lat="46.75803" lon="-1.89686">
        <ele>4</ele>
        <time>2018-03-15T08:47:10Z</time>
      </trkpt>
      <trkpt lat="46.75805" lon="-1.89682">
        <ele>4</ele>
        <time>2018-03-15T08:48:10Z</time>
      </trkpt>
      <trkpt lat="46.75819" lon="-1.89656">
        <ele>4</ele>
        <time>2018-03-15T08:49:10Z</time>
      </trkpt>
      <trkpt lat="46.75834" lon="-1.89629">
        <ele>4</ele>
        <time>2018-03-15T08:50:10Z</time>
      </trkpt>
      <trkpt lat="46.75837" lon="-1.89622">
        <ele>4</ele>
        <time>2018-03-15T08:51:10Z</time>
      </trkpt>
      <trkpt lat="46.75857" lon="-1.89591">
        <ele>4</ele>
        <time>2018-03-15T08:52:10Z</time>
      </trkpt>
      <trkpt lat="46.75882" lon="-1.89551">
        <ele>3</ele>
        <time>2018-03-15T08:53:10Z</time>
      </trkpt>
      <trkpt lat="46.75911" lon="-1.89505">
        <ele>3</ele>
        <time>2018-03-15T08:54:10Z</time>
      </trkpt>
      <trkpt lat="46.75925" lon="-1.89485">
        <ele>3</ele>
        <time>2018-03-15T08:55:10Z</time>
      </trkpt>
      <trkpt lat="46.75935" lon="-1.8947">
        <ele>3</ele>
        <time>2018-03-15T08:56:10Z</time>
      </trkpt>
      <trkpt lat="46.75989" lon="-1.89403">
        <ele>4</ele>
        <time>2018-03-15T08:57:10Z</time>
      </trkpt>
      <trkpt lat="46.76018" lon="-1.89367">
        <ele>4</ele>
        <time>2018-03-15T08:58:10Z</time>
      </trkpt>
      <trkpt lat="46.76026" lon="-1.89356">
        <ele>4</ele>
        <time>2018-03-15T08:59:10Z</time>
      </trkpt>
      <trkpt lat="46.76031" lon="-1.89349">
        <ele>4</ele>
        <time>2018-03-15T09:00:10Z</time>
      </trkpt>
      <trkpt lat="46.76041" lon="-1.89335">
        <ele>4</ele>
        <time>2018-03-15T09:01:10Z</time>
      </trkpt>
      <trkpt lat="46.7605" lon="-1.89322">
        <ele>4</ele>
        <time>2018-03-15T09:02:10Z</time>
      </trkpt>
      <trkpt lat="46.76072" lon="-1.89289">
        <ele>4</ele>
        <time>2018-03-15T09:03:10Z</time>
      </trkpt>
      <trkpt lat="46.76104" lon="-1.89238">
        <ele>4</ele>
        <time>2018-03-15T09:04:10Z</time>
      </trkpt>
      <trkpt lat="46.76128" lon="-1.89196">
        <ele>4</ele>
        <time>2018-03-15T09:05:10Z</time>
      </trkpt>
      <trkpt lat="46.76158" lon="-1.89147">
        <ele>3</ele>
        <time>2018-03-15T09:06:10Z</time>
      </trkpt>
      <trkpt lat="46.76188" lon="-1.89101">
        <ele>3</ele>
        <time>2018-03-15T09:07:10Z</time>
      </trkpt>
      <trkpt lat="46.762" lon="-1.89085">
        <ele>3</ele>
        <time>2018-03-15T09:08:10Z</time>
      </trkpt>
      <trkpt lat="46.76207" lon="-1.89075">
        <ele>3</ele>
        <time>2018-03-15T09:09:10Z</time>
      </trkpt>
      <trkpt lat="46.76216" lon="-1.89064">
        <ele>3</ele>
        <time>2018-03-15T09:10:10Z</time>
      </trkpt>
      <trkpt lat="46.76238" lon="-1.8904">
        <ele>3</ele>
        <time>2018-03-15T09:11:10Z</time>
      </trkpt>
      <trkpt lat="46.76259" lon="-1.89016">
        <ele>4</ele>
        <time>2018-03-15T09:12:10Z</time>
      </trkpt>
      <trkpt lat="46.76264" lon="-1.89011">
        <ele>4</ele>
        <time>2018-03-15T09:13:10Z</time>
      </trkpt>
      <trkpt lat="46.76272" lon="-1.89001">
        <ele>4</ele>
        <time>2018-03-15T09:14:10Z</time>
      </trkpt>
      <trkpt lat="46.76284" lon="-1.88985">
        <ele>5</ele>
        <time>2018-03-15T09:15:10Z</time>
      </trkpt>
      <trkpt lat="46.76296" lon="-1.88969">
        <ele>5</ele>
        <time>2018-03-15T09:16:10Z</time>
      </trkpt>
      <trkpt lat="46.76309" lon="-1.88949">
        <ele>5</ele>
        <time>2018-03-15T09:17:10Z</time>
      </trkpt>
      <trkpt lat="46.76324" lon="-1.88928">
        <ele>5</ele>
        <time>2018-03-15T09:18:10Z</time>
      </trkpt>
      <trkpt lat="46.7634" lon="-1.88904">
        <ele>5</ele>
        <time>2018-03-15T09:19:10Z</time>
      </trkpt>
      <trkpt lat="46.76385" lon="-1.88837">
        <ele>5</ele>
        <time>2018-03-15T09:20:10Z</time>
      </trkpt>
      <trkpt lat="46.76428" lon="-1.88781">
        <ele>5</ele>
        <time>2018-03-15T09:21:10Z</time>
      </trkpt>
      <trkpt lat="46.76477" lon="-1.88715">
        <ele>5</ele>
        <time>2018-03-15T09:22:10Z</time>
      </trkpt>
      <trkpt lat="46.76487" lon="-1.887">
        <ele>4</ele>
        <time>2018-03-15T09:23:10Z</time>
      </trkpt>
      <trkpt lat="46.76492" lon="-1.88687">
        <ele>4</ele>
        <time>2018-03-15T09:24:10Z</time>
      </trkpt>
      <trkpt lat="46.76494" lon="-1.88684">
        <ele>4</ele>
        <time>2018-03-15T09:25:10Z</time>
      </trkpt>
      <trkpt lat="46.7651" lon="-1.88657">
        <ele>4</ele>
        <time>2018-03-15T09:26:10Z</time>
      </trkpt>
      <trkpt lat="46.7651" lon="-1.88655">
        <ele>4</ele>
        <time>2018-03-15T09:27:10Z</time>
      </trkpt>
      <trkpt lat="46.76512" lon="-1.88653">
        <ele>4</ele>
        <time>2018-03-15T09:28:10Z</time>
      </trkpt>
      <trkpt lat="46.76514" lon="-1.8865">
        <ele>4</ele>
        <time>2018-03-15T09:29:10Z</time>
      </trkpt>
      <trkpt lat="46.76514" lon="-1.8865">
        <ele>4</ele>
        <time>2018-03-15T09:30:10Z</time>
      </trkpt>
      <trkpt lat="46.76514" lon="-1.88647">
        <ele>4</ele>
        <time>2018-03-15T09:31:10Z</time>
      </trkpt>
      <trkpt lat="46.76515" lon="-1.88645">
        <ele>4</ele>
        <time>2018-03-15T09:32:10Z</time>
      </trkpt>
      <trkpt lat="46.76517" lon="-1.88644">
        <ele>4</ele>
        <time>2018-03-15T09:33:10Z</time>
      </trkpt>
      <trkpt lat="46.76517" lon="-1.88643">
        <ele>4</ele>
        <time>2018-03-15T09:34:10Z</time>
      </trkpt>
      <trkpt lat="46.76519" lon="-1.88642">
        <ele>4</ele>
        <time>2018-03-15T09:35:10Z</time>
      </trkpt>
      <trkpt lat="46.76521" lon="-1.88642">
        <ele>4</ele>
        <time>2018-03-15T09:36:10Z</time>
      </trkpt>
      <trkpt lat="46.76523" lon="-1.88642">
        <ele>4</ele>
        <time>2018-03-15T09:37:10Z</time>
      </trkpt>
      <trkpt lat="46.76531" lon="-1.88636">
        <ele>4</ele>
        <time>2018-03-15T09:38:10Z</time>
      </trkpt>
      <trkpt lat="46.76542" lon="-1.8863">
        <ele>5</ele>
        <time>2018-03-15T09:39:10Z</time>
      </trkpt>
      <trkpt lat="46.76559" lon="-1.88617">
        <ele>5</ele>
        <time>2018-03-15T09:40:10Z</time>
      </trkpt>
      <trkpt lat="46.76572" lon="-1.88604">
        <ele>5</ele>
        <time>2018-03-15T09:41:10Z</time>
      </trkpt>
      <trkpt lat="46.76581" lon="-1.88595">
        <ele>6</ele>
        <time>2018-03-15T09:42:10Z</time>
      </trkpt>
      <trkpt lat="46.7659" lon="-1.88588">
        <ele>6</ele>
        <time>2018-03-15T09:43:10Z</time>
      </trkpt>
      <trkpt lat="46.76597" lon="-1.88583">
        <ele>6</ele>
        <time>2018-03-15T09:44:10Z</time>
      </trkpt>
      <trkpt lat="46.76604" lon="-1.88578">
        <ele>6</ele>
        <time>2018-03-15T09:45:10Z</time>
      </trkpt>
      <trkpt lat="46.76611" lon="-1.88574">
        <ele>6</ele>
        <time>2018-03-15T09:46:10Z</time>
      </trkpt>
      <trkpt lat="46.7662" lon="-1.88569">
        <ele>6</ele>
        <time>2018-03-15T09:47:10Z</time>
      </trkpt>
      <trkpt lat="46.76643" lon="-1.8856">
        <ele>7</ele>
        <time>2018-03-15T09:48:10Z</time>
      </trkpt>
      <trkpt lat="46.76678" lon="-1.88543">
        <ele>6</ele>
        <time>2018-03-15T09:49:10Z</time>
      </trkpt>
      <trkpt lat="46.76691" lon="-1.88536">
        <ele>6</ele>
        <time>2018-03-15T09:50:10Z</time>
      </trkpt>
      <trkpt lat="46.76718" lon="-1.88522">
        <ele>6</ele>
        <time>2018-03-15T09:51:10Z</time>
      </trkpt>
      <trkpt lat="46.76736" lon="-1.88514">
        <ele>5</ele>
        <time>2018-03-15T09:52:10Z</time>
      </trkpt>
      <trkpt lat="46.7675" lon="-1.88509">
        <ele>5</ele>
        <time>2018-03-15T09:53:10Z</time>
      </trkpt>
      <trkpt lat="46.76759" lon="-1.88507">
        <ele>5</ele>
        <time>2018-03-15T09:54:10Z</time>
      </trkpt>
      <trkpt lat="46.76766" lon="-1.88506">
        <ele>5</ele>
        <time>2018-03-15T09:55:10Z</time>
      </trkpt>
      <trkpt lat="46.76774" lon="-1.88506">
        <ele>5</ele>
        <time>2018-03-15T09:56:10Z</time>
      </trkpt>
      <trkpt lat="46.76782" lon="-1.88506">
        <ele>5</ele>
        <time>2018-03-15T09:57:10Z</time>
      </trkpt>
      <trkpt lat="46.76809" lon="-1.88508">
        <ele>4</ele>
        <time>2018-03-15T09:58:10Z</time>
      </trkpt>
      <trkpt lat="46.76832" lon="-1.88509">
        <ele>4</ele>
        <time>2018-03-15T09:59:10Z</time>
      </trkpt>
      <trkpt lat="46.76843" lon="-1.88509">
        <ele>4</ele>
        <time>2018-03-15T10:00:10Z</time>
      </trkpt>
      <trkpt lat="46.76851" lon="-1.88509">
        <ele>4</ele>
        <time>2018-03-15T10:01:10Z</time>
      </trkpt>
      <trkpt lat="46.7686" lon="-1.88508">
        <ele>4</ele>
        <time>2018-03-15T10:02:10Z</time>
      </trkpt>
      <trkpt lat="46.76877" lon="-1.88506">
        <ele>4</ele>
        <time>2018-03-15T10:03:10Z</time>
      </trkpt>
      <trkpt lat="46.7691" lon="-1.885">
        <ele>5</ele>
        <time>2018-03-15T10:04:10Z</time>
      </trkpt>
      <trkpt lat="46.76956" lon="-1.88491">
        <ele>5</ele>
        <time>2018-03-15T10:05:10Z</time>
      </trkpt>
      <trkpt lat="46.76976" lon="-1.88487">
        <ele>4</ele>
        <time>2018-03-15T10:06:10Z</time>
      </trkpt>
      <trkpt lat="46.76992" lon="-1.88483">
        <ele>4</ele>
        <time>2018-03-15T10:07:10Z</time>
      </trkpt>
      <trkpt lat="46.77003" lon="-1.88481">
        <ele>4</ele>
        <time>2018-03-15T10:08:10Z</time>
      </trkpt>
      <trkpt lat="46.77016" lon="-1.88478">
        <ele>4</ele>
        <time>2018-03-15T10:09:10Z</time>
      </trkpt>
      <trkpt lat="46.77031" lon="-1.88473">
        <ele>5</ele>
        <time>2018-03-15T10:10:10Z</time>
      </trkpt>
      <trkpt lat="46.77045" lon="-1.88467">
        <ele>5</ele>
        <time>2018-03-15T10:11:10Z</time>
      </trkpt>
      <trkpt lat="46.77054" lon="-1.88464">
        <ele>5</ele>
        <time>2018-03-15T10:12:10Z</time>
      </trkpt>
      <trkpt lat="46.77092" lon="-1.88444">
        <ele>5</ele>
        <time>2018-03-15T10:13:10Z</time>
      </trkpt>
      <trkpt lat="46.7715" lon="-1.88413">
        <ele>4</ele>
        <time>2018-03-15T10:14:10Z</time>
      </trkpt>
      <trkpt lat="46.77199" lon="-1.88384">
        <ele>4</ele>
        <time>2018-03-15T10:15:10Z</time>
      </trkpt>
      <trkpt lat="46.77231" lon="-1.88367">
        <ele>3</ele>
        <time>2018-03-15T10:16:10Z</time>
      </trkpt>
      <trkpt lat="46.77259" lon="-1.8835">
        <ele>3</ele>
        <time>2018-03-15T10:17:10Z</time>
      </trkpt>
      <trkpt lat="46.77281" lon="-1.88335">
        <ele>3</ele>
        <time>2018-03-15T10:18:10Z</time>
      </trkpt>
      <trkpt lat="46.77293" lon="-1.88328">
        <ele>3</ele>
        <time>2018-03-15T10:19:10Z</time>
      </trkpt>
      <trkpt lat="46.77302" lon="-1.8832">
        <ele>3</ele>
        <time>2018-03-15T10:20:10Z</time>
      </trkpt>
      <trkpt lat="46.7731" lon="-1.88313">
        <ele>3</ele>
        <time>2018-03-15T10:21:10Z</time>
      </trkpt>
      <trkpt lat="46.77319" lon="-1.88304">
        <ele>3</ele>
        <time>2018-03-15T10:22:10Z</time>
      </trkpt>
      <trkpt lat="46.77331" lon="-1.8829">
        <ele>4</ele>
        <time>2018-03-15T10:23:10Z</time>
      </trkpt>
      <trkpt lat="46.77362" lon="-1.88248">
        <ele>3</ele>
        <time>2018-03-15T10:24:10Z</time>
      </trkpt>
      <trkpt lat="46.77398" lon="-1.88199">
        <ele>4</ele>
        <time>2018-03-15T10:25:10Z</time>
      </trkpt>
      <trkpt lat="46.77407" lon="-1.88186">
        <ele>4</ele>
        <time>2018-03-15T10:26:10Z</time>
      </trkpt>
      <trkpt lat="46.7743" lon="-1.8815">
        <ele>4</ele>
        <time>2018-03-15T10:27:10Z</time>
      </trkpt>
      <trkpt lat="46.77435" lon="-1.88142">
        <ele>4</ele>
        <time>2018-03-15T10:28:10Z</time>
      </trkpt>
      <trkpt lat="46.77461" lon="-1.88105">
        <ele>4</ele>
        <time>2018-03-15T10:29:10Z</time>
      </trkpt>
      <trkpt lat="46.77484" lon="-1.88078">
        <ele>4</ele>
        <time>2018-03-15T10:30:10Z</time>
      </trkpt>
      <trkpt lat="46.77515" lon="-1.88043">
        <ele>4</ele>
        <time>2018-03-15T10:31:10Z</time>
      </trkpt>
      <trkpt lat="46.7754" lon="-1.88017">
        <ele>5</ele>
        <time>2018-03-15T10:32:10Z</time>
      </trkpt>
      <trkpt lat="46.7758" lon="-1.87976">
        <ele>5</ele>
        <time>2018-03-15T10:33:10Z</time>
      </trkpt>
      <trkpt lat="46.77635" lon="-1.8792">
        <ele>4</ele>
        <time>2018-03-15T10:34:10Z</time>
      </trkpt>
      <trkpt lat="46.77662" lon="-1.87893">
        <ele>3</ele>
        <time>2018-03-15T10:35:10Z</time>
      </trkpt>
      <trkpt lat="46.77669" lon="-1.87886">
        <ele>3</ele>
        <time>2018-03-15T10:36:10Z</time>
      </trkpt>
      <trkpt lat="46.77684" lon="-1.8787">
        <ele>3</ele>
        <time>2018-03-15T10:37:10Z</time>
      </trkpt>
      <trkpt lat="46.77692" lon="-1.87858">
        <ele>3</ele>
        <time>2018-03-15T10:38:10Z</time>
      </trkpt>
      <trkpt lat="46.77699" lon="-1.87847">
        <ele>3</ele>
        <time>2018-03-15T10:39:10Z</time>
      </trkpt>
      <trkpt lat="46.77706" lon="-1.87834">
        <ele>3</ele>
        <time>2018-03-15T10:40:10Z</time>
      </trkpt>
      <trkpt lat="46.77713" lon="-1.87819">
        <ele>3</ele>
        <time>2018-03-15T10:41:10Z</time>
      </trkpt>
      <trkpt lat="46.77723" lon="-1.87796">
        <ele>3</ele>
        <time>2018-03-15T10:42:10Z</time>
      </trkpt>
      <trkpt lat="46.77726" lon="-1.87792">
        <ele>3</ele>
        <time>2018-03-15T10:43:10Z</time>
      </trkpt>
      <trkpt lat="46.77734" lon="-1.87771">
        <ele>3</ele>
        <time>2018-03-15T10:44:10Z</time>
      </trkpt>
      <trkpt lat="46.7774" lon="-1.87752">
        <ele>3</ele>
        <time>2018-03-15T10:45:10Z</time>
      </trkpt>
      <trkpt lat="46.77743" lon="-1.87734">
        <ele>3</ele>
        <time>2018-03-15T10:46:10Z</time>
      </trkpt>
      <trkpt lat="46.77741" lon="-1.8772">
        <ele>3</ele>
        <time>2018-03-15T10:47:10Z</time>
      </trkpt>
      <trkpt lat="46.7774" lon="-1.87697">
        <ele>4</ele>
        <time>2018-03-15T10:48:10Z</time>
      </trkpt>
      <trkpt lat="46.7774" lon="-1.87697">
        <ele>4</ele>
        <time>2018-03-15T10:49:10Z</time>
      </trkpt>
      <trkpt lat="46.77739" lon="-1.87696">
        <ele>4</ele>
        <time>2018-03-15T10:50:10Z</time>
      </trkpt>
      <trkpt lat="46.77738" lon="-1.87694">
        <ele>4</ele>
        <time>2018-03-15T10:51:10Z</time>
      </trkpt>
      <trkpt lat="46.77737" lon="-1.87693">
        <ele>4</ele>
        <time>2018-03-15T10:52:10Z</time>
      </trkpt>
      <trkpt lat="46.77736" lon="-1.87692">
        <ele>4</ele>
        <time>2018-03-15T10:53:10Z</time>
      </trkpt>
      <trkpt lat="46.77735" lon="-1.8769">
        <ele>4</ele>
        <time>2018-03-15T10:54:10Z</time>
      </trkpt>
      <trkpt lat="46.77734" lon="-1.87688">
        <ele>4</ele>
        <time>2018-03-15T10:55:10Z</time>
      </trkpt>
      <trkpt lat="46.77734" lon="-1.87687">
        <ele>4</ele>
        <time>2018-03-15T10:56:10Z</time>
      </trkpt>
      <trkpt lat="46.77733" lon="-1.87685">
        <ele>4</ele>
        <time>2018-03-15T10:57:10Z</time>
      </trkpt>
      <trkpt lat="46.77733" lon="-1.87683">
        <ele>4</ele>
        <time>2018-03-15T10:58:10Z</time>
      </trkpt>
      <trkpt lat="46.77732" lon="-1.87681">
        <ele>4</ele>
        <time>2018-03-15T10:59:10Z</time>
      </trkpt>
      <trkpt lat="46.77732" lon="-1.87679">
        <ele>4</ele>
        <time>2018-03-15T11:00:10Z</time>
      </trkpt>
      <trkpt lat="46.77732" lon="-1.87677">
        <ele>4</ele>
        <time>2018-03-15T11:01:10Z</time>
      </trkpt>
      <trkpt lat="46.77732" lon="-1.87675">
        <ele>4</ele>
        <time>2018-03-15T11:02:10Z</time>
      </trkpt>
      <trkpt lat="46.77732" lon="-1.87673">
        <ele>4</ele>
        <time>2018-03-15T11:03:10Z</time>
      </trkpt>
      <trkpt lat="46.77732" lon="-1.87671">
        <ele>4</ele>
        <time>2018-03-15T11:04:10Z</time>
      </trkpt>
      <trkpt lat="46.77732" lon="-1.87669">
        <ele>4</ele>
        <time>2018-03-15T11:05:10Z</time>
      </trkpt>
      <trkpt lat="46.77733" lon="-1.87667">
        <ele>4</ele>
        <time>2018-03-15T11:06:10Z</time>
      </trkpt>
      <trkpt lat="46.77733" lon="-1.87666">
        <ele>4</ele>
        <time>2018-03-15T11:07:10Z</time>
      </trkpt>
      <trkpt lat="46.77734" lon="-1.87664">
        <ele>4</ele>
        <time>2018-03-15T11:08:10Z</time>
      </trkpt>
      <trkpt lat="46.77734" lon="-1.87662">
        <ele>4</ele>
        <time>2018-03-15T11:09:10Z</time>
      </trkpt>
      <trkpt lat="46.77735" lon="-1.87661">
        <ele>4</ele>
        <time>2018-03-15T11:10:10Z</time>
      </trkpt>
      <trkpt lat="46.77736" lon="-1.87659">
        <ele>4</ele>
        <time>2018-03-15T11:11:10Z</time>
      </trkpt>
      <trkpt lat="46.77737" lon="-1.87658">
        <ele>4</ele>
        <time>2018-03-15T11:12:10Z</time>
      </trkpt>
      <trkpt lat="46.77737" lon="-1.87656">
        <ele>4</ele>
        <time>2018-03-15T11:13:10Z</time>
      </trkpt>
      <trkpt lat="46.77738" lon="-1.87655">
        <ele>4</ele>
        <time>2018-03-15T11:14:10Z</time>
      </trkpt>
      <trkpt lat="46.77739" lon="-1.87654">
        <ele>4</ele>
        <time>2018-03-15T11:15:10Z</time>
      </trkpt>
      <trkpt lat="46.7774" lon="-1.87653">
        <ele>4</ele>
        <time>2018-03-15T11:16:10Z</time>
      </trkpt>
      <trkpt lat="46.77741" lon="-1.87653">
        <ele>4</ele>
        <time>2018-03-15T11:17:10Z</time>
      </trkpt>
      <trkpt lat="46.77743" lon="-1.87652">
        <ele>4</ele>
        <time>2018-03-15T11:18:10Z</time>
      </trkpt>
      <trkpt lat="46.77744" lon="-1.87651">
        <ele>4</ele>
        <time>2018-03-15T11:19:10Z</time>
      </trkpt>
      <trkpt lat="46.77745" lon="-1.87651">
        <ele>4</ele>
        <time>2018-03-15T11:20:10Z</time>
      </trkpt>
      <trkpt lat="46.77747" lon="-1.8765">
        <ele>4</ele>
        <time>2018-03-15T11:21:10Z</time>
      </trkpt>
      <trkpt lat="46.77749" lon="-1.8765">
        <ele>4</ele>
        <time>2018-03-15T11:22:10Z</time>
      </trkpt>
      <trkpt lat="46.7775" lon="-1.8765">
        <ele>4</ele>
        <time>2018-03-15T11:23:10Z</time>
      </trkpt>
      <trkpt lat="46.77751" lon="-1.8765">
        <ele>4</ele>
        <time>2018-03-15T11:24:10Z</time>
      </trkpt>
      <trkpt lat="46.77753" lon="-1.87651">
        <ele>4</ele>
        <time>2018-03-15T11:25:10Z</time>
      </trkpt>
      <trkpt lat="46.77754" lon="-1.87651">
        <ele>4</ele>
        <time>2018-03-15T11:26:10Z</time>
      </trkpt>
      <trkpt lat="46.77755" lon="-1.87652">
        <ele>4</ele>
        <time>2018-03-15T11:27:10Z</time>
      </trkpt>
      <trkpt lat="46.77756" lon="-1.87653">
        <ele>4</ele>
        <time>2018-03-15T11:28:10Z</time>
      </trkpt>
      <trkpt lat="46.77758" lon="-1.87653">
        <ele>4</ele>
        <time>2018-03-15T11:29:10Z</time>
      </trkpt>
      <trkpt lat="46.77759" lon="-1.87655">
        <ele>4</ele>
        <time>2018-03-15T11:30:10Z</time>
      </trkpt>
      <trkpt lat="46.7776" lon="-1.87656">
        <ele>4</ele>
        <time>2018-03-15T11:31:10Z</time>
      </trkpt>
      <trkpt lat="46.77761" lon="-1.87657">
        <ele>4</ele>
        <time>2018-03-15T11:32:10Z</time>
      </trkpt>
      <trkpt lat="46.77762" lon="-1.87658">
        <ele>4</ele>
        <time>2018-03-15T11:33:10Z</time>
      </trkpt>
      <trkpt lat="46.77763" lon="-1.8766">
        <ele>4</ele>
        <time>2018-03-15T11:34:10Z</time>
      </trkpt>
      <trkpt lat="46.77763" lon="-1.87661">
        <ele>4</ele>
        <time>2018-03-15T11:35:10Z</time>
      </trkpt>
      <trkpt lat="46.77764" lon="-1.87663">
        <ele>4</ele>
        <time>2018-03-15T11:36:10Z</time>
      </trkpt>
      <trkpt lat="46.77765" lon="-1.87665">
        <ele>4</ele>
        <time>2018-03-15T11:37:10Z</time>
      </trkpt>
      <trkpt lat="46.77765" lon="-1.87667">
        <ele>4</ele>
        <time>2018-03-15T11:38:10Z</time>
      </trkpt>
      <trkpt lat="46.77765" lon="-1.87668">
        <ele>4</ele>
        <time>2018-03-15T11:39:10Z</time>
      </trkpt>
      <trkpt lat="46.77766" lon="-1.8767">
        <ele>4</ele>
        <time>2018-03-15T11:40:10Z</time>
      </trkpt>
      <trkpt lat="46.77766" lon="-1.87672">
        <ele>4</ele>
        <time>2018-03-15T11:41:10Z</time>
      </trkpt>
      <trkpt lat="46.77777" lon="-1.8768">
        <ele>4</ele>
        <time>2018-03-15T11:42:10Z</time>
      </trkpt>
      <trkpt lat="46.77791" lon="-1.87691">
        <ele>4</ele>
        <time>2018-03-15T11:43:10Z</time>
      </trkpt>
      <trkpt lat="46.77856" lon="-1.87714">
        <ele>4</ele>
        <time>2018-03-15T11:44:10Z</time>
      </trkpt>
      <trkpt lat="46.77865" lon="-1.87718">
        <ele>4</ele>
        <time>2018-03-15T11:45:10Z</time>
      </trkpt>
      <trkpt lat="46.77912" lon="-1.87736">
        <ele>5</ele>
        <time>2018-03-15T11:46:10Z</time>
      </trkpt>
      <trkpt lat="46.77967" lon="-1.87758">
        <ele>3</ele>
        <time>2018-03-15T11:47:10Z</time>
      </trkpt>
      <trkpt lat="46.77999" lon="-1.87771">
        <ele>2</ele>
        <time>2018-03-15T11:48:10Z</time>
      </trkpt>
      <trkpt lat="46.78034" lon="-1.87785">
        <ele>3</ele>
        <time>2018-03-15T11:49:10Z</time>
      </trkpt>
      <trkpt lat="46.78059" lon="-1.87794">
        <ele>4</ele>
        <time>2018-03-15T11:50:10Z</time>
      </trkpt>
      <trkpt lat="46.78068" lon="-1.87799">
        <ele>4</ele>
        <time>2018-03-15T11:51:10Z</time>
      </trkpt>
      <trkpt lat="46.78082" lon="-1.87805">
        <ele>4</ele>
        <time>2018-03-15T11:52:10Z</time>
      </trkpt>
      <trkpt lat="46.78107" lon="-1.87813">
        <ele>5</ele>
        <time>2018-03-15T11:53:10Z</time>
      </trkpt>
      <trkpt lat="46.78109" lon="-1.87813">
        <ele>5</ele>
        <time>2018-03-15T11:54:10Z</time>
      </trkpt>
      <trkpt lat="46.78184" lon="-1.87842">
        <ele>6</ele>
        <time>2018-03-15T11:55:10Z</time>
      </trkpt>
      <trkpt lat="46.78246" lon="-1.87865">
        <ele>5</ele>
        <time>2018-03-15T11:56:10Z</time>
      </trkpt>
      <trkpt lat="46.7826" lon="-1.8787">
        <ele>5</ele>
        <time>2018-03-15T11:57:10Z</time>
      </trkpt>
      <trkpt lat="46.78302" lon="-1.87884">
        <ele>5</ele>
        <time>2018-03-15T11:58:10Z</time>
      </trkpt>
      <trkpt lat="46.7831" lon="-1.87887">
        <ele>5</ele>
        <time>2018-03-15T11:59:10Z</time>
      </trkpt>
      <trkpt lat="46.78367" lon="-1.87908">
        <ele>6</ele>
        <time>2018-03-15T12:00:10Z</time>
      </trkpt>
      <trkpt lat="46.78401" lon="-1.87921">
        <ele>7</ele>
        <time>2018-03-15T12:01:10Z</time>
      </trkpt>
      <trkpt lat="46.78421" lon="-1.87928">
        <ele>8</ele>
        <time>2018-03-15T12:02:10Z</time>
      </trkpt>
      <trkpt lat="46.78475" lon="-1.87947">
        <ele>6</ele>
        <time>2018-03-15T12:03:10Z</time>
      </trkpt>
      <trkpt lat="46.78501" lon="-1.87957">
        <ele>6</ele>
        <time>2018-03-15T12:04:10Z</time>
      </trkpt>
      <trkpt lat="46.78526" lon="-1.87967">
        <ele>6</ele>
        <time>2018-03-15T12:05:10Z</time>
      </trkpt>
      <trkpt lat="46.78582" lon="-1.8799">
        <ele>6</ele>
        <time>2018-03-15T12:06:10Z</time>
      </trkpt>
      <trkpt lat="46.786" lon="-1.87996">
        <ele>6</ele>
        <time>2018-03-15T12:07:10Z</time>
      </trkpt>
      <trkpt lat="46.78669" lon="-1.88024">
        <ele>5</ele>
        <time>2018-03-15T12:08:10Z</time>
      </trkpt>
      <trkpt lat="46.78706" lon="-1.88037">
        <ele>4</ele>
        <time>2018-03-15T12:09:10Z</time>
      </trkpt>
      <trkpt lat="46.78733" lon="-1.88048">
        <ele>4</ele>
        <time>2018-03-15T12:10:10Z</time>
      </trkpt>
      <trkpt lat="46.78741" lon="-1.88051">
        <ele>4</ele>
        <time>2018-03-15T12:11:10Z</time>
      </trkpt>
      <trkpt lat="46.78749" lon="-1.88056">
        <ele>4</ele>
        <time>2018-03-15T12:12:10Z</time>
      </trkpt>
      <trkpt lat="46.78757" lon="-1.88061">
        <ele>5</ele>
        <time>2018-03-15T12:13:10Z</time>
      </trkpt>
      <trkpt lat="46.78764" lon="-1.88068">
        <ele>5</ele>
        <time>2018-03-15T12:14:10Z</time>
      </trkpt>
      <trkpt lat="46.78771" lon="-1.88075">
        <ele>5</ele>
        <time>2018-03-15T12:15:10Z</time>
      </trkpt>
      <trkpt lat="46.7878" lon="-1.88085">
        <ele>5</ele>
        <time>2018-03-15T12:16:10Z</time>
      </trkpt>
      <trkpt lat="46.78798" lon="-1.88106">
        <ele>5</ele>
        <time>2018-03-15T12:17:10Z</time>
      </trkpt>
      <trkpt lat="46.78808" lon="-1.88119">
        <ele>5</ele>
        <time>2018-03-15T12:18:10Z</time>
      </trkpt>
      <trkpt lat="46.78821" lon="-1.88134">
        <ele>4</ele>
        <time>2018-03-15T12:19:10Z</time>
      </trkpt>
      <trkpt lat="46.78834" lon="-1.88145">
        <ele>4</ele>
        <time>2018-03-15T12:20:10Z</time>
      </trkpt>
      <trkpt lat="46.78857" lon="-1.88171">
        <ele>4</ele>
        <time>2018-03-15T12:21:10Z</time>
      </trkpt>
      <trkpt lat="46.78868" lon="-1.88183">
        <ele>3</ele>
        <time>2018-03-15T12:22:10Z</time>
      </trkpt>
      <trkpt lat="46.78871" lon="-1.88186">
        <ele>3</ele>
        <time>2018-03-15T12:23:10Z</time>
      </trkpt>
      <trkpt lat="46.78876" lon="-1.8819">
        <ele>3</ele>
        <time>2018-03-15T12:24:10Z</time>
      </trkpt>
      <trkpt lat="46.78881" lon="-1.88194">
        <ele>3</ele>
        <time>2018-03-15T12:25:10Z</time>
      </trkpt>
      <trkpt lat="46.78882" lon="-1.88196">
        <ele>3</ele>
        <time>2018-03-15T12:26:10Z</time>
      </trkpt>
      <trkpt lat="46.78889" lon="-1.882">
        <ele>3</ele>
        <time>2018-03-15T12:27:10Z</time>
      </trkpt>
      <trkpt lat="46.78895" lon="-1.88203">
        <ele>3</ele>
        <time>2018-03-15T12:28:10Z</time>
      </trkpt>
      <trkpt lat="46.78895" lon="-1.88203">
        <ele>3</ele>
        <time>2018-03-15T12:29:10Z</time>
      </trkpt>
      <trkpt lat="46.78894" lon="-1.88211">
        <ele>3</ele>
        <time>2018-03-15T12:30:10Z</time>
      </trkpt>
      <trkpt lat="46.78894" lon="-1.88213">
        <ele>3</ele>
        <time>2018-03-15T12:31:10Z</time>
      </trkpt>
      <trkpt lat="46.78893" lon="-1.88216">
        <ele>3</ele>
        <time>2018-03-15T12:32:10Z</time>
      </trkpt>
      <trkpt lat="46.78894" lon="-1.88219">
        <ele>3</ele>
        <time>2018-03-15T12:33:10Z</time>
      </trkpt>
      <trkpt lat="46.78904" lon="-1.88232">
        <ele>4</ele>
        <time>2018-03-15T12:34:10Z</time>
      </trkpt>
      <trkpt lat="46.78918" lon="-1.88252">
        <ele>4</ele>
        <time>2018-03-15T12:35:10Z</time>
      </trkpt>
      <trkpt lat="46.78939" lon="-1.88278">
        <ele>5</ele>
        <time>2018-03-15T12:36:10Z</time>
      </trkpt>
      <trkpt lat="46.78971" lon="-1.88317">
        <ele>6</ele>
        <time>2018-03-15T12:37:10Z</time>
      </trkpt>
      <trkpt lat="46.78978" lon="-1.88325">
        <ele>6</ele>
        <time>2018-03-15T12:38:10Z</time>
      </trkpt>
      <trkpt lat="46.7901" lon="-1.88365">
        <ele>7</ele>
        <time>2018-03-15T12:39:10Z</time>
      </trkpt>
      <trkpt lat="46.79029" lon="-1.88391">
        <ele>7</ele>
        <time>2018-03-15T12:40:10Z</time>
      </trkpt>
      <trkpt lat="46.79039" lon="-1.88404">
        <ele>7</ele>
        <time>2018-03-15T12:41:10Z</time>
      </trkpt>
      <trkpt lat="46.79048" lon="-1.88418">
        <ele>8</ele>
        <time>2018-03-15T12:42:10Z</time>
      </trkpt>
      <trkpt lat="46.79056" lon="-1.88431">
        <ele>8</ele>
        <time>2018-03-15T12:43:10Z</time>
      </trkpt>
      <trkpt lat="46.79063" lon="-1.88445">
        <ele>8</ele>
        <time>2018-03-15T12:44:10Z</time>
      </trkpt>
      <trkpt lat="46.79064" lon="-1.88447">
        <ele>8</ele>
        <time>2018-03-15T12:45:10Z</time>
      </trkpt>
      <trkpt lat="46.79073" lon="-1.88466">
        <ele>8</ele>
        <time>2018-03-15T12:46:10Z</time>
      </trkpt>
      <trkpt lat="46.79087" lon="-1.88497">
        <ele>9</ele>
        <time>2018-03-15T12:47:10Z</time>
      </trkpt>
      <trkpt lat="46.79096" lon="-1.88516">
        <ele>9</ele>
        <time>2018-03-15T12:48:10Z</time>
      </trkpt>
      <trkpt lat="46.79103" lon="-1.88534">
        <ele>9</ele>
        <time>2018-03-15T12:49:10Z</time>
      </trkpt>
      <trkpt lat="46.79109" lon="-1.88552">
        <ele>9</ele>
        <time>2018-03-15T12:50:10Z</time>
      </trkpt>
      <trkpt lat="46.79126" lon="-1.88601">
        <ele>10</ele>
        <time>2018-03-15T12:51:10Z</time>
      </trkpt>
      <trkpt lat="46.79137" lon="-1.88636">
        <ele>10</ele>
        <time>2018-03-15T12:52:10Z</time>
      </trkpt>
      <trkpt lat="46.79155" lon="-1.88689">
        <ele>11</ele>
        <time>2018-03-15T12:53:10Z</time>
      </trkpt>
      <trkpt lat="46.79168" lon="-1.88728">
        <ele>11</ele>
        <time>2018-03-15T12:54:10Z</time>
      </trkpt>
      <trkpt lat="46.79191" lon="-1.888">
        <ele>10</ele>
        <time>2018-03-15T12:55:10Z</time>
      </trkpt>
      <trkpt lat="46.79195" lon="-1.88812">
        <ele>10</ele>
        <time>2018-03-15T12:56:10Z</time>
      </trkpt>
      <trkpt lat="46.79223" lon="-1.88898">
        <ele>10</ele>
        <time>2018-03-15T12:57:10Z</time>
      </trkpt>
      <trkpt lat="46.79238" lon="-1.88948">
        <ele>10</ele>
        <time>2018-03-15T12:58:10Z</time>
      </trkpt>
      <trkpt lat="46.7924" lon="-1.88954">
        <ele>10</ele>
        <time>2018-03-15T12:59:10Z</time>
      </trkpt>
      <trkpt lat="46.79242" lon="-1.8896">
        <ele>10</ele>
        <time>2018-03-15T13:00:10Z</time>
      </trkpt>
      <trkpt lat="46.79246" lon="-1.88972">
        <ele>10</ele>
        <time>2018-03-15T13:01:10Z</time>
      </trkpt>
      <trkpt lat="46.79251" lon="-1.88988">
        <ele>10</ele>
        <time>2018-03-15T13:02:10Z</time>
      </trkpt>
      <trkpt lat="46.79259" lon="-1.89011">
        <ele>10</ele>
        <time>2018-03-15T13:03:10Z</time>
      </trkpt>
      <trkpt lat="46.79269" lon="-1.89045">
        <ele>11</ele>
        <time>2018-03-15T13:04:10Z</time>
      </trkpt>
      <trkpt lat="46.79275" lon="-1.89069">
        <ele>11</ele>
        <time>2018-03-15T13:05:10Z</time>
      </trkpt>
      <trkpt lat="46.79281" lon="-1.8909">
        <ele>11</ele>
        <time>2018-03-15T13:06:10Z</time>
      </trkpt>
      <trkpt lat="46.79287" lon="-1.89116">
        <ele>11</ele>
        <time>2018-03-15T13:07:10Z</time>
      </trkpt>
      <trkpt lat="46.79293" lon="-1.8915">
        <ele>11</ele>
        <time>2018-03-15T13:08:10Z</time>
      </trkpt>
      <trkpt lat="46.79303" lon="-1.89211">
        <ele>11</ele>
        <time>2018-03-15T13:09:10Z</time>
      </trkpt>
      <trkpt lat="46.79316" lon="-1.89292">
        <ele>11</ele>
        <time>2018-03-15T13:10:10Z</time>
      </trkpt>
      <trkpt lat="46.79327" lon="-1.89346">
        <ele>10</ele>
        <time>2018-03-15T13:11:10Z</time>
      </trkpt>
      <trkpt lat="46.79335" lon="-1.89378">
        <ele>10</ele>
        <time>2018-03-15T13:12:10Z</time>
      </trkpt>
      <trkpt lat="46.79338" lon="-1.8939">
        <ele>10</ele>
        <time>2018-03-15T13:13:10Z</time>
      </trkpt>
      <trkpt lat="46.7934" lon="-1.89395">
        <ele>10</ele>
        <time>2018-03-15T13:14:10Z</time>
      </trkpt>
      <trkpt lat="46.79347" lon="-1.89416">
        <ele>10</ele>
        <time>2018-03-15T13:15:10Z</time>
      </trkpt>
      <trkpt lat="46.79353" lon="-1.89434">
        <ele>10</ele>
        <time>2018-03-15T13:16:10Z</time>
      </trkpt>
      <trkpt lat="46.79359" lon="-1.89451">
        <ele>10</ele>
        <time>2018-03-15T13:17:10Z</time>
      </trkpt>
      <trkpt lat="46.79366" lon="-1.89468">
        <ele>11</ele>
        <time>2018-03-15T13:18:10Z</time>
      </trkpt>
      <trkpt lat="46.79367" lon="-1.89473">
        <ele>11</ele>
        <time>2018-03-15T13:19:10Z</time>
      </trkpt>
      <trkpt lat="46.79371" lon="-1.89482">
        <ele>11</ele>
        <time>2018-03-15T13:20:10Z</time>
      </trkpt>
      <trkpt lat="46.79378" lon="-1.89497">
        <ele>11</ele>
        <time>2018-03-15T13:21:10Z</time>
      </trkpt>
      <trkpt lat="46.79394" lon="-1.89527">
        <ele>10</ele>
        <time>2018-03-15T13:22:10Z</time>
      </trkpt>
      <trkpt lat="46.79402" lon="-1.89541">
        <ele>10</ele>
        <time>2018-03-15T13:23:10Z</time>
      </trkpt>
      <trkpt lat="46.79422" lon="-1.89578">
        <ele>10</ele>
        <time>2018-03-15T13:24:10Z</time>
      </trkpt>
      <trkpt lat="46.79431" lon="-1.89596">
        <ele>10</ele>
        <time>2018-03-15T13:25:10Z</time>
      </trkpt>
      <trkpt lat="46.7946" lon="-1.8965">
        <ele>11</ele>
        <time>2018-03-15T13:26:10Z</time>
      </trkpt>
      <trkpt lat="46.79461" lon="-1.89653">
        <ele>11</ele>
        <time>2018-03-15T13:27:10Z</time>
      </trkpt>
      <trkpt lat="46.79468" lon="-1.89665">
        <ele>11</ele>
        <time>2018-03-15T13:28:10Z</time>
      </trkpt>
      <trkpt lat="46.79489" lon="-1.89707">
        <ele>12</ele>
        <time>2018-03-15T13:29:10Z</time>
      </trkpt>
      <trkpt lat="46.79499" lon="-1.89725">
        <ele>12</ele>
        <time>2018-03-15T13:30:10Z</time>
      </trkpt>
      <trkpt lat="46.79512" lon="-1.8975">
        <ele>12</ele>
        <time>2018-03-15T13:31:10Z</time>
      </trkpt>
      <trkpt lat="46.79539" lon="-1.89802">
        <ele>11</ele>
        <time>2018-03-15T13:32:10Z</time>
      </trkpt>
      <trkpt lat="46.79543" lon="-1.89811">
        <ele>11</ele>
        <time>2018-03-15T13:33:10Z</time>
      </trkpt>
      <trkpt lat="46.79549" lon="-1.89822">
        <ele>11</ele>
        <time>2018-03-15T13:34:10Z</time>
      </trkpt>
      <trkpt lat="46.79553" lon="-1.89834">
        <ele>11</ele>
        <time>2018-03-15T13:35:10Z</time>
      </trkpt>
      <trkpt lat="46.79558" lon="-1.89861">
        <ele>11</ele>
        <time>2018-03-15T13:36:10Z</time>
      </trkpt>
      <trkpt lat="46.79568" lon="-1.89907">
        <ele>12</ele>
        <time>2018-03-15T13:37:10Z</time>
      </trkpt>
      <trkpt lat="46.7958" lon="-1.89955">
        <ele>12</ele>
        <time>2018-03-15T13:38:10Z</time>
      </trkpt>
      <trkpt lat="46.79585" lon="-1.89972">
        <ele>12</ele>
        <time>2018-03-15T13:39:10Z</time>
      </trkpt>
      <trkpt lat="46.79588" lon="-1.89986">
        <ele>12</ele>
        <time>2018-03-15T13:40:10Z</time>
      </trkpt>
      <trkpt lat="46.79593" lon="-1.90002">
        <ele>12</ele>
        <time>2018-03-15T13:41:10Z</time>
      </trkpt>
      <trkpt lat="46.79604" lon="-1.90035">
        <ele>11</ele>
        <time>2018-03-15T13:42:10Z</time>
      </trkpt>
      <trkpt lat="46.79609" lon="-1.90046">
        <ele>11</ele>
        <time>2018-03-15T13:43:10Z</time>
      </trkpt>
      <trkpt lat="46.79613" lon="-1.9006">
        <ele>11</ele>
        <time>2018-03-15T13:44:10Z</time>
      </trkpt>
      <trkpt lat="46.79616" lon="-1.90068">
        <ele>11</ele>
        <time>2018-03-15T13:45:10Z</time>
      </trkpt>
      <trkpt lat="46.7962" lon="-1.90078">
        <ele>11</ele>
        <time>2018-03-15T13:46:10Z</time>
      </trkpt>
      <trkpt lat="46.79626" lon="-1.90085">
        <ele>10</ele>
        <time>2018-03-15T13:47:10Z</time>
      </trkpt>
      <trkpt lat="46.79672" lon="-1.90123">
        <ele>10</ele>
        <time>2018-03-15T13:48:10Z</time>
      </trkpt>
      <trkpt lat="46.79736" lon="-1.90172">
        <ele>10</ele>
        <time>2018-03-15T13:49:10Z</time>
      </trkpt>
      <trkpt lat="46.79765" lon="-1.90195">
        <ele>9</ele>
        <time>2018-03-15T13:50:10Z</time>
      </trkpt>
      <trkpt lat="46.79827" lon="-1.90242">
        <ele>10</ele>
        <time>2018-03-15T13:51:10Z</time>
      </trkpt>
      <trkpt lat="46.7988" lon="-1.90284">
        <ele>10</ele>
        <time>2018-03-15T13:52:10Z</time>
      </trkpt>
      <trkpt lat="46.79921" lon="-1.90317">
        <ele>11</ele>
        <time>2018-03-15T13:53:10Z</time>
      </trkpt>
      <trkpt lat="46.79943" lon="-1.90336">
        <ele>11</ele>
        <time>2018-03-15T13:54:10Z</time>
      </trkpt>
      <trkpt lat="46.79953" lon="-1.90345">
        <ele>11</ele>
        <time>2018-03-15T13:55:10Z</time>
      </trkpt>
      <trkpt lat="46.79965" lon="-1.90355">
        <ele>12</ele>
        <time>2018-03-15T13:56:10Z</time>
      </trkpt>
      <trkpt lat="46.79971" lon="-1.9036">
        <ele>12</ele>
        <time>2018-03-15T13:57:10Z</time>
      </trkpt>
      <trkpt lat="46.80005" lon="-1.90401">
        <ele>13</ele>
        <time>2018-03-15T13:58:10Z</time>
      </trkpt>
      <trkpt lat="46.80043" lon="-1.90446">
        <ele>13</ele>
        <time>2018-03-15T13:59:10Z</time>
      </trkpt>
      <trkpt lat="46.80054" lon="-1.9046">
        <ele>13</ele>
        <time>2018-03-15T14:00:10Z</time>
      </trkpt>
      <trkpt lat="46.80088" lon="-1.90502">
        <ele>12</ele>
        <time>2018-03-15T14:01:10Z</time>
      </trkpt>
      <trkpt lat="46.80102" lon="-1.90519">
        <ele>12</ele>
        <time>2018-03-15T14:02:10Z</time>
      </trkpt>
      <trkpt lat="46.80112" lon="-1.90537">
        <ele>13</ele>
        <time>2018-03-15T14:03:10Z</time>
      </trkpt>
      <trkpt lat="46.80139" lon="-1.90599">
        <ele>13</ele>
        <time>2018-03-15T14:04:10Z</time>
      </trkpt>
      <trkpt lat="46.80157" lon="-1.90641">
        <ele>13</ele>
        <time>2018-03-15T14:05:10Z</time>
      </trkpt>
      <trkpt lat="46.80178" lon="-1.90696">
        <ele>12</ele>
        <time>2018-03-15T14:06:10Z</time>
      </trkpt>
      <trkpt lat="46.80213" lon="-1.90784">
        <ele>11</ele>
        <time>2018-03-15T14:07:10Z</time>
      </trkpt>
      <trkpt lat="46.80249" lon="-1.90878">
        <ele>12</ele>
        <time>2018-03-15T14:08:10Z</time>
      </trkpt>
      <trkpt lat="46.80267" lon="-1.90923">
        <ele>12</ele>
        <time>2018-03-15T14:09:10Z</time>
      </trkpt>
      <trkpt lat="46.80272" lon="-1.90939">
        <ele>12</ele>
        <time>2018-03-15T14:10:10Z</time>
      </trkpt>
      <trkpt lat="46.80273" lon="-1.9094">
        <ele>12</ele>
        <time>2018-03-15T14:11:10Z</time>
      </trkpt>
      <trkpt lat="46.80276" lon="-1.90948">
        <ele>12</ele>
        <time>2018-03-15T14:12:10Z</time>
      </trkpt>
      <trkpt lat="46.8028" lon="-1.90962">
        <ele>12</ele>
        <time>2018-03-15T14:13:10Z</time>
      </trkpt>
      <trkpt lat="46.80285" lon="-1.9098">
        <ele>12</ele>
        <time>2018-03-15T14:14:10Z</time>
      </trkpt>
      <trkpt lat="46.80288" lon="-1.90996">
        <ele>12</ele>
        <time>2018-03-15T14:15:10Z</time>
      </trkpt>
      <trkpt lat="46.80288" lon="-1.90998">
        <ele>11</ele>
        <time>2018-03-15T14:16:10Z</time>
      </trkpt>
      <trkpt lat="46.80292" lon="-1.91027">
        <ele>11</ele>
        <time>2018-03-15T14:17:10Z</time>
      </trkpt>
      <trkpt lat="46.80295" lon="-1.91048">
        <ele>10</ele>
        <time>2018-03-15T14:18:10Z</time>
      </trkpt>
      <trkpt lat="46.80298" lon="-1.91076">
        <ele>9</ele>
        <time>2018-03-15T14:19:10Z</time>
      </trkpt>
      <trkpt lat="46.80298" lon="-1.91077">
        <ele>9</ele>
        <time>2018-03-15T14:20:10Z</time>
      </trkpt>
      <trkpt lat="46.80307" lon="-1.9116">
        <ele>8</ele>
        <time>2018-03-15T14:21:10Z</time>
      </trkpt>
      <trkpt lat="46.80315" lon="-1.91235">
        <ele>8</ele>
        <time>2018-03-15T14:22:10Z</time>
      </trkpt>
      <trkpt lat="46.80318" lon="-1.9126">
        <ele>8</ele>
        <time>2018-03-15T14:23:10Z</time>
      </trkpt>
      <trkpt lat="46.80318" lon="-1.91265">
        <ele>8</ele>
        <time>2018-03-15T14:24:10Z</time>
      </trkpt>
      <trkpt lat="46.80321" lon="-1.91277">
        <ele>8</ele>
        <time>2018-03-15T14:25:10Z</time>
      </trkpt>
      <trkpt lat="46.80323" lon="-1.91291">
        <ele>8</ele>
        <time>2018-03-15T14:26:10Z</time>
      </trkpt>
      <trkpt lat="46.80327" lon="-1.9131">
        <ele>8</ele>
        <time>2018-03-15T14:27:10Z</time>
      </trkpt>
      <trkpt lat="46.80333" lon="-1.91328">
        <ele>8</ele>
        <time>2018-03-15T14:28:10Z</time>
      </trkpt>
      <trkpt lat="46.80339" lon="-1.91346">
        <ele>8</ele>
        <time>2018-03-15T14:29:10Z</time>
      </trkpt>
      <trkpt lat="46.80346" lon="-1.91361">
        <ele>8</ele>
        <time>2018-03-15T14:30:10Z</time>
      </trkpt>
      <trkpt lat="46.80351" lon="-1.91372">
        <ele>8</ele>
        <time>2018-03-15T14:31:10Z</time>
      </trkpt>
      <trkpt lat="46.80354" lon="-1.91379">
        <ele>8</ele>
        <time>2018-03-15T14:32:10Z</time>
      </trkpt>
      <trkpt lat="46.80366" lon="-1.91399">
        <ele>8</ele>
        <time>2018-03-15T14:33:10Z</time>
      </trkpt>
      <trkpt lat="46.80384" lon="-1.91425">
        <ele>8</ele>
        <time>2018-03-15T14:34:10Z</time>
      </trkpt>
      <trkpt lat="46.80398" lon="-1.91445">
        <ele>8</ele>
        <time>2018-03-15T14:35:10Z</time>
      </trkpt>
      <trkpt lat="46.80412" lon="-1.91464">
        <ele>8</ele>
        <time>2018-03-15T14:36:10Z</time>
      </trkpt>
      <trkpt lat="46.80458" lon="-1.91527">
        <ele>8</ele>
        <time>2018-03-15T14:37:10Z</time>
      </trkpt>
      <trkpt lat="46.80475" lon="-1.91547">
        <ele>8</ele>
        <time>2018-03-15T14:38:10Z</time>
      </trkpt>
      <trkpt lat="46.80488" lon="-1.91562">
        <ele>8</ele>
        <time>2018-03-15T14:39:10Z</time>
      </trkpt>
      <trkpt lat="46.8051" lon="-1.91583">
        <ele>8</ele>
        <time>2018-03-15T14:40:10Z</time>
      </trkpt>
      <trkpt lat="46.80542" lon="-1.91609">
        <ele>7</ele>
        <time>2018-03-15T14:41:10Z</time>
      </trkpt>
      <trkpt lat="46.80555" lon="-1.91623">
        <ele>7</ele>
        <time>2018-03-15T14:42:10Z</time>
      </trkpt>
      <trkpt lat="46.80569" lon="-1.91638">
        <ele>6</ele>
        <time>2018-03-15T14:43:10Z</time>
      </trkpt>
      <trkpt lat="46.80575" lon="-1.91647">
        <ele>6</ele>
        <time>2018-03-15T14:44:10Z</time>
      </trkpt>
      <trkpt lat="46.80582" lon="-1.91662">
        <ele>6</ele>
        <time>2018-03-15T14:45:10Z</time>
      </trkpt>
      <trkpt lat="46.80585" lon="-1.91669">
        <ele>6</ele>
        <time>2018-03-15T14:46:10Z</time>
      </trkpt>
      <trkpt lat="46.80591" lon="-1.91683">
        <ele>6</ele>
        <time>2018-03-15T14:47:10Z</time>
      </trkpt>
      <trkpt lat="46.80596" lon="-1.91699">
        <ele>5</ele>
        <time>2018-03-15T14:48:10Z</time>
      </trkpt>
      <trkpt lat="46.806" lon="-1.91717">
        <ele>5</ele>
        <time>2018-03-15T14:49:10Z</time>
      </trkpt>
      <trkpt lat="46.80604" lon="-1.91749">
        <ele>5</ele>
        <time>2018-03-15T14:50:10Z</time>
      </trkpt>
      <trkpt lat="46.80607" lon="-1.91785">
        <ele>5</ele>
        <time>2018-03-15T14:51:10Z</time>
      </trkpt>
      <trkpt lat="46.8061" lon="-1.91803">
        <ele>5</ele>
        <time>2018-03-15T14:52:10Z</time>
      </trkpt>
      <trkpt lat="46.80613" lon="-1.91824">
        <ele>5</ele>
        <time>2018-03-15T14:53:10Z</time>
      </trkpt>
      <trkpt lat="46.80617" lon="-1.91842">
        <ele>5</ele>
        <time>2018-03-15T14:54:10Z</time>
      </trkpt>
      <trkpt lat="46.8062" lon="-1.91857">
        <ele>5</ele>
        <time>2018-03-15T14:55:10Z</time>
      </trkpt>
      <trkpt lat="46.80621" lon="-1.91862">
        <ele>5</ele>
        <time>2018-03-15T14:56:10Z</time>
      </trkpt>
      <trkpt lat="46.80627" lon="-1.91883">
        <ele>5</ele>
        <time>2018-03-15T14:57:10Z</time>
      </trkpt>
      <trkpt lat="46.80634" lon="-1.91902">
        <ele>5</ele>
        <time>2018-03-15T14:58:10Z</time>
      </trkpt>
      <trkpt lat="46.8064" lon="-1.91921">
        <ele>5</ele>
        <time>2018-03-15T14:59:10Z</time>
      </trkpt>
      <trkpt lat="46.80652" lon="-1.91948">
        <ele>5</ele>
        <time>2018-03-15T15:00:10Z</time>
      </trkpt>
      <trkpt lat="46.80676" lon="-1.91991">
        <ele>4</ele>
        <time>2018-03-15T15:01:10Z</time>
      </trkpt>
      <trkpt lat="46.807" lon="-1.92035">
        <ele>4</ele>
        <time>2018-03-15T15:02:10Z</time>
      </trkpt>
      <trkpt lat="46.80734" lon="-1.92103">
        <ele>4</ele>
        <time>2018-03-15T15:03:10Z</time>
      </trkpt>
      <trkpt lat="46.80767" lon="-1.92165">
        <ele>4</ele>
        <time>2018-03-15T15:04:10Z</time>
      </trkpt>
      <trkpt lat="46.80773" lon="-1.92177">
        <ele>4</ele>
        <time>2018-03-15T15:05:10Z</time>
      </trkpt>
      <trkpt lat="46.80775" lon="-1.9218">
        <ele>4</ele>
        <time>2018-03-15T15:06:10Z</time>
      </trkpt>
      <trkpt lat="46.80781" lon="-1.92196">
        <ele>4</ele>
        <time>2018-03-15T15:07:10Z</time>
      </trkpt>
      <trkpt lat="46.80789" lon="-1.92216">
        <ele>4</ele>
        <time>2018-03-15T15:08:10Z</time>
      </trkpt>
      <trkpt lat="46.80796" lon="-1.92232">
        <ele>5</ele>
        <time>2018-03-15T15:09:10Z</time>
      </trkpt>
      <trkpt lat="46.80802" lon="-1.92248">
        <ele>5</ele>
        <time>2018-03-15T15:10:10Z</time>
      </trkpt>
      <trkpt lat="46.8081" lon="-1.92272">
        <ele>5</ele>
        <time>2018-03-15T15:11:10Z</time>
      </trkpt>
      <trkpt lat="46.80818" lon="-1.92297">
        <ele>5</ele>
        <time>2018-03-15T15:12:10Z</time>
      </trkpt>
      <trkpt lat="46.80824" lon="-1.92313">
        <ele>5</ele>
        <time>2018-03-15T15:13:10Z</time>
      </trkpt>
      <trkpt lat="46.80824" lon="-1.92313">
        <ele>5</ele>
        <time>2018-03-15T15:14:10Z</time>
      </trkpt>
      <trkpt lat="46.8083" lon="-1.92316">
        <ele>5</ele>
        <time>2018-03-15T15:15:10Z</time>
      </trkpt>
      <trkpt lat="46.80837" lon="-1.9232">
        <ele>5</ele>
        <time>2018-03-15T15:16:10Z</time>
      </trkpt>
      <trkpt lat="46.80849" lon="-1.92331">
        <ele>5</ele>
        <time>2018-03-15T15:17:10Z</time>
      </trkpt>
      <trkpt lat="46.80914" lon="-1.92396">
        <ele>3</ele>
        <time>2018-03-15T15:18:10Z</time>
      </trkpt>
      <trkpt lat="46.80982" lon="-1.92464">
        <ele>1</ele>
        <time>2018-03-15T15:19:10Z</time>
      </trkpt>
      <trkpt lat="46.81072" lon="-1.92552">
        <ele>1</ele>
        <time>2018-03-15T15:20:10Z</time>
      </trkpt>
      <trkpt lat="46.81115" lon="-1.92593">
        <ele>1</ele>
        <time>2018-03-15T15:21:10Z</time>
      </trkpt>
      <trkpt lat="46.81151" lon="-1.92628">
        <ele>1</ele>
        <time>2018-03-15T15:22:10Z</time>
      </trkpt>
      <trkpt lat="46.81211" lon="-1.92688">
        <ele>1</ele>
        <time>2018-03-15T15:23:10Z</time>
      </trkpt>
      <trkpt lat="46.81237" lon="-1.92713">
        <ele>2</ele>
        <time>2018-03-15T15:24:10Z</time>
      </trkpt>
      <trkpt lat="46.81317" lon="-1.92792">
        <ele>2</ele>
        <time>2018-03-15T15:25:10Z</time>
      </trkpt>
      <trkpt lat="46.81351" lon="-1.92824">
        <ele>2</ele>
        <time>2018-03-15T15:26:10Z</time>
      </trkpt>
      <trkpt lat="46.81394" lon="-1.92867">
        <ele>1</ele>
        <time>2018-03-15T15:27:10Z</time>
      </trkpt>
      <trkpt lat="46.81401" lon="-1.92874">
        <ele>1</ele>
        <time>2018-03-15T15:28:10Z</time>
      </trkpt>
      <trkpt lat="46.8141" lon="-1.92884">
        <ele>1</ele>
        <time>2018-03-15T15:29:10Z</time>
      </trkpt>
      <trkpt lat="46.81423" lon="-1.929">
        <ele>2</ele>
        <time>2018-03-15T15:30:10Z</time>
      </trkpt>
      <trkpt lat="46.8143" lon="-1.9291">
        <ele>2</ele>
        <time>2018-03-15T15:31:10Z</time>
      </trkpt>
      <trkpt lat="46.81435" lon="-1.92918">
        <ele>2</ele>
        <time>2018-03-15T15:32:10Z</time>
      </trkpt>
      <trkpt lat="46.8144" lon="-1.92927">
        <ele>2</ele>
        <time>2018-03-15T15:33:10Z</time>
      </trkpt>
      <trkpt lat="46.81444" lon="-1.92937">
        <ele>2</ele>
        <time>2018-03-15T15:34:10Z</time>
      </trkpt>
      <trkpt lat="46.81449" lon="-1.92948">
        <ele>1</ele>
        <time>2018-03-15T15:35:10Z</time>
      </trkpt>
      <trkpt lat="46.81453" lon="-1.92962">
        <ele>1</ele>
        <time>2018-03-15T15:36:10Z</time>
      </trkpt>
      <trkpt lat="46.81464" lon="-1.93005">
        <ele>2</ele>
        <time>2018-03-15T15:37:10Z</time>
      </trkpt>
      <trkpt lat="46.81498" lon="-1.93149">
        <ele>1</ele>
        <time>2018-03-15T15:38:10Z</time>
      </trkpt>
      <trkpt lat="46.81506" lon="-1.93178">
        <ele>1</ele>
        <time>2018-03-15T15:39:10Z</time>
      </trkpt>
      <trkpt lat="46.81512" lon="-1.93195">
        <ele>1</ele>
        <time>2018-03-15T15:40:10Z</time>
      </trkpt>
      <trkpt lat="46.81519" lon="-1.93214">
        <ele>1</ele>
        <time>2018-03-15T15:41:10Z</time>
      </trkpt>
      <trkpt lat="46.81527" lon="-1.93227">
        <ele>1</ele>
        <time>2018-03-15T15:42:10Z</time>
      </trkpt>
      <trkpt lat="46.81534" lon="-1.93239">
        <ele>1</ele>
        <time>2018-03-15T15:43:10Z</time>
      </trkpt>
      <trkpt lat="46.81543" lon="-1.93252">
        <ele>1</ele>
        <time>2018-03-15T15:44:10Z</time>
      </trkpt>
      <trkpt lat="46.81551" lon="-1.93261">
        <ele>1</ele>
        <time>2018-03-15T15:45:10Z</time>
      </trkpt>
      <trkpt lat="46.81559" lon="-1.9327">
        <ele>1</ele>
        <time>2018-03-15T15:46:10Z</time>
      </trkpt>
      <trkpt lat="46.81583" lon="-1.93291">
        <ele>1</ele>
        <time>2018-03-15T15:47:10Z</time>
      </trkpt>
      <trkpt lat="46.81629" lon="-1.93329">
        <ele>2</ele>
        <time>2018-03-15T15:48:10Z</time>
      </trkpt>
      <trkpt lat="46.81652" lon="-1.93351">
        <ele>1</ele>
        <time>2018-03-15T15:49:10Z</time>
      </trkpt>
      <trkpt lat="46.81664" lon="-1.93363">
        <ele>1</ele>
        <time>2018-03-15T15:50:10Z</time>
      </trkpt>
      <trkpt lat="46.81674" lon="-1.93376">
        <ele>1</ele>
        <time>2018-03-15T15:51:10Z</time>
      </trkpt>
      <trkpt lat="46.81694" lon="-1.93401">
        <ele>1</ele>
        <time>2018-03-15T15:52:10Z</time>
      </trkpt>
      <trkpt lat="46.81715" lon="-1.93433">
        <ele>1</ele>
        <time>2018-03-15T15:53:10Z</time>
      </trkpt>
      <trkpt lat="46.81778" lon="-1.93531">
        <ele>1</ele>
        <time>2018-03-15T15:54:10Z</time>
      </trkpt>
      <trkpt lat="46.81787" lon="-1.93545">
        <ele>1</ele>
        <time>2018-03-15T15:55:10Z</time>
      </trkpt>
      <trkpt lat="46.81795" lon="-1.9356">
        <ele>1</ele>
        <time>2018-03-15T15:56:10Z</time>
      </trkpt>
      <trkpt lat="46.81801" lon="-1.93572">
        <ele>1</ele>
        <time>2018-03-15T15:57:10Z</time>
      </trkpt>
      <trkpt lat="46.81806" lon="-1.93584">
        <ele>1</ele>
        <time>2018-03-15T15:58:10Z</time>
      </trkpt>
      <trkpt lat="46.81811" lon="-1.93596">
        <ele>1</ele>
        <time>2018-03-15T15:59:10Z</time>
      </trkpt>
      <trkpt lat="46.81843" lon="-1.93711">
        <ele>2</ele>
        <time>2018-03-15T16:00:10Z</time>
      </trkpt>
      <trkpt lat="46.81851" lon="-1.93729">
        <ele>2</ele>
        <time>2018-03-15T16:01:10Z</time>
      </trkpt>
      <trkpt lat="46.81856" lon="-1.93741">
        <ele>2</ele>
        <time>2018-03-15T16:02:10Z</time>
      </trkpt>
      <trkpt lat="46.8186" lon="-1.9375">
        <ele>2</ele>
        <time>2018-03-15T16:03:10Z</time>
      </trkpt>
      <trkpt lat="46.81865" lon="-1.93758">
        <ele>1.8</ele>
        <time>2018-03-15T16:04:10Z</time>
      </trkpt>
      <trkpt lat="46.81869" lon="-1.93765">
        <ele>1.6</ele>
        <time>2018-03-15T16:05:10Z</time>
      </trkpt>
      <trkpt lat="46.81991" lon="-1.9393">
        <ele>1</ele>
        <time>2018-03-15T16:06:10Z</time>
      </trkpt>
      <trkpt lat="46.81995" lon="-1.93934">
        <ele>1</ele>
        <time>2018-03-15T16:07:10Z</time>
      </trkpt>
      <trkpt lat="46.81999" lon="-1.93935">
        <ele>1</ele>
        <time>2018-03-15T16:08:10Z</time>
      </trkpt>
      <trkpt lat="46.82006" lon="-1.93945">
        <ele>1</ele>
        <time>2018-03-15T16:09:10Z</time>
      </trkpt>
      <trkpt lat="46.82023" lon="-1.93965">
        <ele>1</ele>
        <time>2018-03-15T16:10:10Z</time>
      </trkpt>
      <trkpt lat="46.82025" lon="-1.93963">
        <ele>1</ele>
        <time>2018-03-15T16:11:10Z</time>
      </trkpt>
      <trkpt lat="46.82026" lon="-1.93962">
        <ele>1</ele>
        <time>2018-03-15T16:12:10Z</time>
      </trkpt>
      <trkpt lat="46.82027" lon="-1.93962">
        <ele>1</ele>
        <time>2018-03-15T16:13:10Z</time>
      </trkpt>
      <trkpt lat="46.82028" lon="-1.93961">
        <ele>1</ele>
        <time>2018-03-15T16:14:10Z</time>
      </trkpt>
      <trkpt lat="46.82029" lon="-1.93961">
        <ele>1</ele>
        <time>2018-03-15T16:15:10Z</time>
      </trkpt>
      <trkpt lat="46.8203" lon="-1.9396">
        <ele>1</ele>
        <time>2018-03-15T16:16:10Z</time>
      </trkpt>
      <trkpt lat="46.82031" lon="-1.9396">
        <ele>1</ele>
        <time>2018-03-15T16:17:10Z</time>
      </trkpt>
      <trkpt lat="46.82032" lon="-1.9396">
        <ele>1</ele>
        <time>2018-03-15T16:18:10Z</time>
      </trkpt>
      <trkpt lat="46.82033" lon="-1.9396">
        <ele>1</ele>
        <time>2018-03-15T16:19:10Z</time>
      </trkpt>
      <trkpt lat="46.82034" lon="-1.9396">
        <ele>1</ele>
        <time>2018-03-15T16:20:10Z</time>
      </trkpt>
      <trkpt lat="46.82035" lon="-1.9396">
        <ele>1</ele>
        <time>2018-03-15T16:21:10Z</time>
      </trkpt>
      <trkpt lat="46.82036" lon="-1.93961">
        <ele>1</ele>
        <time>2018-03-15T16:22:10Z</time>
      </trkpt>
      <trkpt lat="46.82037" lon="-1.93961">
        <ele>1</ele>
        <time>2018-03-15T16:23:10Z</time>
      </trkpt>
      <trkpt lat="46.82038" lon="-1.93961">
        <ele>1</ele>
        <time>2018-03-15T16:24:10Z</time>
      </trkpt>
      <trkpt lat="46.82039" lon="-1.93962">
        <ele>1</ele>
        <time>2018-03-15T16:25:10Z</time>
      </trkpt>
      <trkpt lat="46.8204" lon="-1.93963">
        <ele>1</ele>
        <time>2018-03-15T16:26:10Z</time>
      </trkpt>
      <trkpt lat="46.82041" lon="-1.93963">
        <ele>1</ele>
        <time>2018-03-15T16:27:10Z</time>
      </trkpt>
      <trkpt lat="46.82042" lon="-1.93964">
        <ele>1</ele>
        <time>2018-03-15T16:28:10Z</time>
      </trkpt>
      <trkpt lat="46.82043" lon="-1.93966">
        <ele>1</ele>
        <time>2018-03-15T16:29:10Z</time>
      </trkpt>
      <trkpt lat="46.82044" lon="-1.93968">
        <ele>1</ele>
        <time>2018-03-15T16:30:10Z</time>
      </trkpt>
      <trkpt lat="46.82045" lon="-1.93969">
        <ele>1</ele>
        <time>2018-03-15T16:31:10Z</time>
      </trkpt>
      <trkpt lat="46.82046" lon="-1.9397">
        <ele>1</ele>
        <time>2018-03-15T16:32:10Z</time>
      </trkpt>
      <trkpt lat="46.82046" lon="-1.93972">
        <ele>1</ele>
        <time>2018-03-15T16:33:10Z</time>
      </trkpt>
      <trkpt lat="46.82047" lon="-1.93973">
        <ele>1</ele>
        <time>2018-03-15T16:34:10Z</time>
      </trkpt>
      <trkpt lat="46.82047" lon="-1.93975">
        <ele>1</ele>
        <time>2018-03-15T16:35:10Z</time>
      </trkpt>
      <trkpt lat="46.82047" lon="-1.93976">
        <ele>1</ele>
        <time>2018-03-15T16:36:10Z</time>
      </trkpt>
      <trkpt lat="46.82048" lon="-1.93978">
        <ele>1</ele>
        <time>2018-03-15T16:37:10Z</time>
      </trkpt>
      <trkpt lat="46.82048" lon="-1.93979">
        <ele>1</ele>
        <time>2018-03-15T16:38:10Z</time>
      </trkpt>
      <trkpt lat="46.82048" lon="-1.93981">
        <ele>1</ele>
        <time>2018-03-15T16:39:10Z</time>
      </trkpt>
      <trkpt lat="46.82048" lon="-1.93982">
        <ele>1</ele>
        <time>2018-03-15T16:40:10Z</time>
      </trkpt>
      <trkpt lat="46.82048" lon="-1.93984">
        <ele>1</ele>
        <time>2018-03-15T16:41:10Z</time>
      </trkpt>
      <trkpt lat="46.82048" lon="-1.93985">
        <ele>1</ele>
        <time>2018-03-15T16:42:10Z</time>
      </trkpt>
      <trkpt lat="46.82048" lon="-1.93987">
        <ele>1</ele>
        <time>2018-03-15T16:43:10Z</time>
      </trkpt>
      <trkpt lat="46.82048" lon="-1.93988">
        <ele>1</ele>
        <time>2018-03-15T16:44:10Z</time>
      </trkpt>
      <trkpt lat="46.82066" lon="-1.94025">
        <ele>1</ele>
        <time>2018-03-15T16:45:10Z</time>
      </trkpt>
      <trkpt lat="46.82077" lon="-1.94037">
        <ele>1</ele>
        <time>2018-03-15T16:46:10Z</time>
      </trkpt>
      <trkpt lat="46.8211" lon="-1.94072">
        <ele>1</ele>
        <time>2018-03-15T16:47:10Z</time>
      </trkpt>
      <trkpt lat="46.82148" lon="-1.94105">
        <ele>1</ele>
        <time>2018-03-15T16:48:10Z</time>
      </trkpt>
      <trkpt lat="46.82158" lon="-1.94113">
        <ele>1</ele>
        <time>2018-03-15T16:49:10Z</time>
      </trkpt>
      <trkpt lat="46.82174" lon="-1.94124">
        <ele>1</ele>
        <time>2018-03-15T16:50:10Z</time>
      </trkpt>
      <trkpt lat="46.82196" lon="-1.94138">
        <ele>1</ele>
        <time>2018-03-15T16:51:10Z</time>
      </trkpt>
      <trkpt lat="46.82214" lon="-1.94147">
        <ele>1</ele>
        <time>2018-03-15T16:52:10Z</time>
      </trkpt>
      <trkpt lat="46.82261" lon="-1.94172">
        <ele>1</ele>
        <time>2018-03-15T16:53:10Z</time>
      </trkpt>
      <trkpt lat="46.8232" lon="-1.94199">
        <ele>1</ele>
        <time>2018-03-15T16:54:10Z</time>
      </trkpt>
      <trkpt lat="46.82362" lon="-1.94219">
        <ele>1</ele>
        <time>2018-03-15T16:55:10Z</time>
      </trkpt>
      <trkpt lat="46.82363" lon="-1.9422">
        <ele>1</ele>
        <time>2018-03-15T16:56:10Z</time>
      </trkpt>
      <trkpt lat="46.82369" lon="-1.94222">
        <ele>1</ele>
        <time>2018-03-15T16:57:10Z</time>
      </trkpt>
      <trkpt lat="46.82393" lon="-1.94234">
        <ele>1</ele>
        <time>2018-03-15T16:58:10Z</time>
      </trkpt>
      <trkpt lat="46.82402" lon="-1.94238">
        <ele>1</ele>
        <time>2018-03-15T16:59:10Z</time>
      </trkpt>
      <trkpt lat="46.82415" lon="-1.94244">
        <ele>1</ele>
        <time>2018-03-15T17:00:10Z</time>
      </trkpt>
      <trkpt lat="46.82457" lon="-1.94261">
        <ele>1</ele>
        <time>2018-03-15T17:01:10Z</time>
      </trkpt>
      <trkpt lat="46.82504" lon="-1.94279">
        <ele>2</ele>
        <time>2018-03-15T17:02:10Z</time>
      </trkpt>
      <trkpt lat="46.8252" lon="-1.94284">
        <ele>1</ele>
        <time>2018-03-15T17:03:10Z</time>
      </trkpt>
      <trkpt lat="46.8256" lon="-1.94299">
        <ele>2</ele>
        <time>2018-03-15T17:04:10Z</time>
      </trkpt>
      <trkpt lat="46.8265" lon="-1.94333">
        <ele>1</ele>
        <time>2018-03-15T17:05:10Z</time>
      </trkpt>
      <trkpt lat="46.82697" lon="-1.9435">
        <ele>1</ele>
        <time>2018-03-15T17:06:10Z</time>
      </trkpt>
      <trkpt lat="46.82743" lon="-1.94367">
        <ele>1.4</ele>
        <time>2018-03-15T17:07:10Z</time>
      </trkpt>
      <trkpt lat="46.82772" lon="-1.94378">
        <ele>1</ele>
        <time>2018-03-15T17:08:10Z</time>
      </trkpt>
      <trkpt lat="46.8278" lon="-1.94381">
        <ele>1</ele>
        <time>2018-03-15T17:09:10Z</time>
      </trkpt>
      <trkpt lat="46.82808" lon="-1.94383">
        <ele>1</ele>
        <time>2018-03-15T17:10:10Z</time>
      </trkpt>
      <trkpt lat="46.82808" lon="-1.94382">
        <ele>1</ele>
        <time>2018-03-15T17:11:10Z</time>
      </trkpt>
      <trkpt lat="46.82809" lon="-1.94382">
        <ele>1</ele>
        <time>2018-03-15T17:12:10Z</time>
      </trkpt>
      <trkpt lat="46.82809" lon="-1.94381">
        <ele>1</ele>
        <time>2018-03-15T17:13:10Z</time>
      </trkpt>
      <trkpt lat="46.8281" lon="-1.94381">
        <ele>1</ele>
        <time>2018-03-15T17:14:10Z</time>
      </trkpt>
      <trkpt lat="46.8281" lon="-1.9438">
        <ele>1</ele>
        <time>2018-03-15T17:15:10Z</time>
      </trkpt>
      <trkpt lat="46.82811" lon="-1.9438">
        <ele>1</ele>
        <time>2018-03-15T17:16:10Z</time>
      </trkpt>
      <trkpt lat="46.82811" lon="-1.94379">
        <ele>1</ele>
        <time>2018-03-15T17:17:10Z</time>
      </trkpt>
      <trkpt lat="46.82812" lon="-1.94379">
        <ele>1</ele>
        <time>2018-03-15T17:18:10Z</time>
      </trkpt>
      <trkpt lat="46.82813" lon="-1.94379">
        <ele>1</ele>
        <time>2018-03-15T17:19:10Z</time>
      </trkpt>
      <trkpt lat="46.82813" lon="-1.94378">
        <ele>1</ele>
        <time>2018-03-15T17:20:10Z</time>
      </trkpt>
      <trkpt lat="46.82814" lon="-1.94378">
        <ele>1</ele>
        <time>2018-03-15T17:21:10Z</time>
      </trkpt>
      <trkpt lat="46.82815" lon="-1.94378">
        <ele>1</ele>
        <time>2018-03-15T17:22:10Z</time>
      </trkpt>
      <trkpt lat="46.82816" lon="-1.94378">
        <ele>1</ele>
        <time>2018-03-15T17:23:10Z</time>
      </trkpt>
      <trkpt lat="46.82817" lon="-1.94378">
        <ele>1</ele>
        <time>2018-03-15T17:24:10Z</time>
      </trkpt>
      <trkpt lat="46.82818" lon="-1.94378">
        <ele>1</ele>
        <time>2018-03-15T17:25:10Z</time>
      </trkpt>
      <trkpt lat="46.82818" lon="-1.94379">
        <ele>1</ele>
        <time>2018-03-15T17:26:10Z</time>
      </trkpt>
      <trkpt lat="46.82819" lon="-1.94379">
        <ele>1</ele>
        <time>2018-03-15T17:27:10Z</time>
      </trkpt>
      <trkpt lat="46.8282" lon="-1.94379">
        <ele>1</ele>
        <time>2018-03-15T17:28:10Z</time>
      </trkpt>
      <trkpt lat="46.8282" lon="-1.9438">
        <ele>1</ele>
        <time>2018-03-15T17:29:10Z</time>
      </trkpt>
      <trkpt lat="46.82821" lon="-1.9438">
        <ele>1</ele>
        <time>2018-03-15T17:30:10Z</time>
      </trkpt>
      <trkpt lat="46.82821" lon="-1.94381">
        <ele>1</ele>
        <time>2018-03-15T17:31:10Z</time>
      </trkpt>
      <trkpt lat="46.82822" lon="-1.94381">
        <ele>1</ele>
        <time>2018-03-15T17:32:10Z</time>
      </trkpt>
      <trkpt lat="46.82822" lon="-1.94382">
        <ele>1</ele>
        <time>2018-03-15T17:33:10Z</time>
      </trkpt>
      <trkpt lat="46.82823" lon="-1.94383">
        <ele>1</ele>
        <time>2018-03-15T17:34:10Z</time>
      </trkpt>
      <trkpt lat="46.82823" lon="-1.94384">
        <ele>1</ele>
        <time>2018-03-15T17:35:10Z</time>
      </trkpt>
      <trkpt lat="46.82824" lon="-1.94384">
        <ele>1</ele>
        <time>2018-03-15T17:36:10Z</time>
      </trkpt>
      <trkpt lat="46.82824" lon="-1.94385">
        <ele>1</ele>
        <time>2018-03-15T17:37:10Z</time>
      </trkpt>
      <trkpt lat="46.82824" lon="-1.94386">
        <ele>1</ele>
        <time>2018-03-15T17:38:10Z</time>
      </trkpt>
      <trkpt lat="46.82824" lon="-1.94387">
        <ele>1</ele>
        <time>2018-03-15T17:39:10Z</time>
      </trkpt>
      <trkpt lat="46.82825" lon="-1.94387">
        <ele>1</ele>
        <time>2018-03-15T17:40:10Z</time>
      </trkpt>
      <trkpt lat="46.82825" lon="-1.94388">
        <ele>1</ele>
        <time>2018-03-15T17:41:10Z</time>
      </trkpt>
      <trkpt lat="46.82825" lon="-1.94389">
        <ele>1</ele>
        <time>2018-03-15T17:42:10Z</time>
      </trkpt>
      <trkpt lat="46.82825" lon="-1.9439">
        <ele>1</ele>
        <time>2018-03-15T17:43:10Z</time>
      </trkpt>
      <trkpt lat="46.82825" lon="-1.94391">
        <ele>1</ele>
        <time>2018-03-15T17:44:10Z</time>
      </trkpt>
      <trkpt lat="46.82829" lon="-1.94396">
        <ele>1</ele>
        <time>2018-03-15T17:45:10Z</time>
      </trkpt>
      <trkpt lat="46.82835" lon="-1.94402">
        <ele>1</ele>
        <time>2018-03-15T17:46:10Z</time>
      </trkpt>
      <trkpt lat="46.82981" lon="-1.94473">
        <ele>1</ele>
        <time>2018-03-15T17:47:10Z</time>
      </trkpt>
      <trkpt lat="46.83045" lon="-1.94504">
        <ele>2</ele>
        <time>2018-03-15T17:48:10Z</time>
      </trkpt>
      <trkpt lat="46.83057" lon="-1.94509">
        <ele>2</ele>
        <time>2018-03-15T17:49:10Z</time>
      </trkpt>
      <trkpt lat="46.83168" lon="-1.94574">
        <ele>1.7</ele>
        <time>2018-03-15T17:50:10Z</time>
      </trkpt>
      <trkpt lat="46.83242" lon="-1.9462">
        <ele>1.4</ele>
        <time>2018-03-15T17:51:10Z</time>
      </trkpt>
      <trkpt lat="46.83302" lon="-1.94658">
        <ele>1</ele>
        <time>2018-03-15T17:52:10Z</time>
      </trkpt>
      <trkpt lat="46.83355" lon="-1.9469">
        <ele>2</ele>
        <time>2018-03-15T17:53:10Z</time>
      </trkpt>
      <trkpt lat="46.83414" lon="-1.94726">
        <ele>2</ele>
        <time>2018-03-15T17:54:10Z</time>
      </trkpt>
      <trkpt lat="46.83462" lon="-1.94754">
        <ele>2</ele>
        <time>2018-03-15T17:55:10Z</time>
      </trkpt>
      <trkpt lat="46.83516" lon="-1.94788">
        <ele>1</ele>
        <time>2018-03-15T17:56:10Z</time>
      </trkpt>
      <trkpt lat="46.83547" lon="-1.94807">
        <ele>1</ele>
        <time>2018-03-15T17:57:10Z</time>
      </trkpt>
      <trkpt lat="46.8355" lon="-1.94809">
        <ele>1</ele>
        <time>2018-03-15T17:58:10Z</time>
      </trkpt>
      <trkpt lat="46.83618" lon="-1.94851">
        <ele>1</ele>
        <time>2018-03-15T17:59:10Z</time>
      </trkpt>
      <trkpt lat="46.83685" lon="-1.94894">
        <ele>1</ele>
        <time>2018-03-15T18:00:10Z</time>
      </trkpt>
      <trkpt lat="46.83735" lon="-1.94923">
        <ele>1</ele>
        <time>2018-03-15T18:01:10Z</time>
      </trkpt>
      <trkpt lat="46.83765" lon="-1.94942">
        <ele>1</ele>
        <time>2018-03-15T18:02:10Z</time>
      </trkpt>
      <trkpt lat="46.83847" lon="-1.94993">
        <ele>1</ele>
        <time>2018-03-15T18:03:10Z</time>
      </trkpt>
      <trkpt lat="46.8391" lon="-1.95031">
        <ele>1</ele>
        <time>2018-03-15T18:04:10Z</time>
      </trkpt>
      <trkpt lat="46.83925" lon="-1.95042">
        <ele>1</ele>
        <time>2018-03-15T18:05:10Z</time>
      </trkpt>
      <trkpt lat="46.83933" lon="-1.95048">
        <ele>1</ele>
        <time>2018-03-15T18:06:10Z</time>
      </trkpt>
      <trkpt lat="46.84038" lon="-1.95112">
        <ele>1</ele>
        <time>2018-03-15T18:07:10Z</time>
      </trkpt>
      <trkpt lat="46.84074" lon="-1.95135">
        <ele>1</ele>
        <time>2018-03-15T18:08:10Z</time>
      </trkpt>
      <trkpt lat="46.84195" lon="-1.95212">
        <ele>2</ele>
        <time>2018-03-15T18:09:10Z</time>
      </trkpt>
      <trkpt lat="46.84332" lon="-1.95299">
        <ele>2</ele>
        <time>2018-03-15T18:10:10Z</time>
      </trkpt>
      <trkpt lat="46.84618" lon="-1.95479">
        <ele>1.8</ele>
        <time>2018-03-15T18:11:10Z</time>
      </trkpt>
      <trkpt lat="46.84623" lon="-1.95482">
        <ele>1.8</ele>
        <time>2018-03-15T18:12:10Z</time>
      </trkpt>
      <trkpt lat="46.84675" lon="-1.95517">
        <ele>1</ele>
        <time>2018-03-15T18:13:10Z</time>
      </trkpt>
      <trkpt lat="46.8477" lon="-1.95577">
        <ele>2</ele>
        <time>2018-03-15T18:14:10Z</time>
      </trkpt>
      <trkpt lat="46.84912" lon="-1.95668">
        <ele>2</ele>
        <time>2018-03-15T18:15:10Z</time>
      </trkpt>
      <trkpt lat="46.85067" lon="-1.95766">
        <ele>1</ele>
        <time>2018-03-15T18:16:10Z</time>
      </trkpt>
      <trkpt lat="46.85185" lon="-1.9584">
        <ele>1</ele>
        <time>2018-03-15T18:17:10Z</time>
      </trkpt>
      <trkpt lat="46.85204" lon="-1.95852">
        <ele>1</ele>
        <time>2018-03-15T18:18:10Z</time>
      </trkpt>
      <trkpt lat="46.85346" lon="-1.95943">
        <ele>1</ele>
        <time>2018-03-15T18:19:10Z</time>
      </trkpt>
      <trkpt lat="46.8545" lon="-1.96009">
        <ele>1</ele>
        <time>2018-03-15T18:20:10Z</time>
      </trkpt>
      <trkpt lat="46.85543" lon="-1.96069">
        <ele>1</ele>
        <time>2018-03-15T18:21:10Z</time>
      </trkpt>
      <trkpt lat="46.85645" lon="-1.96132">
        <ele>1</ele>
        <time>2018-03-15T18:22:10Z</time>
      </trkpt>
      <trkpt lat="46.85722" lon="-1.96182">
        <ele>1</ele>
        <time>2018-03-15T18:23:10Z</time>
      </trkpt>
      <trkpt lat="46.85748" lon="-1.96197">
        <ele>1</ele>
        <time>2018-03-15T18:24:10Z</time>
      </trkpt>
      <trkpt lat="46.85748" lon="-1.96197">
        <ele>1</ele>
        <time>2018-03-15T18:25:10Z</time>
      </trkpt>
      <trkpt lat="46.85753" lon="-1.9619">
        <ele>1</ele>
        <time>2018-03-15T18:26:10Z</time>
      </trkpt>
      <trkpt lat="46.85766" lon="-1.96164">
        <ele>2</ele>
        <time>2018-03-15T18:27:10Z</time>
      </trkpt>
      <trkpt lat="46.85775" lon="-1.96148">
        <ele>2</ele>
        <time>2018-03-15T18:28:10Z</time>
      </trkpt>
      <trkpt lat="46.85801" lon="-1.96094">
        <ele>2</ele>
        <time>2018-03-15T18:29:10Z</time>
      </trkpt>
      <trkpt lat="46.85812" lon="-1.96072">
        <ele>2</ele>
        <time>2018-03-15T18:30:10Z</time>
      </trkpt>
      <trkpt lat="46.85816" lon="-1.96064">
        <ele>2</ele>
        <time>2018-03-15T18:31:10Z</time>
      </trkpt>
      <trkpt lat="46.85825" lon="-1.96046">
        <ele>2</ele>
        <time>2018-03-15T18:32:10Z</time>
      </trkpt>
      <trkpt lat="46.85833" lon="-1.96032">
        <ele>2</ele>
        <time>2018-03-15T18:33:10Z</time>
      </trkpt>
      <trkpt lat="46.8584" lon="-1.9602">
        <ele>2</ele>
        <time>2018-03-15T18:34:10Z</time>
      </trkpt>
      <trkpt lat="46.85844" lon="-1.96015">
        <ele>2</ele>
        <time>2018-03-15T18:35:10Z</time>
      </trkpt>
      <trkpt lat="46.85847" lon="-1.9601">
        <ele>2</ele>
        <time>2018-03-15T18:36:10Z</time>
      </trkpt>
      <trkpt lat="46.85857" lon="-1.95996">
        <ele>2</ele>
        <time>2018-03-15T18:37:10Z</time>
      </trkpt>
      <trkpt lat="46.85867" lon="-1.95981">
        <ele>3</ele>
        <time>2018-03-15T18:38:10Z</time>
      </trkpt>
      <trkpt lat="46.85875" lon="-1.9597">
        <ele>3</ele>
        <time>2018-03-15T18:39:10Z</time>
      </trkpt>
      <trkpt lat="46.85878" lon="-1.95966">
        <ele>3</ele>
        <time>2018-03-15T18:40:10Z</time>
      </trkpt>
      <trkpt lat="46.85887" lon="-1.95952">
        <ele>3</ele>
        <time>2018-03-15T18:41:10Z</time>
      </trkpt>
      <trkpt lat="46.8589" lon="-1.95949">
        <ele>3</ele>
        <time>2018-03-15T18:42:10Z</time>
      </trkpt>
      <trkpt lat="46.85909" lon="-1.95921">
        <ele>4</ele>
        <time>2018-03-15T18:43:10Z</time>
      </trkpt>
      <trkpt lat="46.85923" lon="-1.95901">
        <ele>4</ele>
        <time>2018-03-15T18:44:10Z</time>
      </trkpt>
      <trkpt lat="46.85928" lon="-1.95893">
        <ele>4</ele>
        <time>2018-03-15T18:45:10Z</time>
      </trkpt>
      <trkpt lat="46.85942" lon="-1.95878">
        <ele>4</ele>
        <time>2018-03-15T18:46:10Z</time>
      </trkpt>
      <trkpt lat="46.85945" lon="-1.95874">
        <ele>4</ele>
        <time>2018-03-15T18:47:10Z</time>
      </trkpt>
      <trkpt lat="46.8595" lon="-1.95867">
        <ele>4</ele>
        <time>2018-03-15T18:48:10Z</time>
      </trkpt>
      <trkpt lat="46.85959" lon="-1.95854">
        <ele>4</ele>
        <time>2018-03-15T18:49:10Z</time>
      </trkpt>
      <trkpt lat="46.85965" lon="-1.95842">
        <ele>4</ele>
        <time>2018-03-15T18:50:10Z</time>
      </trkpt>
      <trkpt lat="46.85973" lon="-1.95824">
        <ele>4</ele>
        <time>2018-03-15T18:51:10Z</time>
      </trkpt>
      <trkpt lat="46.85977" lon="-1.95814">
        <ele>4</ele>
        <time>2018-03-15T18:52:10Z</time>
      </trkpt>
      <trkpt lat="46.85995" lon="-1.95778">
        <ele>4</ele>
        <time>2018-03-15T18:53:10Z</time>
      </trkpt>
      <trkpt lat="46.86002" lon="-1.95765">
        <ele>4</ele>
        <time>2018-03-15T18:54:10Z</time>
      </trkpt>
      <trkpt lat="46.86008" lon="-1.95755">
        <ele>4</ele>
        <time>2018-03-15T18:55:10Z</time>
      </trkpt>
      <trkpt lat="46.86014" lon="-1.95747">
        <ele>4</ele>
        <time>2018-03-15T18:56:10Z</time>
      </trkpt>
      <trkpt lat="46.86034" lon="-1.95722">
        <ele>4</ele>
        <time>2018-03-15T18:57:10Z</time>
      </trkpt>
      <trkpt lat="46.86036" lon="-1.95719">
        <ele>4</ele>
        <time>2018-03-15T18:58:10Z</time>
      </trkpt>
      <trkpt lat="46.86044" lon="-1.95707">
        <ele>4</ele>
        <time>2018-03-15T18:59:10Z</time>
      </trkpt>
      <trkpt lat="46.86057" lon="-1.95685">
        <ele>4</ele>
        <time>2018-03-15T19:00:10Z</time>
      </trkpt>
      <trkpt lat="46.86059" lon="-1.95676">
        <ele>4</ele>
        <time>2018-03-15T19:01:10Z</time>
      </trkpt>
      <trkpt lat="46.8606" lon="-1.95665">
        <ele>4</ele>
        <time>2018-03-15T19:02:10Z</time>
      </trkpt>
      <trkpt lat="46.86061" lon="-1.95654">
        <ele>4</ele>
        <time>2018-03-15T19:03:10Z</time>
      </trkpt>
      <trkpt lat="46.8606" lon="-1.95639">
        <ele>4</ele>
        <time>2018-03-15T19:04:10Z</time>
      </trkpt>
      <trkpt lat="46.86059" lon="-1.95621">
        <ele>4</ele>
        <time>2018-03-15T19:05:10Z</time>
      </trkpt>
      <trkpt lat="46.86057" lon="-1.95592">
        <ele>5</ele>
        <time>2018-03-15T19:06:10Z</time>
      </trkpt>
      <trkpt lat="46.86054" lon="-1.95565">
        <ele>5</ele>
        <time>2018-03-15T19:07:10Z</time>
      </trkpt>
      <trkpt lat="46.86052" lon="-1.95551">
        <ele>4</ele>
        <time>2018-03-15T19:08:10Z</time>
      </trkpt>
      <trkpt lat="46.86051" lon="-1.95537">
        <ele>4</ele>
        <time>2018-03-15T19:09:10Z</time>
      </trkpt>
      <trkpt lat="46.8605" lon="-1.95526">
        <ele>4</ele>
        <time>2018-03-15T19:10:10Z</time>
      </trkpt>
      <trkpt lat="46.86049" lon="-1.95515">
        <ele>4</ele>
        <time>2018-03-15T19:11:10Z</time>
      </trkpt>
      <trkpt lat="46.86048" lon="-1.95505">
        <ele>4</ele>
        <time>2018-03-15T19:12:10Z</time>
      </trkpt>
      <trkpt lat="46.86048" lon="-1.95485">
        <ele>4</ele>
        <time>2018-03-15T19:13:10Z</time>
      </trkpt>
      <trkpt lat="46.86047" lon="-1.95441">
        <ele>4</ele>
        <time>2018-03-15T19:14:10Z</time>
      </trkpt>
      <trkpt lat="46.86046" lon="-1.95426">
        <ele>4</ele>
        <time>2018-03-15T19:15:10Z</time>
      </trkpt>
      <trkpt lat="46.86045" lon="-1.95373">
        <ele>4</ele>
        <time>2018-03-15T19:16:10Z</time>
      </trkpt>
      <trkpt lat="46.86045" lon="-1.95366">
        <ele>4</ele>
        <time>2018-03-15T19:17:10Z</time>
      </trkpt>
      <trkpt lat="46.86044" lon="-1.95319">
        <ele>5</ele>
        <time>2018-03-15T19:18:10Z</time>
      </trkpt>
      <trkpt lat="46.86044" lon="-1.95308">
        <ele>5</ele>
        <time>2018-03-15T19:19:10Z</time>
      </trkpt>
      <trkpt lat="46.86043" lon="-1.95294">
        <ele>5</ele>
        <time>2018-03-15T19:20:10Z</time>
      </trkpt>
      <trkpt lat="46.86041" lon="-1.95248">
        <ele>5</ele>
        <time>2018-03-15T19:21:10Z</time>
      </trkpt>
      <trkpt lat="46.86041" lon="-1.9522">
        <ele>5</ele>
        <time>2018-03-15T19:22:10Z</time>
      </trkpt>
      <trkpt lat="46.86039" lon="-1.95206">
        <ele>5</ele>
        <time>2018-03-15T19:23:10Z</time>
      </trkpt>
      <trkpt lat="46.86042" lon="-1.95189">
        <ele>5</ele>
        <time>2018-03-15T19:24:10Z</time>
      </trkpt>
      <trkpt lat="46.86044" lon="-1.9518">
        <ele>5</ele>
        <time>2018-03-15T19:25:10Z</time>
      </trkpt>
      <trkpt lat="46.86049" lon="-1.95172">
        <ele>4</ele>
        <time>2018-03-15T19:26:10Z</time>
      </trkpt>
      <trkpt lat="46.86052" lon="-1.95166">
        <ele>4</ele>
        <time>2018-03-15T19:27:10Z</time>
      </trkpt>
      <trkpt lat="46.86056" lon="-1.95163">
        <ele>4</ele>
        <time>2018-03-15T19:28:10Z</time>
      </trkpt>
      <trkpt lat="46.86062" lon="-1.95161">
        <ele>4</ele>
        <time>2018-03-15T19:29:10Z</time>
      </trkpt>
      <trkpt lat="46.86067" lon="-1.9516">
        <ele>3</ele>
        <time>2018-03-15T19:30:10Z</time>
      </trkpt>
      <trkpt lat="46.86085" lon="-1.95162">
        <ele>3</ele>
        <time>2018-03-15T19:31:10Z</time>
      </trkpt>
      <trkpt lat="46.86098" lon="-1.95163">
        <ele>3</ele>
        <time>2018-03-15T19:32:10Z</time>
      </trkpt>
      <trkpt lat="46.86106" lon="-1.95164">
        <ele>2</ele>
        <time>2018-03-15T19:33:10Z</time>
      </trkpt>
      <trkpt lat="46.86113" lon="-1.95165">
        <ele>2</ele>
        <time>2018-03-15T19:34:10Z</time>
      </trkpt>
      <trkpt lat="46.86128" lon="-1.95168">
        <ele>2</ele>
        <time>2018-03-15T19:35:10Z</time>
      </trkpt>
      <trkpt lat="46.86141" lon="-1.9517">
        <ele>2</ele>
        <time>2018-03-15T19:36:10Z</time>
      </trkpt>
      <trkpt lat="46.86151" lon="-1.95171">
        <ele>1</ele>
        <time>2018-03-15T19:37:10Z</time>
      </trkpt>
      <trkpt lat="46.8616" lon="-1.95172">
        <ele>1</ele>
        <time>2018-03-15T19:38:10Z</time>
      </trkpt>
      <trkpt lat="46.86174" lon="-1.95172">
        <ele>1</ele>
        <time>2018-03-15T19:39:10Z</time>
      </trkpt>
      <trkpt lat="46.86199" lon="-1.95169">
        <ele>1</ele>
        <time>2018-03-15T19:40:10Z</time>
      </trkpt>
      <trkpt lat="46.86237" lon="-1.95163">
        <ele>1</ele>
        <time>2018-03-15T19:41:10Z</time>
      </trkpt>
      <trkpt lat="46.86264" lon="-1.95159">
        <ele>1</ele>
        <time>2018-03-15T19:42:10Z</time>
      </trkpt>
      <trkpt lat="46.86287" lon="-1.95157">
        <ele>2</ele>
        <time>2018-03-15T19:43:10Z</time>
      </trkpt>
      <trkpt lat="46.86319" lon="-1.95152">
        <ele>2</ele>
        <time>2018-03-15T19:44:10Z</time>
      </trkpt>
      <trkpt lat="46.86344" lon="-1.9515">
        <ele>3</ele>
        <time>2018-03-15T19:45:10Z</time>
      </trkpt>
      <trkpt lat="46.86357" lon="-1.95147">
        <ele>3</ele>
        <time>2018-03-15T19:46:10Z</time>
      </trkpt>
      <trkpt lat="46.86367" lon="-1.95144">
        <ele>3</ele>
        <time>2018-03-15T19:47:10Z</time>
      </trkpt>
      <trkpt lat="46.86377" lon="-1.95141">
        <ele>3</ele>
        <time>2018-03-15T19:48:10Z</time>
      </trkpt>
      <trkpt lat="46.86383" lon="-1.95138">
        <ele>3</ele>
        <time>2018-03-15T19:49:10Z</time>
      </trkpt>
      <trkpt lat="46.86389" lon="-1.95136">
        <ele>3</ele>
        <time>2018-03-15T19:50:10Z</time>
      </trkpt>
      <trkpt lat="46.86403" lon="-1.95129">
        <ele>2</ele>
        <time>2018-03-15T19:51:10Z</time>
      </trkpt>
      <trkpt lat="46.86422" lon="-1.9512">
        <ele>2</ele>
        <time>2018-03-15T19:52:10Z</time>
      </trkpt>
      <trkpt lat="46.86457" lon="-1.95102">
        <ele>3</ele>
        <time>2018-03-15T19:53:10Z</time>
      </trkpt>
      <trkpt lat="46.8647" lon="-1.95096">
        <ele>3</ele>
        <time>2018-03-15T19:54:10Z</time>
      </trkpt>
      <trkpt lat="46.8648" lon="-1.95091">
        <ele>3</ele>
        <time>2018-03-15T19:55:10Z</time>
      </trkpt>
      <trkpt lat="46.86488" lon="-1.95082">
        <ele>3</ele>
        <time>2018-03-15T19:56:10Z</time>
      </trkpt>
      <trkpt lat="46.86497" lon="-1.95074">
        <ele>3</ele>
        <time>2018-03-15T19:57:10Z</time>
      </trkpt>
      <trkpt lat="46.86512" lon="-1.95063">
        <ele>3</ele>
        <time>2018-03-15T19:58:10Z</time>
      </trkpt>
      <trkpt lat="46.86525" lon="-1.95056">
        <ele>3</ele>
        <time>2018-03-15T19:59:10Z</time>
      </trkpt>
      <trkpt lat="46.86525" lon="-1.95054">
        <ele>3</ele>
        <time>2018-03-15T20:00:10Z</time>
      </trkpt>
      <trkpt lat="46.86526" lon="-1.95052">
        <ele>3</ele>
        <time>2018-03-15T20:01:10Z</time>
      </trkpt>
      <trkpt lat="46.86528" lon="-1.95049">
        <ele>3</ele>
        <time>2018-03-15T20:02:10Z</time>
      </trkpt>
      <trkpt lat="46.86529" lon="-1.95048">
        <ele>3</ele>
        <time>2018-03-15T20:03:10Z</time>
      </trkpt>
      <trkpt lat="46.86532" lon="-1.95047">
        <ele>3</ele>
        <time>2018-03-15T20:04:10Z</time>
      </trkpt>
      <trkpt lat="46.86535" lon="-1.95046">
        <ele>3</ele>
        <time>2018-03-15T20:05:10Z</time>
      </trkpt>
      <trkpt lat="46.86537" lon="-1.95047">
        <ele>3</ele>
        <time>2018-03-15T20:06:10Z</time>
      </trkpt>
      <trkpt lat="46.86539" lon="-1.95048">
        <ele>3</ele>
        <time>2018-03-15T20:07:10Z</time>
      </trkpt>
      <trkpt lat="46.8654" lon="-1.95049">
        <ele>3</ele>
        <time>2018-03-15T20:08:10Z</time>
      </trkpt>
      <trkpt lat="46.86541" lon="-1.95051">
        <ele>3</ele>
        <time>2018-03-15T20:09:10Z</time>
      </trkpt>
      <trkpt lat="46.86542" lon="-1.95053">
        <ele>3</ele>
        <time>2018-03-15T20:10:10Z</time>
      </trkpt>
      <trkpt lat="46.86543" lon="-1.95054">
        <ele>3</ele>
        <time>2018-03-15T20:11:10Z</time>
      </trkpt>
      <trkpt lat="46.86559" lon="-1.95053">
        <ele>3</ele>
        <time>2018-03-15T20:12:10Z</time>
      </trkpt>
      <trkpt lat="46.86566" lon="-1.95054">
        <ele>4</ele>
        <time>2018-03-15T20:13:10Z</time>
      </trkpt>
      <trkpt lat="46.86576" lon="-1.95057">
        <ele>4</ele>
        <time>2018-03-15T20:14:10Z</time>
      </trkpt>
      <trkpt lat="46.86584" lon="-1.95054">
        <ele>4</ele>
        <time>2018-03-15T20:15:10Z</time>
      </trkpt>
      <trkpt lat="46.86608" lon="-1.95047">
        <ele>4</ele>
        <time>2018-03-15T20:16:10Z</time>
      </trkpt>
      <trkpt lat="46.86633" lon="-1.95037">
        <ele>4</ele>
        <time>2018-03-15T20:17:10Z</time>
      </trkpt>
      <trkpt lat="46.86658" lon="-1.95025">
        <ele>4</ele>
        <time>2018-03-15T20:18:10Z</time>
      </trkpt>
      <trkpt lat="46.86682" lon="-1.95014">
        <ele>4</ele>
        <time>2018-03-15T20:19:10Z</time>
      </trkpt>
      <trkpt lat="46.86702" lon="-1.95006">
        <ele>4</ele>
        <time>2018-03-15T20:20:10Z</time>
      </trkpt>
      <trkpt lat="46.86719" lon="-1.94998">
        <ele>5</ele>
        <time>2018-03-15T20:21:10Z</time>
      </trkpt>
      <trkpt lat="46.86738" lon="-1.94993">
        <ele>5</ele>
        <time>2018-03-15T20:22:10Z</time>
      </trkpt>
      <trkpt lat="46.86747" lon="-1.94991">
        <ele>5</ele>
        <time>2018-03-15T20:23:10Z</time>
      </trkpt>
      <trkpt lat="46.86756" lon="-1.9499">
        <ele>5</ele>
        <time>2018-03-15T20:24:10Z</time>
      </trkpt>
      <trkpt lat="46.86765" lon="-1.94989">
        <ele>5</ele>
        <time>2018-03-15T20:25:10Z</time>
      </trkpt>
      <trkpt lat="46.86772" lon="-1.94989">
        <ele>5</ele>
        <time>2018-03-15T20:26:10Z</time>
      </trkpt>
      <trkpt lat="46.86772" lon="-1.94988">
        <ele>5</ele>
        <time>2018-03-15T20:27:10Z</time>
      </trkpt>
      <trkpt lat="46.86773" lon="-1.94987">
        <ele>5</ele>
        <time>2018-03-15T20:28:10Z</time>
      </trkpt>
      <trkpt lat="46.86773" lon="-1.94986">
        <ele>5</ele>
        <time>2018-03-15T20:29:10Z</time>
      </trkpt>
      <trkpt lat="46.86773" lon="-1.94985">
        <ele>5</ele>
        <time>2018-03-15T20:30:10Z</time>
      </trkpt>
      <trkpt lat="46.86773" lon="-1.94984">
        <ele>5</ele>
        <time>2018-03-15T20:31:10Z</time>
      </trkpt>
      <trkpt lat="46.86773" lon="-1.94983">
        <ele>5</ele>
        <time>2018-03-15T20:32:10Z</time>
      </trkpt>
      <trkpt lat="46.86774" lon="-1.94983">
        <ele>5</ele>
        <time>2018-03-15T20:33:10Z</time>
      </trkpt>
      <trkpt lat="46.86774" lon="-1.94982">
        <ele>5</ele>
        <time>2018-03-15T20:34:10Z</time>
      </trkpt>
      <trkpt lat="46.86774" lon="-1.94981">
        <ele>5</ele>
        <time>2018-03-15T20:35:10Z</time>
      </trkpt>
      <trkpt lat="46.86775" lon="-1.9498">
        <ele>5</ele>
        <time>2018-03-15T20:36:10Z</time>
      </trkpt>
      <trkpt lat="46.86775" lon="-1.94979">
        <ele>5</ele>
        <time>2018-03-15T20:37:10Z</time>
      </trkpt>
      <trkpt lat="46.86776" lon="-1.94979">
        <ele>5</ele>
        <time>2018-03-15T20:38:10Z</time>
      </trkpt>
      <trkpt lat="46.86776" lon="-1.94978">
        <ele>5</ele>
        <time>2018-03-15T20:39:10Z</time>
      </trkpt>
      <trkpt lat="46.86777" lon="-1.94977">
        <ele>5</ele>
        <time>2018-03-15T20:40:10Z</time>
      </trkpt>
      <trkpt lat="46.86778" lon="-1.94977">
        <ele>5</ele>
        <time>2018-03-15T20:41:10Z</time>
      </trkpt>
      <trkpt lat="46.86778" lon="-1.94976">
        <ele>5</ele>
        <time>2018-03-15T20:42:10Z</time>
      </trkpt>
      <trkpt lat="46.86779" lon="-1.94976">
        <ele>5</ele>
        <time>2018-03-15T20:43:10Z</time>
      </trkpt>
      <trkpt lat="46.8678" lon="-1.94975">
        <ele>5</ele>
        <time>2018-03-15T20:44:10Z</time>
      </trkpt>
      <trkpt lat="46.86781" lon="-1.94975">
        <ele>5</ele>
        <time>2018-03-15T20:45:10Z</time>
      </trkpt>
      <trkpt lat="46.86782" lon="-1.94975">
        <ele>5</ele>
        <time>2018-03-15T20:46:10Z</time>
      </trkpt>
      <trkpt lat="46.86783" lon="-1.94975">
        <ele>5</ele>
        <time>2018-03-15T20:47:10Z</time>
      </trkpt>
      <trkpt lat="46.86784" lon="-1.94975">
        <ele>5</ele>
        <time>2018-03-15T20:48:10Z</time>
      </trkpt>
      <trkpt lat="46.86785" lon="-1.94975">
        <ele>5</ele>
        <time>2018-03-15T20:49:10Z</time>
      </trkpt>
      <trkpt lat="46.86786" lon="-1.94975">
        <ele>5</ele>
        <time>2018-03-15T20:50:10Z</time>
      </trkpt>
      <trkpt lat="46.86786" lon="-1.94976">
        <ele>5</ele>
        <time>2018-03-15T20:51:10Z</time>
      </trkpt>
      <trkpt lat="46.86787" lon="-1.94976">
        <ele>5</ele>
        <time>2018-03-15T20:52:10Z</time>
      </trkpt>
      <trkpt lat="46.86788" lon="-1.94977">
        <ele>5</ele>
        <time>2018-03-15T20:53:10Z</time>
      </trkpt>
      <trkpt lat="46.86789" lon="-1.94977">
        <ele>5</ele>
        <time>2018-03-15T20:54:10Z</time>
      </trkpt>
      <trkpt lat="46.86789" lon="-1.94978">
        <ele>5</ele>
        <time>2018-03-15T20:55:10Z</time>
      </trkpt>
      <trkpt lat="46.8679" lon="-1.94979">
        <ele>5</ele>
        <time>2018-03-15T20:56:10Z</time>
      </trkpt>
      <trkpt lat="46.8679" lon="-1.9498">
        <ele>5</ele>
        <time>2018-03-15T20:57:10Z</time>
      </trkpt>
      <trkpt lat="46.86791" lon="-1.9498">
        <ele>5</ele>
        <time>2018-03-15T20:58:10Z</time>
      </trkpt>
      <trkpt lat="46.86791" lon="-1.94981">
        <ele>5</ele>
        <time>2018-03-15T20:59:10Z</time>
      </trkpt>
      <trkpt lat="46.86792" lon="-1.94982">
        <ele>5</ele>
        <time>2018-03-15T21:00:10Z</time>
      </trkpt>
      <trkpt lat="46.86792" lon="-1.94983">
        <ele>5</ele>
        <time>2018-03-15T21:01:10Z</time>
      </trkpt>
      <trkpt lat="46.86792" lon="-1.94984">
        <ele>5</ele>
        <time>2018-03-15T21:02:10Z</time>
      </trkpt>
      <trkpt lat="46.86793" lon="-1.94985">
        <ele>5</ele>
        <time>2018-03-15T21:03:10Z</time>
      </trkpt>
      <trkpt lat="46.86793" lon="-1.94986">
        <ele>5</ele>
        <time>2018-03-15T21:04:10Z</time>
      </trkpt>
      <trkpt lat="46.86793" lon="-1.94987">
        <ele>5</ele>
        <time>2018-03-15T21:05:10Z</time>
      </trkpt>
      <trkpt lat="46.868" lon="-1.94984">
        <ele>5</ele>
        <time>2018-03-15T21:06:10Z</time>
      </trkpt>
      <trkpt lat="46.86823" lon="-1.94982">
        <ele>5</ele>
        <time>2018-03-15T21:07:10Z</time>
      </trkpt>
      <trkpt lat="46.86834" lon="-1.94981">
        <ele>5</ele>
        <time>2018-03-15T21:08:10Z</time>
      </trkpt>
      <trkpt lat="46.86845" lon="-1.94979">
        <ele>5</ele>
        <time>2018-03-15T21:09:10Z</time>
      </trkpt>
      <trkpt lat="46.86856" lon="-1.94977">
        <ele>5</ele>
        <time>2018-03-15T21:10:10Z</time>
      </trkpt>
      <trkpt lat="46.86867" lon="-1.94974">
        <ele>5</ele>
        <time>2018-03-15T21:11:10Z</time>
      </trkpt>
      <trkpt lat="46.86878" lon="-1.9497">
        <ele>5</ele>
        <time>2018-03-15T21:12:10Z</time>
      </trkpt>
      <trkpt lat="46.86897" lon="-1.94963">
        <ele>5</ele>
        <time>2018-03-15T21:13:10Z</time>
      </trkpt>
      <trkpt lat="46.86927" lon="-1.9495">
        <ele>6</ele>
        <time>2018-03-15T21:14:10Z</time>
      </trkpt>
      <trkpt lat="46.87" lon="-1.94919">
        <ele>8</ele>
        <time>2018-03-15T21:15:10Z</time>
      </trkpt>
      <trkpt lat="46.87079" lon="-1.94886">
        <ele>8</ele>
        <time>2018-03-15T21:16:10Z</time>
      </trkpt>
      <trkpt lat="46.87103" lon="-1.94875">
        <ele>8</ele>
        <time>2018-03-15T21:17:10Z</time>
      </trkpt>
      <trkpt lat="46.87133" lon="-1.9486">
        <ele>9</ele>
        <time>2018-03-15T21:18:10Z</time>
      </trkpt>
      <trkpt lat="46.87172" lon="-1.94839">
        <ele>10</ele>
        <time>2018-03-15T21:19:10Z</time>
      </trkpt>
      <trkpt lat="46.87233" lon="-1.94806">
        <ele>10</ele>
        <time>2018-03-15T21:20:10Z</time>
      </trkpt>
      <trkpt lat="46.87305" lon="-1.94767">
        <ele>11</ele>
        <time>2018-03-15T21:21:10Z</time>
      </trkpt>
      <trkpt lat="46.87358" lon="-1.94738">
        <ele>12</ele>
        <time>2018-03-15T21:22:10Z</time>
      </trkpt>
      <trkpt lat="46.87375" lon="-1.94729">
        <ele>13</ele>
        <time>2018-03-15T21:23:10Z</time>
      </trkpt>
      <trkpt lat="46.87417" lon="-1.9471">
        <ele>14</ele>
        <time>2018-03-15T21:24:10Z</time>
      </trkpt>
      <trkpt lat="46.87433" lon="-1.94702">
        <ele>14</ele>
        <time>2018-03-15T21:25:10Z</time>
      </trkpt>
      <trkpt lat="46.87445" lon="-1.94698">
        <ele>15</ele>
        <time>2018-03-15T21:26:10Z</time>
      </trkpt>
      <trkpt lat="46.87445" lon="-1.94698">
        <ele>15</ele>
        <time>2018-03-15T21:27:10Z</time>
      </trkpt>
      <trkpt lat="46.87468" lon="-1.94693">
        <ele>15</ele>
        <time>2018-03-15T21:28:10Z</time>
      </trkpt>
      <trkpt lat="46.87505" lon="-1.94685">
        <ele>15</ele>
        <time>2018-03-15T21:29:10Z</time>
      </trkpt>
      <trkpt lat="46.8752" lon="-1.94681">
        <ele>15</ele>
        <time>2018-03-15T21:30:10Z</time>
      </trkpt>
      <trkpt lat="46.87529" lon="-1.94679">
        <ele>15</ele>
        <time>2018-03-15T21:31:10Z</time>
      </trkpt>
      <trkpt lat="46.87529" lon="-1.94679">
        <ele>15</ele>
        <time>2018-03-15T21:32:10Z</time>
      </trkpt>
      <trkpt lat="46.87535" lon="-1.94678">
        <ele>15</ele>
        <time>2018-03-15T21:33:10Z</time>
      </trkpt>
      <trkpt lat="46.87547" lon="-1.94674">
        <ele>16</ele>
        <time>2018-03-15T21:34:10Z</time>
      </trkpt>
      <trkpt lat="46.87558" lon="-1.94671">
        <ele>16</ele>
        <time>2018-03-15T21:35:10Z</time>
      </trkpt>
      <trkpt lat="46.87578" lon="-1.94663">
        <ele>16</ele>
        <time>2018-03-15T21:36:10Z</time>
      </trkpt>
      <trkpt lat="46.87617" lon="-1.94645">
        <ele>15</ele>
        <time>2018-03-15T21:37:10Z</time>
      </trkpt>
      <trkpt lat="46.8765" lon="-1.94631">
        <ele>14</ele>
        <time>2018-03-15T21:38:10Z</time>
      </trkpt>
      <trkpt lat="46.87672" lon="-1.94623">
        <ele>14</ele>
        <time>2018-03-15T21:39:10Z</time>
      </trkpt>
      <trkpt lat="46.87689" lon="-1.94618">
        <ele>13</ele>
        <time>2018-03-15T21:40:10Z</time>
      </trkpt>
      <trkpt lat="46.87729" lon="-1.94606">
        <ele>12</ele>
        <time>2018-03-15T21:41:10Z</time>
      </trkpt>
      <trkpt lat="46.87746" lon="-1.946">
        <ele>12</ele>
        <time>2018-03-15T21:42:10Z</time>
      </trkpt>
      <trkpt lat="46.87761" lon="-1.94593">
        <ele>12</ele>
        <time>2018-03-15T21:43:10Z</time>
      </trkpt>
      <trkpt lat="46.87773" lon="-1.94586">
        <ele>12</ele>
        <time>2018-03-15T21:44:10Z</time>
      </trkpt>
      <trkpt lat="46.87788" lon="-1.94578">
        <ele>12</ele>
        <time>2018-03-15T21:45:10Z</time>
      </trkpt>
      <trkpt lat="46.87795" lon="-1.94573">
        <ele>12</ele>
        <time>2018-03-15T21:46:10Z</time>
      </trkpt>
      <trkpt lat="46.87813" lon="-1.94561">
        <ele>12</ele>
        <time>2018-03-15T21:47:10Z</time>
      </trkpt>
      <trkpt lat="46.87843" lon="-1.94541">
        <ele>12</ele>
        <time>2018-03-15T21:48:10Z</time>
      </trkpt>
      <trkpt lat="46.87881" lon="-1.94509">
        <ele>12</ele>
        <time>2018-03-15T21:49:10Z</time>
      </trkpt>
      <trkpt lat="46.87896" lon="-1.94497">
        <ele>12</ele>
        <time>2018-03-15T21:50:10Z</time>
      </trkpt>
      <trkpt lat="46.87913" lon="-1.94487">
        <ele>12</ele>
        <time>2018-03-15T21:51:10Z</time>
      </trkpt>
      <trkpt lat="46.87943" lon="-1.94469">
        <ele>12</ele>
        <time>2018-03-15T21:52:10Z</time>
      </trkpt>
      <trkpt lat="46.87966" lon="-1.94456">
        <ele>11</ele>
        <time>2018-03-15T21:53:10Z</time>
      </trkpt>
      <trkpt lat="46.87981" lon="-1.94447">
        <ele>11</ele>
        <time>2018-03-15T21:54:10Z</time>
      </trkpt>
      <trkpt lat="46.88" lon="-1.94438">
        <ele>10</ele>
        <time>2018-03-15T21:55:10Z</time>
      </trkpt>
      <trkpt lat="46.88009" lon="-1.94434">
        <ele>10</ele>
        <time>2018-03-15T21:56:10Z</time>
      </trkpt>
      <trkpt lat="46.88025" lon="-1.94428">
        <ele>10</ele>
        <time>2018-03-15T21:57:10Z</time>
      </trkpt>
      <trkpt lat="46.8804" lon="-1.94424">
        <ele>10</ele>
        <time>2018-03-15T21:58:10Z</time>
      </trkpt>
      <trkpt lat="46.88054" lon="-1.94421">
        <ele>9</ele>
        <time>2018-03-15T21:59:10Z</time>
      </trkpt>
      <trkpt lat="46.8807" lon="-1.94419">
        <ele>9</ele>
        <time>2018-03-15T22:00:10Z</time>
      </trkpt>
      <trkpt lat="46.88083" lon="-1.94418">
        <ele>9</ele>
        <time>2018-03-15T22:01:10Z</time>
      </trkpt>
      <trkpt lat="46.88099" lon="-1.94417">
        <ele>9</ele>
        <time>2018-03-15T22:02:10Z</time>
      </trkpt>
      <trkpt lat="46.88112" lon="-1.94417">
        <ele>9</ele>
        <time>2018-03-15T22:03:10Z</time>
      </trkpt>
      <trkpt lat="46.88128" lon="-1.94417">
        <ele>9</ele>
        <time>2018-03-15T22:04:10Z</time>
      </trkpt>
      <trkpt lat="46.88142" lon="-1.94418">
        <ele>9</ele>
        <time>2018-03-15T22:05:10Z</time>
      </trkpt>
      <trkpt lat="46.8816" lon="-1.9442">
        <ele>9</ele>
        <time>2018-03-15T22:06:10Z</time>
      </trkpt>
      <trkpt lat="46.8816" lon="-1.9442">
        <ele>9</ele>
        <time>2018-03-15T22:07:10Z</time>
      </trkpt>
      <trkpt lat="46.88173" lon="-1.94422">
        <ele>9</ele>
        <time>2018-03-15T22:08:10Z</time>
      </trkpt>
      <trkpt lat="46.88198" lon="-1.94427">
        <ele>9</ele>
        <time>2018-03-15T22:09:10Z</time>
      </trkpt>
      <trkpt lat="46.88229" lon="-1.94433">
        <ele>10</ele>
        <time>2018-03-15T22:10:10Z</time>
      </trkpt>
      <trkpt lat="46.88258" lon="-1.94438">
        <ele>10</ele>
        <time>2018-03-15T22:11:10Z</time>
      </trkpt>
      <trkpt lat="46.88296" lon="-1.94448">
        <ele>11</ele>
        <time>2018-03-15T22:12:10Z</time>
      </trkpt>
      <trkpt lat="46.88312" lon="-1.94452">
        <ele>11</ele>
        <time>2018-03-15T22:13:10Z</time>
      </trkpt>
      <trkpt lat="46.88326" lon="-1.94456">
        <ele>11</ele>
        <time>2018-03-15T22:14:10Z</time>
      </trkpt>
      <trkpt lat="46.88337" lon="-1.94461">
        <ele>11</ele>
        <time>2018-03-15T22:15:10Z</time>
      </trkpt>
      <trkpt lat="46.88368" lon="-1.94474">
        <ele>10</ele>
        <time>2018-03-15T22:16:10Z</time>
      </trkpt>
      <trkpt lat="46.88384" lon="-1.94481">
        <ele>10</ele>
        <time>2018-03-15T22:17:10Z</time>
      </trkpt>
      <trkpt lat="46.88395" lon="-1.94482">
        <ele>10</ele>
        <time>2018-03-15T22:18:10Z</time>
      </trkpt>
      <trkpt lat="46.88406" lon="-1.94481">
        <ele>9</ele>
        <time>2018-03-15T22:19:10Z</time>
      </trkpt>
      <trkpt lat="46.88414" lon="-1.94477">
        <ele>9</ele>
        <time>2018-03-15T22:20:10Z</time>
      </trkpt>
      <trkpt lat="46.88422" lon="-1.94472">
        <ele>9</ele>
        <time>2018-03-15T22:21:10Z</time>
      </trkpt>
      <trkpt lat="46.88449" lon="-1.94455">
        <ele>10</ele>
        <time>2018-03-15T22:22:10Z</time>
      </trkpt>
      <trkpt lat="46.88495" lon="-1.94422">
        <ele>12</ele>
        <time>2018-03-15T22:23:10Z</time>
      </trkpt>
      <trkpt lat="46.88551" lon="-1.94382">
        <ele>11</ele>
        <time>2018-03-15T22:24:10Z</time>
      </trkpt>
      <trkpt lat="46.88585" lon="-1.94358">
        <ele>10</ele>
        <time>2018-03-15T22:25:10Z</time>
      </trkpt>
      <trkpt lat="46.88602" lon="-1.94347">
        <ele>10</ele>
        <time>2018-03-15T22:26:10Z</time>
      </trkpt>
      <trkpt lat="46.8861" lon="-1.94348">
        <ele>10</ele>
        <time>2018-03-15T22:27:10Z</time>
      </trkpt>
      <trkpt lat="46.88621" lon="-1.94346">
        <ele>10</ele>
        <time>2018-03-15T22:28:10Z</time>
      </trkpt>
      <trkpt lat="46.88632" lon="-1.94346">
        <ele>10</ele>
        <time>2018-03-15T22:29:10Z</time>
      </trkpt>
      <trkpt lat="46.88646" lon="-1.94347">
        <ele>10</ele>
        <time>2018-03-15T22:30:10Z</time>
      </trkpt>
      <trkpt lat="46.88661" lon="-1.9435">
        <ele>10</ele>
        <time>2018-03-15T22:31:10Z</time>
      </trkpt>
      <trkpt lat="46.88671" lon="-1.94354">
        <ele>10</ele>
        <time>2018-03-15T22:32:10Z</time>
      </trkpt>
      <trkpt lat="46.88686" lon="-1.94362">
        <ele>10</ele>
        <time>2018-03-15T22:33:10Z</time>
      </trkpt>
      <trkpt lat="46.88693" lon="-1.94367">
        <ele>10</ele>
        <time>2018-03-15T22:34:10Z</time>
      </trkpt>
      <trkpt lat="46.887" lon="-1.94374">
        <ele>10</ele>
        <time>2018-03-15T22:35:10Z</time>
      </trkpt>
      <trkpt lat="46.88711" lon="-1.94383">
        <ele>9</ele>
        <time>2018-03-15T22:36:10Z</time>
      </trkpt>
      <trkpt lat="46.8872" lon="-1.94395">
        <ele>9</ele>
        <time>2018-03-15T22:37:10Z</time>
      </trkpt>
      <trkpt lat="46.88728" lon="-1.94407">
        <ele>9</ele>
        <time>2018-03-15T22:38:10Z</time>
      </trkpt>
      <trkpt lat="46.88734" lon="-1.9442">
        <ele>9</ele>
        <time>2018-03-15T22:39:10Z</time>
      </trkpt>
      <trkpt lat="46.88743" lon="-1.94436">
        <ele>9</ele>
        <time>2018-03-15T22:40:10Z</time>
      </trkpt>
      <trkpt lat="46.8875" lon="-1.94452">
        <ele>9</ele>
        <time>2018-03-15T22:41:10Z</time>
      </trkpt>
      <trkpt lat="46.88756" lon="-1.94462">
        <ele>8</ele>
        <time>2018-03-15T22:42:10Z</time>
      </trkpt>
      <trkpt lat="46.88764" lon="-1.94475">
        <ele>8</ele>
        <time>2018-03-15T22:43:10Z</time>
      </trkpt>
      <trkpt lat="46.88772" lon="-1.94485">
        <ele>8</ele>
        <time>2018-03-15T22:44:10Z</time>
      </trkpt>
      <trkpt lat="46.8878" lon="-1.94492">
        <ele>7</ele>
        <time>2018-03-15T22:45:10Z</time>
      </trkpt>
      <trkpt lat="46.88786" lon="-1.94498">
        <ele>7</ele>
        <time>2018-03-15T22:46:10Z</time>
      </trkpt>
      <trkpt lat="46.88792" lon="-1.94501">
        <ele>7</ele>
        <time>2018-03-15T22:47:10Z</time>
      </trkpt>
      <trkpt lat="46.88801" lon="-1.94503">
        <ele>7</ele>
        <time>2018-03-15T22:48:10Z</time>
      </trkpt>
      <trkpt lat="46.88809" lon="-1.94503">
        <ele>7</ele>
        <time>2018-03-15T22:49:10Z</time>
      </trkpt>
      <trkpt lat="46.88828" lon="-1.94503">
        <ele>6</ele>
        <time>2018-03-15T22:50:10Z</time>
      </trkpt>
      <trkpt lat="46.88846" lon="-1.94503">
        <ele>6</ele>
        <time>2018-03-15T22:51:10Z</time>
      </trkpt>
      <trkpt lat="46.88871" lon="-1.945">
        <ele>6</ele>
        <time>2018-03-15T22:52:10Z</time>
      </trkpt>
      <trkpt lat="46.88892" lon="-1.94498">
        <ele>6</ele>
        <time>2018-03-15T22:53:10Z</time>
      </trkpt>
      <trkpt lat="46.88894" lon="-1.94498">
        <ele>6</ele>
        <time>2018-03-15T22:54:10Z</time>
      </trkpt>
      <trkpt lat="46.88899" lon="-1.94497">
        <ele>6</ele>
        <time>2018-03-15T22:55:10Z</time>
      </trkpt>
      <trkpt lat="46.88927" lon="-1.94494">
        <ele>6</ele>
        <time>2018-03-15T22:56:10Z</time>
      </trkpt>
      <trkpt lat="46.88966" lon="-1.94489">
        <ele>7</ele>
        <time>2018-03-15T22:57:10Z</time>
      </trkpt>
      <trkpt lat="46.88983" lon="-1.94487">
        <ele>7</ele>
        <time>2018-03-15T22:58:10Z</time>
      </trkpt>
      <trkpt lat="46.88996" lon="-1.94487">
        <ele>8</ele>
        <time>2018-03-15T22:59:10Z</time>
      </trkpt>
      <trkpt lat="46.89009" lon="-1.94488">
        <ele>8</ele>
        <time>2018-03-15T23:00:10Z</time>
      </trkpt>
      <trkpt lat="46.89022" lon="-1.94491">
        <ele>8</ele>
        <time>2018-03-15T23:01:10Z</time>
      </trkpt>
      <trkpt lat="46.89033" lon="-1.94495">
        <ele>8</ele>
        <time>2018-03-15T23:02:10Z</time>
      </trkpt>
      <trkpt lat="46.89034" lon="-1.94496">
        <ele>8</ele>
        <time>2018-03-15T23:03:10Z</time>
      </trkpt>
      <trkpt lat="46.89036" lon="-1.94496">
        <ele>8</ele>
        <time>2018-03-15T23:04:10Z</time>
      </trkpt>
      <trkpt lat="46.89039" lon="-1.94497">
        <ele>8</ele>
        <time>2018-03-15T23:05:10Z</time>
      </trkpt>
      <trkpt lat="46.8904" lon="-1.94498">
        <ele>8</ele>
        <time>2018-03-15T23:06:10Z</time>
      </trkpt>
      <trkpt lat="46.89044" lon="-1.945">
        <ele>7</ele>
        <time>2018-03-15T23:07:10Z</time>
      </trkpt>
      <trkpt lat="46.89052" lon="-1.94503">
        <ele>7</ele>
        <time>2018-03-15T23:08:10Z</time>
      </trkpt>
      <trkpt lat="46.89065" lon="-1.94509">
        <ele>7</ele>
        <time>2018-03-15T23:09:10Z</time>
      </trkpt>
      <trkpt lat="46.89076" lon="-1.94515">
        <ele>7</ele>
        <time>2018-03-15T23:10:10Z</time>
      </trkpt>
      <trkpt lat="46.89078" lon="-1.94517">
        <ele>7</ele>
        <time>2018-03-15T23:11:10Z</time>
      </trkpt>
      <trkpt lat="46.89099" lon="-1.94531">
        <ele>7</ele>
        <time>2018-03-15T23:12:10Z</time>
      </trkpt>
      <trkpt lat="46.89099" lon="-1.94531">
        <ele>7</ele>
        <time>2018-03-15T23:13:10Z</time>
      </trkpt>
      <trkpt lat="46.89115" lon="-1.94541">
        <ele>7</ele>
        <time>2018-03-15T23:14:10Z</time>
      </trkpt>
      <trkpt lat="46.89123" lon="-1.94546">
        <ele>7</ele>
        <time>2018-03-15T23:15:10Z</time>
      </trkpt>
      <trkpt lat="46.89131" lon="-1.94552">
        <ele>7</ele>
        <time>2018-03-15T23:16:10Z</time>
      </trkpt>
      <trkpt lat="46.89143" lon="-1.9456">
        <ele>7</ele>
        <time>2018-03-15T23:17:10Z</time>
      </trkpt>
      <trkpt lat="46.89153" lon="-1.94567">
        <ele>7</ele>
        <time>2018-03-15T23:18:10Z</time>
      </trkpt>
      <trkpt lat="46.89161" lon="-1.94573">
        <ele>7</ele>
        <time>2018-03-15T23:19:10Z</time>
      </trkpt>
      <trkpt lat="46.89169" lon="-1.9458">
        <ele>7</ele>
        <time>2018-03-15T23:20:10Z</time>
      </trkpt>
      <trkpt lat="46.89177" lon="-1.94588">
        <ele>7</ele>
        <time>2018-03-15T23:21:10Z</time>
      </trkpt>
      <trkpt lat="46.89188" lon="-1.946">
        <ele>7</ele>
        <time>2018-03-15T23:22:10Z</time>
      </trkpt>
      <trkpt lat="46.89207" lon="-1.94624">
        <ele>8</ele>
        <time>2018-03-15T23:23:10Z</time>
      </trkpt>
      <trkpt lat="46.89237" lon="-1.94661">
        <ele>8</ele>
        <time>2018-03-15T23:24:10Z</time>
      </trkpt>
      <trkpt lat="46.89267" lon="-1.947">
        <ele>8</ele>
        <time>2018-03-15T23:25:10Z</time>
      </trkpt>
      <trkpt lat="46.89282" lon="-1.94719">
        <ele>8</ele>
        <time>2018-03-15T23:26:10Z</time>
      </trkpt>
      <trkpt lat="46.89286" lon="-1.94724">
        <ele>8</ele>
        <time>2018-03-15T23:27:10Z</time>
      </trkpt>
      <trkpt lat="46.89287" lon="-1.94725">
        <ele>8</ele>
        <time>2018-03-15T23:28:10Z</time>
      </trkpt>
      <trkpt lat="46.89294" lon="-1.94735">
        <ele>8</ele>
        <time>2018-03-15T23:29:10Z</time>
      </trkpt>
      <trkpt lat="46.89294" lon="-1.94735">
        <ele>8</ele>
        <time>2018-03-15T23:30:10Z</time>
      </trkpt>
      <trkpt lat="46.89305" lon="-1.94748">
        <ele>8</ele>
        <time>2018-03-15T23:31:10Z</time>
      </trkpt>
      <trkpt lat="46.89316" lon="-1.94761">
        <ele>8</ele>
        <time>2018-03-15T23:32:10Z</time>
      </trkpt>
      <trkpt lat="46.89325" lon="-1.94771">
        <ele>8</ele>
        <time>2018-03-15T23:33:10Z</time>
      </trkpt>
      <trkpt lat="46.89336" lon="-1.94783">
        <ele>8</ele>
        <time>2018-03-15T23:34:10Z</time>
      </trkpt>
      <trkpt lat="46.89372" lon="-1.94818">
        <ele>8</ele>
        <time>2018-03-15T23:35:10Z</time>
      </trkpt>
      <trkpt lat="46.89409" lon="-1.94853">
        <ele>7</ele>
        <time>2018-03-15T23:36:10Z</time>
      </trkpt>
      <trkpt lat="46.89448" lon="-1.94892">
        <ele>6</ele>
        <time>2018-03-15T23:37:10Z</time>
      </trkpt>
      <trkpt lat="46.89466" lon="-1.9491">
        <ele>6</ele>
        <time>2018-03-15T23:38:10Z</time>
      </trkpt>
      <trkpt lat="46.89475" lon="-1.94918">
        <ele>6</ele>
        <time>2018-03-15T23:39:10Z</time>
      </trkpt>
      <trkpt lat="46.89482" lon="-1.94925">
        <ele>7</ele>
        <time>2018-03-15T23:40:10Z</time>
      </trkpt>
      <trkpt lat="46.8949" lon="-1.9493">
        <ele>7</ele>
        <time>2018-03-15T23:41:10Z</time>
      </trkpt>
      <trkpt lat="46.89513" lon="-1.94942">
        <ele>7</ele>
        <time>2018-03-15T23:42:10Z</time>
      </trkpt>
      <trkpt lat="46.89562" lon="-1.94966">
        <ele>8</ele>
        <time>2018-03-15T23:43:10Z</time>
      </trkpt>
      <trkpt lat="46.89593" lon="-1.9498">
        <ele>9</ele>
        <time>2018-03-15T23:44:10Z</time>
      </trkpt>
      <trkpt lat="46.89605" lon="-1.94986">
        <ele>9</ele>
        <time>2018-03-15T23:45:10Z</time>
      </trkpt>
      <trkpt lat="46.89611" lon="-1.94991">
        <ele>9</ele>
        <time>2018-03-15T23:46:10Z</time>
      </trkpt>
      <trkpt lat="46.89626" lon="-1.95002">
        <ele>10</ele>
        <time>2018-03-15T23:47:10Z</time>
      </trkpt>
      <trkpt lat="46.89644" lon="-1.95015">
        <ele>10</ele>
        <time>2018-03-15T23:48:10Z</time>
      </trkpt>
      <trkpt lat="46.89644" lon="-1.95015">
        <ele>10</ele>
        <time>2018-03-15T23:49:10Z</time>
      </trkpt>
      <trkpt lat="46.89656" lon="-1.95025">
        <ele>10</ele>
        <time>2018-03-15T23:50:10Z</time>
      </trkpt>
      <trkpt lat="46.89684" lon="-1.95047">
        <ele>10</ele>
        <time>2018-03-15T23:51:10Z</time>
      </trkpt>
      <trkpt lat="46.89708" lon="-1.95066">
        <ele>10</ele>
        <time>2018-03-15T23:52:10Z</time>
      </trkpt>
      <trkpt lat="46.89723" lon="-1.95073">
        <ele>10</ele>
        <time>2018-03-15T23:53:10Z</time>
      </trkpt>
      <trkpt lat="46.89735" lon="-1.95076">
        <ele>10</ele>
        <time>2018-03-15T23:54:10Z</time>
      </trkpt>
      <trkpt lat="46.89751" lon="-1.95075">
        <ele>10</ele>
        <time>2018-03-15T23:55:10Z</time>
      </trkpt>
      <trkpt lat="46.89762" lon="-1.95073">
        <ele>10</ele>
        <time>2018-03-15T23:56:10Z</time>
      </trkpt>
      <trkpt lat="46.89775" lon="-1.95069">
        <ele>10</ele>
        <time>2018-03-15T23:57:10Z</time>
      </trkpt>
      <trkpt lat="46.89799" lon="-1.95059">
        <ele>10</ele>
        <time>2018-03-15T23:58:10Z</time>
      </trkpt>
      <trkpt lat="46.89806" lon="-1.95056">
        <ele>10</ele>
        <time>2018-03-15T23:59:10Z</time>
      </trkpt>
      <trkpt lat="46.89823" lon="-1.95049">
        <ele>9</ele>
        <time>2018-03-16T00:00:10Z</time>
      </trkpt>
      <trkpt lat="46.89847" lon="-1.95037">
        <ele>10</ele>
        <time>2018-03-16T00:01:10Z</time>
      </trkpt>
      <trkpt lat="46.89897" lon="-1.95011">
        <ele>11</ele>
        <time>2018-03-16T00:02:10Z</time>
      </trkpt>
      <trkpt lat="46.8993" lon="-1.94995">
        <ele>12</ele>
        <time>2018-03-16T00:03:10Z</time>
      </trkpt>
      <trkpt lat="46.89943" lon="-1.94991">
        <ele>12</ele>
        <time>2018-03-16T00:04:10Z</time>
      </trkpt>
      <trkpt lat="46.89944" lon="-1.94991">
        <ele>12</ele>
        <time>2018-03-16T00:05:10Z</time>
      </trkpt>
      <trkpt lat="46.89944" lon="-1.94991">
        <ele>12</ele>
        <time>2018-03-16T00:06:10Z</time>
      </trkpt>
      <trkpt lat="46.89949" lon="-1.9499">
        <ele>12</ele>
        <time>2018-03-16T00:07:10Z</time>
      </trkpt>
      <trkpt lat="46.89958" lon="-1.94989">
        <ele>12</ele>
        <time>2018-03-16T00:08:10Z</time>
      </trkpt>
      <trkpt lat="46.89971" lon="-1.9499">
        <ele>13</ele>
        <time>2018-03-16T00:09:10Z</time>
      </trkpt>
      <trkpt lat="46.90027" lon="-1.95">
        <ele>13</ele>
        <time>2018-03-16T00:10:10Z</time>
      </trkpt>
      <trkpt lat="46.90047" lon="-1.95004">
        <ele>13</ele>
        <time>2018-03-16T00:11:10Z</time>
      </trkpt>
      <trkpt lat="46.90064" lon="-1.95008">
        <ele>13</ele>
        <time>2018-03-16T00:12:10Z</time>
      </trkpt>
      <trkpt lat="46.9009" lon="-1.95014">
        <ele>13</ele>
        <time>2018-03-16T00:13:10Z</time>
      </trkpt>
      <trkpt lat="46.90103" lon="-1.95018">
        <ele>13</ele>
        <time>2018-03-16T00:14:10Z</time>
      </trkpt>
      <trkpt lat="46.90105" lon="-1.95019">
        <ele>13</ele>
        <time>2018-03-16T00:15:10Z</time>
      </trkpt>
      <trkpt lat="46.90122" lon="-1.95026">
        <ele>13</ele>
        <time>2018-03-16T00:16:10Z</time>
      </trkpt>
      <trkpt lat="46.90122" lon="-1.95026">
        <ele>13</ele>
        <time>2018-03-16T00:17:10Z</time>
      </trkpt>
      <trkpt lat="46.90118" lon="-1.95046">
        <ele>13</ele>
        <time>2018-03-16T00:18:10Z</time>
      </trkpt>
      <trkpt lat="46.90114" lon="-1.95063">
        <ele>13</ele>
        <time>2018-03-16T00:19:10Z</time>
      </trkpt>
      <trkpt lat="46.90108" lon="-1.95091">
        <ele>12</ele>
        <time>2018-03-16T00:20:10Z</time>
      </trkpt>
      <trkpt lat="46.90105" lon="-1.95116">
        <ele>12</ele>
        <time>2018-03-16T00:21:10Z</time>
      </trkpt>
      <trkpt lat="46.90103" lon="-1.95134">
        <ele>12</ele>
        <time>2018-03-16T00:22:10Z</time>
      </trkpt>
      <trkpt lat="46.90101" lon="-1.9517">
        <ele>11</ele>
        <time>2018-03-16T00:23:10Z</time>
      </trkpt>
      <trkpt lat="46.90104" lon="-1.95253">
        <ele>11</ele>
        <time>2018-03-16T00:24:10Z</time>
      </trkpt>
      <trkpt lat="46.90108" lon="-1.95348">
        <ele>13</ele>
        <time>2018-03-16T00:25:10Z</time>
      </trkpt>
      <trkpt lat="46.90107" lon="-1.95421">
        <ele>13</ele>
        <time>2018-03-16T00:26:10Z</time>
      </trkpt>
      <trkpt lat="46.90104" lon="-1.95475">
        <ele>13</ele>
        <time>2018-03-16T00:27:10Z</time>
      </trkpt>
      <trkpt lat="46.90101" lon="-1.95522">
        <ele>13</ele>
        <time>2018-03-16T00:28:10Z</time>
      </trkpt>
      <trkpt lat="46.90098" lon="-1.95566">
        <ele>13</ele>
        <time>2018-03-16T00:29:10Z</time>
      </trkpt>
      <trkpt lat="46.90097" lon="-1.9559">
        <ele>12</ele>
        <time>2018-03-16T00:30:10Z</time>
      </trkpt>
      <trkpt lat="46.90096" lon="-1.95613">
        <ele>12</ele>
        <time>2018-03-16T00:31:10Z</time>
      </trkpt>
      <trkpt lat="46.90096" lon="-1.95633">
        <ele>12</ele>
        <time>2018-03-16T00:32:10Z</time>
      </trkpt>
      <trkpt lat="46.90096" lon="-1.95654">
        <ele>11</ele>
        <time>2018-03-16T00:33:10Z</time>
      </trkpt>
      <trkpt lat="46.90097" lon="-1.95675">
        <ele>11</ele>
        <time>2018-03-16T00:34:10Z</time>
      </trkpt>
      <trkpt lat="46.90098" lon="-1.95692">
        <ele>12</ele>
        <time>2018-03-16T00:35:10Z</time>
      </trkpt>
      <trkpt lat="46.90098" lon="-1.95711">
        <ele>12</ele>
        <time>2018-03-16T00:36:10Z</time>
      </trkpt>
      <trkpt lat="46.90101" lon="-1.95735">
        <ele>12</ele>
        <time>2018-03-16T00:37:10Z</time>
      </trkpt>
      <trkpt lat="46.90106" lon="-1.95789">
        <ele>12</ele>
        <time>2018-03-16T00:38:10Z</time>
      </trkpt>
      <trkpt lat="46.90111" lon="-1.95847">
        <ele>13</ele>
        <time>2018-03-16T00:39:10Z</time>
      </trkpt>
      <trkpt lat="46.90121" lon="-1.95949">
        <ele>15</ele>
        <time>2018-03-16T00:40:10Z</time>
      </trkpt>
      <trkpt lat="46.90128" lon="-1.96017">
        <ele>15</ele>
        <time>2018-03-16T00:41:10Z</time>
      </trkpt>
      <trkpt lat="46.90132" lon="-1.96065">
        <ele>15</ele>
        <time>2018-03-16T00:42:10Z</time>
      </trkpt>
      <trkpt lat="46.90133" lon="-1.9609">
        <ele>15</ele>
        <time>2018-03-16T00:43:10Z</time>
      </trkpt>
      <trkpt lat="46.90133" lon="-1.96107">
        <ele>15</ele>
        <time>2018-03-16T00:44:10Z</time>
      </trkpt>
      <trkpt lat="46.90132" lon="-1.96128">
        <ele>15</ele>
        <time>2018-03-16T00:45:10Z</time>
      </trkpt>
      <trkpt lat="46.9013" lon="-1.96151">
        <ele>15</ele>
        <time>2018-03-16T00:46:10Z</time>
      </trkpt>
      <trkpt lat="46.90128" lon="-1.96169">
        <ele>15</ele>
        <time>2018-03-16T00:47:10Z</time>
      </trkpt>
      <trkpt lat="46.90123" lon="-1.96192">
        <ele>15</ele>
        <time>2018-03-16T00:48:10Z</time>
      </trkpt>
      <trkpt lat="46.90111" lon="-1.96245">
        <ele>14</ele>
        <time>2018-03-16T00:49:10Z</time>
      </trkpt>
      <trkpt lat="46.90105" lon="-1.9627">
        <ele>14</ele>
        <time>2018-03-16T00:50:10Z</time>
      </trkpt>
      <trkpt lat="46.90098" lon="-1.96294">
        <ele>14</ele>
        <time>2018-03-16T00:51:10Z</time>
      </trkpt>
      <trkpt lat="46.90084" lon="-1.96341">
        <ele>14</ele>
        <time>2018-03-16T00:52:10Z</time>
      </trkpt>
      <trkpt lat="46.9006" lon="-1.96414">
        <ele>16</ele>
        <time>2018-03-16T00:53:10Z</time>
      </trkpt>
      <trkpt lat="46.90053" lon="-1.9644">
        <ele>17</ele>
        <time>2018-03-16T00:54:10Z</time>
      </trkpt>
      <trkpt lat="46.90048" lon="-1.96462">
        <ele>17</ele>
        <time>2018-03-16T00:55:10Z</time>
      </trkpt>
      <trkpt lat="46.90044" lon="-1.96481">
        <ele>17</ele>
        <time>2018-03-16T00:56:10Z</time>
      </trkpt>
      <trkpt lat="46.9004" lon="-1.96504">
        <ele>17</ele>
        <time>2018-03-16T00:57:10Z</time>
      </trkpt>
      <trkpt lat="46.90038" lon="-1.96521">
        <ele>17</ele>
        <time>2018-03-16T00:58:10Z</time>
      </trkpt>
      <trkpt lat="46.90036" lon="-1.96543">
        <ele>16</ele>
        <time>2018-03-16T00:59:10Z</time>
      </trkpt>
      <trkpt lat="46.90035" lon="-1.96564">
        <ele>16</ele>
        <time>2018-03-16T01:00:10Z</time>
      </trkpt>
      <trkpt lat="46.90034" lon="-1.96582">
        <ele>15</ele>
        <time>2018-03-16T01:01:10Z</time>
      </trkpt>
      <trkpt lat="46.90033" lon="-1.96614">
        <ele>14</ele>
        <time>2018-03-16T01:02:10Z</time>
      </trkpt>
      <trkpt lat="46.90032" lon="-1.9668">
        <ele>11</ele>
        <time>2018-03-16T01:03:10Z</time>
      </trkpt>
      <trkpt lat="46.90032" lon="-1.96746">
        <ele>11</ele>
        <time>2018-03-16T01:04:10Z</time>
      </trkpt>
      <trkpt lat="46.90032" lon="-1.96773">
        <ele>11</ele>
        <time>2018-03-16T01:05:10Z</time>
      </trkpt>
      <trkpt lat="46.90033" lon="-1.96791">
        <ele>11</ele>
        <time>2018-03-16T01:06:10Z</time>
      </trkpt>
      <trkpt lat="46.90034" lon="-1.96814">
        <ele>11</ele>
        <time>2018-03-16T01:07:10Z</time>
      </trkpt>
      <trkpt lat="46.90036" lon="-1.96831">
        <ele>11</ele>
        <time>2018-03-16T01:08:10Z</time>
      </trkpt>
      <trkpt lat="46.90037" lon="-1.96849">
        <ele>11</ele>
        <time>2018-03-16T01:09:10Z</time>
      </trkpt>
      <trkpt lat="46.90038" lon="-1.96862">
        <ele>11</ele>
        <time>2018-03-16T01:10:10Z</time>
      </trkpt>
      <trkpt lat="46.90041" lon="-1.96897">
        <ele>11</ele>
        <time>2018-03-16T01:11:10Z</time>
      </trkpt>
      <trkpt lat="46.90047" lon="-1.96946">
        <ele>12</ele>
        <time>2018-03-16T01:12:10Z</time>
      </trkpt>
      <trkpt lat="46.90055" lon="-1.97024">
        <ele>13</ele>
        <time>2018-03-16T01:13:10Z</time>
      </trkpt>
      <trkpt lat="46.90062" lon="-1.97112">
        <ele>16</ele>
        <time>2018-03-16T01:14:10Z</time>
      </trkpt>
      <trkpt lat="46.90068" lon="-1.97155">
        <ele>18</ele>
        <time>2018-03-16T01:15:10Z</time>
      </trkpt>
      <trkpt lat="46.90068" lon="-1.97155">
        <ele>18</ele>
        <time>2018-03-16T01:16:10Z</time>
      </trkpt>
      <trkpt lat="46.90078" lon="-1.97234">
        <ele>17</ele>
        <time>2018-03-16T01:17:10Z</time>
      </trkpt>
      <trkpt lat="46.90079" lon="-1.97246">
        <ele>17</ele>
        <time>2018-03-16T01:18:10Z</time>
      </trkpt>
      <trkpt lat="46.90084" lon="-1.97281">
        <ele>16</ele>
        <time>2018-03-16T01:19:10Z</time>
      </trkpt>
      <trkpt lat="46.90097" lon="-1.97349">
        <ele>14</ele>
        <time>2018-03-16T01:20:10Z</time>
      </trkpt>
      <trkpt lat="46.90103" lon="-1.97393">
        <ele>14</ele>
        <time>2018-03-16T01:21:10Z</time>
      </trkpt>
      <trkpt lat="46.90105" lon="-1.9741">
        <ele>14</ele>
        <time>2018-03-16T01:22:10Z</time>
      </trkpt>
      <trkpt lat="46.90106" lon="-1.97424">
        <ele>13</ele>
        <time>2018-03-16T01:23:10Z</time>
      </trkpt>
      <trkpt lat="46.90106" lon="-1.97439">
        <ele>13</ele>
        <time>2018-03-16T01:24:10Z</time>
      </trkpt>
      <trkpt lat="46.90105" lon="-1.97455">
        <ele>13</ele>
        <time>2018-03-16T01:25:10Z</time>
      </trkpt>
      <trkpt lat="46.90104" lon="-1.97475">
        <ele>13</ele>
        <time>2018-03-16T01:26:10Z</time>
      </trkpt>
      <trkpt lat="46.90104" lon="-1.97475">
        <ele>13</ele>
        <time>2018-03-16T01:27:10Z</time>
      </trkpt>
      <trkpt lat="46.90102" lon="-1.9749">
        <ele>13</ele>
        <time>2018-03-16T01:28:10Z</time>
      </trkpt>
      <trkpt lat="46.90098" lon="-1.97549">
        <ele>12</ele>
        <time>2018-03-16T01:29:10Z</time>
      </trkpt>
      <trkpt lat="46.90081" lon="-1.97769">
        <ele>12</ele>
        <time>2018-03-16T01:30:10Z</time>
      </trkpt>
      <trkpt lat="46.90047" lon="-1.97959">
        <ele>11</ele>
        <time>2018-03-16T01:31:10Z</time>
      </trkpt>
      <trkpt lat="46.90046" lon="-1.9799">
        <ele>10</ele>
        <time>2018-03-16T01:32:10Z</time>
      </trkpt>
      <trkpt lat="46.90048" lon="-1.98028">
        <ele>10</ele>
        <time>2018-03-16T01:33:10Z</time>
      </trkpt>
      <trkpt lat="46.90049" lon="-1.9804">
        <ele>10</ele>
        <time>2018-03-16T01:34:10Z</time>
      </trkpt>
      <trkpt lat="46.90049" lon="-1.9804">
        <ele>10</ele>
        <time>2018-03-16T01:35:10Z</time>
      </trkpt>
      <trkpt lat="46.90053" lon="-1.98104">
        <ele>9</ele>
        <time>2018-03-16T01:36:10Z</time>
      </trkpt>
      <trkpt lat="46.90057" lon="-1.98196">
        <ele>9</ele>
        <time>2018-03-16T01:37:10Z</time>
      </trkpt>
      <trkpt lat="46.90061" lon="-1.9827">
        <ele>10</ele>
        <time>2018-03-16T01:38:10Z</time>
      </trkpt>
      <trkpt lat="46.90064" lon="-1.98332">
        <ele>10</ele>
        <time>2018-03-16T01:39:10Z</time>
      </trkpt>
      <trkpt lat="46.90068" lon="-1.98406">
        <ele>9</ele>
        <time>2018-03-16T01:40:10Z</time>
      </trkpt>
      <trkpt lat="46.90069" lon="-1.9843">
        <ele>9</ele>
        <time>2018-03-16T01:41:10Z</time>
      </trkpt>
      <trkpt lat="46.90071" lon="-1.98481">
        <ele>8</ele>
        <time>2018-03-16T01:42:10Z</time>
      </trkpt>
      <trkpt lat="46.90074" lon="-1.98558">
        <ele>9</ele>
        <time>2018-03-16T01:43:10Z</time>
      </trkpt>
      <trkpt lat="46.90074" lon="-1.98558">
        <ele>9</ele>
        <time>2018-03-16T01:44:10Z</time>
      </trkpt>
      <trkpt lat="46.90078" lon="-1.98622">
        <ele>9</ele>
        <time>2018-03-16T01:45:10Z</time>
      </trkpt>
      <trkpt lat="46.90079" lon="-1.98645">
        <ele>9</ele>
        <time>2018-03-16T01:46:10Z</time>
      </trkpt>
      <trkpt lat="46.90081" lon="-1.98673">
        <ele>9</ele>
        <time>2018-03-16T01:47:10Z</time>
      </trkpt>
      <trkpt lat="46.90084" lon="-1.98701">
        <ele>9</ele>
        <time>2018-03-16T01:48:10Z</time>
      </trkpt>
      <trkpt lat="46.90086" lon="-1.98728">
        <ele>8</ele>
        <time>2018-03-16T01:49:10Z</time>
      </trkpt>
      <trkpt lat="46.90089" lon="-1.98749">
        <ele>8</ele>
        <time>2018-03-16T01:50:10Z</time>
      </trkpt>
      <trkpt lat="46.90093" lon="-1.98777">
        <ele>9</ele>
        <time>2018-03-16T01:51:10Z</time>
      </trkpt>
      <trkpt lat="46.90098" lon="-1.9882">
        <ele>10</ele>
        <time>2018-03-16T01:52:10Z</time>
      </trkpt>
      <trkpt lat="46.90102" lon="-1.98851">
        <ele>10</ele>
        <time>2018-03-16T01:53:10Z</time>
      </trkpt>
      <trkpt lat="46.90107" lon="-1.98879">
        <ele>10</ele>
        <time>2018-03-16T01:54:10Z</time>
      </trkpt>
      <trkpt lat="46.90117" lon="-1.98934">
        <ele>10</ele>
        <time>2018-03-16T01:55:10Z</time>
      </trkpt>
      <trkpt lat="46.90119" lon="-1.98948">
        <ele>10</ele>
        <time>2018-03-16T01:56:10Z</time>
      </trkpt>
      <trkpt lat="46.90119" lon="-1.98952">
        <ele>10</ele>
        <time>2018-03-16T01:57:10Z</time>
      </trkpt>
      <trkpt lat="46.9012" lon="-1.98956">
        <ele>10</ele>
        <time>2018-03-16T01:58:10Z</time>
      </trkpt>
      <trkpt lat="46.90119" lon="-1.9896">
        <ele>10</ele>
        <time>2018-03-16T01:59:10Z</time>
      </trkpt>
      <trkpt lat="46.90119" lon="-1.98963">
        <ele>10</ele>
        <time>2018-03-16T02:00:10Z</time>
      </trkpt>
      <trkpt lat="46.90118" lon="-1.98965">
        <ele>10</ele>
        <time>2018-03-16T02:01:10Z</time>
      </trkpt>
      <trkpt lat="46.90117" lon="-1.98968">
        <ele>10</ele>
        <time>2018-03-16T02:02:10Z</time>
      </trkpt>
      <trkpt lat="46.90116" lon="-1.9897">
        <ele>10</ele>
        <time>2018-03-16T02:03:10Z</time>
      </trkpt>
      <trkpt lat="46.90114" lon="-1.98975">
        <ele>10</ele>
        <time>2018-03-16T02:04:10Z</time>
      </trkpt>
      <trkpt lat="46.90108" lon="-1.98985">
        <ele>10</ele>
        <time>2018-03-16T02:05:10Z</time>
      </trkpt>
      <trkpt lat="46.90108" lon="-1.98985">
        <ele>10</ele>
        <time>2018-03-16T02:06:10Z</time>
      </trkpt>
      <trkpt lat="46.90111" lon="-1.98991">
        <ele>10</ele>
        <time>2018-03-16T02:07:10Z</time>
      </trkpt>
      <trkpt lat="46.90112" lon="-1.98994">
        <ele>10</ele>
        <time>2018-03-16T02:08:10Z</time>
      </trkpt>
      <trkpt lat="46.90114" lon="-1.98999">
        <ele>10</ele>
        <time>2018-03-16T02:09:10Z</time>
      </trkpt>
      <trkpt lat="46.90115" lon="-1.99004">
        <ele>10</ele>
        <time>2018-03-16T02:10:10Z</time>
      </trkpt>
      <trkpt lat="46.90116" lon="-1.99013">
        <ele>10</ele>
        <time>2018-03-16T02:11:10Z</time>
      </trkpt>
      <trkpt lat="46.90118" lon="-1.99024">
        <ele>10</ele>
        <time>2018-03-16T02:12:10Z</time>
      </trkpt>
      <trkpt lat="46.90122" lon="-1.99072">
        <ele>11</ele>
        <time>2018-03-16T02:13:10Z</time>
      </trkpt>
      <trkpt lat="46.90126" lon="-1.99118">
        <ele>11</ele>
        <time>2018-03-16T02:14:10Z</time>
      </trkpt>
      <trkpt lat="46.90134" lon="-1.99216">
        <ele>11</ele>
        <time>2018-03-16T02:15:10Z</time>
      </trkpt>
      <trkpt lat="46.90139" lon="-1.99277">
        <ele>10</ele>
        <time>2018-03-16T02:16:10Z</time>
      </trkpt>
      <trkpt lat="46.90145" lon="-1.99363">
        <ele>9</ele>
        <time>2018-03-16T02:17:10Z</time>
      </trkpt>
      <trkpt lat="46.90146" lon="-1.9938">
        <ele>9</ele>
        <time>2018-03-16T02:18:10Z</time>
      </trkpt>
      <trkpt lat="46.90154" lon="-1.99478">
        <ele>9</ele>
        <time>2018-03-16T02:19:10Z</time>
      </trkpt>
      <trkpt lat="46.90155" lon="-1.99503">
        <ele>9</ele>
        <time>2018-03-16T02:20:10Z</time>
      </trkpt>
      <trkpt lat="46.90157" lon="-1.99521">
        <ele>9</ele>
        <time>2018-03-16T02:21:10Z</time>
      </trkpt>
      <trkpt lat="46.9016" lon="-1.99561">
        <ele>9</ele>
        <time>2018-03-16T02:22:10Z</time>
      </trkpt>
      <trkpt lat="46.90162" lon="-1.99585">
        <ele>9</ele>
        <time>2018-03-16T02:23:10Z</time>
      </trkpt>
      <trkpt lat="46.90167" lon="-1.99648">
        <ele>9</ele>
        <time>2018-03-16T02:24:10Z</time>
      </trkpt>
      <trkpt lat="46.90169" lon="-1.99663">
        <ele>9</ele>
        <time>2018-03-16T02:25:10Z</time>
      </trkpt>
      <trkpt lat="46.90178" lon="-1.99716">
        <ele>9</ele>
        <time>2018-03-16T02:26:10Z</time>
      </trkpt>
      <trkpt lat="46.9019" lon="-1.99779">
        <ele>8</ele>
        <time>2018-03-16T02:27:10Z</time>
      </trkpt>
      <trkpt lat="46.90201" lon="-1.99816">
        <ele>8</ele>
        <time>2018-03-16T02:28:10Z</time>
      </trkpt>
      <trkpt lat="46.9021" lon="-1.99841">
        <ele>9</ele>
        <time>2018-03-16T02:29:10Z</time>
      </trkpt>
      <trkpt lat="46.90219" lon="-1.99854">
        <ele>9</ele>
        <time>2018-03-16T02:30:10Z</time>
      </trkpt>
      <trkpt lat="46.90234" lon="-1.99876">
        <ele>9</ele>
        <time>2018-03-16T02:31:10Z</time>
      </trkpt>
      <trkpt lat="46.90248" lon="-1.99894">
        <ele>10</ele>
        <time>2018-03-16T02:32:10Z</time>
      </trkpt>
      <trkpt lat="46.90254" lon="-1.99905">
        <ele>10</ele>
        <time>2018-03-16T02:33:10Z</time>
      </trkpt>
      <trkpt lat="46.90258" lon="-1.99914">
        <ele>10</ele>
        <time>2018-03-16T02:34:10Z</time>
      </trkpt>
      <trkpt lat="46.90259" lon="-1.9992">
        <ele>10</ele>
        <time>2018-03-16T02:35:10Z</time>
      </trkpt>
      <trkpt lat="46.9026" lon="-1.99925">
        <ele>10</ele>
        <time>2018-03-16T02:36:10Z</time>
      </trkpt>
      <trkpt lat="46.90261" lon="-1.9993">
        <ele>10</ele>
        <time>2018-03-16T02:37:10Z</time>
      </trkpt>
      <trkpt lat="46.90261" lon="-1.99936">
        <ele>10</ele>
        <time>2018-03-16T02:38:10Z</time>
      </trkpt>
      <trkpt lat="46.90261" lon="-1.99942">
        <ele>10</ele>
        <time>2018-03-16T02:39:10Z</time>
      </trkpt>
      <trkpt lat="46.90261" lon="-1.99954">
        <ele>10</ele>
        <time>2018-03-16T02:40:10Z</time>
      </trkpt>
      <trkpt lat="46.9026" lon="-1.99963">
        <ele>10</ele>
        <time>2018-03-16T02:41:10Z</time>
      </trkpt>
      <trkpt lat="46.90259" lon="-1.99969">
        <ele>10</ele>
        <time>2018-03-16T02:42:10Z</time>
      </trkpt>
      <trkpt lat="46.90258" lon="-1.99987">
        <ele>9</ele>
        <time>2018-03-16T02:43:10Z</time>
      </trkpt>
      <trkpt lat="46.90257" lon="-1.99994">
        <ele>9</ele>
        <time>2018-03-16T02:44:10Z</time>
      </trkpt>
      <trkpt lat="46.90254" lon="-2.00014">
        <ele>9</ele>
        <time>2018-03-16T02:45:10Z</time>
      </trkpt>
      <trkpt lat="46.90248" lon="-2.00056">
        <ele>8</ele>
        <time>2018-03-16T02:46:10Z</time>
      </trkpt>
      <trkpt lat="46.90245" lon="-2.00081">
        <ele>7</ele>
        <time>2018-03-16T02:47:10Z</time>
      </trkpt>
      <trkpt lat="46.90245" lon="-2.00081">
        <ele>7</ele>
        <time>2018-03-16T02:48:10Z</time>
      </trkpt>
      <trkpt lat="46.90245" lon="-2.00082">
        <ele>7</ele>
        <time>2018-03-16T02:49:10Z</time>
      </trkpt>
      <trkpt lat="46.90246" lon="-2.00082">
        <ele>7</ele>
        <time>2018-03-16T02:50:10Z</time>
      </trkpt>
      <trkpt lat="46.90246" lon="-2.00083">
        <ele>7</ele>
        <time>2018-03-16T02:51:10Z</time>
      </trkpt>
      <trkpt lat="46.90247" lon="-2.00083">
        <ele>7</ele>
        <time>2018-03-16T02:52:10Z</time>
      </trkpt>
      <trkpt lat="46.90247" lon="-2.00084">
        <ele>7</ele>
        <time>2018-03-16T02:53:10Z</time>
      </trkpt>
      <trkpt lat="46.90247" lon="-2.00085">
        <ele>7</ele>
        <time>2018-03-16T02:54:10Z</time>
      </trkpt>
      <trkpt lat="46.90248" lon="-2.00085">
        <ele>7</ele>
        <time>2018-03-16T02:55:10Z</time>
      </trkpt>
      <trkpt lat="46.90248" lon="-2.00086">
        <ele>7</ele>
        <time>2018-03-16T02:56:10Z</time>
      </trkpt>
      <trkpt lat="46.90248" lon="-2.00087">
        <ele>7</ele>
        <time>2018-03-16T02:57:10Z</time>
      </trkpt>
      <trkpt lat="46.90248" lon="-2.00088">
        <ele>7</ele>
        <time>2018-03-16T02:58:10Z</time>
      </trkpt>
      <trkpt lat="46.90248" lon="-2.00089">
        <ele>7</ele>
        <time>2018-03-16T02:59:10Z</time>
      </trkpt>
      <trkpt lat="46.90248" lon="-2.0009">
        <ele>7</ele>
        <time>2018-03-16T03:00:10Z</time>
      </trkpt>
      <trkpt lat="46.90247" lon="-2.0009">
        <ele>7</ele>
        <time>2018-03-16T03:01:10Z</time>
      </trkpt>
      <trkpt lat="46.90247" lon="-2.00091">
        <ele>7</ele>
        <time>2018-03-16T03:02:10Z</time>
      </trkpt>
      <trkpt lat="46.90247" lon="-2.00092">
        <ele>7</ele>
        <time>2018-03-16T03:03:10Z</time>
      </trkpt>
      <trkpt lat="46.90246" lon="-2.00092">
        <ele>7</ele>
        <time>2018-03-16T03:04:10Z</time>
      </trkpt>
      <trkpt lat="46.90246" lon="-2.00093">
        <ele>7</ele>
        <time>2018-03-16T03:05:10Z</time>
      </trkpt>
      <trkpt lat="46.90245" lon="-2.00093">
        <ele>7</ele>
        <time>2018-03-16T03:06:10Z</time>
      </trkpt>
      <trkpt lat="46.90245" lon="-2.00094">
        <ele>7</ele>
        <time>2018-03-16T03:07:10Z</time>
      </trkpt>
      <trkpt lat="46.90244" lon="-2.00094">
        <ele>7</ele>
        <time>2018-03-16T03:08:10Z</time>
      </trkpt>
      <trkpt lat="46.90243" lon="-2.00094">
        <ele>7</ele>
        <time>2018-03-16T03:09:10Z</time>
      </trkpt>
      <trkpt lat="46.90242" lon="-2.00094">
        <ele>7</ele>
        <time>2018-03-16T03:10:10Z</time>
      </trkpt>
      <trkpt lat="46.90242" lon="-2.00093">
        <ele>7</ele>
        <time>2018-03-16T03:11:10Z</time>
      </trkpt>
      <trkpt lat="46.90241" lon="-2.00093">
        <ele>7</ele>
        <time>2018-03-16T03:12:10Z</time>
      </trkpt>
      <trkpt lat="46.9024" lon="-2.00093">
        <ele>7</ele>
        <time>2018-03-16T03:13:10Z</time>
      </trkpt>
      <trkpt lat="46.9024" lon="-2.00092">
        <ele>7</ele>
        <time>2018-03-16T03:14:10Z</time>
      </trkpt>
      <trkpt lat="46.9024" lon="-2.00091">
        <ele>7</ele>
        <time>2018-03-16T03:15:10Z</time>
      </trkpt>
      <trkpt lat="46.90239" lon="-2.00091">
        <ele>7</ele>
        <time>2018-03-16T03:16:10Z</time>
      </trkpt>
      <trkpt lat="46.90239" lon="-2.0009">
        <ele>7</ele>
        <time>2018-03-16T03:17:10Z</time>
      </trkpt>
      <trkpt lat="46.90239" lon="-2.00089">
        <ele>7</ele>
        <time>2018-03-16T03:18:10Z</time>
      </trkpt>
      <trkpt lat="46.90239" lon="-2.00088">
        <ele>7</ele>
        <time>2018-03-16T03:19:10Z</time>
      </trkpt>
      <trkpt lat="46.90239" lon="-2.00087">
        <ele>7</ele>
        <time>2018-03-16T03:20:10Z</time>
      </trkpt>
      <trkpt lat="46.90239" lon="-2.00086">
        <ele>7</ele>
        <time>2018-03-16T03:21:10Z</time>
      </trkpt>
      <trkpt lat="46.90239" lon="-2.00085">
        <ele>7</ele>
        <time>2018-03-16T03:22:10Z</time>
      </trkpt>
      <trkpt lat="46.90227" lon="-2.00086">
        <ele>7</ele>
        <time>2018-03-16T03:23:10Z</time>
      </trkpt>
      <trkpt lat="46.90225" lon="-2.00087">
        <ele>7</ele>
        <time>2018-03-16T03:24:10Z</time>
      </trkpt>
      <trkpt lat="46.90206" lon="-2.00091">
        <ele>6</ele>
        <time>2018-03-16T03:25:10Z</time>
      </trkpt>
      <trkpt lat="46.90179" lon="-2.00095">
        <ele>6</ele>
        <time>2018-03-16T03:26:10Z</time>
      </trkpt>
      <trkpt lat="46.9014" lon="-2.00104">
        <ele>6</ele>
        <time>2018-03-16T03:27:10Z</time>
      </trkpt>
      <trkpt lat="46.90134" lon="-2.00106">
        <ele>6</ele>
        <time>2018-03-16T03:28:10Z</time>
      </trkpt>
      <trkpt lat="46.90116" lon="-2.00111">
        <ele>5</ele>
        <time>2018-03-16T03:29:10Z</time>
      </trkpt>
      <trkpt lat="46.90081" lon="-2.00121">
        <ele>5</ele>
        <time>2018-03-16T03:30:10Z</time>
      </trkpt>
      <trkpt lat="46.90049" lon="-2.00131">
        <ele>4</ele>
        <time>2018-03-16T03:31:10Z</time>
      </trkpt>
      <trkpt lat="46.90001" lon="-2.00147">
        <ele>4</ele>
        <time>2018-03-16T03:32:10Z</time>
      </trkpt>
      <trkpt lat="46.89979" lon="-2.00154">
        <ele>4</ele>
        <time>2018-03-16T03:33:10Z</time>
      </trkpt>
      <trkpt lat="46.89949" lon="-2.00168">
        <ele>4</ele>
        <time>2018-03-16T03:34:10Z</time>
      </trkpt>
      <trkpt lat="46.89944" lon="-2.00172">
        <ele>4</ele>
        <time>2018-03-16T03:35:10Z</time>
      </trkpt>
      <trkpt lat="46.89936" lon="-2.00178">
        <ele>4</ele>
        <time>2018-03-16T03:36:10Z</time>
      </trkpt>
      <trkpt lat="46.89928" lon="-2.00187">
        <ele>4</ele>
        <time>2018-03-16T03:37:10Z</time>
      </trkpt>
      <trkpt lat="46.89928" lon="-2.00187">
        <ele>4</ele>
        <time>2018-03-16T03:38:10Z</time>
      </trkpt>
      <trkpt lat="46.89928" lon="-2.00189">
        <ele>4</ele>
        <time>2018-03-16T03:39:10Z</time>
      </trkpt>
      <trkpt lat="46.89927" lon="-2.00191">
        <ele>4</ele>
        <time>2018-03-16T03:40:10Z</time>
      </trkpt>
      <trkpt lat="46.89927" lon="-2.00193">
        <ele>4</ele>
        <time>2018-03-16T03:41:10Z</time>
      </trkpt>
      <trkpt lat="46.89927" lon="-2.00194">
        <ele>4</ele>
        <time>2018-03-16T03:42:10Z</time>
      </trkpt>
      <trkpt lat="46.89926" lon="-2.00196">
        <ele>4</ele>
        <time>2018-03-16T03:43:10Z</time>
      </trkpt>
      <trkpt lat="46.89926" lon="-2.00198">
        <ele>4</ele>
        <time>2018-03-16T03:44:10Z</time>
      </trkpt>
      <trkpt lat="46.89925" lon="-2.00199">
        <ele>4</ele>
        <time>2018-03-16T03:45:10Z</time>
      </trkpt>
      <trkpt lat="46.89924" lon="-2.00201">
        <ele>4</ele>
        <time>2018-03-16T03:46:10Z</time>
      </trkpt>
      <trkpt lat="46.89924" lon="-2.00202">
        <ele>4</ele>
        <time>2018-03-16T03:47:10Z</time>
      </trkpt>
      <trkpt lat="46.89923" lon="-2.00204">
        <ele>4</ele>
        <time>2018-03-16T03:48:10Z</time>
      </trkpt>
      <trkpt lat="46.89922" lon="-2.00205">
        <ele>4</ele>
        <time>2018-03-16T03:49:10Z</time>
      </trkpt>
      <trkpt lat="46.89921" lon="-2.00206">
        <ele>4</ele>
        <time>2018-03-16T03:50:10Z</time>
      </trkpt>
      <trkpt lat="46.8992" lon="-2.00207">
        <ele>4</ele>
        <time>2018-03-16T03:51:10Z</time>
      </trkpt>
      <trkpt lat="46.89919" lon="-2.00208">
        <ele>4</ele>
        <time>2018-03-16T03:52:10Z</time>
      </trkpt>
      <trkpt lat="46.89918" lon="-2.00209">
        <ele>3</ele>
        <time>2018-03-16T03:53:10Z</time>
      </trkpt>
      <trkpt lat="46.89916" lon="-2.00209">
        <ele>3</ele>
        <time>2018-03-16T03:54:10Z</time>
      </trkpt>
      <trkpt lat="46.89915" lon="-2.0021">
        <ele>3</ele>
        <time>2018-03-16T03:55:10Z</time>
      </trkpt>
      <trkpt lat="46.89914" lon="-2.0021">
        <ele>3</ele>
        <time>2018-03-16T03:56:10Z</time>
      </trkpt>
      <trkpt lat="46.89913" lon="-2.0021">
        <ele>4</ele>
        <time>2018-03-16T03:57:10Z</time>
      </trkpt>
      <trkpt lat="46.89911" lon="-2.00211">
        <ele>3</ele>
        <time>2018-03-16T03:58:10Z</time>
      </trkpt>
      <trkpt lat="46.8991" lon="-2.00211">
        <ele>4</ele>
        <time>2018-03-16T03:59:10Z</time>
      </trkpt>
      <trkpt lat="46.89909" lon="-2.0021">
        <ele>4</ele>
        <time>2018-03-16T04:00:10Z</time>
      </trkpt>
      <trkpt lat="46.89908" lon="-2.0021">
        <ele>4</ele>
        <time>2018-03-16T04:01:10Z</time>
      </trkpt>
      <trkpt lat="46.89906" lon="-2.0021">
        <ele>4</ele>
        <time>2018-03-16T04:02:10Z</time>
      </trkpt>
      <trkpt lat="46.89905" lon="-2.00209">
        <ele>4</ele>
        <time>2018-03-16T04:03:10Z</time>
      </trkpt>
      <trkpt lat="46.89904" lon="-2.00209">
        <ele>4</ele>
        <time>2018-03-16T04:04:10Z</time>
      </trkpt>
      <trkpt lat="46.89902" lon="-2.00208">
        <ele>4</ele>
        <time>2018-03-16T04:05:10Z</time>
      </trkpt>
      <trkpt lat="46.89901" lon="-2.00207">
        <ele>4</ele>
        <time>2018-03-16T04:06:10Z</time>
      </trkpt>
      <trkpt lat="46.899" lon="-2.00206">
        <ele>4</ele>
        <time>2018-03-16T04:07:10Z</time>
      </trkpt>
      <trkpt lat="46.89899" lon="-2.00204">
        <ele>4</ele>
        <time>2018-03-16T04:08:10Z</time>
      </trkpt>
      <trkpt lat="46.89898" lon="-2.00203">
        <ele>4</ele>
        <time>2018-03-16T04:09:10Z</time>
      </trkpt>
      <trkpt lat="46.89896" lon="-2.00202">
        <ele>4</ele>
        <time>2018-03-16T04:10:10Z</time>
      </trkpt>
      <trkpt lat="46.89895" lon="-2.002">
        <ele>4</ele>
        <time>2018-03-16T04:11:10Z</time>
      </trkpt>
      <trkpt lat="46.89886" lon="-2.00199">
        <ele>4</ele>
        <time>2018-03-16T04:12:10Z</time>
      </trkpt>
      <trkpt lat="46.8987" lon="-2.00202">
        <ele>4</ele>
        <time>2018-03-16T04:13:10Z</time>
      </trkpt>
      <trkpt lat="46.89842" lon="-2.00214">
        <ele>4</ele>
        <time>2018-03-16T04:14:10Z</time>
      </trkpt>
      <trkpt lat="46.89783" lon="-2.00239">
        <ele>3</ele>
        <time>2018-03-16T04:15:10Z</time>
      </trkpt>
      <trkpt lat="46.89741" lon="-2.00257">
        <ele>2</ele>
        <time>2018-03-16T04:16:10Z</time>
      </trkpt>
      <trkpt lat="46.89714" lon="-2.00268">
        <ele>3</ele>
        <time>2018-03-16T04:17:10Z</time>
      </trkpt>
      <trkpt lat="46.89668" lon="-2.00288">
        <ele>4</ele>
        <time>2018-03-16T04:18:10Z</time>
      </trkpt>
      <trkpt lat="46.89618" lon="-2.00309">
        <ele>3</ele>
        <time>2018-03-16T04:19:10Z</time>
      </trkpt>
      <trkpt lat="46.89572" lon="-2.0033">
        <ele>2</ele>
        <time>2018-03-16T04:20:10Z</time>
      </trkpt>
      <trkpt lat="46.89535" lon="-2.00346">
        <ele>3</ele>
        <time>2018-03-16T04:21:10Z</time>
      </trkpt>
      <trkpt lat="46.89512" lon="-2.00357">
        <ele>3</ele>
        <time>2018-03-16T04:22:10Z</time>
      </trkpt>
      <trkpt lat="46.89487" lon="-2.00371">
        <ele>3</ele>
        <time>2018-03-16T04:23:10Z</time>
      </trkpt>
      <trkpt lat="46.89473" lon="-2.0038">
        <ele>3</ele>
        <time>2018-03-16T04:24:10Z</time>
      </trkpt>
      <trkpt lat="46.8946" lon="-2.00388">
        <ele>2</ele>
        <time>2018-03-16T04:25:10Z</time>
      </trkpt>
      <trkpt lat="46.89428" lon="-2.00407">
        <ele>2</ele>
        <time>2018-03-16T04:26:10Z</time>
      </trkpt>
      <trkpt lat="46.89389" lon="-2.0043">
        <ele>2</ele>
        <time>2018-03-16T04:27:10Z</time>
      </trkpt>
      <trkpt lat="46.89361" lon="-2.00447">
        <ele>2</ele>
        <time>2018-03-16T04:28:10Z</time>
      </trkpt>
      <trkpt lat="46.89334" lon="-2.00463">
        <ele>2</ele>
        <time>2018-03-16T04:29:10Z</time>
      </trkpt>
      <trkpt lat="46.89291" lon="-2.0049">
        <ele>1</ele>
        <time>2018-03-16T04:30:10Z</time>
      </trkpt>
      <trkpt lat="46.89252" lon="-2.00514">
        <ele>1</ele>
        <time>2018-03-16T04:31:10Z</time>
      </trkpt>
      <trkpt lat="46.89211" lon="-2.00538">
        <ele>1</ele>
        <time>2018-03-16T04:32:10Z</time>
      </trkpt>
      <trkpt lat="46.89202" lon="-2.00544">
        <ele>1</ele>
        <time>2018-03-16T04:33:10Z</time>
      </trkpt>
      <trkpt lat="46.89172" lon="-2.00558">
        <ele>2</ele>
        <time>2018-03-16T04:34:10Z</time>
      </trkpt>
      <trkpt lat="46.89134" lon="-2.00572">
        <ele>2</ele>
        <time>2018-03-16T04:35:10Z</time>
      </trkpt>
      <trkpt lat="46.89094" lon="-2.00585">
        <ele>2</ele>
        <time>2018-03-16T04:36:10Z</time>
      </trkpt>
      <trkpt lat="46.8905" lon="-2.00599">
        <ele>2</ele>
        <time>2018-03-16T04:37:10Z</time>
      </trkpt>
      <trkpt lat="46.89008" lon="-2.00613">
        <ele>2</ele>
        <time>2018-03-16T04:38:10Z</time>
      </trkpt>
      <trkpt lat="46.88953" lon="-2.00631">
        <ele>2</ele>
        <time>2018-03-16T04:39:10Z</time>
      </trkpt>
      <trkpt lat="46.88911" lon="-2.00646">
        <ele>1</ele>
        <time>2018-03-16T04:40:10Z</time>
      </trkpt>
      <trkpt lat="46.889" lon="-2.00649">
        <ele>1</ele>
        <time>2018-03-16T04:41:10Z</time>
      </trkpt>
      <trkpt lat="46.88836" lon="-2.0067">
        <ele>2</ele>
        <time>2018-03-16T04:42:10Z</time>
      </trkpt>
      <trkpt lat="46.88812" lon="-2.00677">
        <ele>2</ele>
        <time>2018-03-16T04:43:10Z</time>
      </trkpt>
      <trkpt lat="46.88804" lon="-2.0068">
        <ele>3</ele>
        <time>2018-03-16T04:44:10Z</time>
      </trkpt>
      <trkpt lat="46.88757" lon="-2.00694">
        <ele>4</ele>
        <time>2018-03-16T04:45:10Z</time>
      </trkpt>
      <trkpt lat="46.88702" lon="-2.00712">
        <ele>3</ele>
        <time>2018-03-16T04:46:10Z</time>
      </trkpt>
      <trkpt lat="46.88666" lon="-2.00723">
        <ele>3</ele>
        <time>2018-03-16T04:47:10Z</time>
      </trkpt>
      <trkpt lat="46.88644" lon="-2.0073">
        <ele>3</ele>
        <time>2018-03-16T04:48:10Z</time>
      </trkpt>
      <trkpt lat="46.88638" lon="-2.00732">
        <ele>3</ele>
        <time>2018-03-16T04:49:10Z</time>
      </trkpt>
      <trkpt lat="46.88594" lon="-2.00743">
        <ele>3</ele>
        <time>2018-03-16T04:50:10Z</time>
      </trkpt>
      <trkpt lat="46.88557" lon="-2.00753">
        <ele>4</ele>
        <time>2018-03-16T04:51:10Z</time>
      </trkpt>
      <trkpt lat="46.88507" lon="-2.00764">
        <ele>5</ele>
        <time>2018-03-16T04:52:10Z</time>
      </trkpt>
      <trkpt lat="46.88495" lon="-2.00767">
        <ele>5</ele>
        <time>2018-03-16T04:53:10Z</time>
      </trkpt>
      <trkpt lat="46.88487" lon="-2.00769">
        <ele>5</ele>
        <time>2018-03-16T04:54:10Z</time>
      </trkpt>
      <trkpt lat="46.88484" lon="-2.0077">
        <ele>5</ele>
        <time>2018-03-16T04:55:10Z</time>
      </trkpt>
      <trkpt lat="46.88458" lon="-2.00776">
        <ele>4</ele>
        <time>2018-03-16T04:56:10Z</time>
      </trkpt>
      <trkpt lat="46.88422" lon="-2.00783">
        <ele>4</ele>
        <time>2018-03-16T04:57:10Z</time>
      </trkpt>
      <trkpt lat="46.88395" lon="-2.00787">
        <ele>4</ele>
        <time>2018-03-16T04:58:10Z</time>
      </trkpt>
      <trkpt lat="46.88367" lon="-2.00791">
        <ele>4</ele>
        <time>2018-03-16T04:59:10Z</time>
      </trkpt>
      <trkpt lat="46.88336" lon="-2.00794">
        <ele>4</ele>
        <time>2018-03-16T05:00:10Z</time>
      </trkpt>
      <trkpt lat="46.88298" lon="-2.00796">
        <ele>4</ele>
        <time>2018-03-16T05:01:10Z</time>
      </trkpt>
      <trkpt lat="46.88256" lon="-2.00798">
        <ele>5</ele>
        <time>2018-03-16T05:02:10Z</time>
      </trkpt>
      <trkpt lat="46.88218" lon="-2.00799">
        <ele>4</ele>
        <time>2018-03-16T05:03:10Z</time>
      </trkpt>
      <trkpt lat="46.88181" lon="-2.00802">
        <ele>3</ele>
        <time>2018-03-16T05:04:10Z</time>
      </trkpt>
      <trkpt lat="46.88149" lon="-2.00803">
        <ele>2</ele>
        <time>2018-03-16T05:05:10Z</time>
      </trkpt>
      <trkpt lat="46.88132" lon="-2.00802">
        <ele>2</ele>
        <time>2018-03-16T05:06:10Z</time>
      </trkpt>
      <trkpt lat="46.88125" lon="-2.00803">
        <ele>2</ele>
        <time>2018-03-16T05:07:10Z</time>
      </trkpt>
      <trkpt lat="46.88122" lon="-2.00805">
        <ele>2</ele>
        <time>2018-03-16T05:08:10Z</time>
      </trkpt>
      <trkpt lat="46.88118" lon="-2.00806">
        <ele>2</ele>
        <time>2018-03-16T05:09:10Z</time>
      </trkpt>
      <trkpt lat="46.88118" lon="-2.00807">
        <ele>2</ele>
        <time>2018-03-16T05:10:10Z</time>
      </trkpt>
      <trkpt lat="46.88118" lon="-2.00808">
        <ele>2</ele>
        <time>2018-03-16T05:11:10Z</time>
      </trkpt>
      <trkpt lat="46.88117" lon="-2.00808">
        <ele>2</ele>
        <time>2018-03-16T05:12:10Z</time>
      </trkpt>
      <trkpt lat="46.88117" lon="-2.00809">
        <ele>2</ele>
        <time>2018-03-16T05:13:10Z</time>
      </trkpt>
      <trkpt lat="46.88116" lon="-2.0081">
        <ele>2</ele>
        <time>2018-03-16T05:14:10Z</time>
      </trkpt>
      <trkpt lat="46.88116" lon="-2.00811">
        <ele>2</ele>
        <time>2018-03-16T05:15:10Z</time>
      </trkpt>
      <trkpt lat="46.88115" lon="-2.00811">
        <ele>2</ele>
        <time>2018-03-16T05:16:10Z</time>
      </trkpt>
      <trkpt lat="46.88114" lon="-2.00812">
        <ele>2</ele>
        <time>2018-03-16T05:17:10Z</time>
      </trkpt>
      <trkpt lat="46.88113" lon="-2.00813">
        <ele>2</ele>
        <time>2018-03-16T05:18:10Z</time>
      </trkpt>
      <trkpt lat="46.88112" lon="-2.00813">
        <ele>2</ele>
        <time>2018-03-16T05:19:10Z</time>
      </trkpt>
      <trkpt lat="46.88111" lon="-2.00813">
        <ele>2</ele>
        <time>2018-03-16T05:20:10Z</time>
      </trkpt>
      <trkpt lat="46.8811" lon="-2.00813">
        <ele>2</ele>
        <time>2018-03-16T05:21:10Z</time>
      </trkpt>
      <trkpt lat="46.88109" lon="-2.00813">
        <ele>2</ele>
        <time>2018-03-16T05:22:10Z</time>
      </trkpt>
      <trkpt lat="46.88108" lon="-2.00813">
        <ele>2</ele>
        <time>2018-03-16T05:23:10Z</time>
      </trkpt>
      <trkpt lat="46.88107" lon="-2.00813">
        <ele>2</ele>
        <time>2018-03-16T05:24:10Z</time>
      </trkpt>
      <trkpt lat="46.88106" lon="-2.00813">
        <ele>2</ele>
        <time>2018-03-16T05:25:10Z</time>
      </trkpt>
      <trkpt lat="46.88106" lon="-2.00812">
        <ele>2</ele>
        <time>2018-03-16T05:26:10Z</time>
      </trkpt>
      <trkpt lat="46.88105" lon="-2.00812">
        <ele>2</ele>
        <time>2018-03-16T05:27:10Z</time>
      </trkpt>
      <trkpt lat="46.88104" lon="-2.00812">
        <ele>2</ele>
        <time>2018-03-16T05:28:10Z</time>
      </trkpt>
      <trkpt lat="46.88103" lon="-2.00811">
        <ele>2</ele>
        <time>2018-03-16T05:29:10Z</time>
      </trkpt>
      <trkpt lat="46.88102" lon="-2.00811">
        <ele>2</ele>
        <time>2018-03-16T05:30:10Z</time>
      </trkpt>
      <trkpt lat="46.88101" lon="-2.0081">
        <ele>2</ele>
        <time>2018-03-16T05:31:10Z</time>
      </trkpt>
      <trkpt lat="46.881" lon="-2.00809">
        <ele>2</ele>
        <time>2018-03-16T05:32:10Z</time>
      </trkpt>
      <trkpt lat="46.881" lon="-2.00809">
        <ele>2</ele>
        <time>2018-03-16T05:33:10Z</time>
      </trkpt>
      <trkpt lat="46.88093" lon="-2.0081">
        <ele>1</ele>
        <time>2018-03-16T05:34:10Z</time>
      </trkpt>
      <trkpt lat="46.88084" lon="-2.00812">
        <ele>1</ele>
        <time>2018-03-16T05:35:10Z</time>
      </trkpt>
      <trkpt lat="46.88076" lon="-2.00816">
        <ele>1</ele>
        <time>2018-03-16T05:36:10Z</time>
      </trkpt>
      <trkpt lat="46.88051" lon="-2.00822">
        <ele>2</ele>
        <time>2018-03-16T05:37:10Z</time>
      </trkpt>
      <trkpt lat="46.88044" lon="-2.00824">
        <ele>2</ele>
        <time>2018-03-16T05:38:10Z</time>
      </trkpt>
      <trkpt lat="46.88032" lon="-2.00828">
        <ele>2</ele>
        <time>2018-03-16T05:39:10Z</time>
      </trkpt>
      <trkpt lat="46.88018" lon="-2.00832">
        <ele>2</ele>
        <time>2018-03-16T05:40:10Z</time>
      </trkpt>
      <trkpt lat="46.87998" lon="-2.00843">
        <ele>2</ele>
        <time>2018-03-16T05:41:10Z</time>
      </trkpt>
      <trkpt lat="46.87972" lon="-2.0086">
        <ele>2</ele>
        <time>2018-03-16T05:42:10Z</time>
      </trkpt>
      <trkpt lat="46.87963" lon="-2.00866">
        <ele>2</ele>
        <time>2018-03-16T05:43:10Z</time>
      </trkpt>
      <trkpt lat="46.87933" lon="-2.00885">
        <ele>2</ele>
        <time>2018-03-16T05:44:10Z</time>
      </trkpt>
      <trkpt lat="46.87913" lon="-2.00896">
        <ele>2</ele>
        <time>2018-03-16T05:45:10Z</time>
      </trkpt>
      <trkpt lat="46.87883" lon="-2.00912">
        <ele>2</ele>
        <time>2018-03-16T05:46:10Z</time>
      </trkpt>
      <trkpt lat="46.87876" lon="-2.00915">
        <ele>2</ele>
        <time>2018-03-16T05:47:10Z</time>
      </trkpt>
      <trkpt lat="46.87876" lon="-2.00915">
        <ele>2</ele>
        <time>2018-03-16T05:48:10Z</time>
      </trkpt>
      <trkpt lat="46.87861" lon="-2.0092">
        <ele>2</ele>
        <time>2018-03-16T05:49:10Z</time>
      </trkpt>
      <trkpt lat="46.87838" lon="-2.00926">
        <ele>2</ele>
        <time>2018-03-16T05:50:10Z</time>
      </trkpt>
      <trkpt lat="46.87813" lon="-2.0093">
        <ele>2</ele>
        <time>2018-03-16T05:51:10Z</time>
      </trkpt>
      <trkpt lat="46.87799" lon="-2.00931">
        <ele>2</ele>
        <time>2018-03-16T05:52:10Z</time>
      </trkpt>
      <trkpt lat="46.87782" lon="-2.00932">
        <ele>2</ele>
        <time>2018-03-16T05:53:10Z</time>
      </trkpt>
      <trkpt lat="46.87776" lon="-2.00932">
        <ele>2</ele>
        <time>2018-03-16T05:54:10Z</time>
      </trkpt>
      <trkpt lat="46.87749" lon="-2.00931">
        <ele>2</ele>
        <time>2018-03-16T05:55:10Z</time>
      </trkpt>
      <trkpt lat="46.87743" lon="-2.0093">
        <ele>2</ele>
        <time>2018-03-16T05:56:10Z</time>
      </trkpt>
      <trkpt lat="46.87714" lon="-2.00929">
        <ele>2</ele>
        <time>2018-03-16T05:57:10Z</time>
      </trkpt>
      <trkpt lat="46.87711" lon="-2.00929">
        <ele>2</ele>
        <time>2018-03-16T05:58:10Z</time>
      </trkpt>
      <trkpt lat="46.87698" lon="-2.00927">
        <ele>3</ele>
        <time>2018-03-16T05:59:10Z</time>
      </trkpt>
      <trkpt lat="46.8769" lon="-2.00927">
        <ele>3</ele>
        <time>2018-03-16T06:00:10Z</time>
      </trkpt>
      <trkpt lat="46.87674" lon="-2.00929">
        <ele>3</ele>
        <time>2018-03-16T06:01:10Z</time>
      </trkpt>
      <trkpt lat="46.87674" lon="-2.00929">
        <ele>3</ele>
        <time>2018-03-16T06:02:10Z</time>
      </trkpt>
      <trkpt lat="46.87674" lon="-2.0093">
        <ele>3</ele>
        <time>2018-03-16T06:03:10Z</time>
      </trkpt>
      <trkpt lat="46.87674" lon="-2.00931">
        <ele>3</ele>
        <time>2018-03-16T06:04:10Z</time>
      </trkpt>
      <trkpt lat="46.87674" lon="-2.00932">
        <ele>3</ele>
        <time>2018-03-16T06:05:10Z</time>
      </trkpt>
      <trkpt lat="46.87673" lon="-2.00932">
        <ele>3</ele>
        <time>2018-03-16T06:06:10Z</time>
      </trkpt>
      <trkpt lat="46.87673" lon="-2.00933">
        <ele>3</ele>
        <time>2018-03-16T06:07:10Z</time>
      </trkpt>
      <trkpt lat="46.87673" lon="-2.00934">
        <ele>3</ele>
        <time>2018-03-16T06:08:10Z</time>
      </trkpt>
      <trkpt lat="46.87672" lon="-2.00935">
        <ele>3</ele>
        <time>2018-03-16T06:09:10Z</time>
      </trkpt>
      <trkpt lat="46.87672" lon="-2.00936">
        <ele>3</ele>
        <time>2018-03-16T06:10:10Z</time>
      </trkpt>
      <trkpt lat="46.87671" lon="-2.00936">
        <ele>3</ele>
        <time>2018-03-16T06:11:10Z</time>
      </trkpt>
      <trkpt lat="46.87671" lon="-2.00937">
        <ele>3</ele>
        <time>2018-03-16T06:12:10Z</time>
      </trkpt>
      <trkpt lat="46.8767" lon="-2.00937">
        <ele>3</ele>
        <time>2018-03-16T06:13:10Z</time>
      </trkpt>
      <trkpt lat="46.87671" lon="-2.00948">
        <ele>3</ele>
        <time>2018-03-16T06:14:10Z</time>
      </trkpt>
      <trkpt lat="46.87671" lon="-2.00968">
        <ele>2</ele>
        <time>2018-03-16T06:15:10Z</time>
      </trkpt>
      <trkpt lat="46.87668" lon="-2.01008">
        <ele>2</ele>
        <time>2018-03-16T06:16:10Z</time>
      </trkpt>
      <trkpt lat="46.87664" lon="-2.01054">
        <ele>2</ele>
        <time>2018-03-16T06:17:10Z</time>
      </trkpt>
      <trkpt lat="46.87661" lon="-2.0109">
        <ele>2</ele>
        <time>2018-03-16T06:18:10Z</time>
      </trkpt>
      <trkpt lat="46.8766" lon="-2.01097">
        <ele>2</ele>
        <time>2018-03-16T06:19:10Z</time>
      </trkpt>
      <trkpt lat="46.87658" lon="-2.01124">
        <ele>3</ele>
        <time>2018-03-16T06:20:10Z</time>
      </trkpt>
      <trkpt lat="46.87654" lon="-2.01163">
        <ele>3</ele>
        <time>2018-03-16T06:21:10Z</time>
      </trkpt>
      <trkpt lat="46.87652" lon="-2.01179">
        <ele>3</ele>
        <time>2018-03-16T06:22:10Z</time>
      </trkpt>
      <trkpt lat="46.87651" lon="-2.01192">
        <ele>3</ele>
        <time>2018-03-16T06:23:10Z</time>
      </trkpt>
      <trkpt lat="46.87649" lon="-2.01219">
        <ele>3</ele>
        <time>2018-03-16T06:24:10Z</time>
      </trkpt>
      <trkpt lat="46.87647" lon="-2.0124">
        <ele>3</ele>
        <time>2018-03-16T06:25:10Z</time>
      </trkpt>
      <trkpt lat="46.87647" lon="-2.0126">
        <ele>3</ele>
        <time>2018-03-16T06:26:10Z</time>
      </trkpt>
      <trkpt lat="46.87649" lon="-2.0128">
        <ele>2</ele>
        <time>2018-03-16T06:27:10Z</time>
      </trkpt>
      <trkpt lat="46.87652" lon="-2.01305">
        <ele>2</ele>
        <time>2018-03-16T06:28:10Z</time>
      </trkpt>
      <trkpt lat="46.87658" lon="-2.01335">
        <ele>1</ele>
        <time>2018-03-16T06:29:10Z</time>
      </trkpt>
      <trkpt lat="46.87662" lon="-2.01354">
        <ele>1</ele>
        <time>2018-03-16T06:30:10Z</time>
      </trkpt>
      <trkpt lat="46.87662" lon="-2.01355">
        <ele>1</ele>
        <time>2018-03-16T06:31:10Z</time>
      </trkpt>
      <trkpt lat="46.87669" lon="-2.01385">
        <ele>1</ele>
        <time>2018-03-16T06:32:10Z</time>
      </trkpt>
      <trkpt lat="46.87675" lon="-2.01412">
        <ele>1</ele>
        <time>2018-03-16T06:33:10Z</time>
      </trkpt>
      <trkpt lat="46.87681" lon="-2.01453">
        <ele>1</ele>
        <time>2018-03-16T06:34:10Z</time>
      </trkpt>
      <trkpt lat="46.87687" lon="-2.01483">
        <ele>2</ele>
        <time>2018-03-16T06:35:10Z</time>
      </trkpt>
      <trkpt lat="46.87687" lon="-2.01486">
        <ele>2</ele>
        <time>2018-03-16T06:36:10Z</time>
      </trkpt>
      <trkpt lat="46.87691" lon="-2.01516">
        <ele>2</ele>
        <time>2018-03-16T06:37:10Z</time>
      </trkpt>
      <trkpt lat="46.87693" lon="-2.01535">
        <ele>2</ele>
        <time>2018-03-16T06:38:10Z</time>
      </trkpt>
      <trkpt lat="46.87694" lon="-2.01542">
        <ele>2</ele>
        <time>2018-03-16T06:39:10Z</time>
      </trkpt>
      <trkpt lat="46.87696" lon="-2.01567">
        <ele>2</ele>
        <time>2018-03-16T06:40:10Z</time>
      </trkpt>
      <trkpt lat="46.87696" lon="-2.01592">
        <ele>2</ele>
        <time>2018-03-16T06:41:10Z</time>
      </trkpt>
      <trkpt lat="46.87694" lon="-2.01624">
        <ele>2</ele>
        <time>2018-03-16T06:42:10Z</time>
      </trkpt>
      <trkpt lat="46.87694" lon="-2.01647">
        <ele>2</ele>
        <time>2018-03-16T06:43:10Z</time>
      </trkpt>
      <trkpt lat="46.87694" lon="-2.01662">
        <ele>2</ele>
        <time>2018-03-16T06:44:10Z</time>
      </trkpt>
      <trkpt lat="46.87694" lon="-2.01673">
        <ele>2</ele>
        <time>2018-03-16T06:45:10Z</time>
      </trkpt>
      <trkpt lat="46.87695" lon="-2.017">
        <ele>2</ele>
        <time>2018-03-16T06:46:10Z</time>
      </trkpt>
      <trkpt lat="46.87697" lon="-2.01729">
        <ele>2</ele>
        <time>2018-03-16T06:47:10Z</time>
      </trkpt>
      <trkpt lat="46.87701" lon="-2.01765">
        <ele>2</ele>
        <time>2018-03-16T06:48:10Z</time>
      </trkpt>
      <trkpt lat="46.87706" lon="-2.01799">
        <ele>2</ele>
        <time>2018-03-16T06:49:10Z</time>
      </trkpt>
      <trkpt lat="46.87708" lon="-2.01827">
        <ele>2</ele>
        <time>2018-03-16T06:50:10Z</time>
      </trkpt>
      <trkpt lat="46.8771" lon="-2.01857">
        <ele>2</ele>
        <time>2018-03-16T06:51:10Z</time>
      </trkpt>
      <trkpt lat="46.87707" lon="-2.01896">
        <ele>2</ele>
        <time>2018-03-16T06:52:10Z</time>
      </trkpt>
      <trkpt lat="46.87702" lon="-2.01936">
        <ele>1</ele>
        <time>2018-03-16T06:53:10Z</time>
      </trkpt>
      <trkpt lat="46.87702" lon="-2.01938">
        <ele>1</ele>
        <time>2018-03-16T06:54:10Z</time>
      </trkpt>
      <trkpt lat="46.87697" lon="-2.01994">
        <ele>2</ele>
        <time>2018-03-16T06:55:10Z</time>
      </trkpt>
      <trkpt lat="46.87696" lon="-2.02">
        <ele>2</ele>
        <time>2018-03-16T06:56:10Z</time>
      </trkpt>
      <trkpt lat="46.87695" lon="-2.0201">
        <ele>1</ele>
        <time>2018-03-16T06:57:10Z</time>
      </trkpt>
      <trkpt lat="46.87692" lon="-2.02026">
        <ele>1</ele>
        <time>2018-03-16T06:58:10Z</time>
      </trkpt>
      <trkpt lat="46.87686" lon="-2.02052">
        <ele>1</ele>
        <time>2018-03-16T06:59:10Z</time>
      </trkpt>
      <trkpt lat="46.87671" lon="-2.021">
        <ele>2</ele>
        <time>2018-03-16T07:00:10Z</time>
      </trkpt>
      <trkpt lat="46.87651" lon="-2.02162">
        <ele>2</ele>
        <time>2018-03-16T07:01:10Z</time>
      </trkpt>
      <trkpt lat="46.87642" lon="-2.0219">
        <ele>2.1</ele>
        <time>2018-03-16T07:02:10Z</time>
      </trkpt>
      <trkpt lat="46.87633" lon="-2.02227">
        <ele>1</ele>
        <time>2018-03-16T07:03:10Z</time>
      </trkpt>
      <trkpt lat="46.87627" lon="-2.02272">
        <ele>1</ele>
        <time>2018-03-16T07:04:10Z</time>
      </trkpt>
      <trkpt lat="46.87615" lon="-2.02366">
        <ele>2</ele>
        <time>2018-03-16T07:05:10Z</time>
      </trkpt>
      <trkpt lat="46.87607" lon="-2.02427">
        <ele>1.9</ele>
        <time>2018-03-16T07:06:10Z</time>
      </trkpt>
      <trkpt lat="46.87599" lon="-2.02489">
        <ele>1</ele>
        <time>2018-03-16T07:07:10Z</time>
      </trkpt>
      <trkpt lat="46.87593" lon="-2.02532">
        <ele>1</ele>
        <time>2018-03-16T07:08:10Z</time>
      </trkpt>
      <trkpt lat="46.87584" lon="-2.02568">
        <ele>2</ele>
        <time>2018-03-16T07:09:10Z</time>
      </trkpt>
      <trkpt lat="46.87575" lon="-2.02591">
        <ele>1.5</ele>
        <time>2018-03-16T07:10:10Z</time>
      </trkpt>
      <trkpt lat="46.87562" lon="-2.02615">
        <ele>1</ele>
        <time>2018-03-16T07:11:10Z</time>
      </trkpt>
      <trkpt lat="46.87549" lon="-2.02638">
        <ele>1</ele>
        <time>2018-03-16T07:12:10Z</time>
      </trkpt>
      <trkpt lat="46.87535" lon="-2.02662">
        <ele>1.6</ele>
        <time>2018-03-16T07:13:10Z</time>
      </trkpt>
      <trkpt lat="46.87514" lon="-2.02696">
        <ele>1.5</ele>
        <time>2018-03-16T07:14:10Z</time>
      </trkpt>
      <trkpt lat="46.87511" lon="-2.027">
        <ele>1.7</ele>
        <time>2018-03-16T07:15:10Z</time>
      </trkpt>
      <trkpt lat="46.87503" lon="-2.02713">
        <ele>2.5</ele>
        <time>2018-03-16T07:16:10Z</time>
      </trkpt>
      <trkpt lat="46.87493" lon="-2.0273">
        <ele>2.5</ele>
        <time>2018-03-16T07:17:10Z</time>
      </trkpt>
      <trkpt lat="46.87487" lon="-2.02747">
        <ele>2.1</ele>
        <time>2018-03-16T07:18:10Z</time>
      </trkpt>
      <trkpt lat="46.87482" lon="-2.02762">
        <ele>1</ele>
        <time>2018-03-16T07:19:10Z</time>
      </trkpt>
      <trkpt lat="46.87479" lon="-2.02777">
        <ele>1</ele>
        <time>2018-03-16T07:20:10Z</time>
      </trkpt>
      <trkpt lat="46.87476" lon="-2.02802">
        <ele>1</ele>
        <time>2018-03-16T07:21:10Z</time>
      </trkpt>
      <trkpt lat="46.87475" lon="-2.02816">
        <ele>1</ele>
        <time>2018-03-16T07:22:10Z</time>
      </trkpt>
      <trkpt lat="46.8747" lon="-2.02848">
        <ele>1</ele>
        <time>2018-03-16T07:23:10Z</time>
      </trkpt>
      <trkpt lat="46.8746" lon="-2.02911">
        <ele>1</ele>
        <time>2018-03-16T07:24:10Z</time>
      </trkpt>
      <trkpt lat="46.87453" lon="-2.02958">
        <ele>1</ele>
        <time>2018-03-16T07:25:10Z</time>
      </trkpt>
      <trkpt lat="46.87443" lon="-2.02997">
        <ele>1</ele>
        <time>2018-03-16T07:26:10Z</time>
      </trkpt>
      <trkpt lat="46.87426" lon="-2.0306">
        <ele>2</ele>
        <time>2018-03-16T07:27:10Z</time>
      </trkpt>
      <trkpt lat="46.87411" lon="-2.03114">
        <ele>2</ele>
        <time>2018-03-16T07:28:10Z</time>
      </trkpt>
      <trkpt lat="46.87395" lon="-2.03169">
        <ele>2</ele>
        <time>2018-03-16T07:29:10Z</time>
      </trkpt>
      <trkpt lat="46.87376" lon="-2.03231">
        <ele>2</ele>
        <time>2018-03-16T07:30:10Z</time>
      </trkpt>
      <trkpt lat="46.87372" lon="-2.03245">
        <ele>2</ele>
        <time>2018-03-16T07:31:10Z</time>
      </trkpt>
      <trkpt lat="46.87364" lon="-2.03269">
        <ele>2</ele>
        <time>2018-03-16T07:32:10Z</time>
      </trkpt>
      <trkpt lat="46.8736" lon="-2.03279">
        <ele>2</ele>
        <time>2018-03-16T07:33:10Z</time>
      </trkpt>
      <trkpt lat="46.87353" lon="-2.03297">
        <ele>2</ele>
        <time>2018-03-16T07:34:10Z</time>
      </trkpt>
      <trkpt lat="46.87346" lon="-2.0331">
        <ele>2</ele>
        <time>2018-03-16T07:35:10Z</time>
      </trkpt>
      <trkpt lat="46.87332" lon="-2.03334">
        <ele>2</ele>
        <time>2018-03-16T07:36:10Z</time>
      </trkpt>
      <trkpt lat="46.8732" lon="-2.03352">
        <ele>2</ele>
        <time>2018-03-16T07:37:10Z</time>
      </trkpt>
      <trkpt lat="46.87298" lon="-2.03385">
        <ele>1.8</ele>
        <time>2018-03-16T07:38:10Z</time>
      </trkpt>
      <trkpt lat="46.87274" lon="-2.0342">
        <ele>2</ele>
        <time>2018-03-16T07:39:10Z</time>
      </trkpt>
      <trkpt lat="46.87268" lon="-2.03429">
        <ele>1.8</ele>
        <time>2018-03-16T07:40:10Z</time>
      </trkpt>
      <trkpt lat="46.87263" lon="-2.03439">
        <ele>1.6</ele>
        <time>2018-03-16T07:41:10Z</time>
      </trkpt>
      <trkpt lat="46.87259" lon="-2.03449">
        <ele>1.4</ele>
        <time>2018-03-16T07:42:10Z</time>
      </trkpt>
      <trkpt lat="46.87256" lon="-2.03457">
        <ele>1.6</ele>
        <time>2018-03-16T07:43:10Z</time>
      </trkpt>
      <trkpt lat="46.87254" lon="-2.03467">
        <ele>1.8</ele>
        <time>2018-03-16T07:44:10Z</time>
      </trkpt>
      <trkpt lat="46.87252" lon="-2.03479">
        <ele>2</ele>
        <time>2018-03-16T07:45:10Z</time>
      </trkpt>
      <trkpt lat="46.87251" lon="-2.03487">
        <ele>2</ele>
        <time>2018-03-16T07:46:10Z</time>
      </trkpt>
      <trkpt lat="46.87251" lon="-2.03495">
        <ele>2</ele>
        <time>2018-03-16T07:47:10Z</time>
      </trkpt>
      <trkpt lat="46.87252" lon="-2.03515">
        <ele>2</ele>
        <time>2018-03-16T07:48:10Z</time>
      </trkpt>
      <trkpt lat="46.87253" lon="-2.03551">
        <ele>1.3</ele>
        <time>2018-03-16T07:49:10Z</time>
      </trkpt>
      <trkpt lat="46.87255" lon="-2.03579">
        <ele>1.9</ele>
        <time>2018-03-16T07:50:10Z</time>
      </trkpt>
      <trkpt lat="46.87257" lon="-2.03606">
        <ele>2</ele>
        <time>2018-03-16T07:51:10Z</time>
      </trkpt>
      <trkpt lat="46.87257" lon="-2.03606">
        <ele>2</ele>
        <time>2018-03-16T07:52:10Z</time>
      </trkpt>
      <trkpt lat="46.87244" lon="-2.03621">
        <ele>1.9</ele>
        <time>2018-03-16T07:53:10Z</time>
      </trkpt>
      <trkpt lat="46.87238" lon="-2.03628">
        <ele>1</ele>
        <time>2018-03-16T07:54:10Z</time>
      </trkpt>
      <trkpt lat="46.87219" lon="-2.03646">
        <ele>1</ele>
        <time>2018-03-16T07:55:10Z</time>
      </trkpt>
      <trkpt lat="46.87198" lon="-2.03666">
        <ele>1</ele>
        <time>2018-03-16T07:56:10Z</time>
      </trkpt>
      <trkpt lat="46.87175" lon="-2.03688">
        <ele>1</ele>
        <time>2018-03-16T07:57:10Z</time>
      </trkpt>
      <trkpt lat="46.87155" lon="-2.03711">
        <ele>1</ele>
        <time>2018-03-16T07:58:10Z</time>
      </trkpt>
      <trkpt lat="46.87145" lon="-2.03726">
        <ele>1</ele>
        <time>2018-03-16T07:59:10Z</time>
      </trkpt>
      <trkpt lat="46.87138" lon="-2.03739">
        <ele>1</ele>
        <time>2018-03-16T08:00:10Z</time>
      </trkpt>
      <trkpt lat="46.87131" lon="-2.03754">
        <ele>1</ele>
        <time>2018-03-16T08:01:10Z</time>
      </trkpt>
      <trkpt lat="46.87113" lon="-2.03808">
        <ele>1</ele>
        <time>2018-03-16T08:02:10Z</time>
      </trkpt>
      <trkpt lat="46.87089" lon="-2.03888">
        <ele>1</ele>
        <time>2018-03-16T08:03:10Z</time>
      </trkpt>
      <trkpt lat="46.87059" lon="-2.03988">
        <ele>1</ele>
        <time>2018-03-16T08:04:10Z</time>
      </trkpt>
      <trkpt lat="46.87059" lon="-2.03988">
        <ele>1</ele>
        <time>2018-03-16T08:05:10Z</time>
      </trkpt>
      <trkpt lat="46.87054" lon="-2.04024">
        <ele>1</ele>
        <time>2018-03-16T08:06:10Z</time>
      </trkpt>
      <trkpt lat="46.87047" lon="-2.04087">
        <ele>1</ele>
        <time>2018-03-16T08:07:10Z</time>
      </trkpt>
      <trkpt lat="46.87038" lon="-2.04176">
        <ele>1.4</ele>
        <time>2018-03-16T08:08:10Z</time>
      </trkpt>
      <trkpt lat="46.8703" lon="-2.04261">
        <ele>1</ele>
        <time>2018-03-16T08:09:10Z</time>
      </trkpt>
      <trkpt lat="46.87024" lon="-2.04323">
        <ele>2</ele>
        <time>2018-03-16T08:10:10Z</time>
      </trkpt>
      <trkpt lat="46.87018" lon="-2.04381">
        <ele>1</ele>
        <time>2018-03-16T08:11:10Z</time>
      </trkpt>
      <trkpt lat="46.87012" lon="-2.04428">
        <ele>1</ele>
        <time>2018-03-16T08:12:10Z</time>
      </trkpt>
      <trkpt lat="46.87005" lon="-2.04465">
        <ele>1</ele>
        <time>2018-03-16T08:13:10Z</time>
      </trkpt>
      <trkpt lat="46.86996" lon="-2.04496">
        <ele>1</ele>
        <time>2018-03-16T08:14:10Z</time>
      </trkpt>
      <trkpt lat="46.86979" lon="-2.04539">
        <ele>1</ele>
        <time>2018-03-16T08:15:10Z</time>
      </trkpt>
      <trkpt lat="46.86947" lon="-2.04605">
        <ele>1</ele>
        <time>2018-03-16T08:16:10Z</time>
      </trkpt>
      <trkpt lat="46.86942" lon="-2.04616">
        <ele>1</ele>
        <time>2018-03-16T08:17:10Z</time>
      </trkpt>
      <trkpt lat="46.86942" lon="-2.04616">
        <ele>1</ele>
        <time>2018-03-16T08:18:10Z</time>
      </trkpt>
      <trkpt lat="46.86938" lon="-2.04624">
        <ele>1</ele>
        <time>2018-03-16T08:19:10Z</time>
      </trkpt>
      <trkpt lat="46.86921" lon="-2.0466">
        <ele>2</ele>
        <time>2018-03-16T08:20:10Z</time>
      </trkpt>
      <trkpt lat="46.86905" lon="-2.04694">
        <ele>1</ele>
        <time>2018-03-16T08:21:10Z</time>
      </trkpt>
      <trkpt lat="46.8689" lon="-2.04727">
        <ele>1</ele>
        <time>2018-03-16T08:22:10Z</time>
      </trkpt>
      <trkpt lat="46.8688" lon="-2.04751">
        <ele>1</ele>
        <time>2018-03-16T08:23:10Z</time>
      </trkpt>
      <trkpt lat="46.86871" lon="-2.04782">
        <ele>1</ele>
        <time>2018-03-16T08:24:10Z</time>
      </trkpt>
      <trkpt lat="46.86862" lon="-2.04824">
        <ele>1</ele>
        <time>2018-03-16T08:25:10Z</time>
      </trkpt>
      <trkpt lat="46.86843" lon="-2.0492">
        <ele>2</ele>
        <time>2018-03-16T08:26:10Z</time>
      </trkpt>
      <trkpt lat="46.86828" lon="-2.04994">
        <ele>2.2</ele>
        <time>2018-03-16T08:27:10Z</time>
      </trkpt>
      <trkpt lat="46.86818" lon="-2.05035">
        <ele>1</ele>
        <time>2018-03-16T08:28:10Z</time>
      </trkpt>
      <trkpt lat="46.86806" lon="-2.05095">
        <ele>2</ele>
        <time>2018-03-16T08:29:10Z</time>
      </trkpt>
      <trkpt lat="46.868" lon="-2.05125">
        <ele>2</ele>
        <time>2018-03-16T08:30:10Z</time>
      </trkpt>
      <trkpt lat="46.86795" lon="-2.05155">
        <ele>2</ele>
        <time>2018-03-16T08:31:10Z</time>
      </trkpt>
      <trkpt lat="46.86794" lon="-2.05172">
        <ele>1</ele>
        <time>2018-03-16T08:32:10Z</time>
      </trkpt>
      <trkpt lat="46.86793" lon="-2.05201">
        <ele>1</ele>
        <time>2018-03-16T08:33:10Z</time>
      </trkpt>
      <trkpt lat="46.86795" lon="-2.05231">
        <ele>1</ele>
        <time>2018-03-16T08:34:10Z</time>
      </trkpt>
      <trkpt lat="46.86796" lon="-2.0528">
        <ele>1</ele>
        <time>2018-03-16T08:35:10Z</time>
      </trkpt>
      <trkpt lat="46.86794" lon="-2.05307">
        <ele>1</ele>
        <time>2018-03-16T08:36:10Z</time>
      </trkpt>
      <trkpt lat="46.8679" lon="-2.05325">
        <ele>1</ele>
        <time>2018-03-16T08:37:10Z</time>
      </trkpt>
      <trkpt lat="46.86783" lon="-2.05345">
        <ele>2</ele>
        <time>2018-03-16T08:38:10Z</time>
      </trkpt>
      <trkpt lat="46.86783" lon="-2.05345">
        <ele>2</ele>
        <time>2018-03-16T08:39:10Z</time>
      </trkpt>
      <trkpt lat="46.86774" lon="-2.05361">
        <ele>1</ele>
        <time>2018-03-16T08:40:10Z</time>
      </trkpt>
      <trkpt lat="46.8677" lon="-2.05369">
        <ele>1</ele>
        <time>2018-03-16T08:41:10Z</time>
      </trkpt>
      <trkpt lat="46.86757" lon="-2.0539">
        <ele>1</ele>
        <time>2018-03-16T08:42:10Z</time>
      </trkpt>
      <trkpt lat="46.86735" lon="-2.05428">
        <ele>1</ele>
        <time>2018-03-16T08:43:10Z</time>
      </trkpt>
      <trkpt lat="46.8672" lon="-2.05461">
        <ele>2</ele>
        <time>2018-03-16T08:44:10Z</time>
      </trkpt>
      <trkpt lat="46.86713" lon="-2.05488">
        <ele>2</ele>
        <time>2018-03-16T08:45:10Z</time>
      </trkpt>
      <trkpt lat="46.86711" lon="-2.055">
        <ele>2</ele>
        <time>2018-03-16T08:46:10Z</time>
      </trkpt>
      <trkpt lat="46.8671" lon="-2.05517">
        <ele>2</ele>
        <time>2018-03-16T08:47:10Z</time>
      </trkpt>
      <trkpt lat="46.86707" lon="-2.05627">
        <ele>2</ele>
        <time>2018-03-16T08:48:10Z</time>
      </trkpt>
      <trkpt lat="46.86705" lon="-2.05656">
        <ele>2</ele>
        <time>2018-03-16T08:49:10Z</time>
      </trkpt>
      <trkpt lat="46.867" lon="-2.0568">
        <ele>2</ele>
        <time>2018-03-16T08:50:10Z</time>
      </trkpt>
      <trkpt lat="46.86684" lon="-2.05731">
        <ele>2</ele>
        <time>2018-03-16T08:51:10Z</time>
      </trkpt>
      <trkpt lat="46.86663" lon="-2.05779">
        <ele>1</ele>
        <time>2018-03-16T08:52:10Z</time>
      </trkpt>
      <trkpt lat="46.8664" lon="-2.05828">
        <ele>2</ele>
        <time>2018-03-16T08:53:10Z</time>
      </trkpt>
      <trkpt lat="46.86621" lon="-2.0586">
        <ele>1</ele>
        <time>2018-03-16T08:54:10Z</time>
      </trkpt>
      <trkpt lat="46.86601" lon="-2.05885">
        <ele>1</ele>
        <time>2018-03-16T08:55:10Z</time>
      </trkpt>
      <trkpt lat="46.86559" lon="-2.05932">
        <ele>1</ele>
        <time>2018-03-16T08:56:10Z</time>
      </trkpt>
      <trkpt lat="46.8653" lon="-2.05964">
        <ele>2</ele>
        <time>2018-03-16T08:57:10Z</time>
      </trkpt>
      <trkpt lat="46.86513" lon="-2.05985">
        <ele>2</ele>
        <time>2018-03-16T08:58:10Z</time>
      </trkpt>
      <trkpt lat="46.86509" lon="-2.05995">
        <ele>2</ele>
        <time>2018-03-16T08:59:10Z</time>
      </trkpt>
      <trkpt lat="46.86503" lon="-2.06008">
        <ele>2</ele>
        <time>2018-03-16T09:00:10Z</time>
      </trkpt>
      <trkpt lat="46.86503" lon="-2.06008">
        <ele>2</ele>
        <time>2018-03-16T09:01:10Z</time>
      </trkpt>
      <trkpt lat="46.86497" lon="-2.06007">
        <ele>2.1</ele>
        <time>2018-03-16T09:02:10Z</time>
      </trkpt>
      <trkpt lat="46.86493" lon="-2.06006">
        <ele>2.2</ele>
        <time>2018-03-16T09:03:10Z</time>
      </trkpt>
      <trkpt lat="46.86493" lon="-2.06006">
        <ele>2.2</ele>
        <time>2018-03-16T09:04:10Z</time>
      </trkpt>
      <trkpt lat="46.86481" lon="-2.06041">
        <ele>2</ele>
        <time>2018-03-16T09:05:10Z</time>
      </trkpt>
      <trkpt lat="46.86471" lon="-2.06083">
        <ele>1</ele>
        <time>2018-03-16T09:06:10Z</time>
      </trkpt>
      <trkpt lat="46.86461" lon="-2.06129">
        <ele>1</ele>
        <time>2018-03-16T09:07:10Z</time>
      </trkpt>
      <trkpt lat="46.86451" lon="-2.06178">
        <ele>2</ele>
        <time>2018-03-16T09:08:10Z</time>
      </trkpt>
      <trkpt lat="46.86441" lon="-2.06228">
        <ele>2</ele>
        <time>2018-03-16T09:09:10Z</time>
      </trkpt>
      <trkpt lat="46.86428" lon="-2.06293">
        <ele>2</ele>
        <time>2018-03-16T09:10:10Z</time>
      </trkpt>
      <trkpt lat="46.8642" lon="-2.06346">
        <ele>2</ele>
        <time>2018-03-16T09:11:10Z</time>
      </trkpt>
      <trkpt lat="46.86412" lon="-2.06405">
        <ele>1</ele>
        <time>2018-03-16T09:12:10Z</time>
      </trkpt>
      <trkpt lat="46.86406" lon="-2.06445">
        <ele>2</ele>
        <time>2018-03-16T09:13:10Z</time>
      </trkpt>
      <trkpt lat="46.86404" lon="-2.0645">
        <ele>2</ele>
        <time>2018-03-16T09:14:10Z</time>
      </trkpt>
      <trkpt lat="46.864" lon="-2.0647">
        <ele>2</ele>
        <time>2018-03-16T09:15:10Z</time>
      </trkpt>
      <trkpt lat="46.8639" lon="-2.06499">
        <ele>2</ele>
        <time>2018-03-16T09:16:10Z</time>
      </trkpt>
      <trkpt lat="46.8637" lon="-2.06555">
        <ele>2</ele>
        <time>2018-03-16T09:17:10Z</time>
      </trkpt>
      <trkpt lat="46.86348" lon="-2.06612">
        <ele>2</ele>
        <time>2018-03-16T09:18:10Z</time>
      </trkpt>
      <trkpt lat="46.86327" lon="-2.0667">
        <ele>1</ele>
        <time>2018-03-16T09:19:10Z</time>
      </trkpt>
      <trkpt lat="46.86327" lon="-2.0667">
        <ele>1</ele>
        <time>2018-03-16T09:20:10Z</time>
      </trkpt>
      <trkpt lat="46.8632" lon="-2.06689">
        <ele>1</ele>
        <time>2018-03-16T09:21:10Z</time>
      </trkpt>
      <trkpt lat="46.86316" lon="-2.06706">
        <ele>2</ele>
        <time>2018-03-16T09:22:10Z</time>
      </trkpt>
      <trkpt lat="46.8631" lon="-2.06737">
        <ele>2</ele>
        <time>2018-03-16T09:23:10Z</time>
      </trkpt>
      <trkpt lat="46.8631" lon="-2.06771">
        <ele>2</ele>
        <time>2018-03-16T09:24:10Z</time>
      </trkpt>
      <trkpt lat="46.8631" lon="-2.06801">
        <ele>2</ele>
        <time>2018-03-16T09:25:10Z</time>
      </trkpt>
      <trkpt lat="46.86308" lon="-2.06824">
        <ele>1</ele>
        <time>2018-03-16T09:26:10Z</time>
      </trkpt>
      <trkpt lat="46.86301" lon="-2.06853">
        <ele>1</ele>
        <time>2018-03-16T09:27:10Z</time>
      </trkpt>
      <trkpt lat="46.86275" lon="-2.06911">
        <ele>1</ele>
        <time>2018-03-16T09:28:10Z</time>
      </trkpt>
      <trkpt lat="46.86266" lon="-2.06937">
        <ele>1</ele>
        <time>2018-03-16T09:29:10Z</time>
      </trkpt>
      <trkpt lat="46.86256" lon="-2.06965">
        <ele>1</ele>
        <time>2018-03-16T09:30:10Z</time>
      </trkpt>
      <trkpt lat="46.86246" lon="-2.06984">
        <ele>2</ele>
        <time>2018-03-16T09:31:10Z</time>
      </trkpt>
      <trkpt lat="46.86236" lon="-2.07006">
        <ele>2</ele>
        <time>2018-03-16T09:32:10Z</time>
      </trkpt>
      <trkpt lat="46.8623" lon="-2.07023">
        <ele>2</ele>
        <time>2018-03-16T09:33:10Z</time>
      </trkpt>
      <trkpt lat="46.86225" lon="-2.07039">
        <ele>2</ele>
        <time>2018-03-16T09:34:10Z</time>
      </trkpt>
      <trkpt lat="46.86215" lon="-2.07088">
        <ele>2</ele>
        <time>2018-03-16T09:35:10Z</time>
      </trkpt>
      <trkpt lat="46.86215" lon="-2.07088">
        <ele>2</ele>
        <time>2018-03-16T09:36:10Z</time>
      </trkpt>
      <trkpt lat="46.86209" lon="-2.07123">
        <ele>2</ele>
        <time>2018-03-16T09:37:10Z</time>
      </trkpt>
      <trkpt lat="46.86197" lon="-2.07172">
        <ele>2</ele>
        <time>2018-03-16T09:38:10Z</time>
      </trkpt>
      <trkpt lat="46.86189" lon="-2.072">
        <ele>2</ele>
        <time>2018-03-16T09:39:10Z</time>
      </trkpt>
      <trkpt lat="46.86176" lon="-2.07231">
        <ele>2</ele>
        <time>2018-03-16T09:40:10Z</time>
      </trkpt>
      <trkpt lat="46.86165" lon="-2.07257">
        <ele>2</ele>
        <time>2018-03-16T09:41:10Z</time>
      </trkpt>
      <trkpt lat="46.86157" lon="-2.07283">
        <ele>2</ele>
        <time>2018-03-16T09:42:10Z</time>
      </trkpt>
      <trkpt lat="46.86143" lon="-2.0735">
        <ele>2</ele>
        <time>2018-03-16T09:43:10Z</time>
      </trkpt>
      <trkpt lat="46.86132" lon="-2.0741">
        <ele>2</ele>
        <time>2018-03-16T09:44:10Z</time>
      </trkpt>
      <trkpt lat="46.8613" lon="-2.07444">
        <ele>2</ele>
        <time>2018-03-16T09:45:10Z</time>
      </trkpt>
      <trkpt lat="46.86132" lon="-2.0747">
        <ele>2</ele>
        <time>2018-03-16T09:46:10Z</time>
      </trkpt>
      <trkpt lat="46.86138" lon="-2.07491">
        <ele>2</ele>
        <time>2018-03-16T09:47:10Z</time>
      </trkpt>
      <trkpt lat="46.86148" lon="-2.07516">
        <ele>2</ele>
        <time>2018-03-16T09:48:10Z</time>
      </trkpt>
      <trkpt lat="46.8616" lon="-2.07548">
        <ele>2</ele>
        <time>2018-03-16T09:49:10Z</time>
      </trkpt>
      <trkpt lat="46.86174" lon="-2.07579">
        <ele>2</ele>
        <time>2018-03-16T09:50:10Z</time>
      </trkpt>
      <trkpt lat="46.86202" lon="-2.07645">
        <ele>2</ele>
        <time>2018-03-16T09:51:10Z</time>
      </trkpt>
      <trkpt lat="46.86227" lon="-2.07708">
        <ele>2</ele>
        <time>2018-03-16T09:52:10Z</time>
      </trkpt>
      <trkpt lat="46.86256" lon="-2.07774">
        <ele>1</ele>
        <time>2018-03-16T09:53:10Z</time>
      </trkpt>
      <trkpt lat="46.86256" lon="-2.07774">
        <ele>1</ele>
        <time>2018-03-16T09:54:10Z</time>
      </trkpt>
      <trkpt lat="46.8623" lon="-2.07811">
        <ele>1</ele>
        <time>2018-03-16T09:55:10Z</time>
      </trkpt>
      <trkpt lat="46.86202" lon="-2.07852">
        <ele>1</ele>
        <time>2018-03-16T09:56:10Z</time>
      </trkpt>
      <trkpt lat="46.86178" lon="-2.07884">
        <ele>1</ele>
        <time>2018-03-16T09:57:10Z</time>
      </trkpt>
      <trkpt lat="46.86169" lon="-2.07892">
        <ele>1</ele>
        <time>2018-03-16T09:58:10Z</time>
      </trkpt>
      <trkpt lat="46.86162" lon="-2.07899">
        <ele>1</ele>
        <time>2018-03-16T09:59:10Z</time>
      </trkpt>
      <trkpt lat="46.86151" lon="-2.07906">
        <ele>1</ele>
        <time>2018-03-16T10:00:10Z</time>
      </trkpt>
      <trkpt lat="46.86129" lon="-2.07917">
        <ele>1</ele>
        <time>2018-03-16T10:01:10Z</time>
      </trkpt>
      <trkpt lat="46.86106" lon="-2.0793">
        <ele>1</ele>
        <time>2018-03-16T10:02:10Z</time>
      </trkpt>
      <trkpt lat="46.86098" lon="-2.0794">
        <ele>1</ele>
        <time>2018-03-16T10:03:10Z</time>
      </trkpt>
      <trkpt lat="46.86093" lon="-2.07946">
        <ele>1</ele>
        <time>2018-03-16T10:04:10Z</time>
      </trkpt>
      <trkpt lat="46.86083" lon="-2.07964">
        <ele>1</ele>
        <time>2018-03-16T10:05:10Z</time>
      </trkpt>
      <trkpt lat="46.86083" lon="-2.07964">
        <ele>1</ele>
        <time>2018-03-16T10:06:10Z</time>
      </trkpt>
      <trkpt lat="46.86078" lon="-2.07973">
        <ele>1</ele>
        <time>2018-03-16T10:07:10Z</time>
      </trkpt>
      <trkpt lat="46.86074" lon="-2.07983">
        <ele>1</ele>
        <time>2018-03-16T10:08:10Z</time>
      </trkpt>
      <trkpt lat="46.86057" lon="-2.08007">
        <ele>2.7</ele>
        <time>2018-03-16T10:09:10Z</time>
      </trkpt>
      <trkpt lat="46.86038" lon="-2.08032">
        <ele>1.9</ele>
        <time>2018-03-16T10:10:10Z</time>
      </trkpt>
      <trkpt lat="46.86024" lon="-2.08053">
        <ele>2</ele>
        <time>2018-03-16T10:11:10Z</time>
      </trkpt>
      <trkpt lat="46.86007" lon="-2.08084">
        <ele>1.3</ele>
        <time>2018-03-16T10:12:10Z</time>
      </trkpt>
      <trkpt lat="46.85991" lon="-2.08115">
        <ele>2</ele>
        <time>2018-03-16T10:13:10Z</time>
      </trkpt>
      <trkpt lat="46.85978" lon="-2.08136">
        <ele>2</ele>
        <time>2018-03-16T10:14:10Z</time>
      </trkpt>
      <trkpt lat="46.85959" lon="-2.08164">
        <ele>2</ele>
        <time>2018-03-16T10:15:10Z</time>
      </trkpt>
      <trkpt lat="46.85928" lon="-2.08204">
        <ele>1</ele>
        <time>2018-03-16T10:16:10Z</time>
      </trkpt>
      <trkpt lat="46.85902" lon="-2.08237">
        <ele>1</ele>
        <time>2018-03-16T10:17:10Z</time>
      </trkpt>
      <trkpt lat="46.8589" lon="-2.08254">
        <ele>1</ele>
        <time>2018-03-16T10:18:10Z</time>
      </trkpt>
      <trkpt lat="46.85849" lon="-2.08307">
        <ele>1.6</ele>
        <time>2018-03-16T10:19:10Z</time>
      </trkpt>
      <trkpt lat="46.85834" lon="-2.08325">
        <ele>1.7</ele>
        <time>2018-03-16T10:20:10Z</time>
      </trkpt>
      <trkpt lat="46.85824" lon="-2.08335">
        <ele>2</ele>
        <time>2018-03-16T10:21:10Z</time>
      </trkpt>
      <trkpt lat="46.8581" lon="-2.08348">
        <ele>2</ele>
        <time>2018-03-16T10:22:10Z</time>
      </trkpt>
      <trkpt lat="46.85792" lon="-2.08365">
        <ele>2</ele>
        <time>2018-03-16T10:23:10Z</time>
      </trkpt>
      <trkpt lat="46.85784" lon="-2.08375">
        <ele>2</ele>
        <time>2018-03-16T10:24:10Z</time>
      </trkpt>
      <trkpt lat="46.85778" lon="-2.08387">
        <ele>2</ele>
        <time>2018-03-16T10:25:10Z</time>
      </trkpt>
      <trkpt lat="46.85773" lon="-2.08399">
        <ele>1.8</ele>
        <time>2018-03-16T10:26:10Z</time>
      </trkpt>
      <trkpt lat="46.85767" lon="-2.08421">
        <ele>1.6</ele>
        <time>2018-03-16T10:27:10Z</time>
      </trkpt>
      <trkpt lat="46.85759" lon="-2.08447">
        <ele>1.7</ele>
        <time>2018-03-16T10:28:10Z</time>
      </trkpt>
      <trkpt lat="46.85754" lon="-2.08459">
        <ele>1.9</ele>
        <time>2018-03-16T10:29:10Z</time>
      </trkpt>
      <trkpt lat="46.85746" lon="-2.08469">
        <ele>2</ele>
        <time>2018-03-16T10:30:10Z</time>
      </trkpt>
      <trkpt lat="46.8574" lon="-2.08476">
        <ele>2</ele>
        <time>2018-03-16T10:31:10Z</time>
      </trkpt>
      <trkpt lat="46.85731" lon="-2.08485">
        <ele>2</ele>
        <time>2018-03-16T10:32:10Z</time>
      </trkpt>
      <trkpt lat="46.85716" lon="-2.08499">
        <ele>1</ele>
        <time>2018-03-16T10:33:10Z</time>
      </trkpt>
      <trkpt lat="46.85703" lon="-2.08514">
        <ele>1</ele>
        <time>2018-03-16T10:34:10Z</time>
      </trkpt>
      <trkpt lat="46.85697" lon="-2.08522">
        <ele>1</ele>
        <time>2018-03-16T10:35:10Z</time>
      </trkpt>
      <trkpt lat="46.85692" lon="-2.0853">
        <ele>1</ele>
        <time>2018-03-16T10:36:10Z</time>
      </trkpt>
      <trkpt lat="46.85692" lon="-2.0853">
        <ele>1</ele>
        <time>2018-03-16T10:37:10Z</time>
      </trkpt>
      <trkpt lat="46.85687" lon="-2.08536">
        <ele>2</ele>
        <time>2018-03-16T10:38:10Z</time>
      </trkpt>
      <trkpt lat="46.85685" lon="-2.08538">
        <ele>2</ele>
        <time>2018-03-16T10:39:10Z</time>
      </trkpt>
      <trkpt lat="46.85683" lon="-2.08542">
        <ele>2</ele>
        <time>2018-03-16T10:40:10Z</time>
      </trkpt>
      <trkpt lat="46.85671" lon="-2.08563">
        <ele>2</ele>
        <time>2018-03-16T10:41:10Z</time>
      </trkpt>
      <trkpt lat="46.85665" lon="-2.08571">
        <ele>2</ele>
        <time>2018-03-16T10:42:10Z</time>
      </trkpt>
      <trkpt lat="46.85659" lon="-2.08577">
        <ele>2</ele>
        <time>2018-03-16T10:43:10Z</time>
      </trkpt>
      <trkpt lat="46.85649" lon="-2.08581">
        <ele>2</ele>
        <time>2018-03-16T10:44:10Z</time>
      </trkpt>
      <trkpt lat="46.85636" lon="-2.08586">
        <ele>1</ele>
        <time>2018-03-16T10:45:10Z</time>
      </trkpt>
      <trkpt lat="46.85625" lon="-2.0859">
        <ele>1</ele>
        <time>2018-03-16T10:46:10Z</time>
      </trkpt>
      <trkpt lat="46.85618" lon="-2.08594">
        <ele>1</ele>
        <time>2018-03-16T10:47:10Z</time>
      </trkpt>
      <trkpt lat="46.85605" lon="-2.08601">
        <ele>1</ele>
        <time>2018-03-16T10:48:10Z</time>
      </trkpt>
      <trkpt lat="46.85596" lon="-2.08607">
        <ele>1</ele>
        <time>2018-03-16T10:49:10Z</time>
      </trkpt>
      <trkpt lat="46.85593" lon="-2.0861">
        <ele>1.4</ele>
        <time>2018-03-16T10:50:10Z</time>
      </trkpt>
      <trkpt lat="46.85592" lon="-2.08611">
        <ele>1.3</ele>
        <time>2018-03-16T10:51:10Z</time>
      </trkpt>
      <trkpt lat="46.85582" lon="-2.08616">
        <ele>1.2</ele>
        <time>2018-03-16T10:52:10Z</time>
      </trkpt>
      <trkpt lat="46.85566" lon="-2.0862">
        <ele>1.7</ele>
        <time>2018-03-16T10:53:10Z</time>
      </trkpt>
      <trkpt lat="46.85556" lon="-2.08621">
        <ele>2</ele>
        <time>2018-03-16T10:54:10Z</time>
      </trkpt>
      <trkpt lat="46.85551" lon="-2.08622">
        <ele>2</ele>
        <time>2018-03-16T10:55:10Z</time>
      </trkpt>
      <trkpt lat="46.85544" lon="-2.08623">
        <ele>2</ele>
        <time>2018-03-16T10:56:10Z</time>
      </trkpt>
      <trkpt lat="46.85533" lon="-2.08626">
        <ele>2</ele>
        <time>2018-03-16T10:57:10Z</time>
      </trkpt>
      <trkpt lat="46.85529" lon="-2.08628">
        <ele>2</ele>
        <time>2018-03-16T10:58:10Z</time>
      </trkpt>
      <trkpt lat="46.85521" lon="-2.08633">
        <ele>2</ele>
        <time>2018-03-16T10:59:10Z</time>
      </trkpt>
      <trkpt lat="46.85513" lon="-2.0864">
        <ele>2</ele>
        <time>2018-03-16T11:00:10Z</time>
      </trkpt>
      <trkpt lat="46.85502" lon="-2.08652">
        <ele>2</ele>
        <time>2018-03-16T11:01:10Z</time>
      </trkpt>
      <trkpt lat="46.85491" lon="-2.0867">
        <ele>2</ele>
        <time>2018-03-16T11:02:10Z</time>
      </trkpt>
      <trkpt lat="46.85478" lon="-2.08692">
        <ele>2</ele>
        <time>2018-03-16T11:03:10Z</time>
      </trkpt>
      <trkpt lat="46.85464" lon="-2.08717">
        <ele>2</ele>
        <time>2018-03-16T11:04:10Z</time>
      </trkpt>
      <trkpt lat="46.85451" lon="-2.08739">
        <ele>2</ele>
        <time>2018-03-16T11:05:10Z</time>
      </trkpt>
      <trkpt lat="46.85438" lon="-2.08756">
        <ele>2</ele>
        <time>2018-03-16T11:06:10Z</time>
      </trkpt>
      <trkpt lat="46.85424" lon="-2.08769">
        <ele>2</ele>
        <time>2018-03-16T11:07:10Z</time>
      </trkpt>
      <trkpt lat="46.85408" lon="-2.08781">
        <ele>2</ele>
        <time>2018-03-16T11:08:10Z</time>
      </trkpt>
      <trkpt lat="46.85394" lon="-2.08792">
        <ele>2</ele>
        <time>2018-03-16T11:09:10Z</time>
      </trkpt>
      <trkpt lat="46.85384" lon="-2.088">
        <ele>2</ele>
        <time>2018-03-16T11:10:10Z</time>
      </trkpt>
      <trkpt lat="46.85374" lon="-2.08811">
        <ele>2</ele>
        <time>2018-03-16T11:11:10Z</time>
      </trkpt>
      <trkpt lat="46.85363" lon="-2.08831">
        <ele>2</ele>
        <time>2018-03-16T11:12:10Z</time>
      </trkpt>
      <trkpt lat="46.85349" lon="-2.08858">
        <ele>2</ele>
        <time>2018-03-16T11:13:10Z</time>
      </trkpt>
      <trkpt lat="46.85337" lon="-2.0888">
        <ele>2</ele>
        <time>2018-03-16T11:14:10Z</time>
      </trkpt>
      <trkpt lat="46.85326" lon="-2.089">
        <ele>1.6</ele>
        <time>2018-03-16T11:15:10Z</time>
      </trkpt>
      <trkpt lat="46.85311" lon="-2.08922">
        <ele>1.2</ele>
        <time>2018-03-16T11:16:10Z</time>
      </trkpt>
      <trkpt lat="46.85301" lon="-2.08934">
        <ele>1.7</ele>
        <time>2018-03-16T11:17:10Z</time>
      </trkpt>
      <trkpt lat="46.85289" lon="-2.08944">
        <ele>2</ele>
        <time>2018-03-16T11:18:10Z</time>
      </trkpt>
      <trkpt lat="46.85272" lon="-2.08954">
        <ele>1.6</ele>
        <time>2018-03-16T11:19:10Z</time>
      </trkpt>
      <trkpt lat="46.85259" lon="-2.08962">
        <ele>1.5</ele>
        <time>2018-03-16T11:20:10Z</time>
      </trkpt>
      <trkpt lat="46.85251" lon="-2.08966">
        <ele>1.8</ele>
        <time>2018-03-16T11:21:10Z</time>
      </trkpt>
      <trkpt lat="46.85251" lon="-2.08966">
        <ele>1.8</ele>
        <time>2018-03-16T11:22:10Z</time>
      </trkpt>
      <trkpt lat="46.85242" lon="-2.08969">
        <ele>1.7</ele>
        <time>2018-03-16T11:23:10Z</time>
      </trkpt>
      <trkpt lat="46.85228" lon="-2.08975">
        <ele>1.3</ele>
        <time>2018-03-16T11:24:10Z</time>
      </trkpt>
      <trkpt lat="46.85216" lon="-2.08981">
        <ele>1.4</ele>
        <time>2018-03-16T11:25:10Z</time>
      </trkpt>
      <trkpt lat="46.8521" lon="-2.08985">
        <ele>1.5</ele>
        <time>2018-03-16T11:26:10Z</time>
      </trkpt>
      <trkpt lat="46.85203" lon="-2.0899">
        <ele>1.4</ele>
        <time>2018-03-16T11:27:10Z</time>
      </trkpt>
      <trkpt lat="46.85197" lon="-2.08997">
        <ele>1.2</ele>
        <time>2018-03-16T11:28:10Z</time>
      </trkpt>
      <trkpt lat="46.85186" lon="-2.09016">
        <ele>1</ele>
        <time>2018-03-16T11:29:10Z</time>
      </trkpt>
      <trkpt lat="46.85176" lon="-2.09037">
        <ele>1</ele>
        <time>2018-03-16T11:30:10Z</time>
      </trkpt>
      <trkpt lat="46.85164" lon="-2.09065">
        <ele>1</ele>
        <time>2018-03-16T11:31:10Z</time>
      </trkpt>
      <trkpt lat="46.85158" lon="-2.09091">
        <ele>1</ele>
        <time>2018-03-16T11:32:10Z</time>
      </trkpt>
      <trkpt lat="46.85154" lon="-2.09104">
        <ele>1</ele>
        <time>2018-03-16T11:33:10Z</time>
      </trkpt>
      <trkpt lat="46.85143" lon="-2.09123">
        <ele>1</ele>
        <time>2018-03-16T11:34:10Z</time>
      </trkpt>
      <trkpt lat="46.85127" lon="-2.09141">
        <ele>1</ele>
        <time>2018-03-16T11:35:10Z</time>
      </trkpt>
      <trkpt lat="46.8511" lon="-2.09158">
        <ele>2</ele>
        <time>2018-03-16T11:36:10Z</time>
      </trkpt>
      <trkpt lat="46.85092" lon="-2.09175">
        <ele>2</ele>
        <time>2018-03-16T11:37:10Z</time>
      </trkpt>
      <trkpt lat="46.85077" lon="-2.09188">
        <ele>1.8</ele>
        <time>2018-03-16T11:38:10Z</time>
      </trkpt>
      <trkpt lat="46.85066" lon="-2.09194">
        <ele>1.4</ele>
        <time>2018-03-16T11:39:10Z</time>
      </trkpt>
      <trkpt lat="46.85066" lon="-2.09194">
        <ele>1.4</ele>
        <time>2018-03-16T11:40:10Z</time>
      </trkpt>
      <trkpt lat="46.85058" lon="-2.09196">
        <ele>1.1</ele>
        <time>2018-03-16T11:41:10Z</time>
      </trkpt>
      <trkpt lat="46.85051" lon="-2.09197">
        <ele>1.1</ele>
        <time>2018-03-16T11:42:10Z</time>
      </trkpt>
      <trkpt lat="46.8503" lon="-2.09201">
        <ele>1</ele>
        <time>2018-03-16T11:43:10Z</time>
      </trkpt>
      <trkpt lat="46.85012" lon="-2.09202">
        <ele>1.4</ele>
        <time>2018-03-16T11:44:10Z</time>
      </trkpt>
      <trkpt lat="46.84994" lon="-2.09203">
        <ele>1.8</ele>
        <time>2018-03-16T11:45:10Z</time>
      </trkpt>
      <trkpt lat="46.84971" lon="-2.092">
        <ele>2</ele>
        <time>2018-03-16T11:46:10Z</time>
      </trkpt>
      <trkpt lat="46.8495" lon="-2.09192">
        <ele>2</ele>
        <time>2018-03-16T11:47:10Z</time>
      </trkpt>
      <trkpt lat="46.84931" lon="-2.09185">
        <ele>2</ele>
        <time>2018-03-16T11:48:10Z</time>
      </trkpt>
      <trkpt lat="46.84915" lon="-2.09185">
        <ele>2</ele>
        <time>2018-03-16T11:49:10Z</time>
      </trkpt>
      <trkpt lat="46.84902" lon="-2.09187">
        <ele>1.6</ele>
        <time>2018-03-16T11:50:10Z</time>
      </trkpt>
      <trkpt lat="46.84888" lon="-2.09192">
        <ele>1.1</ele>
        <time>2018-03-16T11:51:10Z</time>
      </trkpt>
      <trkpt lat="46.84872" lon="-2.09201">
        <ele>1.6</ele>
        <time>2018-03-16T11:52:10Z</time>
      </trkpt>
      <trkpt lat="46.84856" lon="-2.09209">
        <ele>1.5</ele>
        <time>2018-03-16T11:53:10Z</time>
      </trkpt>
      <trkpt lat="46.84856" lon="-2.09209">
        <ele>1.5</ele>
        <time>2018-03-16T11:54:10Z</time>
      </trkpt>
      <trkpt lat="46.84844" lon="-2.09217">
        <ele>1.6</ele>
        <time>2018-03-16T11:55:10Z</time>
      </trkpt>
      <trkpt lat="46.8483" lon="-2.09225">
        <ele>2</ele>
        <time>2018-03-16T11:56:10Z</time>
      </trkpt>
      <trkpt lat="46.84815" lon="-2.09234">
        <ele>2</ele>
        <time>2018-03-16T11:57:10Z</time>
      </trkpt>
      <trkpt lat="46.84802" lon="-2.09245">
        <ele>2</ele>
        <time>2018-03-16T11:58:10Z</time>
      </trkpt>
      <trkpt lat="46.84789" lon="-2.09265">
        <ele>1.7</ele>
        <time>2018-03-16T11:59:10Z</time>
      </trkpt>
      <trkpt lat="46.8478" lon="-2.09282">
        <ele>1.2</ele>
        <time>2018-03-16T12:00:10Z</time>
      </trkpt>
      <trkpt lat="46.84763" lon="-2.0932">
        <ele>1.5</ele>
        <time>2018-03-16T12:01:10Z</time>
      </trkpt>
      <trkpt lat="46.84746" lon="-2.09354">
        <ele>1.1</ele>
        <time>2018-03-16T12:02:10Z</time>
      </trkpt>
      <trkpt lat="46.84723" lon="-2.09391">
        <ele>1</ele>
        <time>2018-03-16T12:03:10Z</time>
      </trkpt>
      <trkpt lat="46.84701" lon="-2.09424">
        <ele>1.8</ele>
        <time>2018-03-16T12:04:10Z</time>
      </trkpt>
      <trkpt lat="46.84683" lon="-2.09447">
        <ele>1.6</ele>
        <time>2018-03-16T12:05:10Z</time>
      </trkpt>
      <trkpt lat="46.84666" lon="-2.09473">
        <ele>2</ele>
        <time>2018-03-16T12:06:10Z</time>
      </trkpt>
      <trkpt lat="46.84649" lon="-2.09495">
        <ele>1.5</ele>
        <time>2018-03-16T12:07:10Z</time>
      </trkpt>
      <trkpt lat="46.84638" lon="-2.09505">
        <ele>1</ele>
        <time>2018-03-16T12:08:10Z</time>
      </trkpt>
      <trkpt lat="46.84627" lon="-2.09511">
        <ele>1.4</ele>
        <time>2018-03-16T12:09:10Z</time>
      </trkpt>
      <trkpt lat="46.84614" lon="-2.09517">
        <ele>1.9</ele>
        <time>2018-03-16T12:10:10Z</time>
      </trkpt>
      <trkpt lat="46.84594" lon="-2.09523">
        <ele>2</ele>
        <time>2018-03-16T12:11:10Z</time>
      </trkpt>
      <trkpt lat="46.84568" lon="-2.09532">
        <ele>1.9</ele>
        <time>2018-03-16T12:12:10Z</time>
      </trkpt>
      <trkpt lat="46.8453" lon="-2.09546">
        <ele>1.3</ele>
        <time>2018-03-16T12:13:10Z</time>
      </trkpt>
      <trkpt lat="46.84496" lon="-2.09558">
        <ele>1.2</ele>
        <time>2018-03-16T12:14:10Z</time>
      </trkpt>
      <trkpt lat="46.84485" lon="-2.09562">
        <ele>1.6</ele>
        <time>2018-03-16T12:15:10Z</time>
      </trkpt>
      <trkpt lat="46.8447" lon="-2.09568">
        <ele>2</ele>
        <time>2018-03-16T12:16:10Z</time>
      </trkpt>
      <trkpt lat="46.84468" lon="-2.09569">
        <ele>2</ele>
        <time>2018-03-16T12:17:10Z</time>
      </trkpt>
      <trkpt lat="46.84437" lon="-2.09577">
        <ele>1.9</ele>
        <time>2018-03-16T12:18:10Z</time>
      </trkpt>
      <trkpt lat="46.84425" lon="-2.0958">
        <ele>1.9</ele>
        <time>2018-03-16T12:19:10Z</time>
      </trkpt>
      <trkpt lat="46.84412" lon="-2.09581">
        <ele>1.9</ele>
        <time>2018-03-16T12:20:10Z</time>
      </trkpt>
      <trkpt lat="46.84408" lon="-2.09582">
        <ele>2</ele>
        <time>2018-03-16T12:21:10Z</time>
      </trkpt>
      <trkpt lat="46.84404" lon="-2.09582">
        <ele>2</ele>
        <time>2018-03-16T12:22:10Z</time>
      </trkpt>
      <trkpt lat="46.8438" lon="-2.09584">
        <ele>2</ele>
        <time>2018-03-16T12:23:10Z</time>
      </trkpt>
      <trkpt lat="46.84352" lon="-2.09589">
        <ele>1.7</ele>
        <time>2018-03-16T12:24:10Z</time>
      </trkpt>
      <trkpt lat="46.84324" lon="-2.09591">
        <ele>1.5</ele>
        <time>2018-03-16T12:25:10Z</time>
      </trkpt>
      <trkpt lat="46.84286" lon="-2.09595">
        <ele>2</ele>
        <time>2018-03-16T12:26:10Z</time>
      </trkpt>
      <trkpt lat="46.84262" lon="-2.09599">
        <ele>2</ele>
        <time>2018-03-16T12:27:10Z</time>
      </trkpt>
      <trkpt lat="46.84262" lon="-2.09599">
        <ele>2</ele>
        <time>2018-03-16T12:28:10Z</time>
      </trkpt>
      <trkpt lat="46.84235" lon="-2.09602">
        <ele>1.5</ele>
        <time>2018-03-16T12:29:10Z</time>
      </trkpt>
      <trkpt lat="46.84207" lon="-2.0961">
        <ele>1</ele>
        <time>2018-03-16T12:30:10Z</time>
      </trkpt>
      <trkpt lat="46.84179" lon="-2.0962">
        <ele>1</ele>
        <time>2018-03-16T12:31:10Z</time>
      </trkpt>
      <trkpt lat="46.84171" lon="-2.09624">
        <ele>1</ele>
        <time>2018-03-16T12:32:10Z</time>
      </trkpt>
      <trkpt lat="46.84147" lon="-2.09635">
        <ele>1</ele>
        <time>2018-03-16T12:33:10Z</time>
      </trkpt>
      <trkpt lat="46.84131" lon="-2.09642">
        <ele>1</ele>
        <time>2018-03-16T12:34:10Z</time>
      </trkpt>
      <trkpt lat="46.84117" lon="-2.09651">
        <ele>1.4</ele>
        <time>2018-03-16T12:35:10Z</time>
      </trkpt>
      <trkpt lat="46.84109" lon="-2.09659">
        <ele>1.7</ele>
        <time>2018-03-16T12:36:10Z</time>
      </trkpt>
      <trkpt lat="46.841" lon="-2.09675">
        <ele>1.7</ele>
        <time>2018-03-16T12:37:10Z</time>
      </trkpt>
      <trkpt lat="46.84093" lon="-2.09689">
        <ele>1.9</ele>
        <time>2018-03-16T12:38:10Z</time>
      </trkpt>
      <trkpt lat="46.84093" lon="-2.09689">
        <ele>1.9</ele>
        <time>2018-03-16T12:39:10Z</time>
      </trkpt>
      <trkpt lat="46.84091" lon="-2.09692">
        <ele>1.9</ele>
        <time>2018-03-16T12:40:10Z</time>
      </trkpt>
      <trkpt lat="46.84083" lon="-2.09702">
        <ele>1.7</ele>
        <time>2018-03-16T12:41:10Z</time>
      </trkpt>
      <trkpt lat="46.84067" lon="-2.09715">
        <ele>1.7</ele>
        <time>2018-03-16T12:42:10Z</time>
      </trkpt>
      <trkpt lat="46.84047" lon="-2.09727">
        <ele>2</ele>
        <time>2018-03-16T12:43:10Z</time>
      </trkpt>
      <trkpt lat="46.84021" lon="-2.09743">
        <ele>2</ele>
        <time>2018-03-16T12:44:10Z</time>
      </trkpt>
      <trkpt lat="46.83999" lon="-2.09757">
        <ele>2</ele>
        <time>2018-03-16T12:45:10Z</time>
      </trkpt>
      <trkpt lat="46.83979" lon="-2.0977">
        <ele>1.8</ele>
        <time>2018-03-16T12:46:10Z</time>
      </trkpt>
      <trkpt lat="46.83964" lon="-2.09781">
        <ele>1</ele>
        <time>2018-03-16T12:47:10Z</time>
      </trkpt>
      <trkpt lat="46.83951" lon="-2.09794">
        <ele>1</ele>
        <time>2018-03-16T12:48:10Z</time>
      </trkpt>
      <trkpt lat="46.83941" lon="-2.09806">
        <ele>1</ele>
        <time>2018-03-16T12:49:10Z</time>
      </trkpt>
      <trkpt lat="46.8393" lon="-2.09814">
        <ele>1</ele>
        <time>2018-03-16T12:50:10Z</time>
      </trkpt>
      <trkpt lat="46.83919" lon="-2.09821">
        <ele>2</ele>
        <time>2018-03-16T12:51:10Z</time>
      </trkpt>
      <trkpt lat="46.83903" lon="-2.09827">
        <ele>2</ele>
        <time>2018-03-16T12:52:10Z</time>
      </trkpt>
      <trkpt lat="46.83891" lon="-2.09831">
        <ele>2</ele>
        <time>2018-03-16T12:53:10Z</time>
      </trkpt>
      <trkpt lat="46.83875" lon="-2.0984">
        <ele>2</ele>
        <time>2018-03-16T12:54:10Z</time>
      </trkpt>
      <trkpt lat="46.83859" lon="-2.09849">
        <ele>3</ele>
        <time>2018-03-16T12:55:10Z</time>
      </trkpt>
      <trkpt lat="46.83846" lon="-2.09855">
        <ele>3</ele>
        <time>2018-03-16T12:56:10Z</time>
      </trkpt>
      <trkpt lat="46.83826" lon="-2.09864">
        <ele>4</ele>
        <time>2018-03-16T12:57:10Z</time>
      </trkpt>
      <trkpt lat="46.83803" lon="-2.09877">
        <ele>4</ele>
        <time>2018-03-16T12:58:10Z</time>
      </trkpt>
      <trkpt lat="46.83789" lon="-2.09887">
        <ele>4</ele>
        <time>2018-03-16T12:59:10Z</time>
      </trkpt>
      <trkpt lat="46.83784" lon="-2.09892">
        <ele>4</ele>
        <time>2018-03-16T13:00:10Z</time>
      </trkpt>
      <trkpt lat="46.83779" lon="-2.09897">
        <ele>3</ele>
        <time>2018-03-16T13:01:10Z</time>
      </trkpt>
      <trkpt lat="46.83773" lon="-2.09903">
        <ele>3</ele>
        <time>2018-03-16T13:02:10Z</time>
      </trkpt>
      <trkpt lat="46.83761" lon="-2.09927">
        <ele>3</ele>
        <time>2018-03-16T13:03:10Z</time>
      </trkpt>
      <trkpt lat="46.83751" lon="-2.0996">
        <ele>2</ele>
        <time>2018-03-16T13:04:10Z</time>
      </trkpt>
      <trkpt lat="46.83751" lon="-2.0996">
        <ele>2</ele>
        <time>2018-03-16T13:05:10Z</time>
      </trkpt>
      <trkpt lat="46.83746" lon="-2.09952">
        <ele>2</ele>
        <time>2018-03-16T13:06:10Z</time>
      </trkpt>
      <trkpt lat="46.83742" lon="-2.09945">
        <ele>2</ele>
        <time>2018-03-16T13:07:10Z</time>
      </trkpt>
      <trkpt lat="46.83739" lon="-2.09942">
        <ele>2</ele>
        <time>2018-03-16T13:08:10Z</time>
      </trkpt>
      <trkpt lat="46.83715" lon="-2.09931">
        <ele>1</ele>
        <time>2018-03-16T13:09:10Z</time>
      </trkpt>
      <trkpt lat="46.83708" lon="-2.09928">
        <ele>1</ele>
        <time>2018-03-16T13:10:10Z</time>
      </trkpt>
      <trkpt lat="46.83703" lon="-2.09925">
        <ele>1</ele>
        <time>2018-03-16T13:11:10Z</time>
      </trkpt>
      <trkpt lat="46.83701" lon="-2.09924">
        <ele>1</ele>
        <time>2018-03-16T13:12:10Z</time>
      </trkpt>
      <trkpt lat="46.83701" lon="-2.09924">
        <ele>1</ele>
        <time>2018-03-16T13:13:10Z</time>
      </trkpt>
      <trkpt lat="46.83688" lon="-2.09937">
        <ele>1</ele>
        <time>2018-03-16T13:14:10Z</time>
      </trkpt>
      <trkpt lat="46.83677" lon="-2.09954">
        <ele>1</ele>
        <time>2018-03-16T13:15:10Z</time>
      </trkpt>
      <trkpt lat="46.83649" lon="-2.09991">
        <ele>1</ele>
        <time>2018-03-16T13:16:10Z</time>
      </trkpt>
      <trkpt lat="46.83649" lon="-2.09991">
        <ele>1</ele>
        <time>2018-03-16T13:17:10Z</time>
      </trkpt>
      <trkpt lat="46.83626" lon="-2.10021">
        <ele>1</ele>
        <time>2018-03-16T13:18:10Z</time>
      </trkpt>
      <trkpt lat="46.83603" lon="-2.10045">
        <ele>1</ele>
        <time>2018-03-16T13:19:10Z</time>
      </trkpt>
      <trkpt lat="46.83588" lon="-2.10059">
        <ele>1.9</ele>
        <time>2018-03-16T13:20:10Z</time>
      </trkpt>
      <trkpt lat="46.83576" lon="-2.10071">
        <ele>1.6</ele>
        <time>2018-03-16T13:21:10Z</time>
      </trkpt>
      <trkpt lat="46.83545" lon="-2.10099">
        <ele>2</ele>
        <time>2018-03-16T13:22:10Z</time>
      </trkpt>
      <trkpt lat="46.83516" lon="-2.10126">
        <ele>1.8</ele>
        <time>2018-03-16T13:23:10Z</time>
      </trkpt>
      <trkpt lat="46.83503" lon="-2.10137">
        <ele>1</ele>
        <time>2018-03-16T13:24:10Z</time>
      </trkpt>
      <trkpt lat="46.8348" lon="-2.10159">
        <ele>1</ele>
        <time>2018-03-16T13:25:10Z</time>
      </trkpt>
      <trkpt lat="46.83467" lon="-2.10172">
        <ele>1</ele>
        <time>2018-03-16T13:26:10Z</time>
      </trkpt>
      <trkpt lat="46.83434" lon="-2.10206">
        <ele>1</ele>
        <time>2018-03-16T13:27:10Z</time>
      </trkpt>
      <trkpt lat="46.83414" lon="-2.10225">
        <ele>1</ele>
        <time>2018-03-16T13:28:10Z</time>
      </trkpt>
      <trkpt lat="46.83408" lon="-2.10233">
        <ele>1</ele>
        <time>2018-03-16T13:29:10Z</time>
      </trkpt>
      <trkpt lat="46.8339" lon="-2.10244">
        <ele>1</ele>
        <time>2018-03-16T13:30:10Z</time>
      </trkpt>
      <trkpt lat="46.83379" lon="-2.10252">
        <ele>1</ele>
        <time>2018-03-16T13:31:10Z</time>
      </trkpt>
      <trkpt lat="46.83342" lon="-2.10273">
        <ele>2</ele>
        <time>2018-03-16T13:32:10Z</time>
      </trkpt>
      <trkpt lat="46.83283" lon="-2.10318">
        <ele>1</ele>
        <time>2018-03-16T13:33:10Z</time>
      </trkpt>
      <trkpt lat="46.83238" lon="-2.10358">
        <ele>1</ele>
        <time>2018-03-16T13:34:10Z</time>
      </trkpt>
      <trkpt lat="46.83224" lon="-2.10371">
        <ele>1</ele>
        <time>2018-03-16T13:35:10Z</time>
      </trkpt>
      <trkpt lat="46.83195" lon="-2.10398">
        <ele>2</ele>
        <time>2018-03-16T13:36:10Z</time>
      </trkpt>
      <trkpt lat="46.83157" lon="-2.10432">
        <ele>2</ele>
        <time>2018-03-16T13:37:10Z</time>
      </trkpt>
      <trkpt lat="46.83124" lon="-2.10459">
        <ele>1</ele>
        <time>2018-03-16T13:38:10Z</time>
      </trkpt>
      <trkpt lat="46.83115" lon="-2.10465">
        <ele>1</ele>
        <time>2018-03-16T13:39:10Z</time>
      </trkpt>
      <trkpt lat="46.83107" lon="-2.1047">
        <ele>1</ele>
        <time>2018-03-16T13:40:10Z</time>
      </trkpt>
      <trkpt lat="46.83096" lon="-2.10477">
        <ele>1</ele>
        <time>2018-03-16T13:41:10Z</time>
      </trkpt>
      <trkpt lat="46.83076" lon="-2.10485">
        <ele>1</ele>
        <time>2018-03-16T13:42:10Z</time>
      </trkpt>
      <trkpt lat="46.83061" lon="-2.10489">
        <ele>1</ele>
        <time>2018-03-16T13:43:10Z</time>
      </trkpt>
      <trkpt lat="46.83051" lon="-2.10492">
        <ele>1</ele>
        <time>2018-03-16T13:44:10Z</time>
      </trkpt>
      <trkpt lat="46.83044" lon="-2.10496">
        <ele>1</ele>
        <time>2018-03-16T13:45:10Z</time>
      </trkpt>
      <trkpt lat="46.83038" lon="-2.10498">
        <ele>2</ele>
        <time>2018-03-16T13:46:10Z</time>
      </trkpt>
      <trkpt lat="46.83023" lon="-2.10507">
        <ele>2</ele>
        <time>2018-03-16T13:47:10Z</time>
      </trkpt>
      <trkpt lat="46.83002" lon="-2.1052">
        <ele>2</ele>
        <time>2018-03-16T13:48:10Z</time>
      </trkpt>
      <trkpt lat="46.83001" lon="-2.1052">
        <ele>2</ele>
        <time>2018-03-16T13:49:10Z</time>
      </trkpt>
      <trkpt lat="46.82994" lon="-2.10526">
        <ele>2</ele>
        <time>2018-03-16T13:50:10Z</time>
      </trkpt>
      <trkpt lat="46.82984" lon="-2.10534">
        <ele>2</ele>
        <time>2018-03-16T13:51:10Z</time>
      </trkpt>
      <trkpt lat="46.82968" lon="-2.10551">
        <ele>1</ele>
        <time>2018-03-16T13:52:10Z</time>
      </trkpt>
      <trkpt lat="46.82953" lon="-2.10572">
        <ele>1</ele>
        <time>2018-03-16T13:53:10Z</time>
      </trkpt>
      <trkpt lat="46.82945" lon="-2.10585">
        <ele>1.9</ele>
        <time>2018-03-16T13:54:10Z</time>
      </trkpt>
      <trkpt lat="46.82937" lon="-2.10592">
        <ele>1.8</ele>
        <time>2018-03-16T13:55:10Z</time>
      </trkpt>
      <trkpt lat="46.8292" lon="-2.10601">
        <ele>1.9</ele>
        <time>2018-03-16T13:56:10Z</time>
      </trkpt>
      <trkpt lat="46.82906" lon="-2.10604">
        <ele>1.9</ele>
        <time>2018-03-16T13:57:10Z</time>
      </trkpt>
      <trkpt lat="46.8289" lon="-2.10605">
        <ele>1.8</ele>
        <time>2018-03-16T13:58:10Z</time>
      </trkpt>
      <trkpt lat="46.82873" lon="-2.10602">
        <ele>1.9</ele>
        <time>2018-03-16T13:59:10Z</time>
      </trkpt>
      <trkpt lat="46.82862" lon="-2.10597">
        <ele>2</ele>
        <time>2018-03-16T14:00:10Z</time>
      </trkpt>
      <trkpt lat="46.82851" lon="-2.10592">
        <ele>2</ele>
        <time>2018-03-16T14:01:10Z</time>
      </trkpt>
      <trkpt lat="46.8284" lon="-2.1059">
        <ele>2</ele>
        <time>2018-03-16T14:02:10Z</time>
      </trkpt>
      <trkpt lat="46.82831" lon="-2.1059">
        <ele>2</ele>
        <time>2018-03-16T14:03:10Z</time>
      </trkpt>
      <trkpt lat="46.82824" lon="-2.10592">
        <ele>2</ele>
        <time>2018-03-16T14:04:10Z</time>
      </trkpt>
      <trkpt lat="46.8282" lon="-2.10596">
        <ele>2</ele>
        <time>2018-03-16T14:05:10Z</time>
      </trkpt>
      <trkpt lat="46.82803" lon="-2.10612">
        <ele>2</ele>
        <time>2018-03-16T14:06:10Z</time>
      </trkpt>
      <trkpt lat="46.8278" lon="-2.10637">
        <ele>2</ele>
        <time>2018-03-16T14:07:10Z</time>
      </trkpt>
      <trkpt lat="46.8275" lon="-2.1067">
        <ele>2</ele>
        <time>2018-03-16T14:08:10Z</time>
      </trkpt>
      <trkpt lat="46.82722" lon="-2.10701">
        <ele>2</ele>
        <time>2018-03-16T14:09:10Z</time>
      </trkpt>
      <trkpt lat="46.82699" lon="-2.10728">
        <ele>1.8</ele>
        <time>2018-03-16T14:10:10Z</time>
      </trkpt>
      <trkpt lat="46.82685" lon="-2.10742">
        <ele>1.5</ele>
        <time>2018-03-16T14:11:10Z</time>
      </trkpt>
      <trkpt lat="46.82679" lon="-2.10748">
        <ele>1.6</ele>
        <time>2018-03-16T14:12:10Z</time>
      </trkpt>
      <trkpt lat="46.82673" lon="-2.10749">
        <ele>1.8</ele>
        <time>2018-03-16T14:13:10Z</time>
      </trkpt>
      <trkpt lat="46.8267" lon="-2.1075">
        <ele>1.9</ele>
        <time>2018-03-16T14:14:10Z</time>
      </trkpt>
      <trkpt lat="46.82655" lon="-2.10749">
        <ele>2</ele>
        <time>2018-03-16T14:15:10Z</time>
      </trkpt>
      <trkpt lat="46.8264" lon="-2.1075">
        <ele>2</ele>
        <time>2018-03-16T14:16:10Z</time>
      </trkpt>
      <trkpt lat="46.82627" lon="-2.10753">
        <ele>2</ele>
        <time>2018-03-16T14:17:10Z</time>
      </trkpt>
      <trkpt lat="46.8262" lon="-2.10756">
        <ele>1</ele>
        <time>2018-03-16T14:18:10Z</time>
      </trkpt>
      <trkpt lat="46.82616" lon="-2.1076">
        <ele>1</ele>
        <time>2018-03-16T14:19:10Z</time>
      </trkpt>
      <trkpt lat="46.82611" lon="-2.10765">
        <ele>1</ele>
        <time>2018-03-16T14:20:10Z</time>
      </trkpt>
      <trkpt lat="46.826" lon="-2.10781">
        <ele>1</ele>
        <time>2018-03-16T14:21:10Z</time>
      </trkpt>
      <trkpt lat="46.82589" lon="-2.10799">
        <ele>1</ele>
        <time>2018-03-16T14:22:10Z</time>
      </trkpt>
      <trkpt lat="46.82576" lon="-2.10814">
        <ele>1</ele>
        <time>2018-03-16T14:23:10Z</time>
      </trkpt>
      <trkpt lat="46.82558" lon="-2.10828">
        <ele>1</ele>
        <time>2018-03-16T14:24:10Z</time>
      </trkpt>
      <trkpt lat="46.82545" lon="-2.10832">
        <ele>1</ele>
        <time>2018-03-16T14:25:10Z</time>
      </trkpt>
      <trkpt lat="46.82532" lon="-2.10833">
        <ele>1</ele>
        <time>2018-03-16T14:26:10Z</time>
      </trkpt>
      <trkpt lat="46.82519" lon="-2.1083">
        <ele>1</ele>
        <time>2018-03-16T14:27:10Z</time>
      </trkpt>
      <trkpt lat="46.8251" lon="-2.10826">
        <ele>1</ele>
        <time>2018-03-16T14:28:10Z</time>
      </trkpt>
      <trkpt lat="46.82502" lon="-2.10823">
        <ele>1</ele>
        <time>2018-03-16T14:29:10Z</time>
      </trkpt>
      <trkpt lat="46.82495" lon="-2.10824">
        <ele>1</ele>
        <time>2018-03-16T14:30:10Z</time>
      </trkpt>
      <trkpt lat="46.82488" lon="-2.10827">
        <ele>1</ele>
        <time>2018-03-16T14:31:10Z</time>
      </trkpt>
      <trkpt lat="46.82477" lon="-2.10837">
        <ele>1</ele>
        <time>2018-03-16T14:32:10Z</time>
      </trkpt>
      <trkpt lat="46.82466" lon="-2.10848">
        <ele>1</ele>
        <time>2018-03-16T14:33:10Z</time>
      </trkpt>
      <trkpt lat="46.8245" lon="-2.10858">
        <ele>1</ele>
        <time>2018-03-16T14:34:10Z</time>
      </trkpt>
      <trkpt lat="46.8242" lon="-2.10869">
        <ele>1</ele>
        <time>2018-03-16T14:35:10Z</time>
      </trkpt>
      <trkpt lat="46.82388" lon="-2.1088">
        <ele>2</ele>
        <time>2018-03-16T14:36:10Z</time>
      </trkpt>
      <trkpt lat="46.82363" lon="-2.10889">
        <ele>2</ele>
        <time>2018-03-16T14:37:10Z</time>
      </trkpt>
      <trkpt lat="46.82339" lon="-2.10897">
        <ele>1.4</ele>
        <time>2018-03-16T14:38:10Z</time>
      </trkpt>
      <trkpt lat="46.82319" lon="-2.10905">
        <ele>1.8</ele>
        <time>2018-03-16T14:39:10Z</time>
      </trkpt>
      <trkpt lat="46.82301" lon="-2.10912">
        <ele>1.9</ele>
        <time>2018-03-16T14:40:10Z</time>
      </trkpt>
      <trkpt lat="46.82285" lon="-2.10922">
        <ele>1.3</ele>
        <time>2018-03-16T14:41:10Z</time>
      </trkpt>
      <trkpt lat="46.82269" lon="-2.10934">
        <ele>1.3</ele>
        <time>2018-03-16T14:42:10Z</time>
      </trkpt>
      <trkpt lat="46.82259" lon="-2.10943">
        <ele>1.7</ele>
        <time>2018-03-16T14:43:10Z</time>
      </trkpt>
      <trkpt lat="46.82248" lon="-2.10953">
        <ele>1.7</ele>
        <time>2018-03-16T14:44:10Z</time>
      </trkpt>
      <trkpt lat="46.82239" lon="-2.10965">
        <ele>1</ele>
        <time>2018-03-16T14:45:10Z</time>
      </trkpt>
      <trkpt lat="46.82231" lon="-2.10978">
        <ele>1</ele>
        <time>2018-03-16T14:46:10Z</time>
      </trkpt>
      <trkpt lat="46.82225" lon="-2.10987">
        <ele>1</ele>
        <time>2018-03-16T14:47:10Z</time>
      </trkpt>
      <trkpt lat="46.82219" lon="-2.10992">
        <ele>1</ele>
        <time>2018-03-16T14:48:10Z</time>
      </trkpt>
      <trkpt lat="46.82209" lon="-2.10999">
        <ele>1</ele>
        <time>2018-03-16T14:49:10Z</time>
      </trkpt>
      <trkpt lat="46.82196" lon="-2.11001">
        <ele>1</ele>
        <time>2018-03-16T14:50:10Z</time>
      </trkpt>
      <trkpt lat="46.8218" lon="-2.11001">
        <ele>1</ele>
        <time>2018-03-16T14:51:10Z</time>
      </trkpt>
      <trkpt lat="46.82165" lon="-2.11001">
        <ele>1</ele>
        <time>2018-03-16T14:52:10Z</time>
      </trkpt>
      <trkpt lat="46.82152" lon="-2.11003">
        <ele>1</ele>
        <time>2018-03-16T14:53:10Z</time>
      </trkpt>
      <trkpt lat="46.82146" lon="-2.11005">
        <ele>1</ele>
        <time>2018-03-16T14:54:10Z</time>
      </trkpt>
      <trkpt lat="46.82142" lon="-2.11006">
        <ele>1</ele>
        <time>2018-03-16T14:55:10Z</time>
      </trkpt>
      <trkpt lat="46.82133" lon="-2.1101">
        <ele>1</ele>
        <time>2018-03-16T14:56:10Z</time>
      </trkpt>
      <trkpt lat="46.8213" lon="-2.11014">
        <ele>1</ele>
        <time>2018-03-16T14:57:10Z</time>
      </trkpt>
      <trkpt lat="46.82122" lon="-2.11023">
        <ele>1</ele>
        <time>2018-03-16T14:58:10Z</time>
      </trkpt>
      <trkpt lat="46.82116" lon="-2.11033">
        <ele>1</ele>
        <time>2018-03-16T14:59:10Z</time>
      </trkpt>
      <trkpt lat="46.82115" lon="-2.11036">
        <ele>1</ele>
        <time>2018-03-16T15:00:10Z</time>
      </trkpt>
      <trkpt lat="46.82107" lon="-2.1105">
        <ele>1</ele>
        <time>2018-03-16T15:01:10Z</time>
      </trkpt>
      <trkpt lat="46.82099" lon="-2.11061">
        <ele>1</ele>
        <time>2018-03-16T15:02:10Z</time>
      </trkpt>
      <trkpt lat="46.82091" lon="-2.1107">
        <ele>1</ele>
        <time>2018-03-16T15:03:10Z</time>
      </trkpt>
      <trkpt lat="46.8209" lon="-2.11072">
        <ele>1</ele>
        <time>2018-03-16T15:04:10Z</time>
      </trkpt>
      <trkpt lat="46.82084" lon="-2.11075">
        <ele>1</ele>
        <time>2018-03-16T15:05:10Z</time>
      </trkpt>
      <trkpt lat="46.82079" lon="-2.11079">
        <ele>1</ele>
        <time>2018-03-16T15:06:10Z</time>
      </trkpt>
      <trkpt lat="46.8207" lon="-2.11082">
        <ele>1</ele>
        <time>2018-03-16T15:07:10Z</time>
      </trkpt>
      <trkpt lat="46.82056" lon="-2.11084">
        <ele>1</ele>
        <time>2018-03-16T15:08:10Z</time>
      </trkpt>
      <trkpt lat="46.82056" lon="-2.11084">
        <ele>1</ele>
        <time>2018-03-16T15:09:10Z</time>
      </trkpt>
      <trkpt lat="46.8204" lon="-2.11088">
        <ele>1</ele>
        <time>2018-03-16T15:10:10Z</time>
      </trkpt>
      <trkpt lat="46.82015" lon="-2.11099">
        <ele>1.8</ele>
        <time>2018-03-16T15:11:10Z</time>
      </trkpt>
      <trkpt lat="46.81995" lon="-2.11112">
        <ele>2</ele>
        <time>2018-03-16T15:12:10Z</time>
      </trkpt>
      <trkpt lat="46.81972" lon="-2.11126">
        <ele>2</ele>
        <time>2018-03-16T15:13:10Z</time>
      </trkpt>
      <trkpt lat="46.81955" lon="-2.11137">
        <ele>1</ele>
        <time>2018-03-16T15:14:10Z</time>
      </trkpt>
      <trkpt lat="46.81941" lon="-2.1115">
        <ele>1</ele>
        <time>2018-03-16T15:15:10Z</time>
      </trkpt>
      <trkpt lat="46.81931" lon="-2.11168">
        <ele>1</ele>
        <time>2018-03-16T15:16:10Z</time>
      </trkpt>
      <trkpt lat="46.81923" lon="-2.11188">
        <ele>1</ele>
        <time>2018-03-16T15:17:10Z</time>
      </trkpt>
      <trkpt lat="46.81916" lon="-2.11203">
        <ele>1</ele>
        <time>2018-03-16T15:18:10Z</time>
      </trkpt>
      <trkpt lat="46.81908" lon="-2.11218">
        <ele>1</ele>
        <time>2018-03-16T15:19:10Z</time>
      </trkpt>
      <trkpt lat="46.81899" lon="-2.11231">
        <ele>1</ele>
        <time>2018-03-16T15:20:10Z</time>
      </trkpt>
      <trkpt lat="46.81889" lon="-2.11238">
        <ele>1</ele>
        <time>2018-03-16T15:21:10Z</time>
      </trkpt>
      <trkpt lat="46.81882" lon="-2.11242">
        <ele>1</ele>
        <time>2018-03-16T15:22:10Z</time>
      </trkpt>
      <trkpt lat="46.81865" lon="-2.11247">
        <ele>1</ele>
        <time>2018-03-16T15:23:10Z</time>
      </trkpt>
      <trkpt lat="46.81854" lon="-2.1125">
        <ele>1</ele>
        <time>2018-03-16T15:24:10Z</time>
      </trkpt>
      <trkpt lat="46.81847" lon="-2.11252">
        <ele>1</ele>
        <time>2018-03-16T15:25:10Z</time>
      </trkpt>
      <trkpt lat="46.81823" lon="-2.11261">
        <ele>1</ele>
        <time>2018-03-16T15:26:10Z</time>
      </trkpt>
      <trkpt lat="46.81815" lon="-2.11264">
        <ele>1</ele>
        <time>2018-03-16T15:27:10Z</time>
      </trkpt>
      <trkpt lat="46.81806" lon="-2.11266">
        <ele>1</ele>
        <time>2018-03-16T15:28:10Z</time>
      </trkpt>
      <trkpt lat="46.81791" lon="-2.11268">
        <ele>1</ele>
        <time>2018-03-16T15:29:10Z</time>
      </trkpt>
      <trkpt lat="46.81791" lon="-2.11268">
        <ele>1</ele>
        <time>2018-03-16T15:30:10Z</time>
      </trkpt>
      <trkpt lat="46.81787" lon="-2.11254">
        <ele>1</ele>
        <time>2018-03-16T15:31:10Z</time>
      </trkpt>
      <trkpt lat="46.81783" lon="-2.11249">
        <ele>1</ele>
        <time>2018-03-16T15:32:10Z</time>
      </trkpt>
      <trkpt lat="46.81775" lon="-2.11235">
        <ele>1</ele>
        <time>2018-03-16T15:33:10Z</time>
      </trkpt>
      <trkpt lat="46.81761" lon="-2.11222">
        <ele>1</ele>
        <time>2018-03-16T15:34:10Z</time>
      </trkpt>
      <trkpt lat="46.8175" lon="-2.11214">
        <ele>1</ele>
        <time>2018-03-16T15:35:10Z</time>
      </trkpt>
      <trkpt lat="46.81743" lon="-2.11209">
        <ele>1</ele>
        <time>2018-03-16T15:36:10Z</time>
      </trkpt>
      <trkpt lat="46.81743" lon="-2.11209">
        <ele>1</ele>
        <time>2018-03-16T15:37:10Z</time>
      </trkpt>
      <trkpt lat="46.81741" lon="-2.11189">
        <ele>2</ele>
        <time>2018-03-16T15:38:10Z</time>
      </trkpt>
      <trkpt lat="46.8174" lon="-2.1118">
        <ele>2</ele>
        <time>2018-03-16T15:39:10Z</time>
      </trkpt>
      <trkpt lat="46.81738" lon="-2.11173">
        <ele>2</ele>
        <time>2018-03-16T15:40:10Z</time>
      </trkpt>
      <trkpt lat="46.81737" lon="-2.11166">
        <ele>2</ele>
        <time>2018-03-16T15:41:10Z</time>
      </trkpt>
      <trkpt lat="46.81735" lon="-2.1116">
        <ele>2</ele>
        <time>2018-03-16T15:42:10Z</time>
      </trkpt>
      <trkpt lat="46.81731" lon="-2.1115">
        <ele>1</ele>
        <time>2018-03-16T15:43:10Z</time>
      </trkpt>
      <trkpt lat="46.81724" lon="-2.11139">
        <ele>1</ele>
        <time>2018-03-16T15:44:10Z</time>
      </trkpt>
      <trkpt lat="46.81712" lon="-2.11121">
        <ele>1</ele>
        <time>2018-03-16T15:45:10Z</time>
      </trkpt>
      <trkpt lat="46.81703" lon="-2.11109">
        <ele>1</ele>
        <time>2018-03-16T15:46:10Z</time>
      </trkpt>
      <trkpt lat="46.81686" lon="-2.11093">
        <ele>1.8</ele>
        <time>2018-03-16T15:47:10Z</time>
      </trkpt>
      <trkpt lat="46.81676" lon="-2.11076">
        <ele>1.4</ele>
        <time>2018-03-16T15:48:10Z</time>
      </trkpt>
      <trkpt lat="46.81664" lon="-2.11054">
        <ele>1.9</ele>
        <time>2018-03-16T15:49:10Z</time>
      </trkpt>
      <trkpt lat="46.81652" lon="-2.11032">
        <ele>1</ele>
        <time>2018-03-16T15:50:10Z</time>
      </trkpt>
      <trkpt lat="46.81643" lon="-2.11017">
        <ele>1</ele>
        <time>2018-03-16T15:51:10Z</time>
      </trkpt>
      <trkpt lat="46.8163" lon="-2.10997">
        <ele>1</ele>
        <time>2018-03-16T15:52:10Z</time>
      </trkpt>
      <trkpt lat="46.81623" lon="-2.10984">
        <ele>1</ele>
        <time>2018-03-16T15:53:10Z</time>
      </trkpt>
      <trkpt lat="46.81612" lon="-2.10962">
        <ele>1</ele>
        <time>2018-03-16T15:54:10Z</time>
      </trkpt>
      <trkpt lat="46.81601" lon="-2.10939">
        <ele>2</ele>
        <time>2018-03-16T15:55:10Z</time>
      </trkpt>
      <trkpt lat="46.81591" lon="-2.10913">
        <ele>2</ele>
        <time>2018-03-16T15:56:10Z</time>
      </trkpt>
      <trkpt lat="46.81581" lon="-2.10893">
        <ele>1.9</ele>
        <time>2018-03-16T15:57:10Z</time>
      </trkpt>
      <trkpt lat="46.8157" lon="-2.10878">
        <ele>1.5</ele>
        <time>2018-03-16T15:58:10Z</time>
      </trkpt>
      <trkpt lat="46.81556" lon="-2.10867">
        <ele>1.8</ele>
        <time>2018-03-16T15:59:10Z</time>
      </trkpt>
      <trkpt lat="46.8154" lon="-2.10858">
        <ele>2</ele>
        <time>2018-03-16T16:00:10Z</time>
      </trkpt>
      <trkpt lat="46.81526" lon="-2.10852">
        <ele>2</ele>
        <time>2018-03-16T16:01:10Z</time>
      </trkpt>
      <trkpt lat="46.81509" lon="-2.10843">
        <ele>2</ele>
        <time>2018-03-16T16:02:10Z</time>
      </trkpt>
      <trkpt lat="46.81495" lon="-2.10831">
        <ele>2</ele>
        <time>2018-03-16T16:03:10Z</time>
      </trkpt>
      <trkpt lat="46.81482" lon="-2.10816">
        <ele>2</ele>
        <time>2018-03-16T16:04:10Z</time>
      </trkpt>
      <trkpt lat="46.81473" lon="-2.10802">
        <ele>1.9</ele>
        <time>2018-03-16T16:05:10Z</time>
      </trkpt>
      <trkpt lat="46.81463" lon="-2.10788">
        <ele>1.5</ele>
        <time>2018-03-16T16:06:10Z</time>
      </trkpt>
      <trkpt lat="46.81452" lon="-2.10773">
        <ele>1.7</ele>
        <time>2018-03-16T16:07:10Z</time>
      </trkpt>
      <trkpt lat="46.81437" lon="-2.10757">
        <ele>1</ele>
        <time>2018-03-16T16:08:10Z</time>
      </trkpt>
      <trkpt lat="46.81425" lon="-2.10747">
        <ele>1</ele>
        <time>2018-03-16T16:09:10Z</time>
      </trkpt>
      <trkpt lat="46.81422" lon="-2.10745">
        <ele>1</ele>
        <time>2018-03-16T16:10:10Z</time>
      </trkpt>
      <trkpt lat="46.81404" lon="-2.1073">
        <ele>1</ele>
        <time>2018-03-16T16:11:10Z</time>
      </trkpt>
      <trkpt lat="46.81388" lon="-2.10717">
        <ele>1</ele>
        <time>2018-03-16T16:12:10Z</time>
      </trkpt>
      <trkpt lat="46.81369" lon="-2.10702">
        <ele>2</ele>
        <time>2018-03-16T16:13:10Z</time>
      </trkpt>
      <trkpt lat="46.81358" lon="-2.10694">
        <ele>2</ele>
        <time>2018-03-16T16:14:10Z</time>
      </trkpt>
      <trkpt lat="46.81344" lon="-2.10684">
        <ele>2</ele>
        <time>2018-03-16T16:15:10Z</time>
      </trkpt>
      <trkpt lat="46.81341" lon="-2.10681">
        <ele>2</ele>
        <time>2018-03-16T16:16:10Z</time>
      </trkpt>
      <trkpt lat="46.81321" lon="-2.10667">
        <ele>2</ele>
        <time>2018-03-16T16:17:10Z</time>
      </trkpt>
      <trkpt lat="46.81293" lon="-2.10644">
        <ele>1</ele>
        <time>2018-03-16T16:18:10Z</time>
      </trkpt>
      <trkpt lat="46.8127" lon="-2.10627">
        <ele>1</ele>
        <time>2018-03-16T16:19:10Z</time>
      </trkpt>
      <trkpt lat="46.81247" lon="-2.10609">
        <ele>1</ele>
        <time>2018-03-16T16:20:10Z</time>
      </trkpt>
      <trkpt lat="46.81226" lon="-2.10589">
        <ele>2</ele>
        <time>2018-03-16T16:21:10Z</time>
      </trkpt>
      <trkpt lat="46.81189" lon="-2.10551">
        <ele>2</ele>
        <time>2018-03-16T16:22:10Z</time>
      </trkpt>
      <trkpt lat="46.81171" lon="-2.10527">
        <ele>1</ele>
        <time>2018-03-16T16:23:10Z</time>
      </trkpt>
      <trkpt lat="46.81159" lon="-2.10507">
        <ele>1</ele>
        <time>2018-03-16T16:24:10Z</time>
      </trkpt>
      <trkpt lat="46.81142" lon="-2.10473">
        <ele>1</ele>
        <time>2018-03-16T16:25:10Z</time>
      </trkpt>
      <trkpt lat="46.81114" lon="-2.10421">
        <ele>2</ele>
        <time>2018-03-16T16:26:10Z</time>
      </trkpt>
      <trkpt lat="46.81095" lon="-2.10383">
        <ele>2</ele>
        <time>2018-03-16T16:27:10Z</time>
      </trkpt>
      <trkpt lat="46.81082" lon="-2.10346">
        <ele>2</ele>
        <time>2018-03-16T16:28:10Z</time>
      </trkpt>
      <trkpt lat="46.81071" lon="-2.10311">
        <ele>2</ele>
        <time>2018-03-16T16:29:10Z</time>
      </trkpt>
      <trkpt lat="46.81064" lon="-2.10284">
        <ele>1</ele>
        <time>2018-03-16T16:30:10Z</time>
      </trkpt>
      <trkpt lat="46.81056" lon="-2.10261">
        <ele>1</ele>
        <time>2018-03-16T16:31:10Z</time>
      </trkpt>
      <trkpt lat="46.81048" lon="-2.10241">
        <ele>1</ele>
        <time>2018-03-16T16:32:10Z</time>
      </trkpt>
      <trkpt lat="46.81034" lon="-2.10222">
        <ele>1</ele>
        <time>2018-03-16T16:33:10Z</time>
      </trkpt>
      <trkpt lat="46.81015" lon="-2.10203">
        <ele>1</ele>
        <time>2018-03-16T16:34:10Z</time>
      </trkpt>
      <trkpt lat="46.80999" lon="-2.10184">
        <ele>1</ele>
        <time>2018-03-16T16:35:10Z</time>
      </trkpt>
      <trkpt lat="46.80988" lon="-2.10167">
        <ele>1</ele>
        <time>2018-03-16T16:36:10Z</time>
      </trkpt>
      <trkpt lat="46.80973" lon="-2.10139">
        <ele>1</ele>
        <time>2018-03-16T16:37:10Z</time>
      </trkpt>
      <trkpt lat="46.80947" lon="-2.10089">
        <ele>1</ele>
        <time>2018-03-16T16:38:10Z</time>
      </trkpt>
      <trkpt lat="46.80925" lon="-2.10049">
        <ele>1</ele>
        <time>2018-03-16T16:39:10Z</time>
      </trkpt>
      <trkpt lat="46.80896" lon="-2.09992">
        <ele>2</ele>
        <time>2018-03-16T16:40:10Z</time>
      </trkpt>
      <trkpt lat="46.80885" lon="-2.09965">
        <ele>1</ele>
        <time>2018-03-16T16:41:10Z</time>
      </trkpt>
      <trkpt lat="46.80862" lon="-2.09906">
        <ele>2</ele>
        <time>2018-03-16T16:42:10Z</time>
      </trkpt>
      <trkpt lat="46.80849" lon="-2.09877">
        <ele>1.8</ele>
        <time>2018-03-16T16:43:10Z</time>
      </trkpt>
      <trkpt lat="46.80818" lon="-2.0982">
        <ele>1</ele>
        <time>2018-03-16T16:44:10Z</time>
      </trkpt>
      <trkpt lat="46.80778" lon="-2.0974">
        <ele>2</ele>
        <time>2018-03-16T16:45:10Z</time>
      </trkpt>
      <trkpt lat="46.80743" lon="-2.09668">
        <ele>1</ele>
        <time>2018-03-16T16:46:10Z</time>
      </trkpt>
      <trkpt lat="46.80716" lon="-2.09614">
        <ele>1</ele>
        <time>2018-03-16T16:47:10Z</time>
      </trkpt>
      <trkpt lat="46.80695" lon="-2.09568">
        <ele>1</ele>
        <time>2018-03-16T16:48:10Z</time>
      </trkpt>
      <trkpt lat="46.80693" lon="-2.09565">
        <ele>1</ele>
        <time>2018-03-16T16:49:10Z</time>
      </trkpt>
      <trkpt lat="46.80682" lon="-2.09549">
        <ele>1</ele>
        <time>2018-03-16T16:50:10Z</time>
      </trkpt>
      <trkpt lat="46.8066" lon="-2.09528">
        <ele>2</ele>
        <time>2018-03-16T16:51:10Z</time>
      </trkpt>
      <trkpt lat="46.80634" lon="-2.09501">
        <ele>2</ele>
        <time>2018-03-16T16:52:10Z</time>
      </trkpt>
      <trkpt lat="46.80621" lon="-2.09479">
        <ele>2</ele>
        <time>2018-03-16T16:53:10Z</time>
      </trkpt>
      <trkpt lat="46.806" lon="-2.09444">
        <ele>2</ele>
        <time>2018-03-16T16:54:10Z</time>
      </trkpt>
      <trkpt lat="46.80595" lon="-2.09435">
        <ele>2</ele>
        <time>2018-03-16T16:55:10Z</time>
      </trkpt>
      <trkpt lat="46.80595" lon="-2.09435">
        <ele>2</ele>
        <time>2018-03-16T16:56:10Z</time>
      </trkpt>
      <trkpt lat="46.80588" lon="-2.09438">
        <ele>2</ele>
        <time>2018-03-16T16:57:10Z</time>
      </trkpt>
      <trkpt lat="46.80588" lon="-2.09438">
        <ele>2</ele>
        <time>2018-03-16T16:58:10Z</time>
      </trkpt>
      <trkpt lat="46.80554" lon="-2.09372">
        <ele>2</ele>
        <time>2018-03-16T16:59:10Z</time>
      </trkpt>
      <trkpt lat="46.80519" lon="-2.09297">
        <ele>2</ele>
        <time>2018-03-16T17:00:10Z</time>
      </trkpt>
      <trkpt lat="46.80475" lon="-2.09205">
        <ele>2</ele>
        <time>2018-03-16T17:01:10Z</time>
      </trkpt>
      <trkpt lat="46.80448" lon="-2.09144">
        <ele>2</ele>
        <time>2018-03-16T17:02:10Z</time>
      </trkpt>
      <trkpt lat="46.80423" lon="-2.09072">
        <ele>2</ele>
        <time>2018-03-16T17:03:10Z</time>
      </trkpt>
      <trkpt lat="46.80408" lon="-2.09028">
        <ele>2</ele>
        <time>2018-03-16T17:04:10Z</time>
      </trkpt>
      <trkpt lat="46.80396" lon="-2.08988">
        <ele>2</ele>
        <time>2018-03-16T17:05:10Z</time>
      </trkpt>
      <trkpt lat="46.80393" lon="-2.08976">
        <ele>2</ele>
        <time>2018-03-16T17:06:10Z</time>
      </trkpt>
      <trkpt lat="46.80391" lon="-2.08958">
        <ele>3</ele>
        <time>2018-03-16T17:07:10Z</time>
      </trkpt>
      <trkpt lat="46.80389" lon="-2.08934">
        <ele>3</ele>
        <time>2018-03-16T17:08:10Z</time>
      </trkpt>
      <trkpt lat="46.80387" lon="-2.08918">
        <ele>3</ele>
        <time>2018-03-16T17:09:10Z</time>
      </trkpt>
      <trkpt lat="46.80386" lon="-2.08906">
        <ele>3</ele>
        <time>2018-03-16T17:10:10Z</time>
      </trkpt>
      <trkpt lat="46.80383" lon="-2.08894">
        <ele>3</ele>
        <time>2018-03-16T17:11:10Z</time>
      </trkpt>
      <trkpt lat="46.80379" lon="-2.08884">
        <ele>3</ele>
        <time>2018-03-16T17:12:10Z</time>
      </trkpt>
      <trkpt lat="46.80373" lon="-2.08871">
        <ele>3</ele>
        <time>2018-03-16T17:13:10Z</time>
      </trkpt>
      <trkpt lat="46.80368" lon="-2.08858">
        <ele>3</ele>
        <time>2018-03-16T17:14:10Z</time>
      </trkpt>
      <trkpt lat="46.80365" lon="-2.08849">
        <ele>2</ele>
        <time>2018-03-16T17:15:10Z</time>
      </trkpt>
      <trkpt lat="46.80363" lon="-2.08836">
        <ele>2</ele>
        <time>2018-03-16T17:16:10Z</time>
      </trkpt>
      <trkpt lat="46.80361" lon="-2.08826">
        <ele>2</ele>
        <time>2018-03-16T17:17:10Z</time>
      </trkpt>
      <trkpt lat="46.80361" lon="-2.08815">
        <ele>2</ele>
        <time>2018-03-16T17:18:10Z</time>
      </trkpt>
      <trkpt lat="46.80362" lon="-2.08791">
        <ele>2</ele>
        <time>2018-03-16T17:19:10Z</time>
      </trkpt>
      <trkpt lat="46.80369" lon="-2.08758">
        <ele>2</ele>
        <time>2018-03-16T17:20:10Z</time>
      </trkpt>
      <trkpt lat="46.80371" lon="-2.08747">
        <ele>2</ele>
        <time>2018-03-16T17:21:10Z</time>
      </trkpt>
      <trkpt lat="46.80371" lon="-2.08734">
        <ele>2</ele>
        <time>2018-03-16T17:22:10Z</time>
      </trkpt>
      <trkpt lat="46.80371" lon="-2.08722">
        <ele>2</ele>
        <time>2018-03-16T17:23:10Z</time>
      </trkpt>
      <trkpt lat="46.80371" lon="-2.08712">
        <ele>2</ele>
        <time>2018-03-16T17:24:10Z</time>
      </trkpt>
      <trkpt lat="46.80369" lon="-2.08698">
        <ele>2</ele>
        <time>2018-03-16T17:25:10Z</time>
      </trkpt>
      <trkpt lat="46.80352" lon="-2.08607">
        <ele>2</ele>
        <time>2018-03-16T17:26:10Z</time>
      </trkpt>
      <trkpt lat="46.80348" lon="-2.08583">
        <ele>2</ele>
        <time>2018-03-16T17:27:10Z</time>
      </trkpt>
      <trkpt lat="46.80344" lon="-2.08557">
        <ele>2</ele>
        <time>2018-03-16T17:28:10Z</time>
      </trkpt>
      <trkpt lat="46.80341" lon="-2.0851">
        <ele>2</ele>
        <time>2018-03-16T17:29:10Z</time>
      </trkpt>
      <trkpt lat="46.80342" lon="-2.08501">
        <ele>2</ele>
        <time>2018-03-16T17:30:10Z</time>
      </trkpt>
      <trkpt lat="46.80342" lon="-2.08485">
        <ele>2</ele>
        <time>2018-03-16T17:31:10Z</time>
      </trkpt>
      <trkpt lat="46.80342" lon="-2.08469">
        <ele>2</ele>
        <time>2018-03-16T17:32:10Z</time>
      </trkpt>
      <trkpt lat="46.80342" lon="-2.08457">
        <ele>2</ele>
        <time>2018-03-16T17:33:10Z</time>
      </trkpt>
      <trkpt lat="46.8034" lon="-2.08447">
        <ele>2</ele>
        <time>2018-03-16T17:34:10Z</time>
      </trkpt>
      <trkpt lat="46.80338" lon="-2.08432">
        <ele>2</ele>
        <time>2018-03-16T17:35:10Z</time>
      </trkpt>
      <trkpt lat="46.80324" lon="-2.08373">
        <ele>2</ele>
        <time>2018-03-16T17:36:10Z</time>
      </trkpt>
      <trkpt lat="46.80319" lon="-2.08352">
        <ele>2</ele>
        <time>2018-03-16T17:37:10Z</time>
      </trkpt>
      <trkpt lat="46.80316" lon="-2.08332">
        <ele>2</ele>
        <time>2018-03-16T17:38:10Z</time>
      </trkpt>
      <trkpt lat="46.80313" lon="-2.08306">
        <ele>2</ele>
        <time>2018-03-16T17:39:10Z</time>
      </trkpt>
      <trkpt lat="46.8031" lon="-2.08272">
        <ele>2</ele>
        <time>2018-03-16T17:40:10Z</time>
      </trkpt>
      <trkpt lat="46.80308" lon="-2.08256">
        <ele>2</ele>
        <time>2018-03-16T17:41:10Z</time>
      </trkpt>
      <trkpt lat="46.80306" lon="-2.08241">
        <ele>2</ele>
        <time>2018-03-16T17:42:10Z</time>
      </trkpt>
      <trkpt lat="46.80303" lon="-2.08225">
        <ele>2</ele>
        <time>2018-03-16T17:43:10Z</time>
      </trkpt>
      <trkpt lat="46.80296" lon="-2.08205">
        <ele>1</ele>
        <time>2018-03-16T17:44:10Z</time>
      </trkpt>
      <trkpt lat="46.8029" lon="-2.0819">
        <ele>1</ele>
        <time>2018-03-16T17:45:10Z</time>
      </trkpt>
      <trkpt lat="46.80274" lon="-2.08164">
        <ele>1</ele>
        <time>2018-03-16T17:46:10Z</time>
      </trkpt>
      <trkpt lat="46.8026" lon="-2.0814">
        <ele>1</ele>
        <time>2018-03-16T17:47:10Z</time>
      </trkpt>
      <trkpt lat="46.80256" lon="-2.08131">
        <ele>1</ele>
        <time>2018-03-16T17:48:10Z</time>
      </trkpt>
      <trkpt lat="46.80254" lon="-2.08125">
        <ele>1.5</ele>
        <time>2018-03-16T17:49:10Z</time>
      </trkpt>
      <trkpt lat="46.80252" lon="-2.08115">
        <ele>1.9</ele>
        <time>2018-03-16T17:50:10Z</time>
      </trkpt>
      <trkpt lat="46.8025" lon="-2.08104">
        <ele>2</ele>
        <time>2018-03-16T17:51:10Z</time>
      </trkpt>
      <trkpt lat="46.80249" lon="-2.08061">
        <ele>2</ele>
        <time>2018-03-16T17:52:10Z</time>
      </trkpt>
      <trkpt lat="46.80248" lon="-2.08044">
        <ele>2</ele>
        <time>2018-03-16T17:53:10Z</time>
      </trkpt>
      <trkpt lat="46.80247" lon="-2.08034">
        <ele>2</ele>
        <time>2018-03-16T17:54:10Z</time>
      </trkpt>
      <trkpt lat="46.80245" lon="-2.08027">
        <ele>2</ele>
        <time>2018-03-16T17:55:10Z</time>
      </trkpt>
      <trkpt lat="46.80243" lon="-2.08016">
        <ele>2</ele>
        <time>2018-03-16T17:56:10Z</time>
      </trkpt>
      <trkpt lat="46.80239" lon="-2.08005">
        <ele>2</ele>
        <time>2018-03-16T17:57:10Z</time>
      </trkpt>
      <trkpt lat="46.80231" lon="-2.07988">
        <ele>1</ele>
        <time>2018-03-16T17:58:10Z</time>
      </trkpt>
      <trkpt lat="46.80224" lon="-2.07975">
        <ele>1</ele>
        <time>2018-03-16T17:59:10Z</time>
      </trkpt>
      <trkpt lat="46.8022" lon="-2.07968">
        <ele>1</ele>
        <time>2018-03-16T18:00:10Z</time>
      </trkpt>
      <trkpt lat="46.80214" lon="-2.07957">
        <ele>1</ele>
        <time>2018-03-16T18:01:10Z</time>
      </trkpt>
      <trkpt lat="46.80206" lon="-2.07944">
        <ele>1</ele>
        <time>2018-03-16T18:02:10Z</time>
      </trkpt>
      <trkpt lat="46.80197" lon="-2.07922">
        <ele>1</ele>
        <time>2018-03-16T18:03:10Z</time>
      </trkpt>
      <trkpt lat="46.80182" lon="-2.07883">
        <ele>1</ele>
        <time>2018-03-16T18:04:10Z</time>
      </trkpt>
      <trkpt lat="46.80166" lon="-2.07841">
        <ele>2</ele>
        <time>2018-03-16T18:05:10Z</time>
      </trkpt>
      <trkpt lat="46.80155" lon="-2.07807">
        <ele>1.4</ele>
        <time>2018-03-16T18:06:10Z</time>
      </trkpt>
      <trkpt lat="46.80146" lon="-2.07771">
        <ele>1</ele>
        <time>2018-03-16T18:07:10Z</time>
      </trkpt>
      <trkpt lat="46.80142" lon="-2.07752">
        <ele>1</ele>
        <time>2018-03-16T18:08:10Z</time>
      </trkpt>
      <trkpt lat="46.80138" lon="-2.07719">
        <ele>1</ele>
        <time>2018-03-16T18:09:10Z</time>
      </trkpt>
      <trkpt lat="46.80132" lon="-2.07657">
        <ele>1.7</ele>
        <time>2018-03-16T18:10:10Z</time>
      </trkpt>
      <trkpt lat="46.80125" lon="-2.076">
        <ele>1.5</ele>
        <time>2018-03-16T18:11:10Z</time>
      </trkpt>
      <trkpt lat="46.8012" lon="-2.07568">
        <ele>1</ele>
        <time>2018-03-16T18:12:10Z</time>
      </trkpt>
      <trkpt lat="46.80113" lon="-2.07532">
        <ele>1</ele>
        <time>2018-03-16T18:13:10Z</time>
      </trkpt>
      <trkpt lat="46.80111" lon="-2.07517">
        <ele>1</ele>
        <time>2018-03-16T18:14:10Z</time>
      </trkpt>
      <trkpt lat="46.80111" lon="-2.07497">
        <ele>2</ele>
        <time>2018-03-16T18:15:10Z</time>
      </trkpt>
      <trkpt lat="46.80112" lon="-2.07472">
        <ele>2</ele>
        <time>2018-03-16T18:16:10Z</time>
      </trkpt>
      <trkpt lat="46.80111" lon="-2.07443">
        <ele>2</ele>
        <time>2018-03-16T18:17:10Z</time>
      </trkpt>
      <trkpt lat="46.80109" lon="-2.07424">
        <ele>3</ele>
        <time>2018-03-16T18:18:10Z</time>
      </trkpt>
      <trkpt lat="46.80107" lon="-2.07405">
        <ele>2</ele>
        <time>2018-03-16T18:19:10Z</time>
      </trkpt>
      <trkpt lat="46.80099" lon="-2.07352">
        <ele>1</ele>
        <time>2018-03-16T18:20:10Z</time>
      </trkpt>
      <trkpt lat="46.80098" lon="-2.07342">
        <ele>1</ele>
        <time>2018-03-16T18:21:10Z</time>
      </trkpt>
      <trkpt lat="46.80097" lon="-2.07331">
        <ele>1</ele>
        <time>2018-03-16T18:22:10Z</time>
      </trkpt>
      <trkpt lat="46.80094" lon="-2.07294">
        <ele>1</ele>
        <time>2018-03-16T18:23:10Z</time>
      </trkpt>
      <trkpt lat="46.80091" lon="-2.07275">
        <ele>1</ele>
        <time>2018-03-16T18:24:10Z</time>
      </trkpt>
      <trkpt lat="46.80087" lon="-2.07252">
        <ele>1</ele>
        <time>2018-03-16T18:25:10Z</time>
      </trkpt>
      <trkpt lat="46.80084" lon="-2.07233">
        <ele>1</ele>
        <time>2018-03-16T18:26:10Z</time>
      </trkpt>
      <trkpt lat="46.80081" lon="-2.07211">
        <ele>1</ele>
        <time>2018-03-16T18:27:10Z</time>
      </trkpt>
      <trkpt lat="46.8008" lon="-2.07199">
        <ele>1</ele>
        <time>2018-03-16T18:28:10Z</time>
      </trkpt>
      <trkpt lat="46.80079" lon="-2.07186">
        <ele>1</ele>
        <time>2018-03-16T18:29:10Z</time>
      </trkpt>
      <trkpt lat="46.80077" lon="-2.0713">
        <ele>1</ele>
        <time>2018-03-16T18:30:10Z</time>
      </trkpt>
      <trkpt lat="46.80075" lon="-2.07084">
        <ele>2</ele>
        <time>2018-03-16T18:31:10Z</time>
      </trkpt>
      <trkpt lat="46.80074" lon="-2.07069">
        <ele>2</ele>
        <time>2018-03-16T18:32:10Z</time>
      </trkpt>
      <trkpt lat="46.80073" lon="-2.07057">
        <ele>2</ele>
        <time>2018-03-16T18:33:10Z</time>
      </trkpt>
      <trkpt lat="46.80073" lon="-2.07051">
        <ele>2</ele>
        <time>2018-03-16T18:34:10Z</time>
      </trkpt>
      <trkpt lat="46.80072" lon="-2.07044">
        <ele>1</ele>
        <time>2018-03-16T18:35:10Z</time>
      </trkpt>
      <trkpt lat="46.80069" lon="-2.07033">
        <ele>1</ele>
        <time>2018-03-16T18:36:10Z</time>
      </trkpt>
      <trkpt lat="46.80065" lon="-2.07021">
        <ele>1</ele>
        <time>2018-03-16T18:37:10Z</time>
      </trkpt>
      <trkpt lat="46.80055" lon="-2.06992">
        <ele>1</ele>
        <time>2018-03-16T18:38:10Z</time>
      </trkpt>
      <trkpt lat="46.80037" lon="-2.06946">
        <ele>1</ele>
        <time>2018-03-16T18:39:10Z</time>
      </trkpt>
      <trkpt lat="46.80029" lon="-2.06922">
        <ele>1</ele>
        <time>2018-03-16T18:40:10Z</time>
      </trkpt>
      <trkpt lat="46.80016" lon="-2.06879">
        <ele>1.8</ele>
        <time>2018-03-16T18:41:10Z</time>
      </trkpt>
      <trkpt lat="46.79999" lon="-2.06827">
        <ele>2.2</ele>
        <time>2018-03-16T18:42:10Z</time>
      </trkpt>
      <trkpt lat="46.79997" lon="-2.06821">
        <ele>2.4</ele>
        <time>2018-03-16T18:43:10Z</time>
      </trkpt>
      <trkpt lat="46.79997" lon="-2.06818">
        <ele>2.5</ele>
        <time>2018-03-16T18:44:10Z</time>
      </trkpt>
      <trkpt lat="46.79997" lon="-2.06814">
        <ele>2.6</ele>
        <time>2018-03-16T18:45:10Z</time>
      </trkpt>
      <trkpt lat="46.79997" lon="-2.06804">
        <ele>2.9</ele>
        <time>2018-03-16T18:46:10Z</time>
      </trkpt>
      <trkpt lat="46.79998" lon="-2.06798">
        <ele>2.9</ele>
        <time>2018-03-16T18:47:10Z</time>
      </trkpt>
      <trkpt lat="46.80001" lon="-2.06786">
        <ele>1</ele>
        <time>2018-03-16T18:48:10Z</time>
      </trkpt>
      <trkpt lat="46.80001" lon="-2.06786">
        <ele>1</ele>
        <time>2018-03-16T18:49:10Z</time>
      </trkpt>
      <trkpt lat="46.8" lon="-2.06786">
        <ele>1</ele>
        <time>2018-03-16T18:50:10Z</time>
      </trkpt>
      <trkpt lat="46.79999" lon="-2.06786">
        <ele>1</ele>
        <time>2018-03-16T18:51:10Z</time>
      </trkpt>
      <trkpt lat="46.79998" lon="-2.06786">
        <ele>1</ele>
        <time>2018-03-16T18:52:10Z</time>
      </trkpt>
      <trkpt lat="46.79997" lon="-2.06786">
        <ele>1</ele>
        <time>2018-03-16T18:53:10Z</time>
      </trkpt>
      <trkpt lat="46.79996" lon="-2.06786">
        <ele>1</ele>
        <time>2018-03-16T18:54:10Z</time>
      </trkpt>
      <trkpt lat="46.79996" lon="-2.06785">
        <ele>1</ele>
        <time>2018-03-16T18:55:10Z</time>
      </trkpt>
      <trkpt lat="46.79995" lon="-2.06785">
        <ele>1</ele>
        <time>2018-03-16T18:56:10Z</time>
      </trkpt>
      <trkpt lat="46.79994" lon="-2.06784">
        <ele>1</ele>
        <time>2018-03-16T18:57:10Z</time>
      </trkpt>
      <trkpt lat="46.79993" lon="-2.06783">
        <ele>1</ele>
        <time>2018-03-16T18:58:10Z</time>
      </trkpt>
      <trkpt lat="46.79992" lon="-2.06782">
        <ele>1</ele>
        <time>2018-03-16T18:59:10Z</time>
      </trkpt>
      <trkpt lat="46.79992" lon="-2.06781">
        <ele>1</ele>
        <time>2018-03-16T19:00:10Z</time>
      </trkpt>
      <trkpt lat="46.79991" lon="-2.0678">
        <ele>1</ele>
        <time>2018-03-16T19:01:10Z</time>
      </trkpt>
      <trkpt lat="46.79991" lon="-2.06779">
        <ele>1</ele>
        <time>2018-03-16T19:02:10Z</time>
      </trkpt>
      <trkpt lat="46.7998" lon="-2.06784">
        <ele>2.3</ele>
        <time>2018-03-16T19:03:10Z</time>
      </trkpt>
      <trkpt lat="46.79975" lon="-2.06787">
        <ele>2.1</ele>
        <time>2018-03-16T19:04:10Z</time>
      </trkpt>
      <trkpt lat="46.7997" lon="-2.0679">
        <ele>2</ele>
        <time>2018-03-16T19:05:10Z</time>
      </trkpt>
      <trkpt lat="46.79904" lon="-2.06828">
        <ele>2</ele>
        <time>2018-03-16T19:06:10Z</time>
      </trkpt>
      <trkpt lat="46.79883" lon="-2.0684">
        <ele>2</ele>
        <time>2018-03-16T19:07:10Z</time>
      </trkpt>
      <trkpt lat="46.79849" lon="-2.06859">
        <ele>2</ele>
        <time>2018-03-16T19:08:10Z</time>
      </trkpt>
      <trkpt lat="46.79768" lon="-2.06906">
        <ele>3</ele>
        <time>2018-03-16T19:09:10Z</time>
      </trkpt>
      <trkpt lat="46.7972" lon="-2.06934">
        <ele>3</ele>
        <time>2018-03-16T19:10:10Z</time>
      </trkpt>
      <trkpt lat="46.79705" lon="-2.06945">
        <ele>3</ele>
        <time>2018-03-16T19:11:10Z</time>
      </trkpt>
      <trkpt lat="46.79683" lon="-2.06959">
        <ele>4</ele>
        <time>2018-03-16T19:12:10Z</time>
      </trkpt>
      <trkpt lat="46.79682" lon="-2.0696">
        <ele>4</ele>
        <time>2018-03-16T19:13:10Z</time>
      </trkpt>
      <trkpt lat="46.79674" lon="-2.06969">
        <ele>4</ele>
        <time>2018-03-16T19:14:10Z</time>
      </trkpt>
      <trkpt lat="46.79674" lon="-2.06969">
        <ele>4</ele>
        <time>2018-03-16T19:15:10Z</time>
      </trkpt>
      <trkpt lat="46.79674" lon="-2.0697">
        <ele>4</ele>
        <time>2018-03-16T19:16:10Z</time>
      </trkpt>
      <trkpt lat="46.79673" lon="-2.06971">
        <ele>4</ele>
        <time>2018-03-16T19:17:10Z</time>
      </trkpt>
      <trkpt lat="46.79673" lon="-2.06972">
        <ele>4</ele>
        <time>2018-03-16T19:18:10Z</time>
      </trkpt>
      <trkpt lat="46.79673" lon="-2.06973">
        <ele>4</ele>
        <time>2018-03-16T19:19:10Z</time>
      </trkpt>
      <trkpt lat="46.79673" lon="-2.06974">
        <ele>4</ele>
        <time>2018-03-16T19:20:10Z</time>
      </trkpt>
      <trkpt lat="46.79672" lon="-2.06974">
        <ele>4</ele>
        <time>2018-03-16T19:21:10Z</time>
      </trkpt>
      <trkpt lat="46.79672" lon="-2.06975">
        <ele>4</ele>
        <time>2018-03-16T19:22:10Z</time>
      </trkpt>
      <trkpt lat="46.79672" lon="-2.06976">
        <ele>4</ele>
        <time>2018-03-16T19:23:10Z</time>
      </trkpt>
      <trkpt lat="46.79671" lon="-2.06977">
        <ele>4</ele>
        <time>2018-03-16T19:24:10Z</time>
      </trkpt>
      <trkpt lat="46.79671" lon="-2.06978">
        <ele>4</ele>
        <time>2018-03-16T19:25:10Z</time>
      </trkpt>
      <trkpt lat="46.7967" lon="-2.06979">
        <ele>4</ele>
        <time>2018-03-16T19:26:10Z</time>
      </trkpt>
      <trkpt lat="46.7967" lon="-2.0698">
        <ele>4</ele>
        <time>2018-03-16T19:27:10Z</time>
      </trkpt>
      <trkpt lat="46.79669" lon="-2.0698">
        <ele>4</ele>
        <time>2018-03-16T19:28:10Z</time>
      </trkpt>
      <trkpt lat="46.79669" lon="-2.06981">
        <ele>4</ele>
        <time>2018-03-16T19:29:10Z</time>
      </trkpt>
      <trkpt lat="46.79668" lon="-2.06981">
        <ele>4</ele>
        <time>2018-03-16T19:30:10Z</time>
      </trkpt>
      <trkpt lat="46.79667" lon="-2.06982">
        <ele>4</ele>
        <time>2018-03-16T19:31:10Z</time>
      </trkpt>
      <trkpt lat="46.79666" lon="-2.06983">
        <ele>4</ele>
        <time>2018-03-16T19:32:10Z</time>
      </trkpt>
      <trkpt lat="46.79665" lon="-2.06983">
        <ele>4</ele>
        <time>2018-03-16T19:33:10Z</time>
      </trkpt>
      <trkpt lat="46.79664" lon="-2.06984">
        <ele>4</ele>
        <time>2018-03-16T19:34:10Z</time>
      </trkpt>
      <trkpt lat="46.79663" lon="-2.06984">
        <ele>4</ele>
        <time>2018-03-16T19:35:10Z</time>
      </trkpt>
      <trkpt lat="46.79662" lon="-2.06984">
        <ele>4</ele>
        <time>2018-03-16T19:36:10Z</time>
      </trkpt>
      <trkpt lat="46.79661" lon="-2.06984">
        <ele>4</ele>
        <time>2018-03-16T19:37:10Z</time>
      </trkpt>
      <trkpt lat="46.7966" lon="-2.06984">
        <ele>4</ele>
        <time>2018-03-16T19:38:10Z</time>
      </trkpt>
      <trkpt lat="46.79659" lon="-2.06984">
        <ele>4</ele>
        <time>2018-03-16T19:39:10Z</time>
      </trkpt>
      <trkpt lat="46.79658" lon="-2.06983">
        <ele>4</ele>
        <time>2018-03-16T19:40:10Z</time>
      </trkpt>
      <trkpt lat="46.79656" lon="-2.06983">
        <ele>4</ele>
        <time>2018-03-16T19:41:10Z</time>
      </trkpt>
      <trkpt lat="46.79656" lon="-2.06982">
        <ele>4</ele>
        <time>2018-03-16T19:42:10Z</time>
      </trkpt>
      <trkpt lat="46.79655" lon="-2.06982">
        <ele>4</ele>
        <time>2018-03-16T19:43:10Z</time>
      </trkpt>
      <trkpt lat="46.79655" lon="-2.06981">
        <ele>4</ele>
        <time>2018-03-16T19:44:10Z</time>
      </trkpt>
      <trkpt lat="46.79654" lon="-2.06981">
        <ele>4</ele>
        <time>2018-03-16T19:45:10Z</time>
      </trkpt>
      <trkpt lat="46.79654" lon="-2.0698">
        <ele>4</ele>
        <time>2018-03-16T19:46:10Z</time>
      </trkpt>
      <trkpt lat="46.79653" lon="-2.0698">
        <ele>4</ele>
        <time>2018-03-16T19:47:10Z</time>
      </trkpt>
      <trkpt lat="46.79653" lon="-2.06979">
        <ele>4</ele>
        <time>2018-03-16T19:48:10Z</time>
      </trkpt>
      <trkpt lat="46.79652" lon="-2.06978">
        <ele>4</ele>
        <time>2018-03-16T19:49:10Z</time>
      </trkpt>
      <trkpt lat="46.79652" lon="-2.06977">
        <ele>4</ele>
        <time>2018-03-16T19:50:10Z</time>
      </trkpt>
      <trkpt lat="46.79651" lon="-2.06976">
        <ele>4</ele>
        <time>2018-03-16T19:51:10Z</time>
      </trkpt>
      <trkpt lat="46.79651" lon="-2.06975">
        <ele>4</ele>
        <time>2018-03-16T19:52:10Z</time>
      </trkpt>
      <trkpt lat="46.79651" lon="-2.06974">
        <ele>4</ele>
        <time>2018-03-16T19:53:10Z</time>
      </trkpt>
      <trkpt lat="46.7965" lon="-2.06974">
        <ele>4</ele>
        <time>2018-03-16T19:54:10Z</time>
      </trkpt>
      <trkpt lat="46.7965" lon="-2.06973">
        <ele>4</ele>
        <time>2018-03-16T19:55:10Z</time>
      </trkpt>
      <trkpt lat="46.7965" lon="-2.06972">
        <ele>4</ele>
        <time>2018-03-16T19:56:10Z</time>
      </trkpt>
      <trkpt lat="46.7965" lon="-2.06971">
        <ele>4</ele>
        <time>2018-03-16T19:57:10Z</time>
      </trkpt>
      <trkpt lat="46.79643" lon="-2.06968">
        <ele>4</ele>
        <time>2018-03-16T19:58:10Z</time>
      </trkpt>
      <trkpt lat="46.7964" lon="-2.06966">
        <ele>5</ele>
        <time>2018-03-16T19:59:10Z</time>
      </trkpt>
      <trkpt lat="46.79637" lon="-2.06963">
        <ele>5</ele>
        <time>2018-03-16T20:00:10Z</time>
      </trkpt>
      <trkpt lat="46.79631" lon="-2.06957">
        <ele>5</ele>
        <time>2018-03-16T20:01:10Z</time>
      </trkpt>
      <trkpt lat="46.79621" lon="-2.06943">
        <ele>5</ele>
        <time>2018-03-16T20:02:10Z</time>
      </trkpt>
      <trkpt lat="46.7961" lon="-2.06926">
        <ele>5</ele>
        <time>2018-03-16T20:03:10Z</time>
      </trkpt>
      <trkpt lat="46.79599" lon="-2.0691">
        <ele>5</ele>
        <time>2018-03-16T20:04:10Z</time>
      </trkpt>
      <trkpt lat="46.79595" lon="-2.06904">
        <ele>5</ele>
        <time>2018-03-16T20:05:10Z</time>
      </trkpt>
      <trkpt lat="46.7959" lon="-2.06895">
        <ele>5</ele>
        <time>2018-03-16T20:06:10Z</time>
      </trkpt>
      <trkpt lat="46.79589" lon="-2.06894">
        <ele>5</ele>
        <time>2018-03-16T20:07:10Z</time>
      </trkpt>
      <trkpt lat="46.79586" lon="-2.06888">
        <ele>5</ele>
        <time>2018-03-16T20:08:10Z</time>
      </trkpt>
      <trkpt lat="46.79582" lon="-2.06882">
        <ele>5</ele>
        <time>2018-03-16T20:09:10Z</time>
      </trkpt>
      <trkpt lat="46.79581" lon="-2.06877">
        <ele>5</ele>
        <time>2018-03-16T20:10:10Z</time>
      </trkpt>
      <trkpt lat="46.79544" lon="-2.06824">
        <ele>5</ele>
        <time>2018-03-16T20:11:10Z</time>
      </trkpt>
      <trkpt lat="46.79532" lon="-2.06806">
        <ele>5</ele>
        <time>2018-03-16T20:12:10Z</time>
      </trkpt>
      <trkpt lat="46.79528" lon="-2.06801">
        <ele>5</ele>
        <time>2018-03-16T20:13:10Z</time>
      </trkpt>
      <trkpt lat="46.79519" lon="-2.06789">
        <ele>5</ele>
        <time>2018-03-16T20:14:10Z</time>
      </trkpt>
      <trkpt lat="46.79514" lon="-2.06782">
        <ele>5</ele>
        <time>2018-03-16T20:15:10Z</time>
      </trkpt>
      <trkpt lat="46.7951" lon="-2.0678">
        <ele>5</ele>
        <time>2018-03-16T20:16:10Z</time>
      </trkpt>
      <trkpt lat="46.79506" lon="-2.06778">
        <ele>5</ele>
        <time>2018-03-16T20:17:10Z</time>
      </trkpt>
      <trkpt lat="46.79502" lon="-2.06775">
        <ele>5</ele>
        <time>2018-03-16T20:18:10Z</time>
      </trkpt>
      <trkpt lat="46.79492" lon="-2.06766">
        <ele>5</ele>
        <time>2018-03-16T20:19:10Z</time>
      </trkpt>
      <trkpt lat="46.79492" lon="-2.06766">
        <ele>5</ele>
        <time>2018-03-16T20:20:10Z</time>
      </trkpt>
      <trkpt lat="46.7949" lon="-2.06766">
        <ele>5</ele>
        <time>2018-03-16T20:21:10Z</time>
      </trkpt>
      <trkpt lat="46.79489" lon="-2.06765">
        <ele>5</ele>
        <time>2018-03-16T20:22:10Z</time>
      </trkpt>
      <trkpt lat="46.79488" lon="-2.06765">
        <ele>5</ele>
        <time>2018-03-16T20:23:10Z</time>
      </trkpt>
      <trkpt lat="46.79487" lon="-2.06763">
        <ele>5</ele>
        <time>2018-03-16T20:24:10Z</time>
      </trkpt>
      <trkpt lat="46.79464" lon="-2.06764">
        <ele>5</ele>
        <time>2018-03-16T20:25:10Z</time>
      </trkpt>
      <trkpt lat="46.79462" lon="-2.06764">
        <ele>5</ele>
        <time>2018-03-16T20:26:10Z</time>
      </trkpt>
      <trkpt lat="46.7946" lon="-2.06763">
        <ele>5</ele>
        <time>2018-03-16T20:27:10Z</time>
      </trkpt>
      <trkpt lat="46.79453" lon="-2.0676">
        <ele>5</ele>
        <time>2018-03-16T20:28:10Z</time>
      </trkpt>
      <trkpt lat="46.79444" lon="-2.0676">
        <ele>5</ele>
        <time>2018-03-16T20:29:10Z</time>
      </trkpt>
      <trkpt lat="46.79431" lon="-2.06758">
        <ele>5</ele>
        <time>2018-03-16T20:30:10Z</time>
      </trkpt>
      <trkpt lat="46.79425" lon="-2.06757">
        <ele>5</ele>
        <time>2018-03-16T20:31:10Z</time>
      </trkpt>
      <trkpt lat="46.79406" lon="-2.06755">
        <ele>5</ele>
        <time>2018-03-16T20:32:10Z</time>
      </trkpt>
      <trkpt lat="46.79345" lon="-2.06747">
        <ele>6</ele>
        <time>2018-03-16T20:33:10Z</time>
      </trkpt>
      <trkpt lat="46.79318" lon="-2.06743">
        <ele>6</ele>
        <time>2018-03-16T20:34:10Z</time>
      </trkpt>
      <trkpt lat="46.79249" lon="-2.06734">
        <ele>8</ele>
        <time>2018-03-16T20:35:10Z</time>
      </trkpt>
      <trkpt lat="46.79229" lon="-2.06729">
        <ele>9</ele>
        <time>2018-03-16T20:36:10Z</time>
      </trkpt>
      <trkpt lat="46.79224" lon="-2.06727">
        <ele>10</ele>
        <time>2018-03-16T20:37:10Z</time>
      </trkpt>
      <trkpt lat="46.79221" lon="-2.06725">
        <ele>10</ele>
        <time>2018-03-16T20:38:10Z</time>
      </trkpt>
      <trkpt lat="46.79207" lon="-2.06716">
        <ele>10</ele>
        <time>2018-03-16T20:39:10Z</time>
      </trkpt>
      <trkpt lat="46.79201" lon="-2.06712">
        <ele>10</ele>
        <time>2018-03-16T20:40:10Z</time>
      </trkpt>
      <trkpt lat="46.79196" lon="-2.06708">
        <ele>10</ele>
        <time>2018-03-16T20:41:10Z</time>
      </trkpt>
      <trkpt lat="46.79189" lon="-2.06702">
        <ele>11</ele>
        <time>2018-03-16T20:42:10Z</time>
      </trkpt>
      <trkpt lat="46.7917" lon="-2.06696">
        <ele>12</ele>
        <time>2018-03-16T20:43:10Z</time>
      </trkpt>
      <trkpt lat="46.79169" lon="-2.06695">
        <ele>12</ele>
        <time>2018-03-16T20:44:10Z</time>
      </trkpt>
      <trkpt lat="46.79167" lon="-2.06694">
        <ele>12</ele>
        <time>2018-03-16T20:45:10Z</time>
      </trkpt>
      <trkpt lat="46.79166" lon="-2.06693">
        <ele>12</ele>
        <time>2018-03-16T20:46:10Z</time>
      </trkpt>
      <trkpt lat="46.79163" lon="-2.06689">
        <ele>12</ele>
        <time>2018-03-16T20:47:10Z</time>
      </trkpt>
      <trkpt lat="46.79163" lon="-2.06689">
        <ele>12</ele>
        <time>2018-03-16T20:48:10Z</time>
      </trkpt>
      <trkpt lat="46.79162" lon="-2.06691">
        <ele>12</ele>
        <time>2018-03-16T20:49:10Z</time>
      </trkpt>
      <trkpt lat="46.7916" lon="-2.06692">
        <ele>12</ele>
        <time>2018-03-16T20:50:10Z</time>
      </trkpt>
      <trkpt lat="46.79158" lon="-2.06692">
        <ele>12</ele>
        <time>2018-03-16T20:51:10Z</time>
      </trkpt>
      <trkpt lat="46.79154" lon="-2.06692">
        <ele>13</ele>
        <time>2018-03-16T20:52:10Z</time>
      </trkpt>
      <trkpt lat="46.79152" lon="-2.0669">
        <ele>13</ele>
        <time>2018-03-16T20:53:10Z</time>
      </trkpt>
      <trkpt lat="46.79149" lon="-2.06688">
        <ele>13</ele>
        <time>2018-03-16T20:54:10Z</time>
      </trkpt>
      <trkpt lat="46.79147" lon="-2.06685">
        <ele>13</ele>
        <time>2018-03-16T20:55:10Z</time>
      </trkpt>
      <trkpt lat="46.79144" lon="-2.06681">
        <ele>13</ele>
        <time>2018-03-16T20:56:10Z</time>
      </trkpt>
      <trkpt lat="46.79143" lon="-2.06677">
        <ele>13</ele>
        <time>2018-03-16T20:57:10Z</time>
      </trkpt>
      <trkpt lat="46.79143" lon="-2.06674">
        <ele>13</ele>
        <time>2018-03-16T20:58:10Z</time>
      </trkpt>
      <trkpt lat="46.79143" lon="-2.06671">
        <ele>13</ele>
        <time>2018-03-16T20:59:10Z</time>
      </trkpt>
      <trkpt lat="46.79144" lon="-2.06668">
        <ele>13</ele>
        <time>2018-03-16T21:00:10Z</time>
      </trkpt>
      <trkpt lat="46.79145" lon="-2.06665">
        <ele>13</ele>
        <time>2018-03-16T21:01:10Z</time>
      </trkpt>
      <trkpt lat="46.79147" lon="-2.06662">
        <ele>13</ele>
        <time>2018-03-16T21:02:10Z</time>
      </trkpt>
      <trkpt lat="46.79148" lon="-2.06646">
        <ele>12</ele>
        <time>2018-03-16T21:03:10Z</time>
      </trkpt>
      <trkpt lat="46.79148" lon="-2.06637">
        <ele>12</ele>
        <time>2018-03-16T21:04:10Z</time>
      </trkpt>
      <trkpt lat="46.79147" lon="-2.06629">
        <ele>12</ele>
        <time>2018-03-16T21:05:10Z</time>
      </trkpt>
      <trkpt lat="46.79145" lon="-2.06622">
        <ele>12</ele>
        <time>2018-03-16T21:06:10Z</time>
      </trkpt>
      <trkpt lat="46.79139" lon="-2.06605">
        <ele>12</ele>
        <time>2018-03-16T21:07:10Z</time>
      </trkpt>
      <trkpt lat="46.79107" lon="-2.06515">
        <ele>13</ele>
        <time>2018-03-16T21:08:10Z</time>
      </trkpt>
      <trkpt lat="46.79104" lon="-2.06509">
        <ele>13</ele>
        <time>2018-03-16T21:09:10Z</time>
      </trkpt>
      <trkpt lat="46.79102" lon="-2.06504">
        <ele>13</ele>
        <time>2018-03-16T21:10:10Z</time>
      </trkpt>
      <trkpt lat="46.79095" lon="-2.06488">
        <ele>14</ele>
        <time>2018-03-16T21:11:10Z</time>
      </trkpt>
      <trkpt lat="46.79093" lon="-2.06488">
        <ele>14</ele>
        <time>2018-03-16T21:12:10Z</time>
      </trkpt>
      <trkpt lat="46.79091" lon="-2.06488">
        <ele>14</ele>
        <time>2018-03-16T21:13:10Z</time>
      </trkpt>
      <trkpt lat="46.79089" lon="-2.06488">
        <ele>14</ele>
        <time>2018-03-16T21:14:10Z</time>
      </trkpt>
      <trkpt lat="46.79086" lon="-2.06486">
        <ele>14</ele>
        <time>2018-03-16T21:15:10Z</time>
      </trkpt>
      <trkpt lat="46.79084" lon="-2.06483">
        <ele>14</ele>
        <time>2018-03-16T21:16:10Z</time>
      </trkpt>
      <trkpt lat="46.79082" lon="-2.06479">
        <ele>14</ele>
        <time>2018-03-16T21:17:10Z</time>
      </trkpt>
      <trkpt lat="46.79082" lon="-2.06475">
        <ele>14</ele>
        <time>2018-03-16T21:18:10Z</time>
      </trkpt>
      <trkpt lat="46.79082" lon="-2.06472">
        <ele>14</ele>
        <time>2018-03-16T21:19:10Z</time>
      </trkpt>
      <trkpt lat="46.79082" lon="-2.06468">
        <ele>14</ele>
        <time>2018-03-16T21:20:10Z</time>
      </trkpt>
      <trkpt lat="46.79082" lon="-2.06465">
        <ele>14</ele>
        <time>2018-03-16T21:21:10Z</time>
      </trkpt>
      <trkpt lat="46.79077" lon="-2.06444">
        <ele>13</ele>
        <time>2018-03-16T21:22:10Z</time>
      </trkpt>
      <trkpt lat="46.79075" lon="-2.06435">
        <ele>13</ele>
        <time>2018-03-16T21:23:10Z</time>
      </trkpt>
      <trkpt lat="46.7907" lon="-2.06421">
        <ele>13</ele>
        <time>2018-03-16T21:24:10Z</time>
      </trkpt>
      <trkpt lat="46.79061" lon="-2.0639">
        <ele>13</ele>
        <time>2018-03-16T21:25:10Z</time>
      </trkpt>
      <trkpt lat="46.79053" lon="-2.06364">
        <ele>13</ele>
        <time>2018-03-16T21:26:10Z</time>
      </trkpt>
      <trkpt lat="46.79041" lon="-2.06323">
        <ele>12</ele>
        <time>2018-03-16T21:27:10Z</time>
      </trkpt>
      <trkpt lat="46.79037" lon="-2.06309">
        <ele>12</ele>
        <time>2018-03-16T21:28:10Z</time>
      </trkpt>
      <trkpt lat="46.79032" lon="-2.06289">
        <ele>12</ele>
        <time>2018-03-16T21:29:10Z</time>
      </trkpt>
      <trkpt lat="46.79029" lon="-2.06274">
        <ele>11</ele>
        <time>2018-03-16T21:30:10Z</time>
      </trkpt>
      <trkpt lat="46.79029" lon="-2.06274">
        <ele>11</ele>
        <time>2018-03-16T21:31:10Z</time>
      </trkpt>
      <trkpt lat="46.79025" lon="-2.06271">
        <ele>11</ele>
        <time>2018-03-16T21:32:10Z</time>
      </trkpt>
      <trkpt lat="46.79022" lon="-2.06268">
        <ele>11</ele>
        <time>2018-03-16T21:33:10Z</time>
      </trkpt>
      <trkpt lat="46.79019" lon="-2.06264">
        <ele>11</ele>
        <time>2018-03-16T21:34:10Z</time>
      </trkpt>
      <trkpt lat="46.79017" lon="-2.0626">
        <ele>11</ele>
        <time>2018-03-16T21:35:10Z</time>
      </trkpt>
      <trkpt lat="46.79016" lon="-2.06257">
        <ele>11</ele>
        <time>2018-03-16T21:36:10Z</time>
      </trkpt>
      <trkpt lat="46.79014" lon="-2.06253">
        <ele>11</ele>
        <time>2018-03-16T21:37:10Z</time>
      </trkpt>
      <trkpt lat="46.79014" lon="-2.06247">
        <ele>11</ele>
        <time>2018-03-16T21:38:10Z</time>
      </trkpt>
      <trkpt lat="46.79014" lon="-2.06242">
        <ele>11</ele>
        <time>2018-03-16T21:39:10Z</time>
      </trkpt>
      <trkpt lat="46.79015" lon="-2.06237">
        <ele>11</ele>
        <time>2018-03-16T21:40:10Z</time>
      </trkpt>
      <trkpt lat="46.79016" lon="-2.0623">
        <ele>11</ele>
        <time>2018-03-16T21:41:10Z</time>
      </trkpt>
      <trkpt lat="46.79019" lon="-2.06225">
        <ele>11</ele>
        <time>2018-03-16T21:42:10Z</time>
      </trkpt>
      <trkpt lat="46.79022" lon="-2.06221">
        <ele>11</ele>
        <time>2018-03-16T21:43:10Z</time>
      </trkpt>
      <trkpt lat="46.79025" lon="-2.06218">
        <ele>11</ele>
        <time>2018-03-16T21:44:10Z</time>
      </trkpt>
      <trkpt lat="46.79028" lon="-2.06202">
        <ele>11</ele>
        <time>2018-03-16T21:45:10Z</time>
      </trkpt>
      <trkpt lat="46.79029" lon="-2.06191">
        <ele>11</ele>
        <time>2018-03-16T21:46:10Z</time>
      </trkpt>
      <trkpt lat="46.7903" lon="-2.06179">
        <ele>11</ele>
        <time>2018-03-16T21:47:10Z</time>
      </trkpt>
      <trkpt lat="46.79032" lon="-2.06161">
        <ele>11</ele>
        <time>2018-03-16T21:48:10Z</time>
      </trkpt>
      <trkpt lat="46.79033" lon="-2.06149">
        <ele>10</ele>
        <time>2018-03-16T21:49:10Z</time>
      </trkpt>
      <trkpt lat="46.79033" lon="-2.06148">
        <ele>10</ele>
        <time>2018-03-16T21:50:10Z</time>
      </trkpt>
      <trkpt lat="46.79035" lon="-2.06121">
        <ele>10</ele>
        <time>2018-03-16T21:51:10Z</time>
      </trkpt>
      <trkpt lat="46.79035" lon="-2.06111">
        <ele>10</ele>
        <time>2018-03-16T21:52:10Z</time>
      </trkpt>
      <trkpt lat="46.79036" lon="-2.06106">
        <ele>10</ele>
        <time>2018-03-16T21:53:10Z</time>
      </trkpt>
      <trkpt lat="46.79036" lon="-2.06106">
        <ele>10</ele>
        <time>2018-03-16T21:54:10Z</time>
      </trkpt>
      <trkpt lat="46.79036" lon="-2.06102">
        <ele>9</ele>
        <time>2018-03-16T21:55:10Z</time>
      </trkpt>
      <trkpt lat="46.79037" lon="-2.06093">
        <ele>9</ele>
        <time>2018-03-16T21:56:10Z</time>
      </trkpt>
      <trkpt lat="46.79037" lon="-2.06087">
        <ele>9</ele>
        <time>2018-03-16T21:57:10Z</time>
      </trkpt>
      <trkpt lat="46.79039" lon="-2.06078">
        <ele>9</ele>
        <time>2018-03-16T21:58:10Z</time>
      </trkpt>
      <trkpt lat="46.79039" lon="-2.06073">
        <ele>9</ele>
        <time>2018-03-16T21:59:10Z</time>
      </trkpt>
      <trkpt lat="46.79039" lon="-2.06061">
        <ele>9</ele>
        <time>2018-03-16T22:00:10Z</time>
      </trkpt>
      <trkpt lat="46.79038" lon="-2.05964">
        <ele>9</ele>
        <time>2018-03-16T22:01:10Z</time>
      </trkpt>
      <trkpt lat="46.79038" lon="-2.05941">
        <ele>9</ele>
        <time>2018-03-16T22:02:10Z</time>
      </trkpt>
      <trkpt lat="46.79038" lon="-2.0592">
        <ele>8</ele>
        <time>2018-03-16T22:03:10Z</time>
      </trkpt>
      <trkpt lat="46.79037" lon="-2.05895">
        <ele>8</ele>
        <time>2018-03-16T22:04:10Z</time>
      </trkpt>
      <trkpt lat="46.79037" lon="-2.05869">
        <ele>9</ele>
        <time>2018-03-16T22:05:10Z</time>
      </trkpt>
      <trkpt lat="46.79037" lon="-2.05857">
        <ele>9</ele>
        <time>2018-03-16T22:06:10Z</time>
      </trkpt>
      <trkpt lat="46.79038" lon="-2.05832">
        <ele>9</ele>
        <time>2018-03-16T22:07:10Z</time>
      </trkpt>
      <trkpt lat="46.79039" lon="-2.05807">
        <ele>10</ele>
        <time>2018-03-16T22:08:10Z</time>
      </trkpt>
      <trkpt lat="46.79039" lon="-2.05803">
        <ele>10</ele>
        <time>2018-03-16T22:09:10Z</time>
      </trkpt>
      <trkpt lat="46.7904" lon="-2.05796">
        <ele>10</ele>
        <time>2018-03-16T22:10:10Z</time>
      </trkpt>
      <trkpt lat="46.79042" lon="-2.05785">
        <ele>10</ele>
        <time>2018-03-16T22:11:10Z</time>
      </trkpt>
      <trkpt lat="46.79046" lon="-2.05772">
        <ele>10</ele>
        <time>2018-03-16T22:12:10Z</time>
      </trkpt>
      <trkpt lat="46.7907" lon="-2.05676">
        <ele>5</ele>
        <time>2018-03-16T22:13:10Z</time>
      </trkpt>
      <trkpt lat="46.79072" lon="-2.05661">
        <ele>4</ele>
        <time>2018-03-16T22:14:10Z</time>
      </trkpt>
      <trkpt lat="46.79075" lon="-2.05647">
        <ele>4</ele>
        <time>2018-03-16T22:15:10Z</time>
      </trkpt>
      <trkpt lat="46.79078" lon="-2.05633">
        <ele>4</ele>
        <time>2018-03-16T22:16:10Z</time>
      </trkpt>
      <trkpt lat="46.7908" lon="-2.05627">
        <ele>4</ele>
        <time>2018-03-16T22:17:10Z</time>
      </trkpt>
      <trkpt lat="46.79082" lon="-2.0562">
        <ele>4</ele>
        <time>2018-03-16T22:18:10Z</time>
      </trkpt>
      <trkpt lat="46.79084" lon="-2.05615">
        <ele>4</ele>
        <time>2018-03-16T22:19:10Z</time>
      </trkpt>
      <trkpt lat="46.79088" lon="-2.05608">
        <ele>4</ele>
        <time>2018-03-16T22:20:10Z</time>
      </trkpt>
      <trkpt lat="46.79092" lon="-2.05601">
        <ele>4</ele>
        <time>2018-03-16T22:21:10Z</time>
      </trkpt>
      <trkpt lat="46.79092" lon="-2.05601">
        <ele>4</ele>
        <time>2018-03-16T22:22:10Z</time>
      </trkpt>
      <trkpt lat="46.79092" lon="-2.05596">
        <ele>4</ele>
        <time>2018-03-16T22:23:10Z</time>
      </trkpt>
      <trkpt lat="46.79092" lon="-2.05594">
        <ele>4</ele>
        <time>2018-03-16T22:24:10Z</time>
      </trkpt>
      <trkpt lat="46.79093" lon="-2.05591">
        <ele>4</ele>
        <time>2018-03-16T22:25:10Z</time>
      </trkpt>
      <trkpt lat="46.79094" lon="-2.05589">
        <ele>4</ele>
        <time>2018-03-16T22:26:10Z</time>
      </trkpt>
      <trkpt lat="46.79094" lon="-2.05587">
        <ele>4</ele>
        <time>2018-03-16T22:27:10Z</time>
      </trkpt>
      <trkpt lat="46.79096" lon="-2.05585">
        <ele>4</ele>
        <time>2018-03-16T22:28:10Z</time>
      </trkpt>
      <trkpt lat="46.79098" lon="-2.05565">
        <ele>4</ele>
        <time>2018-03-16T22:29:10Z</time>
      </trkpt>
      <trkpt lat="46.79099" lon="-2.0556">
        <ele>3</ele>
        <time>2018-03-16T22:30:10Z</time>
      </trkpt>
      <trkpt lat="46.791" lon="-2.05556">
        <ele>3</ele>
        <time>2018-03-16T22:31:10Z</time>
      </trkpt>
      <trkpt lat="46.79102" lon="-2.05544">
        <ele>3</ele>
        <time>2018-03-16T22:32:10Z</time>
      </trkpt>
      <trkpt lat="46.79102" lon="-2.05544">
        <ele>3</ele>
        <time>2018-03-16T22:33:10Z</time>
      </trkpt>
      <trkpt lat="46.79101" lon="-2.05542">
        <ele>3</ele>
        <time>2018-03-16T22:34:10Z</time>
      </trkpt>
      <trkpt lat="46.79101" lon="-2.0554">
        <ele>3</ele>
        <time>2018-03-16T22:35:10Z</time>
      </trkpt>
      <trkpt lat="46.791" lon="-2.05538">
        <ele>3</ele>
        <time>2018-03-16T22:36:10Z</time>
      </trkpt>
      <trkpt lat="46.791" lon="-2.05536">
        <ele>3</ele>
        <time>2018-03-16T22:37:10Z</time>
      </trkpt>
      <trkpt lat="46.79096" lon="-2.0553">
        <ele>3</ele>
        <time>2018-03-16T22:38:10Z</time>
      </trkpt>
      <trkpt lat="46.79095" lon="-2.05528">
        <ele>3</ele>
        <time>2018-03-16T22:39:10Z</time>
      </trkpt>
      <trkpt lat="46.79093" lon="-2.05525">
        <ele>3</ele>
        <time>2018-03-16T22:40:10Z</time>
      </trkpt>
      <trkpt lat="46.79087" lon="-2.0551">
        <ele>3</ele>
        <time>2018-03-16T22:41:10Z</time>
      </trkpt>
      <trkpt lat="46.79086" lon="-2.05507">
        <ele>3</ele>
        <time>2018-03-16T22:42:10Z</time>
      </trkpt>
      <trkpt lat="46.79085" lon="-2.05503">
        <ele>3</ele>
        <time>2018-03-16T22:43:10Z</time>
      </trkpt>
      <trkpt lat="46.79084" lon="-2.05501">
        <ele>3</ele>
        <time>2018-03-16T22:44:10Z</time>
      </trkpt>
      <trkpt lat="46.79076" lon="-2.05485">
        <ele>3</ele>
        <time>2018-03-16T22:45:10Z</time>
      </trkpt>
      <trkpt lat="46.79065" lon="-2.05462">
        <ele>3</ele>
        <time>2018-03-16T22:46:10Z</time>
      </trkpt>
      <trkpt lat="46.79058" lon="-2.05443">
        <ele>3</ele>
        <time>2018-03-16T22:47:10Z</time>
      </trkpt>
      <trkpt lat="46.79055" lon="-2.05436">
        <ele>3</ele>
        <time>2018-03-16T22:48:10Z</time>
      </trkpt>
      <trkpt lat="46.79047" lon="-2.05411">
        <ele>3</ele>
        <time>2018-03-16T22:49:10Z</time>
      </trkpt>
      <trkpt lat="46.79034" lon="-2.05372">
        <ele>4</ele>
        <time>2018-03-16T22:50:10Z</time>
      </trkpt>
      <trkpt lat="46.79019" lon="-2.05325">
        <ele>4</ele>
        <time>2018-03-16T22:51:10Z</time>
      </trkpt>
      <trkpt lat="46.79016" lon="-2.05314">
        <ele>4</ele>
        <time>2018-03-16T22:52:10Z</time>
      </trkpt>
      <trkpt lat="46.79003" lon="-2.05274">
        <ele>4</ele>
        <time>2018-03-16T22:53:10Z</time>
      </trkpt>
      <trkpt lat="46.79" lon="-2.05265">
        <ele>4</ele>
        <time>2018-03-16T22:54:10Z</time>
      </trkpt>
      <trkpt lat="46.78987" lon="-2.05224">
        <ele>4</ele>
        <time>2018-03-16T22:55:10Z</time>
      </trkpt>
      <trkpt lat="46.78973" lon="-2.05181">
        <ele>4</ele>
        <time>2018-03-16T22:56:10Z</time>
      </trkpt>
      <trkpt lat="46.78958" lon="-2.05141">
        <ele>4</ele>
        <time>2018-03-16T22:57:10Z</time>
      </trkpt>
      <trkpt lat="46.78942" lon="-2.051">
        <ele>3</ele>
        <time>2018-03-16T22:58:10Z</time>
      </trkpt>
      <trkpt lat="46.78926" lon="-2.05063">
        <ele>3</ele>
        <time>2018-03-16T22:59:10Z</time>
      </trkpt>
      <trkpt lat="46.78923" lon="-2.05057">
        <ele>3</ele>
        <time>2018-03-16T23:00:10Z</time>
      </trkpt>
      <trkpt lat="46.7892" lon="-2.0505">
        <ele>3</ele>
        <time>2018-03-16T23:01:10Z</time>
      </trkpt>
      <trkpt lat="46.78914" lon="-2.05036">
        <ele>3</ele>
        <time>2018-03-16T23:02:10Z</time>
      </trkpt>
      <trkpt lat="46.78898" lon="-2.05001">
        <ele>4</ele>
        <time>2018-03-16T23:03:10Z</time>
      </trkpt>
      <trkpt lat="46.78869" lon="-2.04925">
        <ele>5</ele>
        <time>2018-03-16T23:04:10Z</time>
      </trkpt>
      <trkpt lat="46.78863" lon="-2.04907">
        <ele>5</ele>
        <time>2018-03-16T23:05:10Z</time>
      </trkpt>
      <trkpt lat="46.78854" lon="-2.04876">
        <ele>5</ele>
        <time>2018-03-16T23:06:10Z</time>
      </trkpt>
      <trkpt lat="46.78844" lon="-2.04846">
        <ele>5</ele>
        <time>2018-03-16T23:07:10Z</time>
      </trkpt>
      <trkpt lat="46.78824" lon="-2.04778">
        <ele>5</ele>
        <time>2018-03-16T23:08:10Z</time>
      </trkpt>
      <trkpt lat="46.78813" lon="-2.04743">
        <ele>6</ele>
        <time>2018-03-16T23:09:10Z</time>
      </trkpt>
      <trkpt lat="46.78798" lon="-2.04696">
        <ele>7</ele>
        <time>2018-03-16T23:10:10Z</time>
      </trkpt>
      <trkpt lat="46.78785" lon="-2.04662">
        <ele>7</ele>
        <time>2018-03-16T23:11:10Z</time>
      </trkpt>
      <trkpt lat="46.7877" lon="-2.04627">
        <ele>7</ele>
        <time>2018-03-16T23:12:10Z</time>
      </trkpt>
      <trkpt lat="46.7875" lon="-2.04577">
        <ele>6</ele>
        <time>2018-03-16T23:13:10Z</time>
      </trkpt>
      <trkpt lat="46.7873" lon="-2.04527">
        <ele>6</ele>
        <time>2018-03-16T23:14:10Z</time>
      </trkpt>
      <trkpt lat="46.78708" lon="-2.04474">
        <ele>6</ele>
        <time>2018-03-16T23:15:10Z</time>
      </trkpt>
      <trkpt lat="46.78684" lon="-2.04412">
        <ele>7</ele>
        <time>2018-03-16T23:16:10Z</time>
      </trkpt>
      <trkpt lat="46.78665" lon="-2.04361">
        <ele>6</ele>
        <time>2018-03-16T23:17:10Z</time>
      </trkpt>
      <trkpt lat="46.78659" lon="-2.04344">
        <ele>5</ele>
        <time>2018-03-16T23:18:10Z</time>
      </trkpt>
      <trkpt lat="46.78643" lon="-2.04296">
        <ele>5</ele>
        <time>2018-03-16T23:19:10Z</time>
      </trkpt>
      <trkpt lat="46.78632" lon="-2.04264">
        <ele>5</ele>
        <time>2018-03-16T23:20:10Z</time>
      </trkpt>
      <trkpt lat="46.78625" lon="-2.04245">
        <ele>5</ele>
        <time>2018-03-16T23:21:10Z</time>
      </trkpt>
      <trkpt lat="46.78622" lon="-2.04236">
        <ele>5</ele>
        <time>2018-03-16T23:22:10Z</time>
      </trkpt>
      <trkpt lat="46.78609" lon="-2.04205">
        <ele>5</ele>
        <time>2018-03-16T23:23:10Z</time>
      </trkpt>
      <trkpt lat="46.78599" lon="-2.04178">
        <ele>4</ele>
        <time>2018-03-16T23:24:10Z</time>
      </trkpt>
      <trkpt lat="46.7859" lon="-2.04156">
        <ele>4</ele>
        <time>2018-03-16T23:25:10Z</time>
      </trkpt>
      <trkpt lat="46.78583" lon="-2.0414">
        <ele>4</ele>
        <time>2018-03-16T23:26:10Z</time>
      </trkpt>
      <trkpt lat="46.78579" lon="-2.04129">
        <ele>5</ele>
        <time>2018-03-16T23:27:10Z</time>
      </trkpt>
      <trkpt lat="46.78576" lon="-2.04123">
        <ele>5</ele>
        <time>2018-03-16T23:28:10Z</time>
      </trkpt>
      <trkpt lat="46.78571" lon="-2.04104">
        <ele>5</ele>
        <time>2018-03-16T23:29:10Z</time>
      </trkpt>
      <trkpt lat="46.78564" lon="-2.04079">
        <ele>6</ele>
        <time>2018-03-16T23:30:10Z</time>
      </trkpt>
      <trkpt lat="46.78555" lon="-2.04046">
        <ele>6</ele>
        <time>2018-03-16T23:31:10Z</time>
      </trkpt>
      <trkpt lat="46.78545" lon="-2.04009">
        <ele>6</ele>
        <time>2018-03-16T23:32:10Z</time>
      </trkpt>
      <trkpt lat="46.78544" lon="-2.04006">
        <ele>6</ele>
        <time>2018-03-16T23:33:10Z</time>
      </trkpt>
      <trkpt lat="46.7854" lon="-2.0399">
        <ele>6</ele>
        <time>2018-03-16T23:34:10Z</time>
      </trkpt>
      <trkpt lat="46.7853" lon="-2.03963">
        <ele>7</ele>
        <time>2018-03-16T23:35:10Z</time>
      </trkpt>
      <trkpt lat="46.78513" lon="-2.03921">
        <ele>6</ele>
        <time>2018-03-16T23:36:10Z</time>
      </trkpt>
      <trkpt lat="46.78499" lon="-2.03879">
        <ele>6</ele>
        <time>2018-03-16T23:37:10Z</time>
      </trkpt>
      <trkpt lat="46.78496" lon="-2.03872">
        <ele>6</ele>
        <time>2018-03-16T23:38:10Z</time>
      </trkpt>
      <trkpt lat="46.78486" lon="-2.03841">
        <ele>6</ele>
        <time>2018-03-16T23:39:10Z</time>
      </trkpt>
      <trkpt lat="46.78471" lon="-2.03797">
        <ele>6</ele>
        <time>2018-03-16T23:40:10Z</time>
      </trkpt>
      <trkpt lat="46.78464" lon="-2.03776">
        <ele>6</ele>
        <time>2018-03-16T23:41:10Z</time>
      </trkpt>
      <trkpt lat="46.78455" lon="-2.03755">
        <ele>7</ele>
        <time>2018-03-16T23:42:10Z</time>
      </trkpt>
      <trkpt lat="46.78445" lon="-2.03728">
        <ele>7</ele>
        <time>2018-03-16T23:43:10Z</time>
      </trkpt>
      <trkpt lat="46.78426" lon="-2.03684">
        <ele>7</ele>
        <time>2018-03-16T23:44:10Z</time>
      </trkpt>
      <trkpt lat="46.78415" lon="-2.03658">
        <ele>7</ele>
        <time>2018-03-16T23:45:10Z</time>
      </trkpt>
      <trkpt lat="46.78404" lon="-2.03631">
        <ele>7</ele>
        <time>2018-03-16T23:46:10Z</time>
      </trkpt>
      <trkpt lat="46.78404" lon="-2.03631">
        <ele>7</ele>
        <time>2018-03-16T23:47:10Z</time>
      </trkpt>
      <trkpt lat="46.78403" lon="-2.03631">
        <ele>7</ele>
        <time>2018-03-16T23:48:10Z</time>
      </trkpt>
      <trkpt lat="46.78401" lon="-2.03631">
        <ele>7</ele>
        <time>2018-03-16T23:49:10Z</time>
      </trkpt>
      <trkpt lat="46.78399" lon="-2.03629">
        <ele>7</ele>
        <time>2018-03-16T23:50:10Z</time>
      </trkpt>
      <trkpt lat="46.78398" lon="-2.03627">
        <ele>7</ele>
        <time>2018-03-16T23:51:10Z</time>
      </trkpt>
      <trkpt lat="46.78391" lon="-2.03631">
        <ele>8</ele>
        <time>2018-03-16T23:52:10Z</time>
      </trkpt>
      <trkpt lat="46.78383" lon="-2.03637">
        <ele>8</ele>
        <time>2018-03-16T23:53:10Z</time>
      </trkpt>
      <trkpt lat="46.78294" lon="-2.03718">
        <ele>10</ele>
        <time>2018-03-16T23:54:10Z</time>
      </trkpt>
      <trkpt lat="46.78262" lon="-2.03749">
        <ele>10</ele>
        <time>2018-03-16T23:55:10Z</time>
      </trkpt>
      <trkpt lat="46.78259" lon="-2.03757">
        <ele>10</ele>
        <time>2018-03-16T23:56:10Z</time>
      </trkpt>
      <trkpt lat="46.78255" lon="-2.03762">
        <ele>10</ele>
        <time>2018-03-16T23:57:10Z</time>
      </trkpt>
      <trkpt lat="46.78233" lon="-2.03786">
        <ele>10</ele>
        <time>2018-03-16T23:58:10Z</time>
      </trkpt>
      <trkpt lat="46.78233" lon="-2.03787">
        <ele>10</ele>
        <time>2018-03-16T23:59:10Z</time>
      </trkpt>
      <trkpt lat="46.78233" lon="-2.03788">
        <ele>10</ele>
        <time>2018-03-17T00:00:10Z</time>
      </trkpt>
      <trkpt lat="46.78233" lon="-2.03789">
        <ele>10</ele>
        <time>2018-03-17T00:01:10Z</time>
      </trkpt>
      <trkpt lat="46.78233" lon="-2.0379">
        <ele>10</ele>
        <time>2018-03-17T00:02:10Z</time>
      </trkpt>
      <trkpt lat="46.78233" lon="-2.03791">
        <ele>10</ele>
        <time>2018-03-17T00:03:10Z</time>
      </trkpt>
      <trkpt lat="46.78232" lon="-2.03791">
        <ele>10</ele>
        <time>2018-03-17T00:04:10Z</time>
      </trkpt>
      <trkpt lat="46.78232" lon="-2.03792">
        <ele>10</ele>
        <time>2018-03-17T00:05:10Z</time>
      </trkpt>
      <trkpt lat="46.78232" lon="-2.03793">
        <ele>10</ele>
        <time>2018-03-17T00:06:10Z</time>
      </trkpt>
      <trkpt lat="46.78231" lon="-2.03793">
        <ele>10</ele>
        <time>2018-03-17T00:07:10Z</time>
      </trkpt>
      <trkpt lat="46.78231" lon="-2.03794">
        <ele>10</ele>
        <time>2018-03-17T00:08:10Z</time>
      </trkpt>
      <trkpt lat="46.7823" lon="-2.03795">
        <ele>10</ele>
        <time>2018-03-17T00:09:10Z</time>
      </trkpt>
      <trkpt lat="46.78229" lon="-2.03795">
        <ele>9</ele>
        <time>2018-03-17T00:10:10Z</time>
      </trkpt>
      <trkpt lat="46.78228" lon="-2.03795">
        <ele>9</ele>
        <time>2018-03-17T00:11:10Z</time>
      </trkpt>
      <trkpt lat="46.78227" lon="-2.03795">
        <ele>9</ele>
        <time>2018-03-17T00:12:10Z</time>
      </trkpt>
      <trkpt lat="46.78226" lon="-2.03795">
        <ele>9</ele>
        <time>2018-03-17T00:13:10Z</time>
      </trkpt>
      <trkpt lat="46.78226" lon="-2.03794">
        <ele>9</ele>
        <time>2018-03-17T00:14:10Z</time>
      </trkpt>
      <trkpt lat="46.78225" lon="-2.03794">
        <ele>9</ele>
        <time>2018-03-17T00:15:10Z</time>
      </trkpt>
      <trkpt lat="46.78225" lon="-2.03793">
        <ele>9</ele>
        <time>2018-03-17T00:16:10Z</time>
      </trkpt>
      <trkpt lat="46.78224" lon="-2.03793">
        <ele>9</ele>
        <time>2018-03-17T00:17:10Z</time>
      </trkpt>
      <trkpt lat="46.78224" lon="-2.03792">
        <ele>9</ele>
        <time>2018-03-17T00:18:10Z</time>
      </trkpt>
      <trkpt lat="46.78224" lon="-2.03791">
        <ele>9</ele>
        <time>2018-03-17T00:19:10Z</time>
      </trkpt>
      <trkpt lat="46.78224" lon="-2.0379">
        <ele>9</ele>
        <time>2018-03-17T00:20:10Z</time>
      </trkpt>
      <trkpt lat="46.78212" lon="-2.03796">
        <ele>9</ele>
        <time>2018-03-17T00:21:10Z</time>
      </trkpt>
      <trkpt lat="46.78211" lon="-2.03797">
        <ele>9</ele>
        <time>2018-03-17T00:22:10Z</time>
      </trkpt>
      <trkpt lat="46.78203" lon="-2.038">
        <ele>9</ele>
        <time>2018-03-17T00:23:10Z</time>
      </trkpt>
      <trkpt lat="46.78198" lon="-2.038">
        <ele>9</ele>
        <time>2018-03-17T00:24:10Z</time>
      </trkpt>
      <trkpt lat="46.78154" lon="-2.03832">
        <ele>7</ele>
        <time>2018-03-17T00:25:10Z</time>
      </trkpt>
      <trkpt lat="46.78142" lon="-2.03838">
        <ele>6</ele>
        <time>2018-03-17T00:26:10Z</time>
      </trkpt>
      <trkpt lat="46.78116" lon="-2.0385">
        <ele>6</ele>
        <time>2018-03-17T00:27:10Z</time>
      </trkpt>
      <trkpt lat="46.78116" lon="-2.0385">
        <ele>6</ele>
        <time>2018-03-17T00:28:10Z</time>
      </trkpt>
      <trkpt lat="46.78116" lon="-2.03851">
        <ele>6</ele>
        <time>2018-03-17T00:29:10Z</time>
      </trkpt>
      <trkpt lat="46.78116" lon="-2.03852">
        <ele>6</ele>
        <time>2018-03-17T00:30:10Z</time>
      </trkpt>
      <trkpt lat="46.78115" lon="-2.03852">
        <ele>6</ele>
        <time>2018-03-17T00:31:10Z</time>
      </trkpt>
      <trkpt lat="46.78115" lon="-2.03853">
        <ele>6</ele>
        <time>2018-03-17T00:32:10Z</time>
      </trkpt>
      <trkpt lat="46.78114" lon="-2.03853">
        <ele>6</ele>
        <time>2018-03-17T00:33:10Z</time>
      </trkpt>
      <trkpt lat="46.78114" lon="-2.03854">
        <ele>6</ele>
        <time>2018-03-17T00:34:10Z</time>
      </trkpt>
      <trkpt lat="46.78113" lon="-2.03854">
        <ele>6</ele>
        <time>2018-03-17T00:35:10Z</time>
      </trkpt>
      <trkpt lat="46.78113" lon="-2.03855">
        <ele>6</ele>
        <time>2018-03-17T00:36:10Z</time>
      </trkpt>
      <trkpt lat="46.78112" lon="-2.03855">
        <ele>6</ele>
        <time>2018-03-17T00:37:10Z</time>
      </trkpt>
      <trkpt lat="46.78111" lon="-2.03855">
        <ele>6</ele>
        <time>2018-03-17T00:38:10Z</time>
      </trkpt>
      <trkpt lat="46.7811" lon="-2.03855">
        <ele>6</ele>
        <time>2018-03-17T00:39:10Z</time>
      </trkpt>
      <trkpt lat="46.78109" lon="-2.03855">
        <ele>6</ele>
        <time>2018-03-17T00:40:10Z</time>
      </trkpt>
      <trkpt lat="46.78108" lon="-2.03855">
        <ele>5</ele>
        <time>2018-03-17T00:41:10Z</time>
      </trkpt>
      <trkpt lat="46.78108" lon="-2.03854">
        <ele>5</ele>
        <time>2018-03-17T00:42:10Z</time>
      </trkpt>
      <trkpt lat="46.78107" lon="-2.03854">
        <ele>5</ele>
        <time>2018-03-17T00:43:10Z</time>
      </trkpt>
      <trkpt lat="46.78107" lon="-2.03853">
        <ele>5</ele>
        <time>2018-03-17T00:44:10Z</time>
      </trkpt>
      <trkpt lat="46.78106" lon="-2.03853">
        <ele>5</ele>
        <time>2018-03-17T00:45:10Z</time>
      </trkpt>
      <trkpt lat="46.78106" lon="-2.03852">
        <ele>5</ele>
        <time>2018-03-17T00:46:10Z</time>
      </trkpt>
      <trkpt lat="46.78105" lon="-2.03852">
        <ele>5</ele>
        <time>2018-03-17T00:47:10Z</time>
      </trkpt>
      <trkpt lat="46.78105" lon="-2.03851">
        <ele>5</ele>
        <time>2018-03-17T00:48:10Z</time>
      </trkpt>
      <trkpt lat="46.78105" lon="-2.0385">
        <ele>5</ele>
        <time>2018-03-17T00:49:10Z</time>
      </trkpt>
      <trkpt lat="46.78105" lon="-2.03849">
        <ele>5</ele>
        <time>2018-03-17T00:50:10Z</time>
      </trkpt>
      <trkpt lat="46.78105" lon="-2.03848">
        <ele>5</ele>
        <time>2018-03-17T00:51:10Z</time>
      </trkpt>
      <trkpt lat="46.78104" lon="-2.03848">
        <ele>5</ele>
        <time>2018-03-17T00:52:10Z</time>
      </trkpt>
      <trkpt lat="46.78104" lon="-2.03847">
        <ele>5</ele>
        <time>2018-03-17T00:53:10Z</time>
      </trkpt>
      <trkpt lat="46.78104" lon="-2.03846">
        <ele>5</ele>
        <time>2018-03-17T00:54:10Z</time>
      </trkpt>
      <trkpt lat="46.78104" lon="-2.03845">
        <ele>5</ele>
        <time>2018-03-17T00:55:10Z</time>
      </trkpt>
      <trkpt lat="46.78105" lon="-2.03845">
        <ele>5</ele>
        <time>2018-03-17T00:56:10Z</time>
      </trkpt>
      <trkpt lat="46.78105" lon="-2.03844">
        <ele>5</ele>
        <time>2018-03-17T00:57:10Z</time>
      </trkpt>
      <trkpt lat="46.78105" lon="-2.03843">
        <ele>5</ele>
        <time>2018-03-17T00:58:10Z</time>
      </trkpt>
      <trkpt lat="46.78105" lon="-2.03842">
        <ele>5</ele>
        <time>2018-03-17T00:59:10Z</time>
      </trkpt>
      <trkpt lat="46.78106" lon="-2.03841">
        <ele>6</ele>
        <time>2018-03-17T01:00:10Z</time>
      </trkpt>
      <trkpt lat="46.78106" lon="-2.0384">
        <ele>6</ele>
        <time>2018-03-17T01:01:10Z</time>
      </trkpt>
      <trkpt lat="46.78107" lon="-2.0384">
        <ele>6</ele>
        <time>2018-03-17T01:02:10Z</time>
      </trkpt>
      <trkpt lat="46.78107" lon="-2.03839">
        <ele>6</ele>
        <time>2018-03-17T01:03:10Z</time>
      </trkpt>
      <trkpt lat="46.78102" lon="-2.03834">
        <ele>5</ele>
        <time>2018-03-17T01:04:10Z</time>
      </trkpt>
      <trkpt lat="46.78095" lon="-2.03828">
        <ele>5</ele>
        <time>2018-03-17T01:05:10Z</time>
      </trkpt>
      <trkpt lat="46.78084" lon="-2.03822">
        <ele>5</ele>
        <time>2018-03-17T01:06:10Z</time>
      </trkpt>
      <trkpt lat="46.78017" lon="-2.03794">
        <ele>6</ele>
        <time>2018-03-17T01:07:10Z</time>
      </trkpt>
      <trkpt lat="46.77993" lon="-2.03776">
        <ele>6</ele>
        <time>2018-03-17T01:08:10Z</time>
      </trkpt>
      <trkpt lat="46.77979" lon="-2.03767">
        <ele>6</ele>
        <time>2018-03-17T01:09:10Z</time>
      </trkpt>
      <trkpt lat="46.77967" lon="-2.0376">
        <ele>6</ele>
        <time>2018-03-17T01:10:10Z</time>
      </trkpt>
      <trkpt lat="46.77953" lon="-2.03753">
        <ele>6</ele>
        <time>2018-03-17T01:11:10Z</time>
      </trkpt>
      <trkpt lat="46.77936" lon="-2.03748">
        <ele>6</ele>
        <time>2018-03-17T01:12:10Z</time>
      </trkpt>
      <trkpt lat="46.77914" lon="-2.0374">
        <ele>6</ele>
        <time>2018-03-17T01:13:10Z</time>
      </trkpt>
      <trkpt lat="46.779" lon="-2.03735">
        <ele>6</ele>
        <time>2018-03-17T01:14:10Z</time>
      </trkpt>
      <trkpt lat="46.77882" lon="-2.03728">
        <ele>5</ele>
        <time>2018-03-17T01:15:10Z</time>
      </trkpt>
      <trkpt lat="46.77865" lon="-2.0372">
        <ele>5</ele>
        <time>2018-03-17T01:16:10Z</time>
      </trkpt>
      <trkpt lat="46.77841" lon="-2.03709">
        <ele>4</ele>
        <time>2018-03-17T01:17:10Z</time>
      </trkpt>
      <trkpt lat="46.77822" lon="-2.03699">
        <ele>4</ele>
        <time>2018-03-17T01:18:10Z</time>
      </trkpt>
      <trkpt lat="46.77806" lon="-2.03689">
        <ele>4</ele>
        <time>2018-03-17T01:19:10Z</time>
      </trkpt>
      <trkpt lat="46.77791" lon="-2.03679">
        <ele>4</ele>
        <time>2018-03-17T01:20:10Z</time>
      </trkpt>
      <trkpt lat="46.77771" lon="-2.0366">
        <ele>4</ele>
        <time>2018-03-17T01:21:10Z</time>
      </trkpt>
      <trkpt lat="46.77741" lon="-2.03633">
        <ele>5</ele>
        <time>2018-03-17T01:22:10Z</time>
      </trkpt>
      <trkpt lat="46.77723" lon="-2.03614">
        <ele>6</ele>
        <time>2018-03-17T01:23:10Z</time>
      </trkpt>
      <trkpt lat="46.77692" lon="-2.03586">
        <ele>6</ele>
        <time>2018-03-17T01:24:10Z</time>
      </trkpt>
      <trkpt lat="46.77667" lon="-2.03561">
        <ele>6</ele>
        <time>2018-03-17T01:25:10Z</time>
      </trkpt>
      <trkpt lat="46.77651" lon="-2.03543">
        <ele>6</ele>
        <time>2018-03-17T01:26:10Z</time>
      </trkpt>
      <trkpt lat="46.7762" lon="-2.03502">
        <ele>5</ele>
        <time>2018-03-17T01:27:10Z</time>
      </trkpt>
      <trkpt lat="46.77577" lon="-2.03444">
        <ele>4</ele>
        <time>2018-03-17T01:28:10Z</time>
      </trkpt>
      <trkpt lat="46.77547" lon="-2.03405">
        <ele>5</ele>
        <time>2018-03-17T01:29:10Z</time>
      </trkpt>
      <trkpt lat="46.77508" lon="-2.03356">
        <ele>5</ele>
        <time>2018-03-17T01:30:10Z</time>
      </trkpt>
      <trkpt lat="46.77474" lon="-2.03304">
        <ele>6</ele>
        <time>2018-03-17T01:31:10Z</time>
      </trkpt>
      <trkpt lat="46.77456" lon="-2.0328">
        <ele>6</ele>
        <time>2018-03-17T01:32:10Z</time>
      </trkpt>
      <trkpt lat="46.77439" lon="-2.0326">
        <ele>6</ele>
        <time>2018-03-17T01:33:10Z</time>
      </trkpt>
      <trkpt lat="46.77404" lon="-2.03221">
        <ele>5</ele>
        <time>2018-03-17T01:34:10Z</time>
      </trkpt>
      <trkpt lat="46.7736" lon="-2.0317">
        <ele>4</ele>
        <time>2018-03-17T01:35:10Z</time>
      </trkpt>
      <trkpt lat="46.77325" lon="-2.03127">
        <ele>4</ele>
        <time>2018-03-17T01:36:10Z</time>
      </trkpt>
      <trkpt lat="46.77323" lon="-2.03125">
        <ele>4</ele>
        <time>2018-03-17T01:37:10Z</time>
      </trkpt>
      <trkpt lat="46.7729" lon="-2.03083">
        <ele>4</ele>
        <time>2018-03-17T01:38:10Z</time>
      </trkpt>
      <trkpt lat="46.77259" lon="-2.03044">
        <ele>5</ele>
        <time>2018-03-17T01:39:10Z</time>
      </trkpt>
      <trkpt lat="46.77193" lon="-2.02967">
        <ele>7</ele>
        <time>2018-03-17T01:40:10Z</time>
      </trkpt>
      <trkpt lat="46.77134" lon="-2.02895">
        <ele>5</ele>
        <time>2018-03-17T01:41:10Z</time>
      </trkpt>
      <trkpt lat="46.77107" lon="-2.02864">
        <ele>3</ele>
        <time>2018-03-17T01:42:10Z</time>
      </trkpt>
      <trkpt lat="46.77093" lon="-2.02849">
        <ele>3</ele>
        <time>2018-03-17T01:43:10Z</time>
      </trkpt>
      <trkpt lat="46.77078" lon="-2.02836">
        <ele>2</ele>
        <time>2018-03-17T01:44:10Z</time>
      </trkpt>
      <trkpt lat="46.77056" lon="-2.0282">
        <ele>2</ele>
        <time>2018-03-17T01:45:10Z</time>
      </trkpt>
      <trkpt lat="46.77046" lon="-2.02814">
        <ele>2</ele>
        <time>2018-03-17T01:46:10Z</time>
      </trkpt>
      <trkpt lat="46.77031" lon="-2.02807">
        <ele>3</ele>
        <time>2018-03-17T01:47:10Z</time>
      </trkpt>
      <trkpt lat="46.77017" lon="-2.02799">
        <ele>3</ele>
        <time>2018-03-17T01:48:10Z</time>
      </trkpt>
      <trkpt lat="46.77013" lon="-2.02797">
        <ele>3</ele>
        <time>2018-03-17T01:49:10Z</time>
      </trkpt>
      <trkpt lat="46.76993" lon="-2.02783">
        <ele>3</ele>
        <time>2018-03-17T01:50:10Z</time>
      </trkpt>
      <trkpt lat="46.76975" lon="-2.02767">
        <ele>3</ele>
        <time>2018-03-17T01:51:10Z</time>
      </trkpt>
      <trkpt lat="46.7695" lon="-2.02741">
        <ele>4</ele>
        <time>2018-03-17T01:52:10Z</time>
      </trkpt>
      <trkpt lat="46.76948" lon="-2.02739">
        <ele>4</ele>
        <time>2018-03-17T01:53:10Z</time>
      </trkpt>
      <trkpt lat="46.76903" lon="-2.02685">
        <ele>3</ele>
        <time>2018-03-17T01:54:10Z</time>
      </trkpt>
      <trkpt lat="46.76879" lon="-2.02657">
        <ele>3</ele>
        <time>2018-03-17T01:55:10Z</time>
      </trkpt>
      <trkpt lat="46.76849" lon="-2.02626">
        <ele>3</ele>
        <time>2018-03-17T01:56:10Z</time>
      </trkpt>
      <trkpt lat="46.76824" lon="-2.02609">
        <ele>3</ele>
        <time>2018-03-17T01:57:10Z</time>
      </trkpt>
      <trkpt lat="46.76795" lon="-2.02587">
        <ele>3</ele>
        <time>2018-03-17T01:58:10Z</time>
      </trkpt>
      <trkpt lat="46.76771" lon="-2.02568">
        <ele>3</ele>
        <time>2018-03-17T01:59:10Z</time>
      </trkpt>
      <trkpt lat="46.76739" lon="-2.02536">
        <ele>3</ele>
        <time>2018-03-17T02:00:10Z</time>
      </trkpt>
      <trkpt lat="46.76722" lon="-2.02514">
        <ele>3</ele>
        <time>2018-03-17T02:01:10Z</time>
      </trkpt>
      <trkpt lat="46.76714" lon="-2.02502">
        <ele>4</ele>
        <time>2018-03-17T02:02:10Z</time>
      </trkpt>
      <trkpt lat="46.76702" lon="-2.02484">
        <ele>3</ele>
        <time>2018-03-17T02:03:10Z</time>
      </trkpt>
      <trkpt lat="46.7668" lon="-2.02451">
        <ele>3</ele>
        <time>2018-03-17T02:04:10Z</time>
      </trkpt>
      <trkpt lat="46.76654" lon="-2.02405">
        <ele>3</ele>
        <time>2018-03-17T02:05:10Z</time>
      </trkpt>
      <trkpt lat="46.76631" lon="-2.02361">
        <ele>3</ele>
        <time>2018-03-17T02:06:10Z</time>
      </trkpt>
      <trkpt lat="46.7661" lon="-2.02321">
        <ele>3</ele>
        <time>2018-03-17T02:07:10Z</time>
      </trkpt>
      <trkpt lat="46.76582" lon="-2.02274">
        <ele>2</ele>
        <time>2018-03-17T02:08:10Z</time>
      </trkpt>
      <trkpt lat="46.76551" lon="-2.02218">
        <ele>3</ele>
        <time>2018-03-17T02:09:10Z</time>
      </trkpt>
      <trkpt lat="46.76531" lon="-2.02185">
        <ele>3</ele>
        <time>2018-03-17T02:10:10Z</time>
      </trkpt>
      <trkpt lat="46.76531" lon="-2.02185">
        <ele>3</ele>
        <time>2018-03-17T02:11:10Z</time>
      </trkpt>
      <trkpt lat="46.76522" lon="-2.0217">
        <ele>3</ele>
        <time>2018-03-17T02:12:10Z</time>
      </trkpt>
      <trkpt lat="46.76502" lon="-2.02143">
        <ele>3</ele>
        <time>2018-03-17T02:13:10Z</time>
      </trkpt>
      <trkpt lat="46.76477" lon="-2.02116">
        <ele>3</ele>
        <time>2018-03-17T02:14:10Z</time>
      </trkpt>
      <trkpt lat="46.76456" lon="-2.02097">
        <ele>4</ele>
        <time>2018-03-17T02:15:10Z</time>
      </trkpt>
      <trkpt lat="46.76432" lon="-2.02075">
        <ele>4</ele>
        <time>2018-03-17T02:16:10Z</time>
      </trkpt>
      <trkpt lat="46.764" lon="-2.02048">
        <ele>5</ele>
        <time>2018-03-17T02:17:10Z</time>
      </trkpt>
      <trkpt lat="46.76377" lon="-2.02031">
        <ele>5</ele>
        <time>2018-03-17T02:18:10Z</time>
      </trkpt>
      <trkpt lat="46.76354" lon="-2.02021">
        <ele>6</ele>
        <time>2018-03-17T02:19:10Z</time>
      </trkpt>
      <trkpt lat="46.76321" lon="-2.02005">
        <ele>6</ele>
        <time>2018-03-17T02:20:10Z</time>
      </trkpt>
      <trkpt lat="46.76317" lon="-2.02004">
        <ele>6</ele>
        <time>2018-03-17T02:21:10Z</time>
      </trkpt>
      <trkpt lat="46.76283" lon="-2.01983">
        <ele>6</ele>
        <time>2018-03-17T02:22:10Z</time>
      </trkpt>
      <trkpt lat="46.76229" lon="-2.01951">
        <ele>5</ele>
        <time>2018-03-17T02:23:10Z</time>
      </trkpt>
      <trkpt lat="46.76161" lon="-2.01905">
        <ele>5</ele>
        <time>2018-03-17T02:24:10Z</time>
      </trkpt>
      <trkpt lat="46.76135" lon="-2.01891">
        <ele>5</ele>
        <time>2018-03-17T02:25:10Z</time>
      </trkpt>
      <trkpt lat="46.76089" lon="-2.01867">
        <ele>5</ele>
        <time>2018-03-17T02:26:10Z</time>
      </trkpt>
      <trkpt lat="46.76049" lon="-2.01848">
        <ele>5</ele>
        <time>2018-03-17T02:27:10Z</time>
      </trkpt>
      <trkpt lat="46.75992" lon="-2.01828">
        <ele>4</ele>
        <time>2018-03-17T02:28:10Z</time>
      </trkpt>
      <trkpt lat="46.75971" lon="-2.01819">
        <ele>4</ele>
        <time>2018-03-17T02:29:10Z</time>
      </trkpt>
      <trkpt lat="46.75946" lon="-2.01807">
        <ele>4</ele>
        <time>2018-03-17T02:30:10Z</time>
      </trkpt>
      <trkpt lat="46.75896" lon="-2.01778">
        <ele>4</ele>
        <time>2018-03-17T02:31:10Z</time>
      </trkpt>
      <trkpt lat="46.7589" lon="-2.01775">
        <ele>4</ele>
        <time>2018-03-17T02:32:10Z</time>
      </trkpt>
      <trkpt lat="46.7586" lon="-2.0176">
        <ele>4</ele>
        <time>2018-03-17T02:33:10Z</time>
      </trkpt>
      <trkpt lat="46.75836" lon="-2.01751">
        <ele>5</ele>
        <time>2018-03-17T02:34:10Z</time>
      </trkpt>
      <trkpt lat="46.7581" lon="-2.01748">
        <ele>5</ele>
        <time>2018-03-17T02:35:10Z</time>
      </trkpt>
      <trkpt lat="46.75769" lon="-2.01744">
        <ele>5</ele>
        <time>2018-03-17T02:36:10Z</time>
      </trkpt>
      <trkpt lat="46.7573" lon="-2.0174">
        <ele>5</ele>
        <time>2018-03-17T02:37:10Z</time>
      </trkpt>
      <trkpt lat="46.75681" lon="-2.01726">
        <ele>5</ele>
        <time>2018-03-17T02:38:10Z</time>
      </trkpt>
      <trkpt lat="46.75639" lon="-2.01719">
        <ele>4</ele>
        <time>2018-03-17T02:39:10Z</time>
      </trkpt>
      <trkpt lat="46.75616" lon="-2.01715">
        <ele>3</ele>
        <time>2018-03-17T02:40:10Z</time>
      </trkpt>
      <trkpt lat="46.75602" lon="-2.01712">
        <ele>3</ele>
        <time>2018-03-17T02:41:10Z</time>
      </trkpt>
      <trkpt lat="46.75583" lon="-2.01704">
        <ele>2</ele>
        <time>2018-03-17T02:42:10Z</time>
      </trkpt>
      <trkpt lat="46.75568" lon="-2.01695">
        <ele>2</ele>
        <time>2018-03-17T02:43:10Z</time>
      </trkpt>
      <trkpt lat="46.75553" lon="-2.0168">
        <ele>2</ele>
        <time>2018-03-17T02:44:10Z</time>
      </trkpt>
      <trkpt lat="46.75534" lon="-2.01654">
        <ele>2</ele>
        <time>2018-03-17T02:45:10Z</time>
      </trkpt>
      <trkpt lat="46.75521" lon="-2.01636">
        <ele>3</ele>
        <time>2018-03-17T02:46:10Z</time>
      </trkpt>
      <trkpt lat="46.75486" lon="-2.0159">
        <ele>3</ele>
        <time>2018-03-17T02:47:10Z</time>
      </trkpt>
      <trkpt lat="46.75471" lon="-2.01566">
        <ele>4</ele>
        <time>2018-03-17T02:48:10Z</time>
      </trkpt>
      <trkpt lat="46.75466" lon="-2.01556">
        <ele>3</ele>
        <time>2018-03-17T02:49:10Z</time>
      </trkpt>
      <trkpt lat="46.75447" lon="-2.0151">
        <ele>3</ele>
        <time>2018-03-17T02:50:10Z</time>
      </trkpt>
      <trkpt lat="46.75433" lon="-2.01478">
        <ele>2</ele>
        <time>2018-03-17T02:51:10Z</time>
      </trkpt>
      <trkpt lat="46.75419" lon="-2.01458">
        <ele>2</ele>
        <time>2018-03-17T02:52:10Z</time>
      </trkpt>
      <trkpt lat="46.75406" lon="-2.01445">
        <ele>2</ele>
        <time>2018-03-17T02:53:10Z</time>
      </trkpt>
      <trkpt lat="46.75395" lon="-2.01438">
        <ele>2</ele>
        <time>2018-03-17T02:54:10Z</time>
      </trkpt>
      <trkpt lat="46.75384" lon="-2.0143">
        <ele>2</ele>
        <time>2018-03-17T02:55:10Z</time>
      </trkpt>
      <trkpt lat="46.75377" lon="-2.01426">
        <ele>2</ele>
        <time>2018-03-17T02:56:10Z</time>
      </trkpt>
      <trkpt lat="46.75377" lon="-2.01426">
        <ele>2</ele>
        <time>2018-03-17T02:57:10Z</time>
      </trkpt>
      <trkpt lat="46.75361" lon="-2.01435">
        <ele>1</ele>
        <time>2018-03-17T02:58:10Z</time>
      </trkpt>
      <trkpt lat="46.75322" lon="-2.01458">
        <ele>1</ele>
        <time>2018-03-17T02:59:10Z</time>
      </trkpt>
      <trkpt lat="46.75284" lon="-2.01478">
        <ele>1</ele>
        <time>2018-03-17T03:00:10Z</time>
      </trkpt>
      <trkpt lat="46.75278" lon="-2.01481">
        <ele>1</ele>
        <time>2018-03-17T03:01:10Z</time>
      </trkpt>
      <trkpt lat="46.75272" lon="-2.01484">
        <ele>1</ele>
        <time>2018-03-17T03:02:10Z</time>
      </trkpt>
      <trkpt lat="46.75249" lon="-2.01496">
        <ele>2.8</ele>
        <time>2018-03-17T03:03:10Z</time>
      </trkpt>
      <trkpt lat="46.75233" lon="-2.01505">
        <ele>2.3</ele>
        <time>2018-03-17T03:04:10Z</time>
      </trkpt>
      <trkpt lat="46.75216" lon="-2.01515">
        <ele>1</ele>
        <time>2018-03-17T03:05:10Z</time>
      </trkpt>
      <trkpt lat="46.75212" lon="-2.01517">
        <ele>1</ele>
        <time>2018-03-17T03:06:10Z</time>
      </trkpt>
      <trkpt lat="46.75202" lon="-2.01523">
        <ele>1</ele>
        <time>2018-03-17T03:07:10Z</time>
      </trkpt>
      <trkpt lat="46.75177" lon="-2.01541">
        <ele>1</ele>
        <time>2018-03-17T03:08:10Z</time>
      </trkpt>
      <trkpt lat="46.75172" lon="-2.01545">
        <ele>1</ele>
        <time>2018-03-17T03:09:10Z</time>
      </trkpt>
      <trkpt lat="46.7517" lon="-2.01546">
        <ele>2</ele>
        <time>2018-03-17T03:10:10Z</time>
      </trkpt>
      <trkpt lat="46.75154" lon="-2.01559">
        <ele>2</ele>
        <time>2018-03-17T03:11:10Z</time>
      </trkpt>
      <trkpt lat="46.75139" lon="-2.01573">
        <ele>3</ele>
        <time>2018-03-17T03:12:10Z</time>
      </trkpt>
      <trkpt lat="46.75136" lon="-2.0158">
        <ele>3</ele>
        <time>2018-03-17T03:13:10Z</time>
      </trkpt>
      <trkpt lat="46.75134" lon="-2.01586">
        <ele>3</ele>
        <time>2018-03-17T03:14:10Z</time>
      </trkpt>
      <trkpt lat="46.75132" lon="-2.01601">
        <ele>3</ele>
        <time>2018-03-17T03:15:10Z</time>
      </trkpt>
      <trkpt lat="46.75132" lon="-2.01601">
        <ele>3</ele>
        <time>2018-03-17T03:16:10Z</time>
      </trkpt>
      <trkpt lat="46.75134" lon="-2.01607">
        <ele>3</ele>
        <time>2018-03-17T03:17:10Z</time>
      </trkpt>
      <trkpt lat="46.75134" lon="-2.0161">
        <ele>3</ele>
        <time>2018-03-17T03:18:10Z</time>
      </trkpt>
      <trkpt lat="46.75134" lon="-2.01615">
        <ele>3</ele>
        <time>2018-03-17T03:19:10Z</time>
      </trkpt>
      <trkpt lat="46.75133" lon="-2.0162">
        <ele>4</ele>
        <time>2018-03-17T03:20:10Z</time>
      </trkpt>
      <trkpt lat="46.7513" lon="-2.01624">
        <ele>4</ele>
        <time>2018-03-17T03:21:10Z</time>
      </trkpt>
      <trkpt lat="46.75126" lon="-2.01627">
        <ele>4</ele>
        <time>2018-03-17T03:22:10Z</time>
      </trkpt>
      <trkpt lat="46.7512" lon="-2.01629">
        <ele>4</ele>
        <time>2018-03-17T03:23:10Z</time>
      </trkpt>
      <trkpt lat="46.75116" lon="-2.01628">
        <ele>4</ele>
        <time>2018-03-17T03:24:10Z</time>
      </trkpt>
      <trkpt lat="46.75112" lon="-2.01626">
        <ele>4</ele>
        <time>2018-03-17T03:25:10Z</time>
      </trkpt>
      <trkpt lat="46.75109" lon="-2.01623">
        <ele>4</ele>
        <time>2018-03-17T03:26:10Z</time>
      </trkpt>
      <trkpt lat="46.75107" lon="-2.01618">
        <ele>4</ele>
        <time>2018-03-17T03:27:10Z</time>
      </trkpt>
      <trkpt lat="46.75106" lon="-2.01612">
        <ele>4</ele>
        <time>2018-03-17T03:28:10Z</time>
      </trkpt>
      <trkpt lat="46.75105" lon="-2.01607">
        <ele>4</ele>
        <time>2018-03-17T03:29:10Z</time>
      </trkpt>
      <trkpt lat="46.75106" lon="-2.01601">
        <ele>4</ele>
        <time>2018-03-17T03:30:10Z</time>
      </trkpt>
      <trkpt lat="46.75102" lon="-2.01593">
        <ele>4</ele>
        <time>2018-03-17T03:31:10Z</time>
      </trkpt>
      <trkpt lat="46.75099" lon="-2.01586">
        <ele>4</ele>
        <time>2018-03-17T03:32:10Z</time>
      </trkpt>
      <trkpt lat="46.75096" lon="-2.01579">
        <ele>4</ele>
        <time>2018-03-17T03:33:10Z</time>
      </trkpt>
      <trkpt lat="46.75084" lon="-2.01564">
        <ele>4</ele>
        <time>2018-03-17T03:34:10Z</time>
      </trkpt>
      <trkpt lat="46.75057" lon="-2.01531">
        <ele>4</ele>
        <time>2018-03-17T03:35:10Z</time>
      </trkpt>
      <trkpt lat="46.75037" lon="-2.01501">
        <ele>4</ele>
        <time>2018-03-17T03:36:10Z</time>
      </trkpt>
      <trkpt lat="46.75035" lon="-2.01499">
        <ele>4</ele>
        <time>2018-03-17T03:37:10Z</time>
      </trkpt>
      <trkpt lat="46.75018" lon="-2.01472">
        <ele>4</ele>
        <time>2018-03-17T03:38:10Z</time>
      </trkpt>
      <trkpt lat="46.74993" lon="-2.01431">
        <ele>4</ele>
        <time>2018-03-17T03:39:10Z</time>
      </trkpt>
      <trkpt lat="46.74972" lon="-2.01394">
        <ele>5</ele>
        <time>2018-03-17T03:40:10Z</time>
      </trkpt>
      <trkpt lat="46.74969" lon="-2.01389">
        <ele>5</ele>
        <time>2018-03-17T03:41:10Z</time>
      </trkpt>
      <trkpt lat="46.74958" lon="-2.01372">
        <ele>5</ele>
        <time>2018-03-17T03:42:10Z</time>
      </trkpt>
      <trkpt lat="46.74952" lon="-2.01363">
        <ele>6</ele>
        <time>2018-03-17T03:43:10Z</time>
      </trkpt>
      <trkpt lat="46.7495" lon="-2.01362">
        <ele>6</ele>
        <time>2018-03-17T03:44:10Z</time>
      </trkpt>
      <trkpt lat="46.74944" lon="-2.01355">
        <ele>6</ele>
        <time>2018-03-17T03:45:10Z</time>
      </trkpt>
      <trkpt lat="46.74927" lon="-2.01343">
        <ele>7</ele>
        <time>2018-03-17T03:46:10Z</time>
      </trkpt>
      <trkpt lat="46.74895" lon="-2.01325">
        <ele>7</ele>
        <time>2018-03-17T03:47:10Z</time>
      </trkpt>
      <trkpt lat="46.74863" lon="-2.01308">
        <ele>7</ele>
        <time>2018-03-17T03:48:10Z</time>
      </trkpt>
      <trkpt lat="46.74821" lon="-2.01285">
        <ele>6</ele>
        <time>2018-03-17T03:49:10Z</time>
      </trkpt>
      <trkpt lat="46.74784" lon="-2.01263">
        <ele>6</ele>
        <time>2018-03-17T03:50:10Z</time>
      </trkpt>
      <trkpt lat="46.74747" lon="-2.0124">
        <ele>7</ele>
        <time>2018-03-17T03:51:10Z</time>
      </trkpt>
      <trkpt lat="46.74723" lon="-2.01225">
        <ele>7</ele>
        <time>2018-03-17T03:52:10Z</time>
      </trkpt>
      <trkpt lat="46.74693" lon="-2.01205">
        <ele>8</ele>
        <time>2018-03-17T03:53:10Z</time>
      </trkpt>
      <trkpt lat="46.74682" lon="-2.01198">
        <ele>8</ele>
        <time>2018-03-17T03:54:10Z</time>
      </trkpt>
      <trkpt lat="46.74664" lon="-2.01183">
        <ele>8</ele>
        <time>2018-03-17T03:55:10Z</time>
      </trkpt>
      <trkpt lat="46.74646" lon="-2.01164">
        <ele>8</ele>
        <time>2018-03-17T03:56:10Z</time>
      </trkpt>
      <trkpt lat="46.74638" lon="-2.01154">
        <ele>8</ele>
        <time>2018-03-17T03:57:10Z</time>
      </trkpt>
      <trkpt lat="46.74613" lon="-2.01126">
        <ele>7</ele>
        <time>2018-03-17T03:58:10Z</time>
      </trkpt>
      <trkpt lat="46.74582" lon="-2.01089">
        <ele>4</ele>
        <time>2018-03-17T03:59:10Z</time>
      </trkpt>
      <trkpt lat="46.74564" lon="-2.01068">
        <ele>4</ele>
        <time>2018-03-17T04:00:10Z</time>
      </trkpt>
      <trkpt lat="46.74557" lon="-2.01058">
        <ele>4</ele>
        <time>2018-03-17T04:01:10Z</time>
      </trkpt>
      <trkpt lat="46.74538" lon="-2.01036">
        <ele>4</ele>
        <time>2018-03-17T04:02:10Z</time>
      </trkpt>
      <trkpt lat="46.74532" lon="-2.0103">
        <ele>5</ele>
        <time>2018-03-17T04:03:10Z</time>
      </trkpt>
      <trkpt lat="46.74512" lon="-2.01014">
        <ele>5</ele>
        <time>2018-03-17T04:04:10Z</time>
      </trkpt>
      <trkpt lat="46.74482" lon="-2.00986">
        <ele>4</ele>
        <time>2018-03-17T04:05:10Z</time>
      </trkpt>
      <trkpt lat="46.74463" lon="-2.00969">
        <ele>4</ele>
        <time>2018-03-17T04:06:10Z</time>
      </trkpt>
      <trkpt lat="46.74444" lon="-2.00952">
        <ele>4</ele>
        <time>2018-03-17T04:07:10Z</time>
      </trkpt>
      <trkpt lat="46.7439" lon="-2.00906">
        <ele>3</ele>
        <time>2018-03-17T04:08:10Z</time>
      </trkpt>
      <trkpt lat="46.74361" lon="-2.0088">
        <ele>3</ele>
        <time>2018-03-17T04:09:10Z</time>
      </trkpt>
      <trkpt lat="46.74345" lon="-2.00864">
        <ele>3</ele>
        <time>2018-03-17T04:10:10Z</time>
      </trkpt>
      <trkpt lat="46.74337" lon="-2.00853">
        <ele>3</ele>
        <time>2018-03-17T04:11:10Z</time>
      </trkpt>
      <trkpt lat="46.7433" lon="-2.00843">
        <ele>3</ele>
        <time>2018-03-17T04:12:10Z</time>
      </trkpt>
      <trkpt lat="46.74322" lon="-2.0083">
        <ele>3</ele>
        <time>2018-03-17T04:13:10Z</time>
      </trkpt>
      <trkpt lat="46.74312" lon="-2.00812">
        <ele>2</ele>
        <time>2018-03-17T04:14:10Z</time>
      </trkpt>
      <trkpt lat="46.74308" lon="-2.00805">
        <ele>2</ele>
        <time>2018-03-17T04:15:10Z</time>
      </trkpt>
      <trkpt lat="46.74301" lon="-2.00793">
        <ele>2</ele>
        <time>2018-03-17T04:16:10Z</time>
      </trkpt>
      <trkpt lat="46.74283" lon="-2.00765">
        <ele>2</ele>
        <time>2018-03-17T04:17:10Z</time>
      </trkpt>
      <trkpt lat="46.74275" lon="-2.00753">
        <ele>2</ele>
        <time>2018-03-17T04:18:10Z</time>
      </trkpt>
      <trkpt lat="46.7426" lon="-2.00726">
        <ele>2</ele>
        <time>2018-03-17T04:19:10Z</time>
      </trkpt>
      <trkpt lat="46.7425" lon="-2.00711">
        <ele>2</ele>
        <time>2018-03-17T04:20:10Z</time>
      </trkpt>
      <trkpt lat="46.74235" lon="-2.00689">
        <ele>3</ele>
        <time>2018-03-17T04:21:10Z</time>
      </trkpt>
      <trkpt lat="46.74191" lon="-2.00625">
        <ele>3</ele>
        <time>2018-03-17T04:22:10Z</time>
      </trkpt>
      <trkpt lat="46.74148" lon="-2.00565">
        <ele>3</ele>
        <time>2018-03-17T04:23:10Z</time>
      </trkpt>
      <trkpt lat="46.74143" lon="-2.00558">
        <ele>3</ele>
        <time>2018-03-17T04:24:10Z</time>
      </trkpt>
      <trkpt lat="46.74131" lon="-2.0054">
        <ele>3</ele>
        <time>2018-03-17T04:25:10Z</time>
      </trkpt>
      <trkpt lat="46.74124" lon="-2.00529">
        <ele>3</ele>
        <time>2018-03-17T04:26:10Z</time>
      </trkpt>
      <trkpt lat="46.74117" lon="-2.00519">
        <ele>3</ele>
        <time>2018-03-17T04:27:10Z</time>
      </trkpt>
      <trkpt lat="46.74114" lon="-2.00514">
        <ele>3</ele>
        <time>2018-03-17T04:28:10Z</time>
      </trkpt>
      <trkpt lat="46.74108" lon="-2.00504">
        <ele>3</ele>
        <time>2018-03-17T04:29:10Z</time>
      </trkpt>
      <trkpt lat="46.74103" lon="-2.00497">
        <ele>3</ele>
        <time>2018-03-17T04:30:10Z</time>
      </trkpt>
      <trkpt lat="46.74099" lon="-2.00488">
        <ele>3</ele>
        <time>2018-03-17T04:31:10Z</time>
      </trkpt>
      <trkpt lat="46.74096" lon="-2.00481">
        <ele>3</ele>
        <time>2018-03-17T04:32:10Z</time>
      </trkpt>
      <trkpt lat="46.74085" lon="-2.00458">
        <ele>3</ele>
        <time>2018-03-17T04:33:10Z</time>
      </trkpt>
      <trkpt lat="46.74078" lon="-2.00436">
        <ele>3</ele>
        <time>2018-03-17T04:34:10Z</time>
      </trkpt>
      <trkpt lat="46.74073" lon="-2.00423">
        <ele>3</ele>
        <time>2018-03-17T04:35:10Z</time>
      </trkpt>
      <trkpt lat="46.74067" lon="-2.00404">
        <ele>3</ele>
        <time>2018-03-17T04:36:10Z</time>
      </trkpt>
      <trkpt lat="46.74066" lon="-2.00393">
        <ele>3</ele>
        <time>2018-03-17T04:37:10Z</time>
      </trkpt>
      <trkpt lat="46.74065" lon="-2.00382">
        <ele>3</ele>
        <time>2018-03-17T04:38:10Z</time>
      </trkpt>
      <trkpt lat="46.74065" lon="-2.00368">
        <ele>3</ele>
        <time>2018-03-17T04:39:10Z</time>
      </trkpt>
      <trkpt lat="46.74067" lon="-2.00353">
        <ele>3</ele>
        <time>2018-03-17T04:40:10Z</time>
      </trkpt>
      <trkpt lat="46.7407" lon="-2.00339">
        <ele>2</ele>
        <time>2018-03-17T04:41:10Z</time>
      </trkpt>
      <trkpt lat="46.74075" lon="-2.00318">
        <ele>3</ele>
        <time>2018-03-17T04:42:10Z</time>
      </trkpt>
      <trkpt lat="46.74079" lon="-2.00302">
        <ele>3</ele>
        <time>2018-03-17T04:43:10Z</time>
      </trkpt>
      <trkpt lat="46.74085" lon="-2.00279">
        <ele>3</ele>
        <time>2018-03-17T04:44:10Z</time>
      </trkpt>
      <trkpt lat="46.74088" lon="-2.00267">
        <ele>4</ele>
        <time>2018-03-17T04:45:10Z</time>
      </trkpt>
      <trkpt lat="46.7411" lon="-2.00185">
        <ele>5</ele>
        <time>2018-03-17T04:46:10Z</time>
      </trkpt>
      <trkpt lat="46.74115" lon="-2.00164">
        <ele>5</ele>
        <time>2018-03-17T04:47:10Z</time>
      </trkpt>
      <trkpt lat="46.74119" lon="-2.00146">
        <ele>5</ele>
        <time>2018-03-17T04:48:10Z</time>
      </trkpt>
      <trkpt lat="46.74123" lon="-2.00124">
        <ele>6</ele>
        <time>2018-03-17T04:49:10Z</time>
      </trkpt>
      <trkpt lat="46.74127" lon="-2.001">
        <ele>6</ele>
        <time>2018-03-17T04:50:10Z</time>
      </trkpt>
      <trkpt lat="46.74134" lon="-2.0004">
        <ele>6</ele>
        <time>2018-03-17T04:51:10Z</time>
      </trkpt>
      <trkpt lat="46.74142" lon="-1.99944">
        <ele>6</ele>
        <time>2018-03-17T04:52:10Z</time>
      </trkpt>
      <trkpt lat="46.74143" lon="-1.99924">
        <ele>7</ele>
        <time>2018-03-17T04:53:10Z</time>
      </trkpt>
      <trkpt lat="46.74148" lon="-1.99843">
        <ele>7</ele>
        <time>2018-03-17T04:54:10Z</time>
      </trkpt>
      <trkpt lat="46.74154" lon="-1.99732">
        <ele>5</ele>
        <time>2018-03-17T04:55:10Z</time>
      </trkpt>
      <trkpt lat="46.74155" lon="-1.99686">
        <ele>5</ele>
        <time>2018-03-17T04:56:10Z</time>
      </trkpt>
      <trkpt lat="46.74157" lon="-1.99675">
        <ele>5</ele>
        <time>2018-03-17T04:57:10Z</time>
      </trkpt>
      <trkpt lat="46.74158" lon="-1.99666">
        <ele>5</ele>
        <time>2018-03-17T04:58:10Z</time>
      </trkpt>
      <trkpt lat="46.74162" lon="-1.99638">
        <ele>6</ele>
        <time>2018-03-17T04:59:10Z</time>
      </trkpt>
      <trkpt lat="46.74165" lon="-1.99622">
        <ele>6</ele>
        <time>2018-03-17T05:00:10Z</time>
      </trkpt>
      <trkpt lat="46.74174" lon="-1.9959">
        <ele>7</ele>
        <time>2018-03-17T05:01:10Z</time>
      </trkpt>
      <trkpt lat="46.74182" lon="-1.99559">
        <ele>6</ele>
        <time>2018-03-17T05:02:10Z</time>
      </trkpt>
      <trkpt lat="46.74192" lon="-1.99525">
        <ele>6</ele>
        <time>2018-03-17T05:03:10Z</time>
      </trkpt>
      <trkpt lat="46.742" lon="-1.99493">
        <ele>5</ele>
        <time>2018-03-17T05:04:10Z</time>
      </trkpt>
      <trkpt lat="46.74204" lon="-1.99474">
        <ele>5</ele>
        <time>2018-03-17T05:05:10Z</time>
      </trkpt>
      <trkpt lat="46.74206" lon="-1.99468">
        <ele>5</ele>
        <time>2018-03-17T05:06:10Z</time>
      </trkpt>
      <trkpt lat="46.74211" lon="-1.99436">
        <ele>5</ele>
        <time>2018-03-17T05:07:10Z</time>
      </trkpt>
      <trkpt lat="46.74216" lon="-1.99406">
        <ele>4</ele>
        <time>2018-03-17T05:08:10Z</time>
      </trkpt>
      <trkpt lat="46.74216" lon="-1.99393">
        <ele>5</ele>
        <time>2018-03-17T05:09:10Z</time>
      </trkpt>
      <trkpt lat="46.74216" lon="-1.99379">
        <ele>5</ele>
        <time>2018-03-17T05:10:10Z</time>
      </trkpt>
      <trkpt lat="46.74215" lon="-1.99361">
        <ele>5</ele>
        <time>2018-03-17T05:11:10Z</time>
      </trkpt>
      <trkpt lat="46.74215" lon="-1.99356">
        <ele>5</ele>
        <time>2018-03-17T05:12:10Z</time>
      </trkpt>
      <trkpt lat="46.74212" lon="-1.99342">
        <ele>5</ele>
        <time>2018-03-17T05:13:10Z</time>
      </trkpt>
      <trkpt lat="46.74204" lon="-1.99332">
        <ele>6</ele>
        <time>2018-03-17T05:14:10Z</time>
      </trkpt>
      <trkpt lat="46.74197" lon="-1.99324">
        <ele>6</ele>
        <time>2018-03-17T05:15:10Z</time>
      </trkpt>
      <trkpt lat="46.74197" lon="-1.99324">
        <ele>6</ele>
        <time>2018-03-17T05:16:10Z</time>
      </trkpt>
      <trkpt lat="46.74194" lon="-1.99324">
        <ele>6</ele>
        <time>2018-03-17T05:17:10Z</time>
      </trkpt>
      <trkpt lat="46.7419" lon="-1.99324">
        <ele>6</ele>
        <time>2018-03-17T05:18:10Z</time>
      </trkpt>
      <trkpt lat="46.74186" lon="-1.99322">
        <ele>6</ele>
        <time>2018-03-17T05:19:10Z</time>
      </trkpt>
      <trkpt lat="46.74183" lon="-1.9932">
        <ele>6</ele>
        <time>2018-03-17T05:20:10Z</time>
      </trkpt>
      <trkpt lat="46.74181" lon="-1.99317">
        <ele>6</ele>
        <time>2018-03-17T05:21:10Z</time>
      </trkpt>
      <trkpt lat="46.74179" lon="-1.99312">
        <ele>6</ele>
        <time>2018-03-17T05:22:10Z</time>
      </trkpt>
      <trkpt lat="46.74178" lon="-1.99309">
        <ele>6</ele>
        <time>2018-03-17T05:23:10Z</time>
      </trkpt>
      <trkpt lat="46.74178" lon="-1.99306">
        <ele>5</ele>
        <time>2018-03-17T05:24:10Z</time>
      </trkpt>
      <trkpt lat="46.74178" lon="-1.99301">
        <ele>5</ele>
        <time>2018-03-17T05:25:10Z</time>
      </trkpt>
      <trkpt lat="46.74171" lon="-1.99291">
        <ele>5</ele>
        <time>2018-03-17T05:26:10Z</time>
      </trkpt>
      <trkpt lat="46.74167" lon="-1.99285">
        <ele>5</ele>
        <time>2018-03-17T05:27:10Z</time>
      </trkpt>
      <trkpt lat="46.74161" lon="-1.99278">
        <ele>4</ele>
        <time>2018-03-17T05:28:10Z</time>
      </trkpt>
      <trkpt lat="46.74115" lon="-1.99274">
        <ele>5</ele>
        <time>2018-03-17T05:29:10Z</time>
      </trkpt>
      <trkpt lat="46.74086" lon="-1.9927">
        <ele>5</ele>
        <time>2018-03-17T05:30:10Z</time>
      </trkpt>
      <trkpt lat="46.74042" lon="-1.99266">
        <ele>7</ele>
        <time>2018-03-17T05:31:10Z</time>
      </trkpt>
      <trkpt lat="46.74037" lon="-1.99265">
        <ele>7</ele>
        <time>2018-03-17T05:32:10Z</time>
      </trkpt>
      <trkpt lat="46.74013" lon="-1.99261">
        <ele>8</ele>
        <time>2018-03-17T05:33:10Z</time>
      </trkpt>
      <trkpt lat="46.73992" lon="-1.99255">
        <ele>9</ele>
        <time>2018-03-17T05:34:10Z</time>
      </trkpt>
      <trkpt lat="46.7397" lon="-1.99247">
        <ele>9</ele>
        <time>2018-03-17T05:35:10Z</time>
      </trkpt>
      <trkpt lat="46.73956" lon="-1.9924">
        <ele>9</ele>
        <time>2018-03-17T05:36:10Z</time>
      </trkpt>
      <trkpt lat="46.73934" lon="-1.99226">
        <ele>8</ele>
        <time>2018-03-17T05:37:10Z</time>
      </trkpt>
      <trkpt lat="46.73916" lon="-1.99212">
        <ele>8</ele>
        <time>2018-03-17T05:38:10Z</time>
      </trkpt>
      <trkpt lat="46.73877" lon="-1.99173">
        <ele>7</ele>
        <time>2018-03-17T05:39:10Z</time>
      </trkpt>
      <trkpt lat="46.73849" lon="-1.99145">
        <ele>8</ele>
        <time>2018-03-17T05:40:10Z</time>
      </trkpt>
      <trkpt lat="46.73818" lon="-1.99114">
        <ele>8</ele>
        <time>2018-03-17T05:41:10Z</time>
      </trkpt>
      <trkpt lat="46.73778" lon="-1.99073">
        <ele>8</ele>
        <time>2018-03-17T05:42:10Z</time>
      </trkpt>
      <trkpt lat="46.73748" lon="-1.99044">
        <ele>8</ele>
        <time>2018-03-17T05:43:10Z</time>
      </trkpt>
      <trkpt lat="46.73719" lon="-1.99017">
        <ele>8</ele>
        <time>2018-03-17T05:44:10Z</time>
      </trkpt>
      <trkpt lat="46.73706" lon="-1.99004">
        <ele>9</ele>
        <time>2018-03-17T05:45:10Z</time>
      </trkpt>
      <trkpt lat="46.73664" lon="-1.98966">
        <ele>8</ele>
        <time>2018-03-17T05:46:10Z</time>
      </trkpt>
      <trkpt lat="46.73663" lon="-1.98965">
        <ele>8</ele>
        <time>2018-03-17T05:47:10Z</time>
      </trkpt>
      <trkpt lat="46.7365" lon="-1.98953">
        <ele>8</ele>
        <time>2018-03-17T05:48:10Z</time>
      </trkpt>
      <trkpt lat="46.7363" lon="-1.98933">
        <ele>7</ele>
        <time>2018-03-17T05:49:10Z</time>
      </trkpt>
      <trkpt lat="46.73597" lon="-1.98901">
        <ele>7</ele>
        <time>2018-03-17T05:50:10Z</time>
      </trkpt>
      <trkpt lat="46.73569" lon="-1.98872">
        <ele>7</ele>
        <time>2018-03-17T05:51:10Z</time>
      </trkpt>
      <trkpt lat="46.73544" lon="-1.98848">
        <ele>7</ele>
        <time>2018-03-17T05:52:10Z</time>
      </trkpt>
      <trkpt lat="46.73528" lon="-1.98834">
        <ele>8</ele>
        <time>2018-03-17T05:53:10Z</time>
      </trkpt>
      <trkpt lat="46.73504" lon="-1.98811">
        <ele>8</ele>
        <time>2018-03-17T05:54:10Z</time>
      </trkpt>
      <trkpt lat="46.73474" lon="-1.98783">
        <ele>9</ele>
        <time>2018-03-17T05:55:10Z</time>
      </trkpt>
      <trkpt lat="46.73447" lon="-1.98757">
        <ele>8</ele>
        <time>2018-03-17T05:56:10Z</time>
      </trkpt>
      <trkpt lat="46.73441" lon="-1.98751">
        <ele>8</ele>
        <time>2018-03-17T05:57:10Z</time>
      </trkpt>
      <trkpt lat="46.73425" lon="-1.98734">
        <ele>9</ele>
        <time>2018-03-17T05:58:10Z</time>
      </trkpt>
      <trkpt lat="46.73414" lon="-1.9872">
        <ele>9</ele>
        <time>2018-03-17T05:59:10Z</time>
      </trkpt>
      <trkpt lat="46.73407" lon="-1.98708">
        <ele>9</ele>
        <time>2018-03-17T06:00:10Z</time>
      </trkpt>
      <trkpt lat="46.73404" lon="-1.98702">
        <ele>9</ele>
        <time>2018-03-17T06:01:10Z</time>
      </trkpt>
      <trkpt lat="46.73401" lon="-1.98693">
        <ele>9</ele>
        <time>2018-03-17T06:02:10Z</time>
      </trkpt>
      <trkpt lat="46.73397" lon="-1.98679">
        <ele>9</ele>
        <time>2018-03-17T06:03:10Z</time>
      </trkpt>
      <trkpt lat="46.73394" lon="-1.98667">
        <ele>9</ele>
        <time>2018-03-17T06:04:10Z</time>
      </trkpt>
      <trkpt lat="46.73393" lon="-1.9866">
        <ele>9</ele>
        <time>2018-03-17T06:05:10Z</time>
      </trkpt>
      <trkpt lat="46.73392" lon="-1.98653">
        <ele>9</ele>
        <time>2018-03-17T06:06:10Z</time>
      </trkpt>
      <trkpt lat="46.73389" lon="-1.98637">
        <ele>9</ele>
        <time>2018-03-17T06:07:10Z</time>
      </trkpt>
      <trkpt lat="46.73389" lon="-1.98633">
        <ele>9</ele>
        <time>2018-03-17T06:08:10Z</time>
      </trkpt>
      <trkpt lat="46.73389" lon="-1.98623">
        <ele>9</ele>
        <time>2018-03-17T06:09:10Z</time>
      </trkpt>
      <trkpt lat="46.73388" lon="-1.9861">
        <ele>9</ele>
        <time>2018-03-17T06:10:10Z</time>
      </trkpt>
      <trkpt lat="46.73387" lon="-1.98593">
        <ele>9</ele>
        <time>2018-03-17T06:11:10Z</time>
      </trkpt>
      <trkpt lat="46.73386" lon="-1.98577">
        <ele>9</ele>
        <time>2018-03-17T06:12:10Z</time>
      </trkpt>
      <trkpt lat="46.73383" lon="-1.98564">
        <ele>9</ele>
        <time>2018-03-17T06:13:10Z</time>
      </trkpt>
      <trkpt lat="46.7338" lon="-1.98549">
        <ele>9</ele>
        <time>2018-03-17T06:14:10Z</time>
      </trkpt>
      <trkpt lat="46.73375" lon="-1.98535">
        <ele>9</ele>
        <time>2018-03-17T06:15:10Z</time>
      </trkpt>
      <trkpt lat="46.73369" lon="-1.98518">
        <ele>9</ele>
        <time>2018-03-17T06:16:10Z</time>
      </trkpt>
      <trkpt lat="46.73362" lon="-1.98501">
        <ele>9</ele>
        <time>2018-03-17T06:17:10Z</time>
      </trkpt>
      <trkpt lat="46.73356" lon="-1.9849">
        <ele>9</ele>
        <time>2018-03-17T06:18:10Z</time>
      </trkpt>
      <trkpt lat="46.73347" lon="-1.98478">
        <ele>10</ele>
        <time>2018-03-17T06:19:10Z</time>
      </trkpt>
      <trkpt lat="46.73336" lon="-1.98466">
        <ele>10</ele>
        <time>2018-03-17T06:20:10Z</time>
      </trkpt>
      <trkpt lat="46.73318" lon="-1.98447">
        <ele>10</ele>
        <time>2018-03-17T06:21:10Z</time>
      </trkpt>
      <trkpt lat="46.73291" lon="-1.9842">
        <ele>10</ele>
        <time>2018-03-17T06:22:10Z</time>
      </trkpt>
      <trkpt lat="46.73263" lon="-1.98394">
        <ele>10</ele>
        <time>2018-03-17T06:23:10Z</time>
      </trkpt>
      <trkpt lat="46.73238" lon="-1.9837">
        <ele>11</ele>
        <time>2018-03-17T06:24:10Z</time>
      </trkpt>
      <trkpt lat="46.73213" lon="-1.98346">
        <ele>11</ele>
        <time>2018-03-17T06:25:10Z</time>
      </trkpt>
      <trkpt lat="46.7319" lon="-1.98325">
        <ele>12</ele>
        <time>2018-03-17T06:26:10Z</time>
      </trkpt>
      <trkpt lat="46.73174" lon="-1.98312">
        <ele>12</ele>
        <time>2018-03-17T06:27:10Z</time>
      </trkpt>
      <trkpt lat="46.73162" lon="-1.98305">
        <ele>12</ele>
        <time>2018-03-17T06:28:10Z</time>
      </trkpt>
      <trkpt lat="46.73152" lon="-1.98299">
        <ele>12</ele>
        <time>2018-03-17T06:29:10Z</time>
      </trkpt>
      <trkpt lat="46.73138" lon="-1.98291">
        <ele>12</ele>
        <time>2018-03-17T06:30:10Z</time>
      </trkpt>
      <trkpt lat="46.73123" lon="-1.98284">
        <ele>11</ele>
        <time>2018-03-17T06:31:10Z</time>
      </trkpt>
      <trkpt lat="46.73108" lon="-1.98278">
        <ele>11</ele>
        <time>2018-03-17T06:32:10Z</time>
      </trkpt>
      <trkpt lat="46.73092" lon="-1.98272">
        <ele>11</ele>
        <time>2018-03-17T06:33:10Z</time>
      </trkpt>
      <trkpt lat="46.7307" lon="-1.98262">
        <ele>11</ele>
        <time>2018-03-17T06:34:10Z</time>
      </trkpt>
      <trkpt lat="46.73054" lon="-1.98256">
        <ele>11</ele>
        <time>2018-03-17T06:35:10Z</time>
      </trkpt>
      <trkpt lat="46.73021" lon="-1.98242">
        <ele>10</ele>
        <time>2018-03-17T06:36:10Z</time>
      </trkpt>
      <trkpt lat="46.72964" lon="-1.98218">
        <ele>11</ele>
        <time>2018-03-17T06:37:10Z</time>
      </trkpt>
      <trkpt lat="46.72862" lon="-1.98176">
        <ele>9</ele>
        <time>2018-03-17T06:38:10Z</time>
      </trkpt>
      <trkpt lat="46.72817" lon="-1.98158">
        <ele>9</ele>
        <time>2018-03-17T06:39:10Z</time>
      </trkpt>
      <trkpt lat="46.72793" lon="-1.98149">
        <ele>10</ele>
        <time>2018-03-17T06:40:10Z</time>
      </trkpt>
      <trkpt lat="46.72778" lon="-1.98142">
        <ele>10</ele>
        <time>2018-03-17T06:41:10Z</time>
      </trkpt>
      <trkpt lat="46.72761" lon="-1.98134">
        <ele>11</ele>
        <time>2018-03-17T06:42:10Z</time>
      </trkpt>
      <trkpt lat="46.72753" lon="-1.98131">
        <ele>11</ele>
        <time>2018-03-17T06:43:10Z</time>
      </trkpt>
      <trkpt lat="46.72738" lon="-1.98124">
        <ele>11</ele>
        <time>2018-03-17T06:44:10Z</time>
      </trkpt>
      <trkpt lat="46.72722" lon="-1.98115">
        <ele>11</ele>
        <time>2018-03-17T06:45:10Z</time>
      </trkpt>
      <trkpt lat="46.72704" lon="-1.98105">
        <ele>11</ele>
        <time>2018-03-17T06:46:10Z</time>
      </trkpt>
      <trkpt lat="46.72667" lon="-1.98081">
        <ele>10</ele>
        <time>2018-03-17T06:47:10Z</time>
      </trkpt>
      <trkpt lat="46.72619" lon="-1.98047">
        <ele>9</ele>
        <time>2018-03-17T06:48:10Z</time>
      </trkpt>
      <trkpt lat="46.72577" lon="-1.98018">
        <ele>8</ele>
        <time>2018-03-17T06:49:10Z</time>
      </trkpt>
      <trkpt lat="46.7254" lon="-1.97993">
        <ele>8</ele>
        <time>2018-03-17T06:50:10Z</time>
      </trkpt>
      <trkpt lat="46.72513" lon="-1.97975">
        <ele>8</ele>
        <time>2018-03-17T06:51:10Z</time>
      </trkpt>
      <trkpt lat="46.7249" lon="-1.97955">
        <ele>8</ele>
        <time>2018-03-17T06:52:10Z</time>
      </trkpt>
      <trkpt lat="46.7248" lon="-1.97945">
        <ele>8</ele>
        <time>2018-03-17T06:53:10Z</time>
      </trkpt>
      <trkpt lat="46.7247" lon="-1.97935">
        <ele>8</ele>
        <time>2018-03-17T06:54:10Z</time>
      </trkpt>
      <trkpt lat="46.72448" lon="-1.97908">
        <ele>8</ele>
        <time>2018-03-17T06:55:10Z</time>
      </trkpt>
      <trkpt lat="46.72432" lon="-1.97882">
        <ele>8</ele>
        <time>2018-03-17T06:56:10Z</time>
      </trkpt>
      <trkpt lat="46.72429" lon="-1.97876">
        <ele>7</ele>
        <time>2018-03-17T06:57:10Z</time>
      </trkpt>
      <trkpt lat="46.72421" lon="-1.97869">
        <ele>7</ele>
        <time>2018-03-17T06:58:10Z</time>
      </trkpt>
      <trkpt lat="46.72406" lon="-1.97849">
        <ele>7</ele>
        <time>2018-03-17T06:59:10Z</time>
      </trkpt>
      <trkpt lat="46.72405" lon="-1.97849">
        <ele>7</ele>
        <time>2018-03-17T07:00:10Z</time>
      </trkpt>
      <trkpt lat="46.72404" lon="-1.97849">
        <ele>7</ele>
        <time>2018-03-17T07:01:10Z</time>
      </trkpt>
      <trkpt lat="46.72403" lon="-1.97849">
        <ele>7</ele>
        <time>2018-03-17T07:02:10Z</time>
      </trkpt>
      <trkpt lat="46.72402" lon="-1.97849">
        <ele>7</ele>
        <time>2018-03-17T07:03:10Z</time>
      </trkpt>
      <trkpt lat="46.72401" lon="-1.97849">
        <ele>7</ele>
        <time>2018-03-17T07:04:10Z</time>
      </trkpt>
      <trkpt lat="46.72401" lon="-1.97848">
        <ele>7</ele>
        <time>2018-03-17T07:05:10Z</time>
      </trkpt>
      <trkpt lat="46.724" lon="-1.97848">
        <ele>7</ele>
        <time>2018-03-17T07:06:10Z</time>
      </trkpt>
      <trkpt lat="46.72399" lon="-1.97847">
        <ele>7</ele>
        <time>2018-03-17T07:07:10Z</time>
      </trkpt>
      <trkpt lat="46.72398" lon="-1.97845">
        <ele>7</ele>
        <time>2018-03-17T07:08:10Z</time>
      </trkpt>
      <trkpt lat="46.72397" lon="-1.97843">
        <ele>7</ele>
        <time>2018-03-17T07:09:10Z</time>
      </trkpt>
      <trkpt lat="46.72396" lon="-1.97841">
        <ele>7</ele>
        <time>2018-03-17T07:10:10Z</time>
      </trkpt>
      <trkpt lat="46.72396" lon="-1.9784">
        <ele>7</ele>
        <time>2018-03-17T07:11:10Z</time>
      </trkpt>
      <trkpt lat="46.72396" lon="-1.97839">
        <ele>7</ele>
        <time>2018-03-17T07:12:10Z</time>
      </trkpt>
      <trkpt lat="46.72396" lon="-1.97838">
        <ele>7</ele>
        <time>2018-03-17T07:13:10Z</time>
      </trkpt>
      <trkpt lat="46.72396" lon="-1.97837">
        <ele>7</ele>
        <time>2018-03-17T07:14:10Z</time>
      </trkpt>
      <trkpt lat="46.72395" lon="-1.97836">
        <ele>7</ele>
        <time>2018-03-17T07:15:10Z</time>
      </trkpt>
      <trkpt lat="46.72395" lon="-1.97835">
        <ele>7</ele>
        <time>2018-03-17T07:16:10Z</time>
      </trkpt>
      <trkpt lat="46.72396" lon="-1.97835">
        <ele>7</ele>
        <time>2018-03-17T07:17:10Z</time>
      </trkpt>
      <trkpt lat="46.72396" lon="-1.97834">
        <ele>7</ele>
        <time>2018-03-17T07:18:10Z</time>
      </trkpt>
      <trkpt lat="46.72396" lon="-1.97833">
        <ele>7</ele>
        <time>2018-03-17T07:19:10Z</time>
      </trkpt>
      <trkpt lat="46.72396" lon="-1.97832">
        <ele>7</ele>
        <time>2018-03-17T07:20:10Z</time>
      </trkpt>
      <trkpt lat="46.72396" lon="-1.97831">
        <ele>7</ele>
        <time>2018-03-17T07:21:10Z</time>
      </trkpt>
      <trkpt lat="46.72383" lon="-1.97806">
        <ele>7</ele>
        <time>2018-03-17T07:22:10Z</time>
      </trkpt>
      <trkpt lat="46.72381" lon="-1.97799">
        <ele>8</ele>
        <time>2018-03-17T07:23:10Z</time>
      </trkpt>
      <trkpt lat="46.72345" lon="-1.97737">
        <ele>9</ele>
        <time>2018-03-17T07:24:10Z</time>
      </trkpt>
      <trkpt lat="46.72306" lon="-1.97664">
        <ele>11</ele>
        <time>2018-03-17T07:25:10Z</time>
      </trkpt>
      <trkpt lat="46.72278" lon="-1.97612">
        <ele>12</ele>
        <time>2018-03-17T07:26:10Z</time>
      </trkpt>
      <trkpt lat="46.72268" lon="-1.97595">
        <ele>12</ele>
        <time>2018-03-17T07:27:10Z</time>
      </trkpt>
      <trkpt lat="46.72252" lon="-1.97565">
        <ele>12</ele>
        <time>2018-03-17T07:28:10Z</time>
      </trkpt>
      <trkpt lat="46.72229" lon="-1.97523">
        <ele>11</ele>
        <time>2018-03-17T07:29:10Z</time>
      </trkpt>
      <trkpt lat="46.72182" lon="-1.97442">
        <ele>10</ele>
        <time>2018-03-17T07:30:10Z</time>
      </trkpt>
      <trkpt lat="46.72144" lon="-1.97376">
        <ele>10</ele>
        <time>2018-03-17T07:31:10Z</time>
      </trkpt>
      <trkpt lat="46.72132" lon="-1.97353">
        <ele>10</ele>
        <time>2018-03-17T07:32:10Z</time>
      </trkpt>
      <trkpt lat="46.72114" lon="-1.97324">
        <ele>9</ele>
        <time>2018-03-17T07:33:10Z</time>
      </trkpt>
      <trkpt lat="46.72092" lon="-1.97285">
        <ele>9</ele>
        <time>2018-03-17T07:34:10Z</time>
      </trkpt>
      <trkpt lat="46.72062" lon="-1.97231">
        <ele>10</ele>
        <time>2018-03-17T07:35:10Z</time>
      </trkpt>
      <trkpt lat="46.72045" lon="-1.972">
        <ele>10</ele>
        <time>2018-03-17T07:36:10Z</time>
      </trkpt>
      <trkpt lat="46.72012" lon="-1.97137">
        <ele>11</ele>
        <time>2018-03-17T07:37:10Z</time>
      </trkpt>
      <trkpt lat="46.71999" lon="-1.97111">
        <ele>11</ele>
        <time>2018-03-17T07:38:10Z</time>
      </trkpt>
      <trkpt lat="46.7199" lon="-1.97098">
        <ele>12</ele>
        <time>2018-03-17T07:39:10Z</time>
      </trkpt>
      <trkpt lat="46.71969" lon="-1.97055">
        <ele>13</ele>
        <time>2018-03-17T07:40:10Z</time>
      </trkpt>
      <trkpt lat="46.71944" lon="-1.97005">
        <ele>14</ele>
        <time>2018-03-17T07:41:10Z</time>
      </trkpt>
      <trkpt lat="46.7193" lon="-1.96978">
        <ele>15</ele>
        <time>2018-03-17T07:42:10Z</time>
      </trkpt>
      <trkpt lat="46.71919" lon="-1.96958">
        <ele>15</ele>
        <time>2018-03-17T07:43:10Z</time>
      </trkpt>
      <trkpt lat="46.7189" lon="-1.96905">
        <ele>15</ele>
        <time>2018-03-17T07:44:10Z</time>
      </trkpt>
      <trkpt lat="46.71883" lon="-1.96894">
        <ele>15</ele>
        <time>2018-03-17T07:45:10Z</time>
      </trkpt>
      <trkpt lat="46.71868" lon="-1.96878">
        <ele>15</ele>
        <time>2018-03-17T07:46:10Z</time>
      </trkpt>
      <trkpt lat="46.71868" lon="-1.96878">
        <ele>15</ele>
        <time>2018-03-17T07:47:10Z</time>
      </trkpt>
      <trkpt lat="46.7186" lon="-1.96871">
        <ele>15</ele>
        <time>2018-03-17T07:48:10Z</time>
      </trkpt>
      <trkpt lat="46.71842" lon="-1.96866">
        <ele>15</ele>
        <time>2018-03-17T07:49:10Z</time>
      </trkpt>
      <trkpt lat="46.71833" lon="-1.96862">
        <ele>14</ele>
        <time>2018-03-17T07:50:10Z</time>
      </trkpt>
      <trkpt lat="46.71833" lon="-1.96862">
        <ele>14</ele>
        <time>2018-03-17T07:51:10Z</time>
      </trkpt>
      <trkpt lat="46.71826" lon="-1.96859">
        <ele>14</ele>
        <time>2018-03-17T07:52:10Z</time>
      </trkpt>
      <trkpt lat="46.71812" lon="-1.96843">
        <ele>14</ele>
        <time>2018-03-17T07:53:10Z</time>
      </trkpt>
      <trkpt lat="46.71808" lon="-1.96839">
        <ele>14</ele>
        <time>2018-03-17T07:54:10Z</time>
      </trkpt>
      <trkpt lat="46.71796" lon="-1.96835">
        <ele>14</ele>
        <time>2018-03-17T07:55:10Z</time>
      </trkpt>
      <trkpt lat="46.71781" lon="-1.9683">
        <ele>13</ele>
        <time>2018-03-17T07:56:10Z</time>
      </trkpt>
      <trkpt lat="46.71767" lon="-1.96825">
        <ele>13</ele>
        <time>2018-03-17T07:57:10Z</time>
      </trkpt>
      <trkpt lat="46.71755" lon="-1.9682">
        <ele>13</ele>
        <time>2018-03-17T07:58:10Z</time>
      </trkpt>
      <trkpt lat="46.71747" lon="-1.96817">
        <ele>13</ele>
        <time>2018-03-17T07:59:10Z</time>
      </trkpt>
      <trkpt lat="46.71738" lon="-1.96811">
        <ele>13</ele>
        <time>2018-03-17T08:00:10Z</time>
      </trkpt>
      <trkpt lat="46.71726" lon="-1.96803">
        <ele>13</ele>
        <time>2018-03-17T08:01:10Z</time>
      </trkpt>
      <trkpt lat="46.71712" lon="-1.96794">
        <ele>13</ele>
        <time>2018-03-17T08:02:10Z</time>
      </trkpt>
      <trkpt lat="46.71699" lon="-1.96786">
        <ele>13</ele>
        <time>2018-03-17T08:03:10Z</time>
      </trkpt>
      <trkpt lat="46.71689" lon="-1.96781">
        <ele>14</ele>
        <time>2018-03-17T08:04:10Z</time>
      </trkpt>
      <trkpt lat="46.7168" lon="-1.96777">
        <ele>14</ele>
        <time>2018-03-17T08:05:10Z</time>
      </trkpt>
      <trkpt lat="46.71672" lon="-1.96774">
        <ele>14</ele>
        <time>2018-03-17T08:06:10Z</time>
      </trkpt>
      <trkpt lat="46.71664" lon="-1.96774">
        <ele>14</ele>
        <time>2018-03-17T08:07:10Z</time>
      </trkpt>
      <trkpt lat="46.71657" lon="-1.96774">
        <ele>14</ele>
        <time>2018-03-17T08:08:10Z</time>
      </trkpt>
      <trkpt lat="46.7165" lon="-1.96775">
        <ele>14</ele>
        <time>2018-03-17T08:09:10Z</time>
      </trkpt>
      <trkpt lat="46.71643" lon="-1.96776">
        <ele>14</ele>
        <time>2018-03-17T08:10:10Z</time>
      </trkpt>
      <trkpt lat="46.71634" lon="-1.9678">
        <ele>14</ele>
        <time>2018-03-17T08:11:10Z</time>
      </trkpt>
      <trkpt lat="46.71615" lon="-1.96791">
        <ele>14</ele>
        <time>2018-03-17T08:12:10Z</time>
      </trkpt>
      <trkpt lat="46.71598" lon="-1.96802">
        <ele>14</ele>
        <time>2018-03-17T08:13:10Z</time>
      </trkpt>
      <trkpt lat="46.71593" lon="-1.96805">
        <ele>14</ele>
        <time>2018-03-17T08:14:10Z</time>
      </trkpt>
      <trkpt lat="46.71587" lon="-1.96807">
        <ele>14</ele>
        <time>2018-03-17T08:15:10Z</time>
      </trkpt>
      <trkpt lat="46.71581" lon="-1.96809">
        <ele>14</ele>
        <time>2018-03-17T08:16:10Z</time>
      </trkpt>
      <trkpt lat="46.71571" lon="-1.9681">
        <ele>14</ele>
        <time>2018-03-17T08:17:10Z</time>
      </trkpt>
      <trkpt lat="46.71558" lon="-1.96809">
        <ele>14</ele>
        <time>2018-03-17T08:18:10Z</time>
      </trkpt>
      <trkpt lat="46.71543" lon="-1.96807">
        <ele>14</ele>
        <time>2018-03-17T08:19:10Z</time>
      </trkpt>
      <trkpt lat="46.71528" lon="-1.96807">
        <ele>14</ele>
        <time>2018-03-17T08:20:10Z</time>
      </trkpt>
      <trkpt lat="46.71496" lon="-1.96806">
        <ele>13</ele>
        <time>2018-03-17T08:21:10Z</time>
      </trkpt>
      <trkpt lat="46.71474" lon="-1.96801">
        <ele>13</ele>
        <time>2018-03-17T08:22:10Z</time>
      </trkpt>
      <trkpt lat="46.71442" lon="-1.96789">
        <ele>13</ele>
        <time>2018-03-17T08:23:10Z</time>
      </trkpt>
      <trkpt lat="46.71424" lon="-1.96783">
        <ele>13</ele>
        <time>2018-03-17T08:24:10Z</time>
      </trkpt>
      <trkpt lat="46.71403" lon="-1.96777">
        <ele>14</ele>
        <time>2018-03-17T08:25:10Z</time>
      </trkpt>
      <trkpt lat="46.71403" lon="-1.96777">
        <ele>14</ele>
        <time>2018-03-17T08:26:10Z</time>
      </trkpt>
      <trkpt lat="46.71395" lon="-1.96774">
        <ele>14</ele>
        <time>2018-03-17T08:27:10Z</time>
      </trkpt>
      <trkpt lat="46.71382" lon="-1.96767">
        <ele>15</ele>
        <time>2018-03-17T08:28:10Z</time>
      </trkpt>
      <trkpt lat="46.7137" lon="-1.96762">
        <ele>15</ele>
        <time>2018-03-17T08:29:10Z</time>
      </trkpt>
      <trkpt lat="46.71362" lon="-1.96758">
        <ele>16</ele>
        <time>2018-03-17T08:30:10Z</time>
      </trkpt>
      <trkpt lat="46.71348" lon="-1.96755">
        <ele>16</ele>
        <time>2018-03-17T08:31:10Z</time>
      </trkpt>
      <trkpt lat="46.71332" lon="-1.96753">
        <ele>17</ele>
        <time>2018-03-17T08:32:10Z</time>
      </trkpt>
      <trkpt lat="46.7132" lon="-1.9675">
        <ele>17</ele>
        <time>2018-03-17T08:33:10Z</time>
      </trkpt>
      <trkpt lat="46.7131" lon="-1.96749">
        <ele>16</ele>
        <time>2018-03-17T08:34:10Z</time>
      </trkpt>
      <trkpt lat="46.713" lon="-1.9675">
        <ele>16</ele>
        <time>2018-03-17T08:35:10Z</time>
      </trkpt>
      <trkpt lat="46.71292" lon="-1.9675">
        <ele>16</ele>
        <time>2018-03-17T08:36:10Z</time>
      </trkpt>
      <trkpt lat="46.7128" lon="-1.96751">
        <ele>16</ele>
        <time>2018-03-17T08:37:10Z</time>
      </trkpt>
      <trkpt lat="46.71268" lon="-1.96753">
        <ele>15</ele>
        <time>2018-03-17T08:38:10Z</time>
      </trkpt>
      <trkpt lat="46.71248" lon="-1.9676">
        <ele>15</ele>
        <time>2018-03-17T08:39:10Z</time>
      </trkpt>
      <trkpt lat="46.71248" lon="-1.9676">
        <ele>15</ele>
        <time>2018-03-17T08:40:10Z</time>
      </trkpt>
      <trkpt lat="46.71239" lon="-1.96763">
        <ele>15</ele>
        <time>2018-03-17T08:41:10Z</time>
      </trkpt>
      <trkpt lat="46.71215" lon="-1.96763">
        <ele>15</ele>
        <time>2018-03-17T08:42:10Z</time>
      </trkpt>
      <trkpt lat="46.71179" lon="-1.96765">
        <ele>15</ele>
        <time>2018-03-17T08:43:10Z</time>
      </trkpt>
      <trkpt lat="46.71128" lon="-1.96765">
        <ele>14</ele>
        <time>2018-03-17T08:44:10Z</time>
      </trkpt>
      <trkpt lat="46.71081" lon="-1.96765">
        <ele>14</ele>
        <time>2018-03-17T08:45:10Z</time>
      </trkpt>
      <trkpt lat="46.71065" lon="-1.96766">
        <ele>14</ele>
        <time>2018-03-17T08:46:10Z</time>
      </trkpt>
      <trkpt lat="46.71039" lon="-1.96766">
        <ele>13</ele>
        <time>2018-03-17T08:47:10Z</time>
      </trkpt>
      <trkpt lat="46.71035" lon="-1.9677">
        <ele>13</ele>
        <time>2018-03-17T08:48:10Z</time>
      </trkpt>
      <trkpt lat="46.7103" lon="-1.96775">
        <ele>13</ele>
        <time>2018-03-17T08:49:10Z</time>
      </trkpt>
      <trkpt lat="46.71023" lon="-1.96781">
        <ele>13</ele>
        <time>2018-03-17T08:50:10Z</time>
      </trkpt>
      <trkpt lat="46.71023" lon="-1.96781">
        <ele>13</ele>
        <time>2018-03-17T08:51:10Z</time>
      </trkpt>
      <trkpt lat="46.71021" lon="-1.96786">
        <ele>13</ele>
        <time>2018-03-17T08:52:10Z</time>
      </trkpt>
      <trkpt lat="46.71019" lon="-1.96789">
        <ele>13</ele>
        <time>2018-03-17T08:53:10Z</time>
      </trkpt>
      <trkpt lat="46.71015" lon="-1.96791">
        <ele>13</ele>
        <time>2018-03-17T08:54:10Z</time>
      </trkpt>
      <trkpt lat="46.71012" lon="-1.96792">
        <ele>13</ele>
        <time>2018-03-17T08:55:10Z</time>
      </trkpt>
      <trkpt lat="46.71008" lon="-1.96792">
        <ele>13</ele>
        <time>2018-03-17T08:56:10Z</time>
      </trkpt>
      <trkpt lat="46.71004" lon="-1.96792">
        <ele>13</ele>
        <time>2018-03-17T08:57:10Z</time>
      </trkpt>
      <trkpt lat="46.71002" lon="-1.9679">
        <ele>13</ele>
        <time>2018-03-17T08:58:10Z</time>
      </trkpt>
      <trkpt lat="46.70999" lon="-1.96787">
        <ele>13</ele>
        <time>2018-03-17T08:59:10Z</time>
      </trkpt>
      <trkpt lat="46.70996" lon="-1.96783">
        <ele>13</ele>
        <time>2018-03-17T09:00:10Z</time>
      </trkpt>
      <trkpt lat="46.70994" lon="-1.96779">
        <ele>13</ele>
        <time>2018-03-17T09:01:10Z</time>
      </trkpt>
      <trkpt lat="46.70993" lon="-1.96774">
        <ele>13</ele>
        <time>2018-03-17T09:02:10Z</time>
      </trkpt>
      <trkpt lat="46.70993" lon="-1.9677">
        <ele>13</ele>
        <time>2018-03-17T09:03:10Z</time>
      </trkpt>
      <trkpt lat="46.70993" lon="-1.96765">
        <ele>13</ele>
        <time>2018-03-17T09:04:10Z</time>
      </trkpt>
      <trkpt lat="46.70994" lon="-1.96759">
        <ele>13</ele>
        <time>2018-03-17T09:05:10Z</time>
      </trkpt>
      <trkpt lat="46.7099" lon="-1.96745">
        <ele>13</ele>
        <time>2018-03-17T09:06:10Z</time>
      </trkpt>
      <trkpt lat="46.70986" lon="-1.96731">
        <ele>13</ele>
        <time>2018-03-17T09:07:10Z</time>
      </trkpt>
      <trkpt lat="46.70982" lon="-1.96719">
        <ele>13</ele>
        <time>2018-03-17T09:08:10Z</time>
      </trkpt>
      <trkpt lat="46.70981" lon="-1.96714">
        <ele>13</ele>
        <time>2018-03-17T09:09:10Z</time>
      </trkpt>
      <trkpt lat="46.70976" lon="-1.96705">
        <ele>13</ele>
        <time>2018-03-17T09:10:10Z</time>
      </trkpt>
      <trkpt lat="46.70973" lon="-1.96697">
        <ele>13</ele>
        <time>2018-03-17T09:11:10Z</time>
      </trkpt>
      <trkpt lat="46.70969" lon="-1.96685">
        <ele>13</ele>
        <time>2018-03-17T09:12:10Z</time>
      </trkpt>
      <trkpt lat="46.70963" lon="-1.96669">
        <ele>13</ele>
        <time>2018-03-17T09:13:10Z</time>
      </trkpt>
      <trkpt lat="46.70955" lon="-1.96651">
        <ele>13</ele>
        <time>2018-03-17T09:14:10Z</time>
      </trkpt>
      <trkpt lat="46.7095" lon="-1.9664">
        <ele>13</ele>
        <time>2018-03-17T09:15:10Z</time>
      </trkpt>
      <trkpt lat="46.70947" lon="-1.9663">
        <ele>13</ele>
        <time>2018-03-17T09:16:10Z</time>
      </trkpt>
      <trkpt lat="46.70943" lon="-1.96619">
        <ele>13</ele>
        <time>2018-03-17T09:17:10Z</time>
      </trkpt>
      <trkpt lat="46.70941" lon="-1.96605">
        <ele>13</ele>
        <time>2018-03-17T09:18:10Z</time>
      </trkpt>
      <trkpt lat="46.70939" lon="-1.96593">
        <ele>13</ele>
        <time>2018-03-17T09:19:10Z</time>
      </trkpt>
      <trkpt lat="46.70938" lon="-1.96578">
        <ele>13</ele>
        <time>2018-03-17T09:20:10Z</time>
      </trkpt>
      <trkpt lat="46.70938" lon="-1.96567">
        <ele>13</ele>
        <time>2018-03-17T09:21:10Z</time>
      </trkpt>
      <trkpt lat="46.70938" lon="-1.96557">
        <ele>13</ele>
        <time>2018-03-17T09:22:10Z</time>
      </trkpt>
      <trkpt lat="46.7094" lon="-1.96544">
        <ele>13</ele>
        <time>2018-03-17T09:23:10Z</time>
      </trkpt>
      <trkpt lat="46.70942" lon="-1.96531">
        <ele>13</ele>
        <time>2018-03-17T09:24:10Z</time>
      </trkpt>
      <trkpt lat="46.70946" lon="-1.96512">
        <ele>14</ele>
        <time>2018-03-17T09:25:10Z</time>
      </trkpt>
      <trkpt lat="46.7095" lon="-1.96493">
        <ele>14</ele>
        <time>2018-03-17T09:26:10Z</time>
      </trkpt>
      <trkpt lat="46.70955" lon="-1.9647">
        <ele>14</ele>
        <time>2018-03-17T09:27:10Z</time>
      </trkpt>
      <trkpt lat="46.70959" lon="-1.96453">
        <ele>14</ele>
        <time>2018-03-17T09:28:10Z</time>
      </trkpt>
      <trkpt lat="46.70963" lon="-1.96436">
        <ele>14</ele>
        <time>2018-03-17T09:29:10Z</time>
      </trkpt>
      <trkpt lat="46.70966" lon="-1.96422">
        <ele>14</ele>
        <time>2018-03-17T09:30:10Z</time>
      </trkpt>
      <trkpt lat="46.70969" lon="-1.96404">
        <ele>14</ele>
        <time>2018-03-17T09:31:10Z</time>
      </trkpt>
      <trkpt lat="46.70972" lon="-1.96386">
        <ele>13</ele>
        <time>2018-03-17T09:32:10Z</time>
      </trkpt>
      <trkpt lat="46.70975" lon="-1.96369">
        <ele>13</ele>
        <time>2018-03-17T09:33:10Z</time>
      </trkpt>
      <trkpt lat="46.70976" lon="-1.96356">
        <ele>13</ele>
        <time>2018-03-17T09:34:10Z</time>
      </trkpt>
      <trkpt lat="46.70978" lon="-1.9633">
        <ele>13</ele>
        <time>2018-03-17T09:35:10Z</time>
      </trkpt>
      <trkpt lat="46.70979" lon="-1.96306">
        <ele>13</ele>
        <time>2018-03-17T09:36:10Z</time>
      </trkpt>
      <trkpt lat="46.70979" lon="-1.96277">
        <ele>13</ele>
        <time>2018-03-17T09:37:10Z</time>
      </trkpt>
      <trkpt lat="46.70978" lon="-1.96247">
        <ele>13</ele>
        <time>2018-03-17T09:38:10Z</time>
      </trkpt>
      <trkpt lat="46.70978" lon="-1.96214">
        <ele>13</ele>
        <time>2018-03-17T09:39:10Z</time>
      </trkpt>
      <trkpt lat="46.70978" lon="-1.96188">
        <ele>13</ele>
        <time>2018-03-17T09:40:10Z</time>
      </trkpt>
      <trkpt lat="46.70977" lon="-1.96155">
        <ele>14</ele>
        <time>2018-03-17T09:41:10Z</time>
      </trkpt>
      <trkpt lat="46.70976" lon="-1.96132">
        <ele>15</ele>
        <time>2018-03-17T09:42:10Z</time>
      </trkpt>
      <trkpt lat="46.70976" lon="-1.96124">
        <ele>15</ele>
        <time>2018-03-17T09:43:10Z</time>
      </trkpt>
      <trkpt lat="46.70977" lon="-1.96114">
        <ele>15</ele>
        <time>2018-03-17T09:44:10Z</time>
      </trkpt>
      <trkpt lat="46.70977" lon="-1.96114">
        <ele>15</ele>
        <time>2018-03-17T09:45:10Z</time>
      </trkpt>
      <trkpt lat="46.70973" lon="-1.96112">
        <ele>16</ele>
        <time>2018-03-17T09:46:10Z</time>
      </trkpt>
      <trkpt lat="46.7097" lon="-1.96108">
        <ele>16</ele>
        <time>2018-03-17T09:47:10Z</time>
      </trkpt>
      <trkpt lat="46.70968" lon="-1.96102">
        <ele>16</ele>
        <time>2018-03-17T09:48:10Z</time>
      </trkpt>
      <trkpt lat="46.70967" lon="-1.96095">
        <ele>16</ele>
        <time>2018-03-17T09:49:10Z</time>
      </trkpt>
      <trkpt lat="46.70954" lon="-1.96093">
        <ele>16</ele>
        <time>2018-03-17T09:50:10Z</time>
      </trkpt>
      <trkpt lat="46.70938" lon="-1.96092">
        <ele>16</ele>
        <time>2018-03-17T09:51:10Z</time>
      </trkpt>
      <trkpt lat="46.7092" lon="-1.9609">
        <ele>16</ele>
        <time>2018-03-17T09:52:10Z</time>
      </trkpt>
      <trkpt lat="46.70896" lon="-1.96087">
        <ele>16</ele>
        <time>2018-03-17T09:53:10Z</time>
      </trkpt>
      <trkpt lat="46.70848" lon="-1.96082">
        <ele>15</ele>
        <time>2018-03-17T09:54:10Z</time>
      </trkpt>
      <trkpt lat="46.7081" lon="-1.96079">
        <ele>15</ele>
        <time>2018-03-17T09:55:10Z</time>
      </trkpt>
      <trkpt lat="46.70763" lon="-1.96074">
        <ele>16</ele>
        <time>2018-03-17T09:56:10Z</time>
      </trkpt>
      <trkpt lat="46.70722" lon="-1.96071">
        <ele>16</ele>
        <time>2018-03-17T09:57:10Z</time>
      </trkpt>
      <trkpt lat="46.70717" lon="-1.96071">
        <ele>16</ele>
        <time>2018-03-17T09:58:10Z</time>
      </trkpt>
      <trkpt lat="46.70684" lon="-1.96067">
        <ele>16</ele>
        <time>2018-03-17T09:59:10Z</time>
      </trkpt>
      <trkpt lat="46.70659" lon="-1.96065">
        <ele>16</ele>
        <time>2018-03-17T10:00:10Z</time>
      </trkpt>
      <trkpt lat="46.70659" lon="-1.96065">
        <ele>16</ele>
        <time>2018-03-17T10:01:10Z</time>
      </trkpt>
      <trkpt lat="46.70647" lon="-1.96064">
        <ele>16</ele>
        <time>2018-03-17T10:02:10Z</time>
      </trkpt>
      <trkpt lat="46.7063" lon="-1.96062">
        <ele>16</ele>
        <time>2018-03-17T10:03:10Z</time>
      </trkpt>
      <trkpt lat="46.70615" lon="-1.96059">
        <ele>16</ele>
        <time>2018-03-17T10:04:10Z</time>
      </trkpt>
      <trkpt lat="46.70579" lon="-1.96052">
        <ele>16</ele>
        <time>2018-03-17T10:05:10Z</time>
      </trkpt>
      <trkpt lat="46.70555" lon="-1.96046">
        <ele>16</ele>
        <time>2018-03-17T10:06:10Z</time>
      </trkpt>
      <trkpt lat="46.70533" lon="-1.96039">
        <ele>16</ele>
        <time>2018-03-17T10:07:10Z</time>
      </trkpt>
      <trkpt lat="46.70506" lon="-1.96029">
        <ele>15</ele>
        <time>2018-03-17T10:08:10Z</time>
      </trkpt>
      <trkpt lat="46.70475" lon="-1.96016">
        <ele>15</ele>
        <time>2018-03-17T10:09:10Z</time>
      </trkpt>
      <trkpt lat="46.70447" lon="-1.96003">
        <ele>16</ele>
        <time>2018-03-17T10:10:10Z</time>
      </trkpt>
      <trkpt lat="46.70419" lon="-1.95986">
        <ele>16</ele>
        <time>2018-03-17T10:11:10Z</time>
      </trkpt>
      <trkpt lat="46.70393" lon="-1.95972">
        <ele>15</ele>
        <time>2018-03-17T10:12:10Z</time>
      </trkpt>
      <trkpt lat="46.70369" lon="-1.95955">
        <ele>15</ele>
        <time>2018-03-17T10:13:10Z</time>
      </trkpt>
      <trkpt lat="46.7036" lon="-1.95948">
        <ele>15</ele>
        <time>2018-03-17T10:14:10Z</time>
      </trkpt>
      <trkpt lat="46.70359" lon="-1.95952">
        <ele>15</ele>
        <time>2018-03-17T10:15:10Z</time>
      </trkpt>
      <trkpt lat="46.70357" lon="-1.95956">
        <ele>15</ele>
        <time>2018-03-17T10:16:10Z</time>
      </trkpt>
      <trkpt lat="46.70354" lon="-1.95958">
        <ele>15</ele>
        <time>2018-03-17T10:17:10Z</time>
      </trkpt>
      <trkpt lat="46.7035" lon="-1.95958">
        <ele>15</ele>
        <time>2018-03-17T10:18:10Z</time>
      </trkpt>
      <trkpt lat="46.70349" lon="-1.95957">
        <ele>15</ele>
        <time>2018-03-17T10:19:10Z</time>
      </trkpt>
      <trkpt lat="46.70347" lon="-1.95955">
        <ele>15</ele>
        <time>2018-03-17T10:20:10Z</time>
      </trkpt>
      <trkpt lat="46.70344" lon="-1.95951">
        <ele>15</ele>
        <time>2018-03-17T10:21:10Z</time>
      </trkpt>
      <trkpt lat="46.70344" lon="-1.95946">
        <ele>14</ele>
        <time>2018-03-17T10:22:10Z</time>
      </trkpt>
      <trkpt lat="46.70344" lon="-1.95941">
        <ele>14</ele>
        <time>2018-03-17T10:23:10Z</time>
      </trkpt>
      <trkpt lat="46.70345" lon="-1.95938">
        <ele>14</ele>
        <time>2018-03-17T10:24:10Z</time>
      </trkpt>
      <trkpt lat="46.70333" lon="-1.95927">
        <ele>14</ele>
        <time>2018-03-17T10:25:10Z</time>
      </trkpt>
      <trkpt lat="46.70313" lon="-1.9591">
        <ele>14</ele>
        <time>2018-03-17T10:26:10Z</time>
      </trkpt>
      <trkpt lat="46.70302" lon="-1.95899">
        <ele>13</ele>
        <time>2018-03-17T10:27:10Z</time>
      </trkpt>
      <trkpt lat="46.70296" lon="-1.95894">
        <ele>13</ele>
        <time>2018-03-17T10:28:10Z</time>
      </trkpt>
      <trkpt lat="46.70274" lon="-1.95872">
        <ele>13</ele>
        <time>2018-03-17T10:29:10Z</time>
      </trkpt>
      <trkpt lat="46.70256" lon="-1.95852">
        <ele>12</ele>
        <time>2018-03-17T10:30:10Z</time>
      </trkpt>
      <trkpt lat="46.70241" lon="-1.95834">
        <ele>12</ele>
        <time>2018-03-17T10:31:10Z</time>
      </trkpt>
      <trkpt lat="46.70228" lon="-1.95813">
        <ele>12</ele>
        <time>2018-03-17T10:32:10Z</time>
      </trkpt>
      <trkpt lat="46.70217" lon="-1.95794">
        <ele>12</ele>
        <time>2018-03-17T10:33:10Z</time>
      </trkpt>
      <trkpt lat="46.70208" lon="-1.95777">
        <ele>12</ele>
        <time>2018-03-17T10:34:10Z</time>
      </trkpt>
      <trkpt lat="46.70197" lon="-1.95753">
        <ele>13</ele>
        <time>2018-03-17T10:35:10Z</time>
      </trkpt>
      <trkpt lat="46.70187" lon="-1.95726">
        <ele>12</ele>
        <time>2018-03-17T10:36:10Z</time>
      </trkpt>
      <trkpt lat="46.70181" lon="-1.95706">
        <ele>12</ele>
        <time>2018-03-17T10:37:10Z</time>
      </trkpt>
      <trkpt lat="46.70176" lon="-1.95686">
        <ele>12</ele>
        <time>2018-03-17T10:38:10Z</time>
      </trkpt>
      <trkpt lat="46.70175" lon="-1.95682">
        <ele>12</ele>
        <time>2018-03-17T10:39:10Z</time>
      </trkpt>
      <trkpt lat="46.70171" lon="-1.95673">
        <ele>12</ele>
        <time>2018-03-17T10:40:10Z</time>
      </trkpt>
      <trkpt lat="46.7017" lon="-1.95669">
        <ele>12</ele>
        <time>2018-03-17T10:41:10Z</time>
      </trkpt>
      <trkpt lat="46.70168" lon="-1.95666">
        <ele>12</ele>
        <time>2018-03-17T10:42:10Z</time>
      </trkpt>
      <trkpt lat="46.70166" lon="-1.9566">
        <ele>12</ele>
        <time>2018-03-17T10:43:10Z</time>
      </trkpt>
      <trkpt lat="46.70165" lon="-1.95657">
        <ele>12</ele>
        <time>2018-03-17T10:44:10Z</time>
      </trkpt>
      <trkpt lat="46.70164" lon="-1.95654">
        <ele>12</ele>
        <time>2018-03-17T10:45:10Z</time>
      </trkpt>
      <trkpt lat="46.70164" lon="-1.95654">
        <ele>12</ele>
        <time>2018-03-17T10:46:10Z</time>
      </trkpt>
      <trkpt lat="46.70163" lon="-1.95654">
        <ele>12</ele>
        <time>2018-03-17T10:47:10Z</time>
      </trkpt>
      <trkpt lat="46.70162" lon="-1.95654">
        <ele>12</ele>
        <time>2018-03-17T10:48:10Z</time>
      </trkpt>
      <trkpt lat="46.70161" lon="-1.95654">
        <ele>12</ele>
        <time>2018-03-17T10:49:10Z</time>
      </trkpt>
      <trkpt lat="46.7016" lon="-1.95654">
        <ele>12</ele>
        <time>2018-03-17T10:50:10Z</time>
      </trkpt>
      <trkpt lat="46.7016" lon="-1.95653">
        <ele>12</ele>
        <time>2018-03-17T10:51:10Z</time>
      </trkpt>
      <trkpt lat="46.70159" lon="-1.95653">
        <ele>12</ele>
        <time>2018-03-17T10:52:10Z</time>
      </trkpt>
      <trkpt lat="46.70159" lon="-1.95652">
        <ele>12</ele>
        <time>2018-03-17T10:53:10Z</time>
      </trkpt>
      <trkpt lat="46.70158" lon="-1.95652">
        <ele>12</ele>
        <time>2018-03-17T10:54:10Z</time>
      </trkpt>
      <trkpt lat="46.70158" lon="-1.95651">
        <ele>12</ele>
        <time>2018-03-17T10:55:10Z</time>
      </trkpt>
      <trkpt lat="46.70157" lon="-1.95651">
        <ele>12</ele>
        <time>2018-03-17T10:56:10Z</time>
      </trkpt>
      <trkpt lat="46.70157" lon="-1.9565">
        <ele>12</ele>
        <time>2018-03-17T10:57:10Z</time>
      </trkpt>
      <trkpt lat="46.70157" lon="-1.95649">
        <ele>12</ele>
        <time>2018-03-17T10:58:10Z</time>
      </trkpt>
      <trkpt lat="46.70156" lon="-1.95649">
        <ele>12</ele>
        <time>2018-03-17T10:59:10Z</time>
      </trkpt>
      <trkpt lat="46.70156" lon="-1.95648">
        <ele>12</ele>
        <time>2018-03-17T11:00:10Z</time>
      </trkpt>
      <trkpt lat="46.70156" lon="-1.95647">
        <ele>12</ele>
        <time>2018-03-17T11:01:10Z</time>
      </trkpt>
      <trkpt lat="46.70156" lon="-1.95646">
        <ele>12</ele>
        <time>2018-03-17T11:02:10Z</time>
      </trkpt>
      <trkpt lat="46.70156" lon="-1.95645">
        <ele>12</ele>
        <time>2018-03-17T11:03:10Z</time>
      </trkpt>
      <trkpt lat="46.70155" lon="-1.95644">
        <ele>12</ele>
        <time>2018-03-17T11:04:10Z</time>
      </trkpt>
      <trkpt lat="46.70155" lon="-1.95643">
        <ele>12</ele>
        <time>2018-03-17T11:05:10Z</time>
      </trkpt>
      <trkpt lat="46.70155" lon="-1.95642">
        <ele>12</ele>
        <time>2018-03-17T11:06:10Z</time>
      </trkpt>
      <trkpt lat="46.70156" lon="-1.95641">
        <ele>12</ele>
        <time>2018-03-17T11:07:10Z</time>
      </trkpt>
      <trkpt lat="46.70156" lon="-1.9564">
        <ele>12</ele>
        <time>2018-03-17T11:08:10Z</time>
      </trkpt>
      <trkpt lat="46.70156" lon="-1.95639">
        <ele>12</ele>
        <time>2018-03-17T11:09:10Z</time>
      </trkpt>
      <trkpt lat="46.70156" lon="-1.95638">
        <ele>11</ele>
        <time>2018-03-17T11:10:10Z</time>
      </trkpt>
      <trkpt lat="46.70156" lon="-1.95637">
        <ele>11</ele>
        <time>2018-03-17T11:11:10Z</time>
      </trkpt>
      <trkpt lat="46.70157" lon="-1.95637">
        <ele>11</ele>
        <time>2018-03-17T11:12:10Z</time>
      </trkpt>
      <trkpt lat="46.70157" lon="-1.95636">
        <ele>11</ele>
        <time>2018-03-17T11:13:10Z</time>
      </trkpt>
      <trkpt lat="46.70157" lon="-1.95635">
        <ele>11</ele>
        <time>2018-03-17T11:14:10Z</time>
      </trkpt>
      <trkpt lat="46.70158" lon="-1.95635">
        <ele>11</ele>
        <time>2018-03-17T11:15:10Z</time>
      </trkpt>
      <trkpt lat="46.70158" lon="-1.95634">
        <ele>11</ele>
        <time>2018-03-17T11:16:10Z</time>
      </trkpt>
      <trkpt lat="46.70159" lon="-1.95634">
        <ele>11</ele>
        <time>2018-03-17T11:17:10Z</time>
      </trkpt>
      <trkpt lat="46.70159" lon="-1.95633">
        <ele>11</ele>
        <time>2018-03-17T11:18:10Z</time>
      </trkpt>
      <trkpt lat="46.7016" lon="-1.95633">
        <ele>11</ele>
        <time>2018-03-17T11:19:10Z</time>
      </trkpt>
      <trkpt lat="46.7016" lon="-1.95632">
        <ele>11</ele>
        <time>2018-03-17T11:20:10Z</time>
      </trkpt>
      <trkpt lat="46.70161" lon="-1.95632">
        <ele>11</ele>
        <time>2018-03-17T11:21:10Z</time>
      </trkpt>
      <trkpt lat="46.70162" lon="-1.95624">
        <ele>11</ele>
        <time>2018-03-17T11:22:10Z</time>
      </trkpt>
      <trkpt lat="46.70163" lon="-1.9561">
        <ele>11</ele>
        <time>2018-03-17T11:23:10Z</time>
      </trkpt>
      <trkpt lat="46.70153" lon="-1.9555">
        <ele>10</ele>
        <time>2018-03-17T11:24:10Z</time>
      </trkpt>
      <trkpt lat="46.70143" lon="-1.95473">
        <ele>9</ele>
        <time>2018-03-17T11:25:10Z</time>
      </trkpt>
      <trkpt lat="46.70142" lon="-1.95447">
        <ele>9</ele>
        <time>2018-03-17T11:26:10Z</time>
      </trkpt>
      <trkpt lat="46.70147" lon="-1.95382">
        <ele>8</ele>
        <time>2018-03-17T11:27:10Z</time>
      </trkpt>
      <trkpt lat="46.70163" lon="-1.95279">
        <ele>6</ele>
        <time>2018-03-17T11:28:10Z</time>
      </trkpt>
      <trkpt lat="46.70167" lon="-1.95232">
        <ele>5</ele>
        <time>2018-03-17T11:29:10Z</time>
      </trkpt>
      <trkpt lat="46.70167" lon="-1.95226">
        <ele>5</ele>
        <time>2018-03-17T11:30:10Z</time>
      </trkpt>
      <trkpt lat="46.70168" lon="-1.95219">
        <ele>5</ele>
        <time>2018-03-17T11:31:10Z</time>
      </trkpt>
      <trkpt lat="46.70167" lon="-1.95198">
        <ele>6</ele>
        <time>2018-03-17T11:32:10Z</time>
      </trkpt>
      <trkpt lat="46.70166" lon="-1.95179">
        <ele>6</ele>
        <time>2018-03-17T11:33:10Z</time>
      </trkpt>
      <trkpt lat="46.70162" lon="-1.95161">
        <ele>6</ele>
        <time>2018-03-17T11:34:10Z</time>
      </trkpt>
      <trkpt lat="46.7016" lon="-1.95145">
        <ele>6</ele>
        <time>2018-03-17T11:35:10Z</time>
      </trkpt>
      <trkpt lat="46.70158" lon="-1.95126">
        <ele>6</ele>
        <time>2018-03-17T11:36:10Z</time>
      </trkpt>
      <trkpt lat="46.70157" lon="-1.95107">
        <ele>5</ele>
        <time>2018-03-17T11:37:10Z</time>
      </trkpt>
      <trkpt lat="46.70156" lon="-1.95089">
        <ele>5</ele>
        <time>2018-03-17T11:38:10Z</time>
      </trkpt>
      <trkpt lat="46.70156" lon="-1.95069">
        <ele>5</ele>
        <time>2018-03-17T11:39:10Z</time>
      </trkpt>
      <trkpt lat="46.70156" lon="-1.95069">
        <ele>5</ele>
        <time>2018-03-17T11:40:10Z</time>
      </trkpt>
      <trkpt lat="46.70155" lon="-1.95069">
        <ele>5</ele>
        <time>2018-03-17T11:41:10Z</time>
      </trkpt>
      <trkpt lat="46.70154" lon="-1.95069">
        <ele>5</ele>
        <time>2018-03-17T11:42:10Z</time>
      </trkpt>
      <trkpt lat="46.70153" lon="-1.95069">
        <ele>5</ele>
        <time>2018-03-17T11:43:10Z</time>
      </trkpt>
      <trkpt lat="46.70152" lon="-1.95069">
        <ele>5</ele>
        <time>2018-03-17T11:44:10Z</time>
      </trkpt>
      <trkpt lat="46.70152" lon="-1.95068">
        <ele>5</ele>
        <time>2018-03-17T11:45:10Z</time>
      </trkpt>
      <trkpt lat="46.70151" lon="-1.95068">
        <ele>5</ele>
        <time>2018-03-17T11:46:10Z</time>
      </trkpt>
      <trkpt lat="46.70151" lon="-1.95067">
        <ele>5</ele>
        <time>2018-03-17T11:47:10Z</time>
      </trkpt>
      <trkpt lat="46.7015" lon="-1.95067">
        <ele>5</ele>
        <time>2018-03-17T11:48:10Z</time>
      </trkpt>
      <trkpt lat="46.7015" lon="-1.95066">
        <ele>5</ele>
        <time>2018-03-17T11:49:10Z</time>
      </trkpt>
      <trkpt lat="46.70149" lon="-1.95066">
        <ele>5</ele>
        <time>2018-03-17T11:50:10Z</time>
      </trkpt>
      <trkpt lat="46.70149" lon="-1.95065">
        <ele>5</ele>
        <time>2018-03-17T11:51:10Z</time>
      </trkpt>
      <trkpt lat="46.70149" lon="-1.95064">
        <ele>5</ele>
        <time>2018-03-17T11:52:10Z</time>
      </trkpt>
      <trkpt lat="46.70149" lon="-1.95063">
        <ele>5</ele>
        <time>2018-03-17T11:53:10Z</time>
      </trkpt>
      <trkpt lat="46.70148" lon="-1.95063">
        <ele>5</ele>
        <time>2018-03-17T11:54:10Z</time>
      </trkpt>
      <trkpt lat="46.70148" lon="-1.95062">
        <ele>5</ele>
        <time>2018-03-17T11:55:10Z</time>
      </trkpt>
      <trkpt lat="46.70148" lon="-1.95061">
        <ele>5</ele>
        <time>2018-03-17T11:56:10Z</time>
      </trkpt>
      <trkpt lat="46.70148" lon="-1.9506">
        <ele>5</ele>
        <time>2018-03-17T11:57:10Z</time>
      </trkpt>
      <trkpt lat="46.70148" lon="-1.95059">
        <ele>5</ele>
        <time>2018-03-17T11:58:10Z</time>
      </trkpt>
      <trkpt lat="46.70148" lon="-1.95058">
        <ele>5</ele>
        <time>2018-03-17T11:59:10Z</time>
      </trkpt>
      <trkpt lat="46.70125" lon="-1.95054">
        <ele>5</ele>
        <time>2018-03-17T12:00:10Z</time>
      </trkpt>
      <trkpt lat="46.70103" lon="-1.9505">
        <ele>5</ele>
        <time>2018-03-17T12:01:10Z</time>
      </trkpt>
      <trkpt lat="46.70069" lon="-1.95044">
        <ele>6</ele>
        <time>2018-03-17T12:02:10Z</time>
      </trkpt>
      <trkpt lat="46.7005" lon="-1.95039">
        <ele>6</ele>
        <time>2018-03-17T12:03:10Z</time>
      </trkpt>
      <trkpt lat="46.70034" lon="-1.95036">
        <ele>7</ele>
        <time>2018-03-17T12:04:10Z</time>
      </trkpt>
      <trkpt lat="46.70019" lon="-1.9503">
        <ele>7</ele>
        <time>2018-03-17T12:05:10Z</time>
      </trkpt>
      <trkpt lat="46.70013" lon="-1.95027">
        <ele>7</ele>
        <time>2018-03-17T12:06:10Z</time>
      </trkpt>
      <trkpt lat="46.70007" lon="-1.95023">
        <ele>7</ele>
        <time>2018-03-17T12:07:10Z</time>
      </trkpt>
      <trkpt lat="46.69997" lon="-1.95014">
        <ele>7</ele>
        <time>2018-03-17T12:08:10Z</time>
      </trkpt>
      <trkpt lat="46.69981" lon="-1.94999">
        <ele>7</ele>
        <time>2018-03-17T12:09:10Z</time>
      </trkpt>
      <trkpt lat="46.69963" lon="-1.9498">
        <ele>8</ele>
        <time>2018-03-17T12:10:10Z</time>
      </trkpt>
      <trkpt lat="46.69949" lon="-1.94964">
        <ele>8</ele>
        <time>2018-03-17T12:11:10Z</time>
      </trkpt>
      <trkpt lat="46.69934" lon="-1.94944">
        <ele>8</ele>
        <time>2018-03-17T12:12:10Z</time>
      </trkpt>
      <trkpt lat="46.69918" lon="-1.94924">
        <ele>7</ele>
        <time>2018-03-17T12:13:10Z</time>
      </trkpt>
      <trkpt lat="46.69911" lon="-1.94912">
        <ele>7</ele>
        <time>2018-03-17T12:14:10Z</time>
      </trkpt>
      <trkpt lat="46.69896" lon="-1.94891">
        <ele>6</ele>
        <time>2018-03-17T12:15:10Z</time>
      </trkpt>
      <trkpt lat="46.69874" lon="-1.94856">
        <ele>6</ele>
        <time>2018-03-17T12:16:10Z</time>
      </trkpt>
      <trkpt lat="46.69867" lon="-1.94841">
        <ele>5</ele>
        <time>2018-03-17T12:17:10Z</time>
      </trkpt>
      <trkpt lat="46.6986" lon="-1.94828">
        <ele>5</ele>
        <time>2018-03-17T12:18:10Z</time>
      </trkpt>
      <trkpt lat="46.69848" lon="-1.94802">
        <ele>5</ele>
        <time>2018-03-17T12:19:10Z</time>
      </trkpt>
      <trkpt lat="46.69836" lon="-1.94769">
        <ele>5</ele>
        <time>2018-03-17T12:20:10Z</time>
      </trkpt>
      <trkpt lat="46.69828" lon="-1.94745">
        <ele>5</ele>
        <time>2018-03-17T12:21:10Z</time>
      </trkpt>
      <trkpt lat="46.69828" lon="-1.94745">
        <ele>5</ele>
        <time>2018-03-17T12:22:10Z</time>
      </trkpt>
      <trkpt lat="46.69826" lon="-1.94736">
        <ele>5</ele>
        <time>2018-03-17T12:23:10Z</time>
      </trkpt>
      <trkpt lat="46.69825" lon="-1.94732">
        <ele>5</ele>
        <time>2018-03-17T12:24:10Z</time>
      </trkpt>
      <trkpt lat="46.69819" lon="-1.94712">
        <ele>4</ele>
        <time>2018-03-17T12:25:10Z</time>
      </trkpt>
      <trkpt lat="46.69814" lon="-1.94695">
        <ele>4</ele>
        <time>2018-03-17T12:26:10Z</time>
      </trkpt>
      <trkpt lat="46.69809" lon="-1.94676">
        <ele>4</ele>
        <time>2018-03-17T12:27:10Z</time>
      </trkpt>
      <trkpt lat="46.69805" lon="-1.94657">
        <ele>4</ele>
        <time>2018-03-17T12:28:10Z</time>
      </trkpt>
      <trkpt lat="46.69799" lon="-1.94634">
        <ele>4</ele>
        <time>2018-03-17T12:29:10Z</time>
      </trkpt>
      <trkpt lat="46.6978" lon="-1.94548">
        <ele>3</ele>
        <time>2018-03-17T12:30:10Z</time>
      </trkpt>
      <trkpt lat="46.69765" lon="-1.94496">
        <ele>4</ele>
        <time>2018-03-17T12:31:10Z</time>
      </trkpt>
      <trkpt lat="46.69758" lon="-1.94477">
        <ele>4</ele>
        <time>2018-03-17T12:32:10Z</time>
      </trkpt>
      <trkpt lat="46.69753" lon="-1.94463">
        <ele>4</ele>
        <time>2018-03-17T12:33:10Z</time>
      </trkpt>
      <trkpt lat="46.69748" lon="-1.94448">
        <ele>2</ele>
        <time>2018-03-17T12:34:10Z</time>
      </trkpt>
      <trkpt lat="46.69745" lon="-1.9444">
        <ele>2</ele>
        <time>2018-03-17T12:35:10Z</time>
      </trkpt>
      <trkpt lat="46.69735" lon="-1.94411">
        <ele>3</ele>
        <time>2018-03-17T12:36:10Z</time>
      </trkpt>
      <trkpt lat="46.69732" lon="-1.944">
        <ele>4</ele>
        <time>2018-03-17T12:37:10Z</time>
      </trkpt>
      <trkpt lat="46.69727" lon="-1.94384">
        <ele>4</ele>
        <time>2018-03-17T12:38:10Z</time>
      </trkpt>
      <trkpt lat="46.69718" lon="-1.9436">
        <ele>4</ele>
        <time>2018-03-17T12:39:10Z</time>
      </trkpt>
      <trkpt lat="46.69709" lon="-1.94333">
        <ele>4</ele>
        <time>2018-03-17T12:40:10Z</time>
      </trkpt>
      <trkpt lat="46.69703" lon="-1.94314">
        <ele>4</ele>
        <time>2018-03-17T12:41:10Z</time>
      </trkpt>
      <trkpt lat="46.697" lon="-1.94303">
        <ele>4</ele>
        <time>2018-03-17T12:42:10Z</time>
      </trkpt>
      <trkpt lat="46.69696" lon="-1.94286">
        <ele>4</ele>
        <time>2018-03-17T12:43:10Z</time>
      </trkpt>
      <trkpt lat="46.69688" lon="-1.94251">
        <ele>4</ele>
        <time>2018-03-17T12:44:10Z</time>
      </trkpt>
      <trkpt lat="46.69675" lon="-1.94202">
        <ele>5</ele>
        <time>2018-03-17T12:45:10Z</time>
      </trkpt>
      <trkpt lat="46.6966" lon="-1.94143">
        <ele>4</ele>
        <time>2018-03-17T12:46:10Z</time>
      </trkpt>
      <trkpt lat="46.69658" lon="-1.94132">
        <ele>4</ele>
        <time>2018-03-17T12:47:10Z</time>
      </trkpt>
      <trkpt lat="46.69653" lon="-1.9411">
        <ele>3</ele>
        <time>2018-03-17T12:48:10Z</time>
      </trkpt>
      <trkpt lat="46.69653" lon="-1.9411">
        <ele>3</ele>
        <time>2018-03-17T12:49:10Z</time>
      </trkpt>
      <trkpt lat="46.69644" lon="-1.94108">
        <ele>3</ele>
        <time>2018-03-17T12:50:10Z</time>
      </trkpt>
      <trkpt lat="46.69639" lon="-1.94108">
        <ele>3</ele>
        <time>2018-03-17T12:51:10Z</time>
      </trkpt>
      <trkpt lat="46.69636" lon="-1.9411">
        <ele>3</ele>
        <time>2018-03-17T12:52:10Z</time>
      </trkpt>
      <trkpt lat="46.69633" lon="-1.94111">
        <ele>3</ele>
        <time>2018-03-17T12:53:10Z</time>
      </trkpt>
      <trkpt lat="46.69622" lon="-1.94114">
        <ele>3</ele>
        <time>2018-03-17T12:54:10Z</time>
      </trkpt>
      <trkpt lat="46.69618" lon="-1.94115">
        <ele>3</ele>
        <time>2018-03-17T12:55:10Z</time>
      </trkpt>
      <trkpt lat="46.69615" lon="-1.94114">
        <ele>3</ele>
        <time>2018-03-17T12:56:10Z</time>
      </trkpt>
      <trkpt lat="46.69612" lon="-1.94113">
        <ele>3</ele>
        <time>2018-03-17T12:57:10Z</time>
      </trkpt>
      <trkpt lat="46.6961" lon="-1.94112">
        <ele>3</ele>
        <time>2018-03-17T12:58:10Z</time>
      </trkpt>
      <trkpt lat="46.69608" lon="-1.9411">
        <ele>3</ele>
        <time>2018-03-17T12:59:10Z</time>
      </trkpt>
      <trkpt lat="46.69606" lon="-1.94105">
        <ele>3</ele>
        <time>2018-03-17T13:00:10Z</time>
      </trkpt>
      <trkpt lat="46.69593" lon="-1.94071">
        <ele>3</ele>
        <time>2018-03-17T13:01:10Z</time>
      </trkpt>
      <trkpt lat="46.69582" lon="-1.94047">
        <ele>3</ele>
        <time>2018-03-17T13:02:10Z</time>
      </trkpt>
      <trkpt lat="46.69582" lon="-1.94047">
        <ele>3</ele>
        <time>2018-03-17T13:03:10Z</time>
      </trkpt>
      <trkpt lat="46.69573" lon="-1.94025">
        <ele>4</ele>
        <time>2018-03-17T13:04:10Z</time>
      </trkpt>
      <trkpt lat="46.69548" lon="-1.93973">
        <ele>4</ele>
        <time>2018-03-17T13:05:10Z</time>
      </trkpt>
      <trkpt lat="46.69544" lon="-1.93963">
        <ele>4</ele>
        <time>2018-03-17T13:06:10Z</time>
      </trkpt>
      <trkpt lat="46.69543" lon="-1.9396">
        <ele>4</ele>
        <time>2018-03-17T13:07:10Z</time>
      </trkpt>
      <trkpt lat="46.69535" lon="-1.93937">
        <ele>4</ele>
        <time>2018-03-17T13:08:10Z</time>
      </trkpt>
      <trkpt lat="46.69532" lon="-1.93928">
        <ele>4</ele>
        <time>2018-03-17T13:09:10Z</time>
      </trkpt>
      <trkpt lat="46.69529" lon="-1.9392">
        <ele>4</ele>
        <time>2018-03-17T13:10:10Z</time>
      </trkpt>
      <trkpt lat="46.69526" lon="-1.93911">
        <ele>4</ele>
        <time>2018-03-17T13:11:10Z</time>
      </trkpt>
      <trkpt lat="46.69525" lon="-1.93905">
        <ele>4</ele>
        <time>2018-03-17T13:12:10Z</time>
      </trkpt>
      <trkpt lat="46.69522" lon="-1.93898">
        <ele>4</ele>
        <time>2018-03-17T13:13:10Z</time>
      </trkpt>
      <trkpt lat="46.69511" lon="-1.93878">
        <ele>4</ele>
        <time>2018-03-17T13:14:10Z</time>
      </trkpt>
      <trkpt lat="46.6951" lon="-1.93875">
        <ele>4</ele>
        <time>2018-03-17T13:15:10Z</time>
      </trkpt>
      <trkpt lat="46.69507" lon="-1.93869">
        <ele>4</ele>
        <time>2018-03-17T13:16:10Z</time>
      </trkpt>
      <trkpt lat="46.69505" lon="-1.93865">
        <ele>4</ele>
        <time>2018-03-17T13:17:10Z</time>
      </trkpt>
      <trkpt lat="46.69495" lon="-1.93843">
        <ele>3</ele>
        <time>2018-03-17T13:18:10Z</time>
      </trkpt>
      <trkpt lat="46.69492" lon="-1.93841">
        <ele>3</ele>
        <time>2018-03-17T13:19:10Z</time>
      </trkpt>
      <trkpt lat="46.69488" lon="-1.93834">
        <ele>3</ele>
        <time>2018-03-17T13:20:10Z</time>
      </trkpt>
      <trkpt lat="46.6947" lon="-1.93801">
        <ele>3</ele>
        <time>2018-03-17T13:21:10Z</time>
      </trkpt>
      <trkpt lat="46.69464" lon="-1.93789">
        <ele>3</ele>
        <time>2018-03-17T13:22:10Z</time>
      </trkpt>
      <trkpt lat="46.6946" lon="-1.93781">
        <ele>3</ele>
        <time>2018-03-17T13:23:10Z</time>
      </trkpt>
      <trkpt lat="46.69451" lon="-1.93756">
        <ele>3</ele>
        <time>2018-03-17T13:24:10Z</time>
      </trkpt>
      <trkpt lat="46.69449" lon="-1.93753">
        <ele>3</ele>
        <time>2018-03-17T13:25:10Z</time>
      </trkpt>
      <trkpt lat="46.69443" lon="-1.9374">
        <ele>3</ele>
        <time>2018-03-17T13:26:10Z</time>
      </trkpt>
      <trkpt lat="46.69441" lon="-1.93734">
        <ele>3</ele>
        <time>2018-03-17T13:27:10Z</time>
      </trkpt>
      <trkpt lat="46.69438" lon="-1.93724">
        <ele>3</ele>
        <time>2018-03-17T13:28:10Z</time>
      </trkpt>
      <trkpt lat="46.69433" lon="-1.93699">
        <ele>3</ele>
        <time>2018-03-17T13:29:10Z</time>
      </trkpt>
      <trkpt lat="46.69425" lon="-1.93665">
        <ele>3</ele>
        <time>2018-03-17T13:30:10Z</time>
      </trkpt>
      <trkpt lat="46.69423" lon="-1.93652">
        <ele>3</ele>
        <time>2018-03-17T13:31:10Z</time>
      </trkpt>
      <trkpt lat="46.69422" lon="-1.93638">
        <ele>2</ele>
        <time>2018-03-17T13:32:10Z</time>
      </trkpt>
      <trkpt lat="46.69422" lon="-1.93633">
        <ele>2</ele>
        <time>2018-03-17T13:33:10Z</time>
      </trkpt>
      <trkpt lat="46.69423" lon="-1.93624">
        <ele>2</ele>
        <time>2018-03-17T13:34:10Z</time>
      </trkpt>
      <trkpt lat="46.69425" lon="-1.93616">
        <ele>2</ele>
        <time>2018-03-17T13:35:10Z</time>
      </trkpt>
      <trkpt lat="46.69427" lon="-1.9361">
        <ele>2</ele>
        <time>2018-03-17T13:36:10Z</time>
      </trkpt>
      <trkpt lat="46.69428" lon="-1.93608">
        <ele>2</ele>
        <time>2018-03-17T13:37:10Z</time>
      </trkpt>
      <trkpt lat="46.69433" lon="-1.93601">
        <ele>2</ele>
        <time>2018-03-17T13:38:10Z</time>
      </trkpt>
      <trkpt lat="46.6944" lon="-1.93596">
        <ele>2</ele>
        <time>2018-03-17T13:39:10Z</time>
      </trkpt>
      <trkpt lat="46.69455" lon="-1.9359">
        <ele>2</ele>
        <time>2018-03-17T13:40:10Z</time>
      </trkpt>
      <trkpt lat="46.69478" lon="-1.93583">
        <ele>2</ele>
        <time>2018-03-17T13:41:10Z</time>
      </trkpt>
      <trkpt lat="46.69488" lon="-1.93581">
        <ele>3</ele>
        <time>2018-03-17T13:42:10Z</time>
      </trkpt>
      <trkpt lat="46.69498" lon="-1.93578">
        <ele>3</ele>
        <time>2018-03-17T13:43:10Z</time>
      </trkpt>
      <trkpt lat="46.69507" lon="-1.93574">
        <ele>3</ele>
        <time>2018-03-17T13:44:10Z</time>
      </trkpt>
      <trkpt lat="46.6951" lon="-1.93574">
        <ele>3</ele>
        <time>2018-03-17T13:45:10Z</time>
      </trkpt>
      <trkpt lat="46.69514" lon="-1.93574">
        <ele>3</ele>
        <time>2018-03-17T13:46:10Z</time>
      </trkpt>
      <trkpt lat="46.69519" lon="-1.93575">
        <ele>3</ele>
        <time>2018-03-17T13:47:10Z</time>
      </trkpt>
      <trkpt lat="46.6953" lon="-1.93579">
        <ele>3</ele>
        <time>2018-03-17T13:48:10Z</time>
      </trkpt>
      <trkpt lat="46.69542" lon="-1.93584">
        <ele>4</ele>
        <time>2018-03-17T13:49:10Z</time>
      </trkpt>
      <trkpt lat="46.69552" lon="-1.93588">
        <ele>4</ele>
        <time>2018-03-17T13:50:10Z</time>
      </trkpt>
      <trkpt lat="46.69561" lon="-1.93593">
        <ele>4</ele>
        <time>2018-03-17T13:51:10Z</time>
      </trkpt>
      <trkpt lat="46.69564" lon="-1.93594">
        <ele>4</ele>
        <time>2018-03-17T13:52:10Z</time>
      </trkpt>
      <trkpt lat="46.69585" lon="-1.93586">
        <ele>4</ele>
        <time>2018-03-17T13:53:10Z</time>
      </trkpt>
      <trkpt lat="46.69585" lon="-1.93586">
        <ele>4</ele>
        <time>2018-03-17T13:54:10Z</time>
      </trkpt>
      <trkpt lat="46.69585" lon="-1.93585">
        <ele>4</ele>
        <time>2018-03-17T13:55:10Z</time>
      </trkpt>
      <trkpt lat="46.69585" lon="-1.93584">
        <ele>4</ele>
        <time>2018-03-17T13:56:10Z</time>
      </trkpt>
      <trkpt lat="46.69585" lon="-1.93583">
        <ele>4</ele>
        <time>2018-03-17T13:57:10Z</time>
      </trkpt>
      <trkpt lat="46.69585" lon="-1.93582">
        <ele>4</ele>
        <time>2018-03-17T13:58:10Z</time>
      </trkpt>
      <trkpt lat="46.69586" lon="-1.93582">
        <ele>4</ele>
        <time>2018-03-17T13:59:10Z</time>
      </trkpt>
      <trkpt lat="46.69586" lon="-1.93581">
        <ele>4</ele>
        <time>2018-03-17T14:00:10Z</time>
      </trkpt>
      <trkpt lat="46.69586" lon="-1.9358">
        <ele>4</ele>
        <time>2018-03-17T14:01:10Z</time>
      </trkpt>
      <trkpt lat="46.69587" lon="-1.9358">
        <ele>4</ele>
        <time>2018-03-17T14:02:10Z</time>
      </trkpt>
      <trkpt lat="46.69587" lon="-1.93579">
        <ele>4</ele>
        <time>2018-03-17T14:03:10Z</time>
      </trkpt>
      <trkpt lat="46.69587" lon="-1.93578">
        <ele>4</ele>
        <time>2018-03-17T14:04:10Z</time>
      </trkpt>
      <trkpt lat="46.69588" lon="-1.93578">
        <ele>4</ele>
        <time>2018-03-17T14:05:10Z</time>
      </trkpt>
      <trkpt lat="46.69588" lon="-1.93577">
        <ele>4</ele>
        <time>2018-03-17T14:06:10Z</time>
      </trkpt>
      <trkpt lat="46.69589" lon="-1.93577">
        <ele>4</ele>
        <time>2018-03-17T14:07:10Z</time>
      </trkpt>
      <trkpt lat="46.69589" lon="-1.93576">
        <ele>4</ele>
        <time>2018-03-17T14:08:10Z</time>
      </trkpt>
      <trkpt lat="46.6959" lon="-1.93576">
        <ele>4</ele>
        <time>2018-03-17T14:09:10Z</time>
      </trkpt>
      <trkpt lat="46.6959" lon="-1.93575">
        <ele>4</ele>
        <time>2018-03-17T14:10:10Z</time>
      </trkpt>
      <trkpt lat="46.69591" lon="-1.93575">
        <ele>4</ele>
        <time>2018-03-17T14:11:10Z</time>
      </trkpt>
      <trkpt lat="46.69592" lon="-1.93574">
        <ele>4</ele>
        <time>2018-03-17T14:12:10Z</time>
      </trkpt>
      <trkpt lat="46.69593" lon="-1.93574">
        <ele>4</ele>
        <time>2018-03-17T14:13:10Z</time>
      </trkpt>
      <trkpt lat="46.69594" lon="-1.93574">
        <ele>4</ele>
        <time>2018-03-17T14:14:10Z</time>
      </trkpt>
      <trkpt lat="46.69602" lon="-1.9355">
        <ele>4</ele>
        <time>2018-03-17T14:15:10Z</time>
      </trkpt>
      <trkpt lat="46.69606" lon="-1.93531">
        <ele>4</ele>
        <time>2018-03-17T14:16:10Z</time>
      </trkpt>
      <trkpt lat="46.69613" lon="-1.93483">
        <ele>4</ele>
        <time>2018-03-17T14:17:10Z</time>
      </trkpt>
      <trkpt lat="46.69619" lon="-1.93445">
        <ele>4</ele>
        <time>2018-03-17T14:18:10Z</time>
      </trkpt>
      <trkpt lat="46.69622" lon="-1.93436">
        <ele>4</ele>
        <time>2018-03-17T14:19:10Z</time>
      </trkpt>
      <trkpt lat="46.69622" lon="-1.93436">
        <ele>4</ele>
        <time>2018-03-17T14:20:10Z</time>
      </trkpt>
      <trkpt lat="46.69621" lon="-1.93436">
        <ele>4</ele>
        <time>2018-03-17T14:21:10Z</time>
      </trkpt>
      <trkpt lat="46.6962" lon="-1.93435">
        <ele>4</ele>
        <time>2018-03-17T14:22:10Z</time>
      </trkpt>
      <trkpt lat="46.69619" lon="-1.93434">
        <ele>4</ele>
        <time>2018-03-17T14:23:10Z</time>
      </trkpt>
      <trkpt lat="46.69619" lon="-1.93433">
        <ele>4</ele>
        <time>2018-03-17T14:24:10Z</time>
      </trkpt>
      <trkpt lat="46.69618" lon="-1.93433">
        <ele>4</ele>
        <time>2018-03-17T14:25:10Z</time>
      </trkpt>
      <trkpt lat="46.69618" lon="-1.93432">
        <ele>4</ele>
        <time>2018-03-17T14:26:10Z</time>
      </trkpt>
      <trkpt lat="46.69618" lon="-1.93431">
        <ele>4</ele>
        <time>2018-03-17T14:27:10Z</time>
      </trkpt>
      <trkpt lat="46.69617" lon="-1.93431">
        <ele>4</ele>
        <time>2018-03-17T14:28:10Z</time>
      </trkpt>
      <trkpt lat="46.69617" lon="-1.9343">
        <ele>4</ele>
        <time>2018-03-17T14:29:10Z</time>
      </trkpt>
      <trkpt lat="46.69617" lon="-1.93429">
        <ele>4</ele>
        <time>2018-03-17T14:30:10Z</time>
      </trkpt>
      <trkpt lat="46.69617" lon="-1.93428">
        <ele>4</ele>
        <time>2018-03-17T14:31:10Z</time>
      </trkpt>
      <trkpt lat="46.69616" lon="-1.93428">
        <ele>4</ele>
        <time>2018-03-17T14:32:10Z</time>
      </trkpt>
      <trkpt lat="46.69616" lon="-1.93427">
        <ele>4</ele>
        <time>2018-03-17T14:33:10Z</time>
      </trkpt>
      <trkpt lat="46.69616" lon="-1.93426">
        <ele>4</ele>
        <time>2018-03-17T14:34:10Z</time>
      </trkpt>
      <trkpt lat="46.69616" lon="-1.93425">
        <ele>4</ele>
        <time>2018-03-17T14:35:10Z</time>
      </trkpt>
      <trkpt lat="46.69616" lon="-1.93424">
        <ele>4</ele>
        <time>2018-03-17T14:36:10Z</time>
      </trkpt>
      <trkpt lat="46.69616" lon="-1.93423">
        <ele>4</ele>
        <time>2018-03-17T14:37:10Z</time>
      </trkpt>
      <trkpt lat="46.69616" lon="-1.93422">
        <ele>4</ele>
        <time>2018-03-17T14:38:10Z</time>
      </trkpt>
      <trkpt lat="46.69616" lon="-1.93421">
        <ele>4</ele>
        <time>2018-03-17T14:39:10Z</time>
      </trkpt>
      <trkpt lat="46.69617" lon="-1.93421">
        <ele>4</ele>
        <time>2018-03-17T14:40:10Z</time>
      </trkpt>
      <trkpt lat="46.69617" lon="-1.9342">
        <ele>4</ele>
        <time>2018-03-17T14:41:10Z</time>
      </trkpt>
      <trkpt lat="46.69617" lon="-1.93419">
        <ele>4</ele>
        <time>2018-03-17T14:42:10Z</time>
      </trkpt>
      <trkpt lat="46.69617" lon="-1.93418">
        <ele>4</ele>
        <time>2018-03-17T14:43:10Z</time>
      </trkpt>
      <trkpt lat="46.69618" lon="-1.93418">
        <ele>4</ele>
        <time>2018-03-17T14:44:10Z</time>
      </trkpt>
      <trkpt lat="46.69618" lon="-1.93417">
        <ele>4</ele>
        <time>2018-03-17T14:45:10Z</time>
      </trkpt>
      <trkpt lat="46.69618" lon="-1.93416">
        <ele>4</ele>
        <time>2018-03-17T14:46:10Z</time>
      </trkpt>
      <trkpt lat="46.69619" lon="-1.93416">
        <ele>4</ele>
        <time>2018-03-17T14:47:10Z</time>
      </trkpt>
      <trkpt lat="46.69619" lon="-1.93415">
        <ele>4</ele>
        <time>2018-03-17T14:48:10Z</time>
      </trkpt>
      <trkpt lat="46.6962" lon="-1.93415">
        <ele>4</ele>
        <time>2018-03-17T14:49:10Z</time>
      </trkpt>
      <trkpt lat="46.6962" lon="-1.93414">
        <ele>5</ele>
        <time>2018-03-17T14:50:10Z</time>
      </trkpt>
      <trkpt lat="46.69621" lon="-1.93414">
        <ele>5</ele>
        <time>2018-03-17T14:51:10Z</time>
      </trkpt>
      <trkpt lat="46.69621" lon="-1.93413">
        <ele>5</ele>
        <time>2018-03-17T14:52:10Z</time>
      </trkpt>
      <trkpt lat="46.69622" lon="-1.93413">
        <ele>5</ele>
        <time>2018-03-17T14:53:10Z</time>
      </trkpt>
      <trkpt lat="46.69623" lon="-1.93412">
        <ele>5</ele>
        <time>2018-03-17T14:54:10Z</time>
      </trkpt>
      <trkpt lat="46.69624" lon="-1.93412">
        <ele>5</ele>
        <time>2018-03-17T14:55:10Z</time>
      </trkpt>
      <trkpt lat="46.69625" lon="-1.93412">
        <ele>5</ele>
        <time>2018-03-17T14:56:10Z</time>
      </trkpt>
      <trkpt lat="46.69626" lon="-1.93412">
        <ele>5</ele>
        <time>2018-03-17T14:57:10Z</time>
      </trkpt>
      <trkpt lat="46.69627" lon="-1.93412">
        <ele>5</ele>
        <time>2018-03-17T14:58:10Z</time>
      </trkpt>
      <trkpt lat="46.69627" lon="-1.93413">
        <ele>5</ele>
        <time>2018-03-17T14:59:10Z</time>
      </trkpt>
      <trkpt lat="46.69628" lon="-1.93413">
        <ele>5</ele>
        <time>2018-03-17T15:00:10Z</time>
      </trkpt>
      <trkpt lat="46.69629" lon="-1.93413">
        <ele>5</ele>
        <time>2018-03-17T15:01:10Z</time>
      </trkpt>
      <trkpt lat="46.69629" lon="-1.93414">
        <ele>5</ele>
        <time>2018-03-17T15:02:10Z</time>
      </trkpt>
      <trkpt lat="46.6963" lon="-1.93414">
        <ele>5</ele>
        <time>2018-03-17T15:03:10Z</time>
      </trkpt>
      <trkpt lat="46.6963" lon="-1.93415">
        <ele>5</ele>
        <time>2018-03-17T15:04:10Z</time>
      </trkpt>
      <trkpt lat="46.69631" lon="-1.93416">
        <ele>5</ele>
        <time>2018-03-17T15:05:10Z</time>
      </trkpt>
      <trkpt lat="46.69631" lon="-1.93417">
        <ele>5</ele>
        <time>2018-03-17T15:06:10Z</time>
      </trkpt>
      <trkpt lat="46.69632" lon="-1.93417">
        <ele>5</ele>
        <time>2018-03-17T15:07:10Z</time>
      </trkpt>
      <trkpt lat="46.69632" lon="-1.93418">
        <ele>5</ele>
        <time>2018-03-17T15:08:10Z</time>
      </trkpt>
      <trkpt lat="46.69632" lon="-1.93419">
        <ele>5</ele>
        <time>2018-03-17T15:09:10Z</time>
      </trkpt>
      <trkpt lat="46.69633" lon="-1.93419">
        <ele>5</ele>
        <time>2018-03-17T15:10:10Z</time>
      </trkpt>
      <trkpt lat="46.69633" lon="-1.9342">
        <ele>5</ele>
        <time>2018-03-17T15:11:10Z</time>
      </trkpt>
      <trkpt lat="46.69633" lon="-1.93421">
        <ele>5</ele>
        <time>2018-03-17T15:12:10Z</time>
      </trkpt>
      <trkpt lat="46.69633" lon="-1.93422">
        <ele>5</ele>
        <time>2018-03-17T15:13:10Z</time>
      </trkpt>
      <trkpt lat="46.69633" lon="-1.93423">
        <ele>5</ele>
        <time>2018-03-17T15:14:10Z</time>
      </trkpt>
      <trkpt lat="46.69685" lon="-1.93435">
        <ele>5</ele>
        <time>2018-03-17T15:15:10Z</time>
      </trkpt>
      <trkpt lat="46.69697" lon="-1.93436">
        <ele>5</ele>
        <time>2018-03-17T15:16:10Z</time>
      </trkpt>
      <trkpt lat="46.69714" lon="-1.93435">
        <ele>5</ele>
        <time>2018-03-17T15:17:10Z</time>
      </trkpt>
      <trkpt lat="46.69721" lon="-1.93434">
        <ele>5</ele>
        <time>2018-03-17T15:18:10Z</time>
      </trkpt>
      <trkpt lat="46.69759" lon="-1.93424">
        <ele>5</ele>
        <time>2018-03-17T15:19:10Z</time>
      </trkpt>
      <trkpt lat="46.69762" lon="-1.93423">
        <ele>5</ele>
        <time>2018-03-17T15:20:10Z</time>
      </trkpt>
      <trkpt lat="46.69772" lon="-1.9342">
        <ele>5</ele>
        <time>2018-03-17T15:21:10Z</time>
      </trkpt>
      <trkpt lat="46.69776" lon="-1.9342">
        <ele>5</ele>
        <time>2018-03-17T15:22:10Z</time>
      </trkpt>
      <trkpt lat="46.69779" lon="-1.9342">
        <ele>5</ele>
        <time>2018-03-17T15:23:10Z</time>
      </trkpt>
      <trkpt lat="46.69785" lon="-1.93422">
        <ele>5</ele>
        <time>2018-03-17T15:24:10Z</time>
      </trkpt>
      <trkpt lat="46.69785" lon="-1.93421">
        <ele>5</ele>
        <time>2018-03-17T15:25:10Z</time>
      </trkpt>
      <trkpt lat="46.69786" lon="-1.93421">
        <ele>5</ele>
        <time>2018-03-17T15:26:10Z</time>
      </trkpt>
      <trkpt lat="46.69786" lon="-1.9342">
        <ele>5</ele>
        <time>2018-03-17T15:27:10Z</time>
      </trkpt>
      <trkpt lat="46.69786" lon="-1.93419">
        <ele>5</ele>
        <time>2018-03-17T15:28:10Z</time>
      </trkpt>
      <trkpt lat="46.69786" lon="-1.93418">
        <ele>5</ele>
        <time>2018-03-17T15:29:10Z</time>
      </trkpt>
      <trkpt lat="46.69787" lon="-1.93418">
        <ele>5</ele>
        <time>2018-03-17T15:30:10Z</time>
      </trkpt>
      <trkpt lat="46.69787" lon="-1.93417">
        <ele>5</ele>
        <time>2018-03-17T15:31:10Z</time>
      </trkpt>
      <trkpt lat="46.69788" lon="-1.93417">
        <ele>5</ele>
        <time>2018-03-17T15:32:10Z</time>
      </trkpt>
      <trkpt lat="46.69789" lon="-1.93417">
        <ele>5</ele>
        <time>2018-03-17T15:33:10Z</time>
      </trkpt>
      <trkpt lat="46.6979" lon="-1.93417">
        <ele>5</ele>
        <time>2018-03-17T15:34:10Z</time>
      </trkpt>
      <trkpt lat="46.69791" lon="-1.93417">
        <ele>5</ele>
        <time>2018-03-17T15:35:10Z</time>
      </trkpt>
      <trkpt lat="46.69791" lon="-1.93418">
        <ele>5</ele>
        <time>2018-03-17T15:36:10Z</time>
      </trkpt>
      <trkpt lat="46.69792" lon="-1.93418">
        <ele>5</ele>
        <time>2018-03-17T15:37:10Z</time>
      </trkpt>
      <trkpt lat="46.69792" lon="-1.93419">
        <ele>5</ele>
        <time>2018-03-17T15:38:10Z</time>
      </trkpt>
      <trkpt lat="46.69792" lon="-1.9342">
        <ele>5</ele>
        <time>2018-03-17T15:39:10Z</time>
      </trkpt>
      <trkpt lat="46.69793" lon="-1.9342">
        <ele>5</ele>
        <time>2018-03-17T15:40:10Z</time>
      </trkpt>
      <trkpt lat="46.69797" lon="-1.93421">
        <ele>5</ele>
        <time>2018-03-17T15:41:10Z</time>
      </trkpt>
      <trkpt lat="46.69798" lon="-1.93421">
        <ele>5</ele>
        <time>2018-03-17T15:42:10Z</time>
      </trkpt>
      <trkpt lat="46.69806" lon="-1.93419">
        <ele>5</ele>
        <time>2018-03-17T15:43:10Z</time>
      </trkpt>
      <trkpt lat="46.69824" lon="-1.93411">
        <ele>5</ele>
        <time>2018-03-17T15:44:10Z</time>
      </trkpt>
      <trkpt lat="46.69835" lon="-1.93406">
        <ele>5</ele>
        <time>2018-03-17T15:45:10Z</time>
      </trkpt>
    </trkseg>
  </trk>
</gpx>